<?xml version="1.0" encoding="UTF-8"?>
<gpx xmlns="http://www.topografix.com/GPX/1/1" xmlns:ns2="http://www.garmin.com/xmlschemas/GpxExtensions/v3" xmlns:ns3="http://www.garmin.com/xmlschemas/TrackPointExtension/v1" xmlns:xsi="http://www.w3.org/2001/XMLSchema-instance" xsi:schemaLocation="http://www.topografix.com/GPX/1/1 http://www.topografix.com/GPX/11.xsd" version="1.1" creator="Garmin Connect">
  <metadata>
    <name>VR - Road 3 Brescia/Livemmo/Marmentino</name>
    <link href="connect.garmin.com">
      <text>Garmin Connect</text>
    </link>
    <time>2017-11-13T16:13:17Z</time>
  </metadata>
  <trk>
    <trkseg>
      <trkpt lat="45.5329656600952" lon="10.213143825530993">
        <ele>146.0</ele>
        <time>2017-11-13T16:13:17Z</time>
      </trkpt>
      <trkpt lat="45.53309440612793" lon="10.213208198547363">
        <ele>145.82607991567826</ele>
        <time>2017-11-13T16:13:17.219000Z</time>
      </trkpt>
      <trkpt lat="45.53367384709418" lon="10.213444232940674">
        <ele>145.05784200480988</ele>
        <time>2017-11-13T16:13:18.185000Z</time>
      </trkpt>
      <trkpt lat="45.53367376327515" lon="10.213444232940674">
        <ele>145.05777294899238</ele>
        <time>2017-11-13T16:13:18.185000Z</time>
      </trkpt>
      <trkpt lat="45.534295733800896" lon="10.213701565390748">
        <ele>144.19093164023158</ele>
        <time>2017-11-13T16:13:19.223000Z</time>
      </trkpt>
      <trkpt lat="45.53429604498796" lon="10.213701694141943">
        <ele>144.19074980740905</ele>
        <time>2017-11-13T16:13:19.223000Z</time>
      </trkpt>
      <trkpt lat="45.53429611958563" lon="10.213701725006104">
        <ele>144.1906656829191</ele>
        <time>2017-11-13T16:13:19.223000Z</time>
      </trkpt>
      <trkpt lat="45.53429610714519" lon="10.213701725006146">
        <ele>144.19065220820738</ele>
        <time>2017-11-13T16:13:19.224000Z</time>
      </trkpt>
      <trkpt lat="45.5342960357666" lon="10.213701725006104">
        <ele>144.19057489538892</ele>
        <time>2017-11-13T16:13:19.224000Z</time>
      </trkpt>
      <trkpt lat="45.53429611958563" lon="10.213701725005103">
        <ele>144.19048410785874</ele>
        <time>2017-11-13T16:13:19.224000Z</time>
      </trkpt>
      <trkpt lat="45.53440340794623" lon="10.213744640350342">
        <ele>144.06980063279545</ele>
        <time>2017-11-13T16:13:19.403000Z</time>
      </trkpt>
      <trkpt lat="45.534274661913514" lon="10.214474201202393">
        <ele>143.49897432937232</ele>
        <time>2017-11-13T16:13:20.248000Z</time>
      </trkpt>
      <trkpt lat="45.53426009279789" lon="10.214549558697124">
        <ele>143.4682414961209</ele>
        <time>2017-11-13T16:13:20.336000Z</time>
      </trkpt>
      <trkpt lat="45.534260068877835" lon="10.214549682421413">
        <ele>143.46819103799052</ele>
        <time>2017-11-13T16:13:20.336000Z</time>
      </trkpt>
      <trkpt lat="45.534260077401996" lon="10.214549638330936">
        <ele>143.46817305669606</ele>
        <time>2017-11-13T16:13:20.336000Z</time>
      </trkpt>
      <trkpt lat="45.534260077401996" lon="10.214549386873841">
        <ele>143.46807420175728</ele>
        <time>2017-11-13T16:13:20.336000Z</time>
      </trkpt>
      <trkpt lat="45.534038627520204" lon="10.215697288513184">
        <ele>143.0</ele>
        <time>2017-11-13T16:13:21.673000Z</time>
      </trkpt>
      <trkpt lat="45.53403854370117" lon="10.215697288513184">
        <ele>143.0001117357047</ele>
        <time>2017-11-13T16:13:21.673000Z</time>
      </trkpt>
      <trkpt lat="45.53384550847113" lon="10.216641426086426">
        <ele>144.2518592750827</ele>
        <time>2017-11-13T16:13:22.777000Z</time>
      </trkpt>
      <trkpt lat="45.53365238942206" lon="10.217628479003906">
        <ele>145.8755063402407</ele>
        <time>2017-11-13T16:13:23.928000Z</time>
      </trkpt>
      <trkpt lat="45.53360947407782" lon="10.217907428741455">
        <ele>145.9714381877458</ele>
        <time>2017-11-13T16:13:24.249000Z</time>
      </trkpt>
      <trkpt lat="45.53360939025879" lon="10.217907428741455">
        <ele>145.97141313310215</ele>
        <time>2017-11-13T16:13:24.249000Z</time>
      </trkpt>
      <trkpt lat="45.53354510106146" lon="10.218079090118408">
        <ele>145.9306549536941</ele>
        <time>2017-11-13T16:13:24.468000Z</time>
      </trkpt>
      <trkpt lat="45.533523643389344" lon="10.21827220916748">
        <ele>145.88971290414568</ele>
        <time>2017-11-13T16:13:24.688000Z</time>
      </trkpt>
      <trkpt lat="45.533008659258485" lon="10.220825672149658">
        <ele>145.0</ele>
        <time>2017-11-13T16:13:27.672000Z</time>
      </trkpt>
      <trkpt lat="45.53300857543945" lon="10.220825672149658">
        <ele>144.99996895994187</ele>
        <time>2017-11-13T16:13:27.672000Z</time>
      </trkpt>
      <trkpt lat="45.53279408253729" lon="10.221920013427734">
        <ele>144.10546372327704</ele>
        <time>2017-11-13T16:13:28.948000Z</time>
      </trkpt>
      <trkpt lat="45.532751167193055" lon="10.222198963165283">
        <ele>143.9644274651844</ele>
        <time>2017-11-13T16:13:29.269000Z</time>
      </trkpt>
      <trkpt lat="45.53264387883246" lon="10.2227783203125">
        <ele>143.97808816087286</ele>
        <time>2017-11-13T16:13:29.942000Z</time>
      </trkpt>
      <trkpt lat="45.53262242116034" lon="10.222885608673096">
        <ele>143.91856864388362</ele>
        <time>2017-11-13T16:13:30.067000Z</time>
      </trkpt>
      <trkpt lat="45.53260096348822" lon="10.222992897033691">
        <ele>143.85904910589724</ele>
        <time>2017-11-13T16:13:30.192000Z</time>
      </trkpt>
      <trkpt lat="45.53255804814398" lon="10.223164558410645">
        <ele>143.76182000081198</ele>
        <time>2017-11-13T16:13:30.397000Z</time>
      </trkpt>
      <trkpt lat="45.53255796432495" lon="10.223164558410645">
        <ele>143.76175617107788</ele>
        <time>2017-11-13T16:13:30.397000Z</time>
      </trkpt>
      <trkpt lat="45.53234338760376" lon="10.224559307098389">
        <ele>142.0</ele>
        <time>2017-11-13T16:13:32.001000Z</time>
      </trkpt>
      <trkpt lat="45.53232201375067" lon="10.224688053131104">
        <ele>141.9100194392217</ele>
        <time>2017-11-13T16:13:32.150000Z</time>
      </trkpt>
      <trkpt lat="45.53219326771796" lon="10.225632190704346">
        <ele>140.58922659084854</ele>
        <time>2017-11-13T16:13:33.230000Z</time>
      </trkpt>
      <trkpt lat="45.532193183898926" lon="10.225632190704346">
        <ele>140.58914521808865</ele>
        <time>2017-11-13T16:13:33.230000Z</time>
      </trkpt>
      <trkpt lat="45.53206443786621" lon="10.226490497589111">
        <ele>139.99220905899097</ele>
        <time>2017-11-13T16:13:34.216000Z</time>
      </trkpt>
      <trkpt lat="45.53184986114502" lon="10.227391719818115">
        <ele>139.0</ele>
        <time>2017-11-13T16:13:35.285000Z</time>
      </trkpt>
      <trkpt lat="45.531699657440186" lon="10.227885246276855">
        <ele>139.16948135378925</ele>
        <time>2017-11-13T16:13:35.889000Z</time>
      </trkpt>
      <trkpt lat="45.531742572784424" lon="10.228357315063477">
        <ele>139.986080694458</ele>
        <time>2017-11-13T16:13:36.424000Z</time>
      </trkpt>
      <trkpt lat="45.53182269987026" lon="10.228587816491093">
        <ele>140.06712830804202</ele>
        <time>2017-11-13T16:13:36.713000Z</time>
      </trkpt>
      <trkpt lat="45.53182276838496" lon="10.228588013588082">
        <ele>140.06719761011368</ele>
        <time>2017-11-13T16:13:36.713000Z</time>
      </trkpt>
      <trkpt lat="45.531822787597775" lon="10.228588068857789">
        <ele>140.06721704371952</ele>
        <time>2017-11-13T16:13:36.713000Z</time>
      </trkpt>
      <trkpt lat="45.531822787597775" lon="10.228587817400694">
        <ele>140.06729624416835</ele>
        <time>2017-11-13T16:13:36.713000Z</time>
      </trkpt>
      <trkpt lat="45.53208589553833" lon="10.229344367980957">
        <ele>140.33333333333334</ele>
        <time>2017-11-13T16:13:37.662000Z</time>
      </trkpt>
      <trkpt lat="45.53251504898071" lon="10.229601860046387">
        <ele>139.66666666666666</ele>
        <time>2017-11-13T16:13:38.408000Z</time>
      </trkpt>
      <trkpt lat="45.53270825184882" lon="10.229687690734863">
        <ele>139.72947293640718</ele>
        <time>2017-11-13T16:13:38.732000Z</time>
      </trkpt>
      <trkpt lat="45.532708168029785" lon="10.229687690734863">
        <ele>139.72949895354148</ele>
        <time>2017-11-13T16:13:38.732000Z</time>
      </trkpt>
      <trkpt lat="45.534532153978944" lon="10.230653285980225">
        <ele>141.0</ele>
        <time>2017-11-13T16:13:41.851000Z</time>
      </trkpt>
      <trkpt lat="45.53457506932318" lon="10.230653285980225">
        <ele>141.0391907150731</ele>
        <time>2017-11-13T16:13:41.920000Z</time>
      </trkpt>
      <trkpt lat="45.53586252965033" lon="10.23101806640625">
        <ele>145.5711766123576</ele>
        <time>2017-11-13T16:13:44.024000Z</time>
      </trkpt>
      <trkpt lat="45.53590544499457" lon="10.23103952407837">
        <ele>145.5510460788182</ele>
        <time>2017-11-13T16:13:44.097000Z</time>
      </trkpt>
      <trkpt lat="45.536026997175995" lon="10.231083732439563">
        <ele>145.49551506947446</ele>
        <time>2017-11-13T16:13:44.298000Z</time>
      </trkpt>
      <trkpt lat="45.536027064564216" lon="10.231083756948562">
        <ele>145.495484283224</ele>
        <time>2017-11-13T16:13:44.298000Z</time>
      </trkpt>
      <trkpt lat="45.53602714653911" lon="10.231083786762827">
        <ele>145.49544683305507</ele>
        <time>2017-11-13T16:13:44.298000Z</time>
      </trkpt>
      <trkpt lat="45.53602782078087" lon="10.23108403198421">
        <ele>145.49513880624326</ele>
        <time>2017-11-13T16:13:44.298000Z</time>
      </trkpt>
      <trkpt lat="45.53602773696184" lon="10.231083864346147">
        <ele>145.49507493638941</ele>
        <time>2017-11-13T16:13:44.298000Z</time>
      </trkpt>
      <trkpt lat="45.53614139556885" lon="10.231125354766846">
        <ele>145.44313837743962</ele>
        <time>2017-11-13T16:13:44.486000Z</time>
      </trkpt>
      <trkpt lat="45.53614147938788" lon="10.231382846832275">
        <ele>145.36329020867436</ele>
        <time>2017-11-13T16:13:44.775000Z</time>
      </trkpt>
      <trkpt lat="45.53612002171576" lon="10.23153305053711">
        <ele>145.1530767673028</ele>
        <time>2017-11-13T16:13:44.947000Z</time>
      </trkpt>
      <trkpt lat="45.53609848022461" lon="10.232112407684326">
        <ele>143.02415607993814</ele>
        <time>2017-11-13T16:13:45.598000Z</time>
      </trkpt>
      <trkpt lat="45.53609856404364" lon="10.232198238372803">
        <ele>142.98797603417276</ele>
        <time>2017-11-13T16:13:45.694000Z</time>
      </trkpt>
      <trkpt lat="45.53607710637152" lon="10.232326984405518">
        <ele>142.93219090007892</ele>
        <time>2017-11-13T16:13:45.843000Z</time>
      </trkpt>
      <trkpt lat="45.53603410720825" lon="10.23303508758545">
        <ele>142.9659192653915</ele>
        <time>2017-11-13T16:13:46.641000Z</time>
      </trkpt>
      <trkpt lat="45.53607702255249" lon="10.23324966430664">
        <ele>142.8718544430046</ele>
        <time>2017-11-13T16:13:46.892000Z</time>
      </trkpt>
      <trkpt lat="45.53566932678223" lon="10.234386920928955">
        <ele>142.0</ele>
        <time>2017-11-13T16:13:48.327000Z</time>
      </trkpt>
      <trkpt lat="45.53566941060126" lon="10.234386920928955">
        <ele>141.99992368498638</ele>
        <time>2017-11-13T16:13:48.327000Z</time>
      </trkpt>
      <trkpt lat="45.5354118347168" lon="10.235137939453125">
        <ele>141.13329109186125</ele>
        <time>2017-11-13T16:13:49.266000Z</time>
      </trkpt>
      <trkpt lat="45.53541191853583" lon="10.235137939453125">
        <ele>141.13321477684767</ele>
        <time>2017-11-13T16:13:49.266000Z</time>
      </trkpt>
      <trkpt lat="45.534725273028016" lon="10.23700475692749">
        <ele>139.12180580304695</ele>
        <time>2017-11-13T16:13:51.634000Z</time>
      </trkpt>
      <trkpt lat="45.5345965269953" lon="10.237369537353516">
        <ele>139.0</ele>
        <time>2017-11-13T16:13:52.093000Z</time>
      </trkpt>
      <trkpt lat="45.53410300053656" lon="10.238699913024902">
        <ele>139.09899019405097</ele>
        <time>2017-11-13T16:13:53.784000Z</time>
      </trkpt>
      <trkpt lat="45.53388842381537" lon="10.2392578125">
        <ele>141.1412399362947</ele>
        <time>2017-11-13T16:13:54.499000Z</time>
      </trkpt>
      <trkpt lat="45.53352355957031" lon="10.2402663230896">
        <ele>144.0</ele>
        <time>2017-11-13T16:13:55.774000Z</time>
      </trkpt>
      <trkpt lat="45.53333044052124" lon="10.240716934204102">
        <ele>141.21814968274472</ele>
        <time>2017-11-13T16:13:56.367000Z</time>
      </trkpt>
      <trkpt lat="45.533008659258485" lon="10.241596698760986">
        <ele>141.3754866246033</ele>
        <time>2017-11-13T16:13:57.482000Z</time>
      </trkpt>
      <trkpt lat="45.53300857543945" lon="10.241596698760986">
        <ele>141.37538502970088</ele>
        <time>2017-11-13T16:13:57.482000Z</time>
      </trkpt>
      <trkpt lat="45.53287982940674" lon="10.241940021514893">
        <ele>142.0447428842417</ele>
        <time>2017-11-13T16:13:57.919000Z</time>
      </trkpt>
      <trkpt lat="45.53285837173462" lon="10.242176055908203">
        <ele>141.57682980238522</ele>
        <time>2017-11-13T16:13:58.186000Z</time>
      </trkpt>
      <trkpt lat="45.532751167193055" lon="10.242476463317871">
        <ele>140.91403546203813</ele>
        <time>2017-11-13T16:13:58.565000Z</time>
      </trkpt>
      <trkpt lat="45.532429218292236" lon="10.243334770202637">
        <ele>137.0</ele>
        <time>2017-11-13T16:13:59.658000Z</time>
      </trkpt>
      <trkpt lat="45.53242930211127" lon="10.243334770202637">
        <ele>137.00003519695034</ele>
        <time>2017-11-13T16:13:59.658000Z</time>
      </trkpt>
      <trkpt lat="45.532118841669046" lon="10.244154140953494">
        <ele>137.27405574334898</ele>
        <time>2017-11-13T16:14:00.704000Z</time>
      </trkpt>
      <trkpt lat="45.532118768337604" lon="10.244154334487753">
        <ele>137.27412046685131</ele>
        <time>2017-11-13T16:14:00.704000Z</time>
      </trkpt>
      <trkpt lat="45.532118920236826" lon="10.244153933599591">
        <ele>137.27425453554392</ele>
        <time>2017-11-13T16:14:00.704000Z</time>
      </trkpt>
      <trkpt lat="45.532118836417794" lon="10.244154101237655">
        <ele>137.27431511984537</ele>
        <time>2017-11-13T16:14:00.705000Z</time>
      </trkpt>
      <trkpt lat="45.53189286030829" lon="10.2447509765625">
        <ele>137.14055818144755</ele>
        <time>2017-11-13T16:14:01.467000Z</time>
      </trkpt>
      <trkpt lat="45.5316782835871" lon="10.245330333709717">
        <ele>138.0</ele>
        <time>2017-11-13T16:14:02.203000Z</time>
      </trkpt>
      <trkpt lat="45.5315709952265" lon="10.245630741119385">
        <ele>136.31308355871528</ele>
        <time>2017-11-13T16:14:02.582000Z</time>
      </trkpt>
      <trkpt lat="45.531463623046875" lon="10.246210098266602">
        <ele>135.68466909417904</ele>
        <time>2017-11-13T16:14:03.255000Z</time>
      </trkpt>
      <trkpt lat="45.53142079152167" lon="10.246660709381104">
        <ele>135.20782881519065</ele>
        <time>2017-11-13T16:14:03.766000Z</time>
      </trkpt>
      <trkpt lat="45.53135641850531" lon="10.247669219970703">
        <ele>136.22271380393423</ele>
        <time>2017-11-13T16:14:04.903000Z</time>
      </trkpt>
      <trkpt lat="45.53124950403508" lon="10.248951271176711">
        <ele>137.0</ele>
        <time>2017-11-13T16:14:06.353000Z</time>
      </trkpt>
      <trkpt lat="45.53124941018933" lon="10.248952396438433">
        <ele>136.99953096973866</ele>
        <time>2017-11-13T16:14:06.355000Z</time>
      </trkpt>
      <trkpt lat="45.531249549239874" lon="10.2489507291466">
        <ele>136.99883601112836</ele>
        <time>2017-11-13T16:14:06.357000Z</time>
      </trkpt>
      <trkpt lat="45.53124946542084" lon="10.248950896784663">
        <ele>136.99875076538794</ele>
        <time>2017-11-13T16:14:06.357000Z</time>
      </trkpt>
      <trkpt lat="45.531227588653564" lon="10.249214172363281">
        <ele>137.55568476368384</ele>
        <time>2017-11-13T16:14:06.655000Z</time>
      </trkpt>
      <trkpt lat="45.53105592727661" lon="10.250179767608643">
        <ele>136.81002445085164</ele>
        <time>2017-11-13T16:14:07.774000Z</time>
      </trkpt>
      <trkpt lat="45.53088426589966" lon="10.250780582427979">
        <ele>135.664790015677</ele>
        <time>2017-11-13T16:14:08.503000Z</time>
      </trkpt>
      <trkpt lat="45.530691146850586" lon="10.2512526512146">
        <ele>132.69992853802097</ele>
        <time>2017-11-13T16:14:09.117000Z</time>
      </trkpt>
      <trkpt lat="45.530498027801514" lon="10.251445770263672">
        <ele>132.49135876468821</ele>
        <time>2017-11-13T16:14:09.495000Z</time>
      </trkpt>
      <trkpt lat="45.53043373860419" lon="10.251424312591553">
        <ele>132.43295763948362</ele>
        <time>2017-11-13T16:14:09.601000Z</time>
      </trkpt>
      <trkpt lat="45.53030499257147" lon="10.251531600952148">
        <ele>132.301089556922</ele>
        <time>2017-11-13T16:14:09.840000Z</time>
      </trkpt>
      <trkpt lat="45.53032636642456" lon="10.25172472000122">
        <ele>133.18263668945588</ele>
        <time>2017-11-13T16:14:10.060000Z</time>
      </trkpt>
      <trkpt lat="45.53015478886664" lon="10.252346992492676">
        <ele>133.91761692539663</ele>
        <time>2017-11-13T16:14:10.811000Z</time>
      </trkpt>
      <trkpt lat="45.53015470504761" lon="10.252346992492676">
        <ele>133.9177484276086</ele>
        <time>2017-11-13T16:14:10.811000Z</time>
      </trkpt>
      <trkpt lat="45.5296612624079" lon="10.253376960754395">
        <ele>135.95581184971766</ele>
        <time>2017-11-13T16:14:12.212000Z</time>
      </trkpt>
      <trkpt lat="45.528781497851014" lon="10.25522232055664">
        <ele>139.0</ele>
        <time>2017-11-13T16:14:14.719000Z</time>
      </trkpt>
      <trkpt lat="45.528760002006415" lon="10.255265162452915">
        <ele>138.90818982525852</ele>
        <time>2017-11-13T16:14:14.778000Z</time>
      </trkpt>
      <trkpt lat="45.528758166569936" lon="10.255268820532615">
        <ele>138.9003505588115</ele>
        <time>2017-11-13T16:14:14.783000Z</time>
      </trkpt>
      <trkpt lat="45.52875744178891" lon="10.255270265042782">
        <ele>138.89725497280742</ele>
        <time>2017-11-13T16:14:14.785000Z</time>
      </trkpt>
      <trkpt lat="45.52875752560794" lon="10.255270013585687">
        <ele>138.8967698104702</ele>
        <time>2017-11-13T16:14:14.785000Z</time>
      </trkpt>
      <trkpt lat="45.52871712483466" lon="10.255351066589355">
        <ele>138.7234595683257</ele>
        <time>2017-11-13T16:14:14.897000Z</time>
      </trkpt>
      <trkpt lat="45.52863129414618" lon="10.255587100982666">
        <ele>138.26013175113815</ele>
        <time>2017-11-13T16:14:15.196000Z</time>
      </trkpt>
      <trkpt lat="45.528481006622314" lon="10.256123542785645">
        <ele>138.58688875591224</ele>
        <time>2017-11-13T16:14:15.845000Z</time>
      </trkpt>
      <trkpt lat="45.528287971392274" lon="10.256574153900146">
        <ele>135.0</ele>
        <time>2017-11-13T16:14:16.438000Z</time>
      </trkpt>
      <trkpt lat="45.52830934524536" lon="10.256681442260742">
        <ele>133.98423296840096</ele>
        <time>2017-11-13T16:14:16.563000Z</time>
      </trkpt>
      <trkpt lat="45.52813768386841" lon="10.257861614227295">
        <ele>135.14718476923943</ele>
        <time>2017-11-13T16:14:17.917000Z</time>
      </trkpt>
      <trkpt lat="45.52800893783569" lon="10.258312225341797">
        <ele>135.0783944523685</ele>
        <time>2017-11-13T16:14:18.464000Z</time>
      </trkpt>
      <trkpt lat="45.52725791931152" lon="10.260329246520996">
        <ele>131.0</ele>
        <time>2017-11-13T16:14:21.029000Z</time>
      </trkpt>
      <trkpt lat="45.52702188491821" lon="10.260801315307617">
        <ele>131.23747216500297</ele>
        <time>2017-11-13T16:14:21.680000Z</time>
      </trkpt>
      <trkpt lat="45.52695759572089" lon="10.260865688323975">
        <ele>131.28336986473906</ele>
        <time>2017-11-13T16:14:21.806000Z</time>
      </trkpt>
      <trkpt lat="45.52682876586914" lon="10.261445045471191">
        <ele>131.5322562296527</ele>
        <time>2017-11-13T16:14:22.489000Z</time>
      </trkpt>
      <trkpt lat="45.52637823857367" lon="10.262389183044434">
        <ele>133.6227457331507</ele>
        <time>2017-11-13T16:14:23.772000Z</time>
      </trkpt>
      <trkpt lat="45.52590616978705" lon="10.263504981994629">
        <ele>134.18893279159394</ele>
        <time>2017-11-13T16:14:25.236000Z</time>
      </trkpt>
      <trkpt lat="45.52590608596802" lon="10.263504981994629">
        <ele>134.18877699519598</ele>
        <time>2017-11-13T16:14:25.236000Z</time>
      </trkpt>
      <trkpt lat="45.52536964416504" lon="10.2647066116333">
        <ele>131.0</ele>
        <time>2017-11-13T16:14:26.836000Z</time>
      </trkpt>
      <trkpt lat="45.52504777908325" lon="10.26522159576416">
        <ele>131.32008686830903</ele>
        <time>2017-11-13T16:14:27.611000Z</time>
      </trkpt>
      <trkpt lat="45.52470454014838" lon="10.265629291534424">
        <ele>129.66666666666666</ele>
        <time>2017-11-13T16:14:28.327000Z</time>
      </trkpt>
      <trkpt lat="45.52453279495239" lon="10.2657151222229">
        <ele>129.76880684364096</ele>
        <time>2017-11-13T16:14:28.619000Z</time>
      </trkpt>
      <trkpt lat="45.524489963427186" lon="10.2657151222229">
        <ele>129.7928485140637</ele>
        <time>2017-11-13T16:14:28.688000Z</time>
      </trkpt>
      <trkpt lat="45.52436121739447" lon="10.265843868255615">
        <ele>130.547752384646</ele>
        <time>2017-11-13T16:14:28.940000Z</time>
      </trkpt>
      <trkpt lat="45.52433967590332" lon="10.265929698944092">
        <ele>130.58360618414363</ele>
        <time>2017-11-13T16:14:29.042000Z</time>
      </trkpt>
      <trkpt lat="45.52408218383789" lon="10.266294479370117">
        <ele>130.78724373925346</ele>
        <time>2017-11-13T16:14:29.624000Z</time>
      </trkpt>
      <trkpt lat="45.52377178106444" lon="10.266604964987547">
        <ele>131.0</ele>
        <time>2017-11-13T16:14:30.232000Z</time>
      </trkpt>
      <trkpt lat="45.52376919968" lon="10.266607547043055">
        <ele>131.00171977822126</ele>
        <time>2017-11-13T16:14:30.237000Z</time>
      </trkpt>
      <trkpt lat="45.52376803010702" lon="10.266608716920018">
        <ele>131.00249897487188</ele>
        <time>2017-11-13T16:14:30.239000Z</time>
      </trkpt>
      <trkpt lat="45.523545825853944" lon="10.266830921173096">
        <ele>131.1505241275713</ele>
        <time>2017-11-13T16:14:30.674000Z</time>
      </trkpt>
      <trkpt lat="45.52313804626465" lon="10.26721715927124">
        <ele>131.41753444442224</ele>
        <time>2017-11-13T16:14:31.459000Z</time>
      </trkpt>
      <trkpt lat="45.52255868911743" lon="10.267839431762695">
        <ele>132.1464593209868</ele>
        <time>2017-11-13T16:14:32.621000Z</time>
      </trkpt>
      <trkpt lat="45.52212953567505" lon="10.268397331237793">
        <ele>132.66666666666666</ele>
        <time>2017-11-13T16:14:33.552000Z</time>
      </trkpt>
      <trkpt lat="45.52212961949408" lon="10.268397331237793">
        <ele>132.6667005055143</ele>
        <time>2017-11-13T16:14:33.552000Z</time>
      </trkpt>
      <trkpt lat="45.52152872085571" lon="10.269427299499512">
        <ele>132.71247961639838</ele>
        <time>2017-11-13T16:14:35.057000Z</time>
      </trkpt>
      <trkpt lat="45.52109956741333" lon="10.270543098449707">
        <ele>134.40585488418796</ele>
        <time>2017-11-13T16:14:36.487000Z</time>
      </trkpt>
      <trkpt lat="45.52086353302002" lon="10.271401405334473">
        <ele>135.33333333333334</ele>
        <time>2017-11-13T16:14:37.523000Z</time>
      </trkpt>
      <trkpt lat="45.52067041397095" lon="10.272560119628906">
        <ele>134.51682548299485</ele>
        <time>2017-11-13T16:14:38.861000Z</time>
      </trkpt>
      <trkpt lat="45.52067049778998" lon="10.272560119628906">
        <ele>134.5168377731362</ele>
        <time>2017-11-13T16:14:38.861000Z</time>
      </trkpt>
      <trkpt lat="45.52056320942938" lon="10.273439884185791">
        <ele>134.94191233572352</ele>
        <time>2017-11-13T16:14:39.864000Z</time>
      </trkpt>
      <trkpt lat="45.520498836413026" lon="10.273997783660889">
        <ele>135.0</ele>
        <time>2017-11-13T16:14:40.499000Z</time>
      </trkpt>
      <trkpt lat="45.52032717503607" lon="10.275371074676514">
        <ele>136.68761741318883</ele>
        <time>2017-11-13T16:14:42.066000Z</time>
      </trkpt>
      <trkpt lat="45.520305717363954" lon="10.275499820709229">
        <ele>136.87934091332298</ele>
        <time>2017-11-13T16:14:42.215000Z</time>
      </trkpt>
      <trkpt lat="45.520241344347596" lon="10.276036262512207">
        <ele>138.66782063168156</ele>
        <time>2017-11-13T16:14:42.826000Z</time>
      </trkpt>
      <trkpt lat="45.52019842900336" lon="10.276336669921875">
        <ele>139.64710466743838</ele>
        <time>2017-11-13T16:14:43.170000Z</time>
      </trkpt>
      <trkpt lat="45.52009114064276" lon="10.277795791625977">
        <ele>148.0</ele>
        <time>2017-11-13T16:14:44.818000Z</time>
      </trkpt>
      <trkpt lat="45.52009114064276" lon="10.277924537658691">
        <ele>147.51931864843075</ele>
        <time>2017-11-13T16:14:44.963000Z</time>
      </trkpt>
      <trkpt lat="45.52006968297064" lon="10.278160572052002">
        <ele>146.63068242001086</ele>
        <time>2017-11-13T16:14:45.230000Z</time>
      </trkpt>
      <trkpt lat="45.520026767626405" lon="10.27897596359253">
        <ele>144.2444535425768</ele>
        <time>2017-11-13T16:14:46.148000Z</time>
      </trkpt>
      <trkpt lat="45.5200067400753" lon="10.279058177870217">
        <ele>143.91947817873708</ele>
        <time>2017-11-13T16:14:46.246000Z</time>
      </trkpt>
      <trkpt lat="45.520005704928785" lon="10.27906242719936">
        <ele>143.90268149040662</ele>
        <time>2017-11-13T16:14:46.251000Z</time>
      </trkpt>
      <trkpt lat="45.520005226135254" lon="10.279064392670989">
        <ele>143.89491240172168</ele>
        <time>2017-11-13T16:14:46.253000Z</time>
      </trkpt>
      <trkpt lat="45.51985510624945" lon="10.279684066772461">
        <ele>136.78026017812596</ele>
        <time>2017-11-13T16:14:46.989000Z</time>
      </trkpt>
      <trkpt lat="45.51968336105347" lon="10.280306339263916">
        <ele>134.88143145499035</ele>
        <time>2017-11-13T16:14:47.740000Z</time>
      </trkpt>
      <trkpt lat="45.5196834448725" lon="10.280306339263916">
        <ele>134.88132183028438</ele>
        <time>2017-11-13T16:14:47.741000Z</time>
      </trkpt>
      <trkpt lat="45.51946886815131" lon="10.281057357788086">
        <ele>133.4714162324547</ele>
        <time>2017-11-13T16:14:48.652000Z</time>
      </trkpt>
      <trkpt lat="45.519232833758" lon="10.281829833984375">
        <ele>132.93523608492382</ele>
        <time>2017-11-13T16:14:49.599000Z</time>
      </trkpt>
      <trkpt lat="45.51921137608588" lon="10.281894207000732">
        <ele>132.91807738898697</ele>
        <time>2017-11-13T16:14:49.679000Z</time>
      </trkpt>
      <trkpt lat="45.5189323425293" lon="10.282859802246094">
        <ele>133.0</ele>
        <time>2017-11-13T16:14:50.852000Z</time>
      </trkpt>
      <trkpt lat="45.51893242634833" lon="10.282859802246094">
        <ele>133.0000263010387</ele>
        <time>2017-11-13T16:14:50.852000Z</time>
      </trkpt>
      <trkpt lat="45.518760764971375" lon="10.283546447753906">
        <ele>132.8269808281744</ele>
        <time>2017-11-13T16:14:51.671000Z</time>
      </trkpt>
      <trkpt lat="45.51871784962714" lon="10.283632278442383">
        <ele>132.85016365953516</ele>
        <time>2017-11-13T16:14:51.789000Z</time>
      </trkpt>
      <trkpt lat="45.51861056126654" lon="10.284039974212646">
        <ele>132.94591358602824</ele>
        <time>2017-11-13T16:14:52.278000Z</time>
      </trkpt>
      <trkpt lat="45.51818140782416" lon="10.28569221496582">
        <ele>134.0</ele>
        <time>2017-11-13T16:14:54.257000Z</time>
      </trkpt>
      <trkpt lat="45.51813849247992" lon="10.285842418670654">
        <ele>134.0494344986857</ele>
        <time>2017-11-13T16:14:54.439000Z</time>
      </trkpt>
      <trkpt lat="45.517988288775086" lon="10.286486148834229">
        <ele>134.25620605267417</ele>
        <time>2017-11-13T16:14:55.201000Z</time>
      </trkpt>
      <trkpt lat="45.51785954274237" lon="10.287044048309326">
        <ele>135.00921332448968</ele>
        <time>2017-11-13T16:14:55.861000Z</time>
      </trkpt>
      <trkpt lat="45.517773712053895" lon="10.287408828735352">
        <ele>135.2841470433548</ele>
        <time>2017-11-13T16:14:56.293000Z</time>
      </trkpt>
      <trkpt lat="45.51745184697211" lon="10.288803577423096">
        <ele>137.0</ele>
        <time>2017-11-13T16:14:57.943000Z</time>
      </trkpt>
      <trkpt lat="45.51743038929999" lon="10.288867950439453">
        <ele>136.98635906722436</ele>
        <time>2017-11-13T16:14:58.023000Z</time>
      </trkpt>
      <trkpt lat="45.51712998189032" lon="10.29017686843872">
        <ele>136.72279601291888</ele>
        <time>2017-11-13T16:14:59.570000Z</time>
      </trkpt>
      <trkpt lat="45.51695832051337" lon="10.290906429290771">
        <ele>136.70511534105088</ele>
        <time>2017-11-13T16:15:00.435000Z</time>
      </trkpt>
      <trkpt lat="45.516293132677674" lon="10.293760299682617">
        <ele>134.0</ele>
        <time>2017-11-13T16:15:03.814000Z</time>
      </trkpt>
      <trkpt lat="45.51612147130072" lon="10.29444694519043">
        <ele>134.0</ele>
        <time>2017-11-13T16:15:04.633000Z</time>
      </trkpt>
      <trkpt lat="45.51594980992377" lon="10.29517650604248">
        <ele>134.28135635672712</ele>
        <time>2017-11-13T16:15:05.498000Z</time>
      </trkpt>
      <trkpt lat="45.51564931869507" lon="10.296549797058105">
        <ele>137.47399722548508</ele>
        <time>2017-11-13T16:15:07.114000Z</time>
      </trkpt>
      <trkpt lat="45.51552057266235" lon="10.29667854309082">
        <ele>136.93520011650546</ele>
        <time>2017-11-13T16:15:07.366000Z</time>
      </trkpt>
      <trkpt lat="45.51547774113715" lon="10.29670000076294">
        <ele>136.97212271828104</ele>
        <time>2017-11-13T16:15:07.439000Z</time>
      </trkpt>
      <trkpt lat="45.51543482579291" lon="10.296850204467773">
        <ele>137.06457432065588</ele>
        <time>2017-11-13T16:15:07.621000Z</time>
      </trkpt>
      <trkpt lat="45.515477657318115" lon="10.29691457748413">
        <ele>137.11516899305886</ele>
        <time>2017-11-13T16:15:07.721000Z</time>
      </trkpt>
      <trkpt lat="45.515499114990234" lon="10.297214984893799">
        <ele>137.2872732687933</ele>
        <time>2017-11-13T16:15:08.060000Z</time>
      </trkpt>
      <trkpt lat="45.51496275700629" lon="10.299510955810547">
        <ele>140.0</ele>
        <time>2017-11-13T16:15:10.779000Z</time>
      </trkpt>
      <trkpt lat="45.514812553301454" lon="10.300133228302002">
        <ele>139.89113013753322</ele>
        <time>2017-11-13T16:15:11.518000Z</time>
      </trkpt>
      <trkpt lat="45.514512145891786" lon="10.30142068862915">
        <ele>139.0</ele>
        <time>2017-11-13T16:15:13.042000Z</time>
      </trkpt>
      <trkpt lat="45.51446923054755" lon="10.301549434661865">
        <ele>139.0</ele>
        <time>2017-11-13T16:15:13.202000Z</time>
      </trkpt>
      <trkpt lat="45.51431902684271" lon="10.302236080169678">
        <ele>140.0</ele>
        <time>2017-11-13T16:15:14.010000Z</time>
      </trkpt>
      <trkpt lat="45.5140829924494" lon="10.3031587600708">
        <ele>139.0</ele>
        <time>2017-11-13T16:15:15.113000Z</time>
      </trkpt>
      <trkpt lat="45.51397570408881" lon="10.303587913513184">
        <ele>138.9660896128963</ele>
        <time>2017-11-13T16:15:15.625000Z</time>
      </trkpt>
      <trkpt lat="45.51367521286011" lon="10.304896831512451">
        <ele>138.53024964118893</ele>
        <time>2017-11-13T16:15:17.172000Z</time>
      </trkpt>
      <trkpt lat="45.51367529667914" lon="10.304896831512451">
        <ele>138.53036881899956</ele>
        <time>2017-11-13T16:15:17.172000Z</time>
      </trkpt>
      <trkpt lat="45.513525092974305" lon="10.305519104003906">
        <ele>139.51945299368666</ele>
        <time>2017-11-13T16:15:17.911000Z</time>
      </trkpt>
      <trkpt lat="45.5134391784668" lon="10.305862426757812">
        <ele>140.21601278545384</ele>
        <time>2017-11-13T16:15:18.321000Z</time>
      </trkpt>
      <trkpt lat="45.51335343159735" lon="10.306077003479004">
        <ele>140.46212615312757</ele>
        <time>2017-11-13T16:15:18.598000Z</time>
      </trkpt>
      <trkpt lat="45.513246059417725" lon="10.306248664855957">
        <ele>141.35922865461893</ele>
        <time>2017-11-13T16:15:18.856000Z</time>
      </trkpt>
      <trkpt lat="45.51316031254828" lon="10.306334495544434">
        <ele>141.37604955682795</ele>
        <time>2017-11-13T16:15:19.024000Z</time>
      </trkpt>
      <trkpt lat="45.51316031254828" lon="10.306570529937744">
        <ele>141.40261282373393</ele>
        <time>2017-11-13T16:15:19.289000Z</time>
      </trkpt>
      <trkpt lat="45.51318168640137" lon="10.306613445281982">
        <ele>141.40853809861295</ele>
        <time>2017-11-13T16:15:19.348000Z</time>
      </trkpt>
      <trkpt lat="45.5131817702204" lon="10.306828022003174">
        <ele>141.4326865176177</ele>
        <time>2017-11-13T16:15:19.589000Z</time>
      </trkpt>
      <trkpt lat="45.51318168640137" lon="10.306956768035889">
        <ele>141.4471755730442</ele>
        <time>2017-11-13T16:15:19.734000Z</time>
      </trkpt>
      <trkpt lat="45.51313885487616" lon="10.307085514068604">
        <ele>141.46321458967782</ele>
        <time>2017-11-13T16:15:19.894000Z</time>
      </trkpt>
      <trkpt lat="45.513031566515565" lon="10.307557582855225">
        <ele>141.5190655747917</ele>
        <time>2017-11-13T16:15:20.452000Z</time>
      </trkpt>
      <trkpt lat="45.51208742894232" lon="10.311613082885742">
        <ele>142.0</ele>
        <time>2017-11-13T16:15:25.253000Z</time>
      </trkpt>
      <trkpt lat="45.51208734512329" lon="10.311613082885742">
        <ele>142.0</ele>
        <time>2017-11-13T16:15:25.253000Z</time>
      </trkpt>
      <trkpt lat="45.512023055925965" lon="10.311827659606934">
        <ele>142.0</ele>
        <time>2017-11-13T16:15:25.515000Z</time>
      </trkpt>
      <trkpt lat="45.51191576756537" lon="10.312364101409912">
        <ele>142.41981724597147</ele>
        <time>2017-11-13T16:15:26.142000Z</time>
      </trkpt>
      <trkpt lat="45.51167964935303" lon="10.31339406967163">
        <ele>143.90200649906603</ele>
        <time>2017-11-13T16:15:27.359000Z</time>
      </trkpt>
      <trkpt lat="45.5111647490412" lon="10.315475463867188">
        <ele>146.0</ele>
        <time>2017-11-13T16:15:29.839000Z</time>
      </trkpt>
      <trkpt lat="45.51116466522217" lon="10.315475463867188">
        <ele>145.99998350194437</ele>
        <time>2017-11-13T16:15:29.839000Z</time>
      </trkpt>
      <trkpt lat="45.51095017232001" lon="10.316376686096191">
        <ele>146.53536840553213</ele>
        <time>2017-11-13T16:15:30.908000Z</time>
      </trkpt>
      <trkpt lat="45.510714054107666" lon="10.317363739013672">
        <ele>145.72484044335175</ele>
        <time>2017-11-13T16:15:32.080000Z</time>
      </trkpt>
      <trkpt lat="45.51054239273071" lon="10.317707061767578">
        <ele>145.12051594941258</ele>
        <time>2017-11-13T16:15:32.554000Z</time>
      </trkpt>
      <trkpt lat="45.510499561205506" lon="10.317728519439697">
        <ele>145.0819682527709</ele>
        <time>2017-11-13T16:15:32.627000Z</time>
      </trkpt>
      <trkpt lat="45.51043518818915" lon="10.31792163848877">
        <ele>144.95470808854756</ele>
        <time>2017-11-13T16:15:32.867000Z</time>
      </trkpt>
      <trkpt lat="45.510478019714355" lon="10.318028926849365">
        <ele>144.88122945464463</ele>
        <time>2017-11-13T16:15:33.006000Z</time>
      </trkpt>
      <trkpt lat="45.51043510437012" lon="10.318522453308105">
        <ele>144.25195492971895</ele>
        <time>2017-11-13T16:15:33.565000Z</time>
      </trkpt>
      <trkpt lat="45.5101562384516" lon="10.319702625274658">
        <ele>144.80593353955132</ele>
        <time>2017-11-13T16:15:34.964000Z</time>
      </trkpt>
      <trkpt lat="45.50981283187866" lon="10.32116174697876">
        <ele>144.0</ele>
        <time>2017-11-13T16:15:36.693000Z</time>
      </trkpt>
      <trkpt lat="45.50966262817383" lon="10.321526527404785">
        <ele>144.0598615069032</ele>
        <time>2017-11-13T16:15:37.168000Z</time>
      </trkpt>
      <trkpt lat="45.50959825515747" lon="10.3216552734375">
        <ele>144.1060404135546</ele>
        <time>2017-11-13T16:15:37.346000Z</time>
      </trkpt>
      <trkpt lat="45.50961971282959" lon="10.321762561798096">
        <ele>144.471950869408</ele>
        <time>2017-11-13T16:15:37.471000Z</time>
      </trkpt>
      <trkpt lat="45.50955533981323" lon="10.322234630584717">
        <ele>144.61237218305632</ele>
        <time>2017-11-13T16:15:38.011000Z</time>
      </trkpt>
      <trkpt lat="45.508267963305116" lon="10.327835083007812">
        <ele>147.0</ele>
        <time>2017-11-13T16:15:44.633000Z</time>
      </trkpt>
      <trkpt lat="45.507701452430894" lon="10.33019519603677">
        <ele>149.0</ele>
        <time>2017-11-13T16:15:47.436000Z</time>
      </trkpt>
      <trkpt lat="45.507700430990376" lon="10.330199451183937">
        <ele>149.0</ele>
        <time>2017-11-13T16:15:47.441000Z</time>
      </trkpt>
      <trkpt lat="45.507701095193624" lon="10.330196684226394">
        <ele>149.00086804661765</ele>
        <time>2017-11-13T16:15:47.444000Z</time>
      </trkpt>
      <trkpt lat="45.507701179012656" lon="10.330196348950267">
        <ele>149.00097369538778</ele>
        <time>2017-11-13T16:15:47.444000Z</time>
      </trkpt>
      <trkpt lat="45.50762423314154" lon="10.330517292022705">
        <ele>149.2365745381882</ele>
        <time>2017-11-13T16:15:47.825000Z</time>
      </trkpt>
      <trkpt lat="45.50762414932251" lon="10.330517292022705">
        <ele>149.23665761034198</ele>
        <time>2017-11-13T16:15:47.826000Z</time>
      </trkpt>
      <trkpt lat="45.50749548710883" lon="10.331075191497803">
        <ele>149.64460031119415</ele>
        <time>2017-11-13T16:15:48.486000Z</time>
      </trkpt>
      <trkpt lat="45.50734528340399" lon="10.331697463989258">
        <ele>150.76839890133695</ele>
        <time>2017-11-13T16:15:49.225000Z</time>
      </trkpt>
      <trkpt lat="45.50732374191284" lon="10.331783294677734">
        <ele>150.83172215518985</ele>
        <time>2017-11-13T16:15:49.327000Z</time>
      </trkpt>
      <trkpt lat="45.50719507969916" lon="10.332319736480713">
        <ele>151.09665446050045</ele>
        <time>2017-11-13T16:15:49.964000Z</time>
      </trkpt>
      <trkpt lat="45.50717362202704" lon="10.33238410949707">
        <ele>151.09757547729617</ele>
        <time>2017-11-13T16:15:50.044000Z</time>
      </trkpt>
      <trkpt lat="45.50717353820801" lon="10.332577228546143">
        <ele>151.76673733291744</ele>
        <time>2017-11-13T16:15:50.261000Z</time>
      </trkpt>
      <trkpt lat="45.50708770751953" lon="10.332856178283691">
        <ele>151.77067357286882</ele>
        <time>2017-11-13T16:15:50.603000Z</time>
      </trkpt>
      <trkpt lat="45.50687620044538" lon="10.333617901467765">
        <ele>151.44792598855818</ele>
        <time>2017-11-13T16:15:51.524000Z</time>
      </trkpt>
      <trkpt lat="45.50687352599279" lon="10.333627533108327">
        <ele>151.44264975281422</ele>
        <time>2017-11-13T16:15:51.536000Z</time>
      </trkpt>
      <trkpt lat="45.50687321461737" lon="10.33362865447998">
        <ele>151.44203546271558</ele>
        <time>2017-11-13T16:15:51.538000Z</time>
      </trkpt>
      <trkpt lat="45.50687313079834" lon="10.33362865447998">
        <ele>151.44197455190763</ele>
        <time>2017-11-13T16:15:51.538000Z</time>
      </trkpt>
      <trkpt lat="45.50863265991211" lon="10.334937572479248">
        <ele>149.0</ele>
        <time>2017-11-13T16:15:54.719000Z</time>
      </trkpt>
      <trkpt lat="45.50891920893393" lon="10.335510588055529">
        <ele>149.0889741338046</ele>
        <time>2017-11-13T16:15:55.510000Z</time>
      </trkpt>
      <trkpt lat="45.50892342624508" lon="10.335519021550406">
        <ele>149.09206992361058</ele>
        <time>2017-11-13T16:15:55.522000Z</time>
      </trkpt>
      <trkpt lat="45.50892426632345" lon="10.335520701482892">
        <ele>149.09268659766295</ele>
        <time>2017-11-13T16:15:55.524000Z</time>
      </trkpt>
      <trkpt lat="45.508924182504416" lon="10.33552061766386">
        <ele>149.09273023912053</ele>
        <time>2017-11-13T16:15:55.524000Z</time>
      </trkpt>
      <trkpt lat="45.50919064320624" lon="10.336053371429443">
        <ele>149.28830623834162</ele>
        <time>2017-11-13T16:15:56.259000Z</time>
      </trkpt>
      <trkpt lat="45.50919055938721" lon="10.336053371429443">
        <ele>149.28834197741028</ele>
        <time>2017-11-13T16:15:56.259000Z</time>
      </trkpt>
      <trkpt lat="45.509727001190186" lon="10.337061882019043">
        <ele>150.0</ele>
        <time>2017-11-13T16:15:57.681000Z</time>
      </trkpt>
      <trkpt lat="45.510851966058866" lon="10.339463126895081">
        <ele>150.0</ele>
        <time>2017-11-13T16:16:00.926000Z</time>
      </trkpt>
      <trkpt lat="45.5108560012036" lon="10.339471740304013">
        <ele>150.00242817270842</ele>
        <time>2017-11-13T16:16:00.938000Z</time>
      </trkpt>
      <trkpt lat="45.5108555406332" lon="10.339470757171512">
        <ele>150.00270532376453</ele>
        <time>2017-11-13T16:16:00.939000Z</time>
      </trkpt>
      <trkpt lat="45.51085537299514" lon="10.339470505714417">
        <ele>150.00278666287576</ele>
        <time>2017-11-13T16:16:00.939000Z</time>
      </trkpt>
      <trkpt lat="45.511958599090576" lon="10.341825485229492">
        <ele>151.0</ele>
        <time>2017-11-13T16:16:04.121000Z</time>
      </trkpt>
      <trkpt lat="45.51341772079468" lon="10.344958305358887">
        <ele>164.0</ele>
        <time>2017-11-13T16:16:08.347000Z</time>
      </trkpt>
      <trkpt lat="45.51416873931885" lon="10.346825122833252">
        <ele>159.0</ele>
        <time>2017-11-13T16:16:10.765000Z</time>
      </trkpt>
      <trkpt lat="45.51442623138428" lon="10.347683429718018">
        <ele>155.11198098301142</ele>
        <time>2017-11-13T16:16:11.814000Z</time>
      </trkpt>
      <trkpt lat="45.514469146728516" lon="10.348005294799805">
        <ele>154.91733068374165</ele>
        <time>2017-11-13T16:16:12.182000Z</time>
      </trkpt>
      <trkpt lat="45.514512062072754" lon="10.348820686340332">
        <ele>154.43154391729195</ele>
        <time>2017-11-13T16:16:13.101000Z</time>
      </trkpt>
      <trkpt lat="45.514512062072754" lon="10.35010814666748">
        <ele>153.0</ele>
        <time>2017-11-13T16:16:14.547000Z</time>
      </trkpt>
      <trkpt lat="45.514490604400635" lon="10.352082252502441">
        <ele>153.78149408412034</ele>
        <time>2017-11-13T16:16:16.765000Z</time>
      </trkpt>
      <trkpt lat="45.5144476890564" lon="10.352253913879395">
        <ele>153.79209425410036</ele>
        <time>2017-11-13T16:16:16.970000Z</time>
      </trkpt>
      <trkpt lat="45.51457651890814" lon="10.352575778961182">
        <ele>154.14698582536332</ele>
        <time>2017-11-13T16:16:17.386000Z</time>
      </trkpt>
      <trkpt lat="45.514474436752856" lon="10.355776530494087">
        <ele>154.0</ele>
        <time>2017-11-13T16:16:20.985000Z</time>
      </trkpt>
      <trkpt lat="45.514474030976295" lon="10.355789247868293">
        <ele>154.0</ele>
        <time>2017-11-13T16:16:20.999000Z</time>
      </trkpt>
      <trkpt lat="45.51447417587042" lon="10.355784706771374">
        <ele>154.00090563654206</ele>
        <time>2017-11-13T16:16:21.004000Z</time>
      </trkpt>
      <trkpt lat="45.51447417587042" lon="10.355784874409437">
        <ele>154.000939034202</ele>
        <time>2017-11-13T16:16:21.004000Z</time>
      </trkpt>
      <trkpt lat="45.51446923054755" lon="10.355944633483887">
        <ele>154.03279804717815</ele>
        <time>2017-11-13T16:16:21.184000Z</time>
      </trkpt>
      <trkpt lat="45.5144476890564" lon="10.356330871582031">
        <ele>154.10998963734627</ele>
        <time>2017-11-13T16:16:21.619000Z</time>
      </trkpt>
      <trkpt lat="45.514533603563905" lon="10.35635232925415">
        <ele>154.13478731101299</ele>
        <time>2017-11-13T16:16:21.759000Z</time>
      </trkpt>
      <trkpt lat="45.51468372344971" lon="10.356245040893555">
        <ele>154.18252102891896</ele>
        <time>2017-11-13T16:16:22.028000Z</time>
      </trkpt>
      <trkpt lat="45.51470526494086" lon="10.356287956237793">
        <ele>154.2075199458193</ele>
        <time>2017-11-13T16:16:22.087000Z</time>
      </trkpt>
      <trkpt lat="45.514705181121826" lon="10.356802940368652">
        <ele>154.11805974255378</ele>
        <time>2017-11-13T16:16:22.666000Z</time>
      </trkpt>
      <trkpt lat="45.514769554138184" lon="10.357167720794678">
        <ele>154.2961967750778</ele>
        <time>2017-11-13T16:16:23.089000Z</time>
      </trkpt>
      <trkpt lat="45.514748096466064" lon="10.357253551483154">
        <ele>154.33935162443927</ele>
        <time>2017-11-13T16:16:23.191000Z</time>
      </trkpt>
      <trkpt lat="45.514769554138184" lon="10.358648300170898">
        <ele>156.0</ele>
        <time>2017-11-13T16:16:24.758000Z</time>
      </trkpt>
      <trkpt lat="45.51485538482666" lon="10.35886287689209">
        <ele>155.90740289093318</ele>
        <time>2017-11-13T16:16:25.036000Z</time>
      </trkpt>
      <trkpt lat="45.5146408919245" lon="10.358905792236328">
        <ele>155.79156270264153</ele>
        <time>2017-11-13T16:16:25.383000Z</time>
      </trkpt>
      <trkpt lat="45.51446923054755" lon="10.358905792236328">
        <ele>155.69975226376718</ele>
        <time>2017-11-13T16:16:25.658000Z</time>
      </trkpt>
      <trkpt lat="45.5144476890564" lon="10.358905792236328">
        <ele>155.68823112959203</ele>
        <time>2017-11-13T16:16:25.693000Z</time>
      </trkpt>
      <trkpt lat="45.51440477371216" lon="10.361630916595459">
        <ele>154.0</ele>
        <time>2017-11-13T16:16:28.755000Z</time>
      </trkpt>
      <trkpt lat="45.51429748535156" lon="10.36285400390625">
        <ele>155.4609314754508</ele>
        <time>2017-11-13T16:16:30.140000Z</time>
      </trkpt>
      <trkpt lat="45.51440477371216" lon="10.36334753036499">
        <ele>154.8477549906507</ele>
        <time>2017-11-13T16:16:30.720000Z</time>
      </trkpt>
      <trkpt lat="45.51453351974487" lon="10.3635835647583">
        <ele>154.8999734537545</ele>
        <time>2017-11-13T16:16:31.056000Z</time>
      </trkpt>
      <trkpt lat="45.51704903662751" lon="10.366113418565668">
        <ele>156.0</ele>
        <time>2017-11-13T16:16:35.989000Z</time>
      </trkpt>
      <trkpt lat="45.517061549226575" lon="10.366126003184744">
        <ele>156.0</ele>
        <time>2017-11-13T16:16:36.014000Z</time>
      </trkpt>
      <trkpt lat="45.51706292666495" lon="10.366127388551831">
        <ele>156.00038074143848</ele>
        <time>2017-11-13T16:16:36.017000Z</time>
      </trkpt>
      <trkpt lat="45.517062759026885" lon="10.3661273047328">
        <ele>156.0004610551844</ele>
        <time>2017-11-13T16:16:36.017000Z</time>
      </trkpt>
      <trkpt lat="45.5182671546936" lon="10.36733865737915">
        <ele>157.0</ele>
        <time>2017-11-13T16:16:38.379000Z</time>
      </trkpt>
      <trkpt lat="45.51936149597168" lon="10.368947982788086">
        <ele>155.97937840087818</ele>
        <time>2017-11-13T16:16:40.898000Z</time>
      </trkpt>
      <trkpt lat="45.5217004660517" lon="10.37257432937622">
        <ele>160.0</ele>
        <time>2017-11-13T16:16:46.434000Z</time>
      </trkpt>
      <trkpt lat="45.521700382232666" lon="10.37257432937622">
        <ele>160.0</ele>
        <time>2017-11-13T16:16:46.434000Z</time>
      </trkpt>
      <trkpt lat="45.521957874298096" lon="10.372745990753174">
        <ele>160.0908262683075</ele>
        <time>2017-11-13T16:16:46.890000Z</time>
      </trkpt>
      <trkpt lat="45.52236557006836" lon="10.372660160064697">
        <ele>160.38698927905844</ele>
        <time>2017-11-13T16:16:47.551000Z</time>
      </trkpt>
      <trkpt lat="45.522751808166504" lon="10.372660160064697">
        <ele>160.99789482841427</ele>
        <time>2017-11-13T16:16:48.170000Z</time>
      </trkpt>
      <trkpt lat="45.52277326583862" lon="10.372703075408936">
        <ele>161.02444127658853</ele>
        <time>2017-11-13T16:16:48.229000Z</time>
      </trkpt>
      <trkpt lat="45.522751808166504" lon="10.372874736785889">
        <ele>161.08052209230712</ele>
        <time>2017-11-13T16:16:48.425000Z</time>
      </trkpt>
      <trkpt lat="45.52281626500189" lon="10.37407636642456">
        <ele>161.80144947956487</ele>
        <time>2017-11-13T16:16:49.779000Z</time>
      </trkpt>
      <trkpt lat="45.52273043431342" lon="10.374226570129395">
        <ele>161.8322550734872</ele>
        <time>2017-11-13T16:16:49.997000Z</time>
      </trkpt>
      <trkpt lat="45.522751891985536" lon="10.374312400817871">
        <ele>161.84673887690388</ele>
        <time>2017-11-13T16:16:50.099000Z</time>
      </trkpt>
      <trkpt lat="45.522751808166504" lon="10.374312400817871">
        <ele>161.84675789084767</ele>
        <time>2017-11-13T16:16:50.099000Z</time>
      </trkpt>
      <trkpt lat="45.52464008331299" lon="10.378711223602295">
        <ele>163.0</ele>
        <time>2017-11-13T16:16:55.893000Z</time>
      </trkpt>
      <trkpt lat="45.52642107009888" lon="10.38257360458374">
        <ele>166.0</ele>
        <time>2017-11-13T16:17:01.086000Z</time>
      </trkpt>
      <trkpt lat="45.526485526934266" lon="10.382938385009766">
        <ele>166.0</ele>
        <time>2017-11-13T16:17:01.509000Z</time>
      </trkpt>
      <trkpt lat="45.526485443115234" lon="10.382938385009766">
        <ele>165.99999139429266</ele>
        <time>2017-11-13T16:17:01.509000Z</time>
      </trkpt>
      <trkpt lat="45.52781581878662" lon="10.387165546417236">
        <ele>165.0</ele>
        <time>2017-11-13T16:17:06.714000Z</time>
      </trkpt>
      <trkpt lat="45.52809476852417" lon="10.387766361236572">
        <ele>166.0</ele>
        <time>2017-11-13T16:17:07.524000Z</time>
      </trkpt>
      <trkpt lat="45.52841663360596" lon="10.389096736907959">
        <ele>167.33333333333334</ele>
        <time>2017-11-13T16:17:09.105000Z</time>
      </trkpt>
      <trkpt lat="45.52906036376953" lon="10.390727519989014">
        <ele>166.0</ele>
        <time>2017-11-13T16:17:11.207000Z</time>
      </trkpt>
      <trkpt lat="45.53090572357178" lon="10.39607048034668">
        <ele>172.0</ele>
        <time>2017-11-13T16:17:17.897000Z</time>
      </trkpt>
      <trkpt lat="45.53090572357178" lon="10.396199226379395">
        <ele>172.0</ele>
        <time>2017-11-13T16:17:18.042000Z</time>
      </trkpt>
      <trkpt lat="45.53103446960449" lon="10.396456718444824">
        <ele>172.0</ele>
        <time>2017-11-13T16:17:18.397000Z</time>
      </trkpt>
      <trkpt lat="45.53154953755438" lon="10.397958755493164">
        <ele>172.0</ele>
        <time>2017-11-13T16:17:20.275000Z</time>
      </trkpt>
      <trkpt lat="45.53281545639038" lon="10.401585102081299">
        <ele>174.0</ele>
        <time>2017-11-13T16:17:24.825000Z</time>
      </trkpt>
      <trkpt lat="45.53303003311157" lon="10.402164459228516">
        <ele>174.09950570047036</ele>
        <time>2017-11-13T16:17:25.561000Z</time>
      </trkpt>
      <trkpt lat="45.5333948135376" lon="10.402872562408447">
        <ele>174.23296361198823</ele>
        <time>2017-11-13T16:17:26.548000Z</time>
      </trkpt>
      <trkpt lat="45.53358793258667" lon="10.403473377227783">
        <ele>175.0</ele>
        <time>2017-11-13T16:17:27.290000Z</time>
      </trkpt>
      <trkpt lat="45.53410291671753" lon="10.404610633850098">
        <ele>175.22559985556805</ele>
        <time>2017-11-13T16:17:28.811000Z</time>
      </trkpt>
      <trkpt lat="45.53433895111084" lon="10.405662059783936">
        <ele>176.07620148035278</ele>
        <time>2017-11-13T16:17:30.051000Z</time>
      </trkpt>
      <trkpt lat="45.53483247756958" lon="10.40703535079956">
        <ele>177.0</ele>
        <time>2017-11-13T16:17:31.784000Z</time>
      </trkpt>
      <trkpt lat="45.53508996963501" lon="10.407636165618896">
        <ele>177.78019809055763</ele>
        <time>2017-11-13T16:17:32.575000Z</time>
      </trkpt>
      <trkpt lat="45.535433292388916" lon="10.408129692077637">
        <ele>177.8923117326091</ele>
        <time>2017-11-13T16:17:33.356000Z</time>
      </trkpt>
      <trkpt lat="45.535712242126465" lon="10.408666133880615">
        <ele>178.0</ele>
        <time>2017-11-13T16:17:34.106000Z</time>
      </trkpt>
      <trkpt lat="45.53601264953613" lon="10.4095458984375">
        <ele>178.0707469523173</ele>
        <time>2017-11-13T16:17:35.205000Z</time>
      </trkpt>
      <trkpt lat="45.53646334446967" lon="10.410597324371338">
        <ele>178.27295875770585</ele>
        <time>2017-11-13T16:17:36.589000Z</time>
      </trkpt>
      <trkpt lat="45.53704261779785" lon="10.412850379943848">
        <ele>179.0</ele>
        <time>2017-11-13T16:17:39.284000Z</time>
      </trkpt>
      <trkpt lat="45.53730010986328" lon="10.414073467254639">
        <ele>180.87541014785347</ele>
        <time>2017-11-13T16:17:40.718000Z</time>
      </trkpt>
      <trkpt lat="45.537772262468934" lon="10.415811538696289">
        <ele>183.0</ele>
        <time>2017-11-13T16:17:42.811000Z</time>
      </trkpt>
      <trkpt lat="45.5377721786499" lon="10.415811538696289">
        <ele>183.0000365609557</ele>
        <time>2017-11-13T16:17:42.811000Z</time>
      </trkpt>
      <trkpt lat="45.53858765400946" lon="10.417656898498535">
        <ele>184.0</ele>
        <time>2017-11-13T16:17:45.261000Z</time>
      </trkpt>
      <trkpt lat="45.53867348469794" lon="10.41780710220337">
        <ele>183.94131851613213</ele>
        <time>2017-11-13T16:17:45.479000Z</time>
      </trkpt>
      <trkpt lat="45.53925275802612" lon="10.419116020202637">
        <ele>182.80595611681815</ele>
        <time>2017-11-13T16:17:47.218000Z</time>
      </trkpt>
      <trkpt lat="45.539467334747314" lon="10.419459342956543">
        <ele>182.41285745147175</ele>
        <time>2017-11-13T16:17:47.735000Z</time>
      </trkpt>
      <trkpt lat="45.54335125721991" lon="10.424137115478516">
        <ele>187.0</ele>
        <time>2017-11-13T16:17:55.881000Z</time>
      </trkpt>
      <trkpt lat="45.54335117340088" lon="10.424137115478516">
        <ele>187.0</ele>
        <time>2017-11-13T16:17:55.881000Z</time>
      </trkpt>
      <trkpt lat="45.546293495772474" lon="10.426476281443286">
        <ele>191.0</ele>
        <time>2017-11-13T16:18:01.280000Z</time>
      </trkpt>
      <trkpt lat="45.54630687014185" lon="10.42648691480214">
        <ele>190.98261049496543</ele>
        <time>2017-11-13T16:18:01.305000Z</time>
      </trkpt>
      <trkpt lat="45.54630906321108" lon="10.426488658413291">
        <ele>190.97975904156542</ele>
        <time>2017-11-13T16:18:01.309000Z</time>
      </trkpt>
      <trkpt lat="45.54630889557302" lon="10.426488490775228">
        <ele>190.97952655010735</ele>
        <time>2017-11-13T16:18:01.309000Z</time>
      </trkpt>
      <trkpt lat="45.54680585861206" lon="10.426883697509766">
        <ele>189.0</ele>
        <time>2017-11-13T16:18:02.221000Z</time>
      </trkpt>
      <trkpt lat="45.54691323079169" lon="10.426948070526123">
        <ele>188.97752582641837</ele>
        <time>2017-11-13T16:18:02.408000Z</time>
      </trkpt>
      <trkpt lat="45.549702644348145" lon="10.429565906524658">
        <ele>188.0</ele>
        <time>2017-11-13T16:18:07.759000Z</time>
      </trkpt>
      <trkpt lat="45.55126913823187" lon="10.430939197540283">
        <ele>192.0</ele>
        <time>2017-11-13T16:18:10.706000Z</time>
      </trkpt>
      <trkpt lat="45.55126905441284" lon="10.430939197540283">
        <ele>191.99996890785542</ele>
        <time>2017-11-13T16:18:10.706000Z</time>
      </trkpt>
      <trkpt lat="45.55206298828125" lon="10.43154001235962">
        <ele>191.0</ele>
        <time>2017-11-13T16:18:12.146000Z</time>
      </trkpt>
      <trkpt lat="45.55489540100098" lon="10.433406829833984">
        <ele>188.0</ele>
        <time>2017-11-13T16:18:17.147000Z</time>
      </trkpt>
      <trkpt lat="45.55910110473633" lon="10.436303615570068">
        <ele>191.0</ele>
        <time>2017-11-13T16:18:24.633000Z</time>
      </trkpt>
      <trkpt lat="45.56036710739136" lon="10.437376499176025">
        <ele>194.0</ele>
        <time>2017-11-13T16:18:26.993000Z</time>
      </trkpt>
      <trkpt lat="45.56113958358765" lon="10.43825626373291">
        <ele>189.0</ele>
        <time>2017-11-13T16:18:28.577000Z</time>
      </trkpt>
      <trkpt lat="45.56330680847168" lon="10.440530776977539">
        <ele>190.0</ele>
        <time>2017-11-13T16:18:32.888000Z</time>
      </trkpt>
      <trkpt lat="45.563907623291016" lon="10.441088676452637">
        <ele>190.0</ele>
        <time>2017-11-13T16:18:34.037000Z</time>
      </trkpt>
      <trkpt lat="45.56440123356879" lon="10.441367626190186">
        <ele>192.2172912992602</ele>
        <time>2017-11-13T16:18:34.888000Z</time>
      </trkpt>
      <trkpt lat="45.564401149749756" lon="10.441367626190186">
        <ele>192.21732560930786</ele>
        <time>2017-11-13T16:18:34.888000Z</time>
      </trkpt>
      <trkpt lat="45.565452575683594" lon="10.441818237304688">
        <ele>192.0</ele>
        <time>2017-11-13T16:18:36.648000Z</time>
      </trkpt>
      <trkpt lat="45.56809186935425" lon="10.442032814025879">
        <ele>192.0</ele>
        <time>2017-11-13T16:18:40.886000Z</time>
      </trkpt>
      <trkpt lat="45.56907892227173" lon="10.441968441009521">
        <ele>193.77952530195705</ele>
        <time>2017-11-13T16:18:42.470000Z</time>
      </trkpt>
      <trkpt lat="45.57101011276245" lon="10.441453456878662">
        <ele>196.0</ele>
        <time>2017-11-13T16:18:45.619000Z</time>
      </trkpt>
      <trkpt lat="45.571932876482606" lon="10.441303253173828">
        <ele>195.0</ele>
        <time>2017-11-13T16:18:47.108000Z</time>
      </trkpt>
      <trkpt lat="45.57281255722046" lon="10.441131591796875">
        <ele>194.82663080739425</ele>
        <time>2017-11-13T16:18:48.531000Z</time>
      </trkpt>
      <trkpt lat="45.57324171066284" lon="10.440981388092041">
        <ele>194.74035223970694</ele>
        <time>2017-11-13T16:18:49.239000Z</time>
      </trkpt>
      <trkpt lat="45.57525873184204" lon="10.440230369567871">
        <ele>193.0</ele>
        <time>2017-11-13T16:18:52.581000Z</time>
      </trkpt>
      <trkpt lat="45.57543581566973" lon="10.440138310474804">
        <ele>193.0</ele>
        <time>2017-11-13T16:18:52.883000Z</time>
      </trkpt>
      <trkpt lat="45.57543587950661" lon="10.440138277288337">
        <ele>193.0</ele>
        <time>2017-11-13T16:18:52.883000Z</time>
      </trkpt>
      <trkpt lat="45.57545020048411" lon="10.440130832334079">
        <ele>193.0</ele>
        <time>2017-11-13T16:18:52.907000Z</time>
      </trkpt>
      <trkpt lat="45.575452856719494" lon="10.440129451453686">
        <ele>193.0</ele>
        <time>2017-11-13T16:18:52.911000Z</time>
      </trkpt>
      <trkpt lat="45.57545277290046" lon="10.44012961909175">
        <ele>193.0</ele>
        <time>2017-11-13T16:18:52.911000Z</time>
      </trkpt>
      <trkpt lat="45.57579525746405" lon="10.439951419830322">
        <ele>194.0</ele>
        <time>2017-11-13T16:18:53.495000Z</time>
      </trkpt>
      <trkpt lat="45.575902462005615" lon="10.439929962158203">
        <ele>193.0</ele>
        <time>2017-11-13T16:18:53.669000Z</time>
      </trkpt>
      <trkpt lat="45.57626724243164" lon="10.439822673797607">
        <ele>193.2678553029599</ele>
        <time>2017-11-13T16:18:54.266000Z</time>
      </trkpt>
      <trkpt lat="45.576159954071045" lon="10.439457893371582">
        <ele>193.68115566760537</ele>
        <time>2017-11-13T16:18:54.710000Z</time>
      </trkpt>
      <trkpt lat="45.57616003789008" lon="10.439457893371582">
        <ele>193.68128074997136</ele>
        <time>2017-11-13T16:18:54.710000Z</time>
      </trkpt>
      <trkpt lat="45.57585954666138" lon="10.438363552093506">
        <ele>195.9091837258915</ele>
        <time>2017-11-13T16:18:56.029000Z</time>
      </trkpt>
      <trkpt lat="45.575687885284424" lon="10.43750524520874">
        <ele>197.17494246228216</ele>
        <time>2017-11-13T16:18:57.031000Z</time>
      </trkpt>
      <trkpt lat="45.57573080062866" lon="10.43750524520874">
        <ele>197.243595309507</ele>
        <time>2017-11-13T16:18:57.100000Z</time>
      </trkpt>
      <trkpt lat="45.57579517364502" lon="10.43726921081543">
        <ele>197.8605823829197</ele>
        <time>2017-11-13T16:18:57.384000Z</time>
      </trkpt>
      <trkpt lat="45.575881004333496" lon="10.437097549438477">
        <ele>198.3701795630782</ele>
        <time>2017-11-13T16:18:57.621000Z</time>
      </trkpt>
      <trkpt lat="45.57609558105469" lon="10.436947345733643">
        <ele>198.655410010598</ele>
        <time>2017-11-13T16:18:58.004000Z</time>
      </trkpt>
      <trkpt lat="45.57616003789008" lon="10.436947345733643">
        <ele>198.73235113785984</ele>
        <time>2017-11-13T16:18:58.107000Z</time>
      </trkpt>
      <trkpt lat="45.57624586857855" lon="10.436947345733643">
        <ele>198.83480590290037</ele>
        <time>2017-11-13T16:18:58.245000Z</time>
      </trkpt>
      <trkpt lat="45.57645360576244" lon="10.436969529007424">
        <ele>199.01535771342</ele>
        <time>2017-11-13T16:18:58.579000Z</time>
      </trkpt>
      <trkpt lat="45.57645375707119" lon="10.436969545165049">
        <ele>199.0154892212689</ele>
        <time>2017-11-13T16:18:58.579000Z</time>
      </trkpt>
      <trkpt lat="45.57646887077932" lon="10.436971159093096">
        <ele>199.0286250854033</ele>
        <time>2017-11-13T16:18:58.603000Z</time>
      </trkpt>
      <trkpt lat="45.57647192850709" lon="10.436971485614777">
        <ele>199.0312826659377</ele>
        <time>2017-11-13T16:18:58.608000Z</time>
      </trkpt>
      <trkpt lat="45.57647184468806" lon="10.436971485614777">
        <ele>199.0313553134018</ele>
        <time>2017-11-13T16:18:58.609000Z</time>
      </trkpt>
      <trkpt lat="45.57684668339789" lon="10.43701171875">
        <ele>200.02381701919833</ele>
        <time>2017-11-13T16:18:59.212000Z</time>
      </trkpt>
      <trkpt lat="45.57703980244696" lon="10.43703317642212">
        <ele>200.19170221256795</ele>
        <time>2017-11-13T16:18:59.523000Z</time>
      </trkpt>
      <trkpt lat="45.577447498217225" lon="10.437054634094238">
        <ele>200.5452991739969</ele>
        <time>2017-11-13T16:19:00.177000Z</time>
      </trkpt>
      <trkpt lat="45.57749041356146" lon="10.437054634094238">
        <ele>200.5410038497739</ele>
        <time>2017-11-13T16:19:00.246000Z</time>
      </trkpt>
      <trkpt lat="45.57783373631537" lon="10.437097549438477">
        <ele>200.17317665676578</ele>
        <time>2017-11-13T16:19:00.798000Z</time>
      </trkpt>
      <trkpt lat="45.577962482348084" lon="10.437097549438477">
        <ele>200.15694025093407</ele>
        <time>2017-11-13T16:19:01.004000Z</time>
      </trkpt>
      <trkpt lat="45.57905682362616" lon="10.437204837799072">
        <ele>199.6852728849483</ele>
        <time>2017-11-13T16:19:02.763000Z</time>
      </trkpt>
      <trkpt lat="45.579443061724305" lon="10.437226295471191">
        <ele>200.48224786969345</ele>
        <time>2017-11-13T16:19:03.383000Z</time>
      </trkpt>
      <trkpt lat="45.579679096117616" lon="10.43724775314331">
        <ele>200.7659430242401</ele>
        <time>2017-11-13T16:19:03.762000Z</time>
      </trkpt>
      <trkpt lat="45.58015116490424" lon="10.437290668487549">
        <ele>202.0</ele>
        <time>2017-11-13T16:19:04.520000Z</time>
      </trkpt>
      <trkpt lat="45.580451572313905" lon="10.437312126159668">
        <ele>203.1177456126924</ele>
        <time>2017-11-13T16:19:05.002000Z</time>
      </trkpt>
      <trkpt lat="45.58045148849487" lon="10.437312126159668">
        <ele>203.1180570946719</ele>
        <time>2017-11-13T16:19:05.002000Z</time>
      </trkpt>
      <trkpt lat="45.58075197972357" lon="10.437333583831787">
        <ele>204.2361137860253</ele>
        <time>2017-11-13T16:19:05.484000Z</time>
      </trkpt>
      <trkpt lat="45.58090218342841" lon="10.437355041503906">
        <ele>207.13040598074733</ele>
        <time>2017-11-13T16:19:05.726000Z</time>
      </trkpt>
      <trkpt lat="45.581224048510194" lon="10.437376499176025">
        <ele>208.32779810247314</ele>
        <time>2017-11-13T16:19:06.243000Z</time>
      </trkpt>
      <trkpt lat="45.581460082903504" lon="10.437376499176025">
        <ele>209.2049313567393</ele>
        <time>2017-11-13T16:19:06.621000Z</time>
      </trkpt>
      <trkpt lat="45.58163174428046" lon="10.437355041503906">
        <ele>209.43221103072946</ele>
        <time>2017-11-13T16:19:06.897000Z</time>
      </trkpt>
      <trkpt lat="45.581674659624696" lon="10.437355041503906">
        <ele>210.8221480760307</ele>
        <time>2017-11-13T16:19:06.966000Z</time>
      </trkpt>
      <trkpt lat="45.58203944005072" lon="10.437290668487549">
        <ele>211.30693554285995</ele>
        <time>2017-11-13T16:19:07.555000Z</time>
      </trkpt>
      <trkpt lat="45.58203935623169" lon="10.437290668487549">
        <ele>211.30682066260633</ele>
        <time>2017-11-13T16:19:07.555000Z</time>
      </trkpt>
      <trkpt lat="45.58253288269043" lon="10.437204837799072">
        <ele>208.62541343934208</ele>
        <time>2017-11-13T16:19:08.352000Z</time>
      </trkpt>
      <trkpt lat="45.58306932449341" lon="10.43701171875">
        <ele>208.31618671593537</ele>
        <time>2017-11-13T16:19:09.239000Z</time>
      </trkpt>
      <trkpt lat="45.584163749590516" lon="10.436453819274902">
        <ele>208.0</ele>
        <time>2017-11-13T16:19:11.102000Z</time>
      </trkpt>
      <trkpt lat="45.58439978398383" lon="10.436389446258545">
        <ele>205.35611527078603</ele>
        <time>2017-11-13T16:19:11.487000Z</time>
      </trkpt>
      <trkpt lat="45.58450707234442" lon="10.436389446258545">
        <ele>205.0686302992152</ele>
        <time>2017-11-13T16:19:11.659000Z</time>
      </trkpt>
      <trkpt lat="45.584687261073334" lon="10.436494588223479">
        <ele>204.5470966023266</ele>
        <time>2017-11-13T16:19:11.971000Z</time>
      </trkpt>
      <trkpt lat="45.58468731030427" lon="10.43649461695035">
        <ele>204.5469541094732</ele>
        <time>2017-11-13T16:19:11.971000Z</time>
      </trkpt>
      <trkpt lat="45.58470143253497" lon="10.436502857447236">
        <ele>204.50607906186542</ele>
        <time>2017-11-13T16:19:11.995000Z</time>
      </trkpt>
      <trkpt lat="45.58470429852605" lon="10.43650452978909">
        <ele>204.49778380537998</ele>
        <time>2017-11-13T16:19:12Z</time>
      </trkpt>
      <trkpt lat="45.58470421470702" lon="10.436504362151027">
        <ele>204.49739744634516</ele>
        <time>2017-11-13T16:19:12Z</time>
      </trkpt>
      <trkpt lat="45.585114746548264" lon="10.436378970553275">
        <ele>203.3725033517925</ele>
        <time>2017-11-13T16:19:12.673000Z</time>
      </trkpt>
      <trkpt lat="45.58511499372599" lon="10.436378895055455">
        <ele>203.37239348636035</ele>
        <time>2017-11-13T16:19:12.673000Z</time>
      </trkpt>
      <trkpt lat="45.58512971596348" lon="10.436374398305112">
        <ele>203.36584975369001</ele>
        <time>2017-11-13T16:19:12.697000Z</time>
      </trkpt>
      <trkpt lat="45.58513313824811" lon="10.436373353004456">
        <ele>203.36432861833336</ele>
        <time>2017-11-13T16:19:12.703000Z</time>
      </trkpt>
      <trkpt lat="45.58546262785439" lon="10.43609189499679">
        <ele>203.19747174933673</ele>
        <time>2017-11-13T16:19:13.318000Z</time>
      </trkpt>
      <trkpt lat="45.58547576698803" lon="10.436080671149691">
        <ele>203.19081794699045</ele>
        <time>2017-11-13T16:19:13.343000Z</time>
      </trkpt>
      <trkpt lat="45.58547853103871" lon="10.436078310012817">
        <ele>203.1894182010999</ele>
        <time>2017-11-13T16:19:13.348000Z</time>
      </trkpt>
      <trkpt lat="45.5860156864619" lon="10.435896797401513">
        <ele>201.9494984489162</ele>
        <time>2017-11-13T16:19:14.233000Z</time>
      </trkpt>
      <trkpt lat="45.586015993520135" lon="10.435896693641032">
        <ele>201.9493613016917</ele>
        <time>2017-11-13T16:19:14.233000Z</time>
      </trkpt>
      <trkpt lat="45.586030583175436" lon="10.435891763534974">
        <ele>201.942844848244</ele>
        <time>2017-11-13T16:19:14.257000Z</time>
      </trkpt>
      <trkpt lat="45.58603415846018" lon="10.435890555381775">
        <ele>201.94124795123454</ele>
        <time>2017-11-13T16:19:14.263000Z</time>
      </trkpt>
      <trkpt lat="45.58605194091797" lon="10.435895919799805">
        <ele>201.93334825700143</ele>
        <time>2017-11-13T16:19:14.292000Z</time>
      </trkpt>
      <trkpt lat="45.586052024737" lon="10.435895919799805">
        <ele>201.9333118242408</ele>
        <time>2017-11-13T16:19:14.292000Z</time>
      </trkpt>
      <trkpt lat="45.586609840393066" lon="10.43553113937378">
        <ele>203.0</ele>
        <time>2017-11-13T16:19:15.275000Z</time>
      </trkpt>
      <trkpt lat="45.58718919754028" lon="10.43553113937378">
        <ele>203.44008284349877</ele>
        <time>2017-11-13T16:19:16.204000Z</time>
      </trkpt>
      <trkpt lat="45.58723219670355" lon="10.435552597045898">
        <ele>203.47467972531535</ele>
        <time>2017-11-13T16:19:16.277000Z</time>
      </trkpt>
      <trkpt lat="45.58768272399902" lon="10.435616970062256">
        <ele>204.48527600205878</ele>
        <time>2017-11-13T16:19:17.003000Z</time>
      </trkpt>
      <trkpt lat="45.58781045510352" lon="10.435713319179788">
        <ele>204.4682179453179</ele>
        <time>2017-11-13T16:19:17.235000Z</time>
      </trkpt>
      <trkpt lat="45.58782399234415" lon="10.435723530513439">
        <ele>204.46641009161078</ele>
        <time>2017-11-13T16:19:17.260000Z</time>
      </trkpt>
      <trkpt lat="45.587843069806695" lon="10.435737920925021">
        <ele>204.46386235941313</ele>
        <time>2017-11-13T16:19:17.295000Z</time>
      </trkpt>
      <trkpt lat="45.58784290216863" lon="10.435737753286958">
        <ele>204.46383819457074</ele>
        <time>2017-11-13T16:19:17.295000Z</time>
      </trkpt>
      <trkpt lat="45.58881998062134" lon="10.436475276947021">
        <ele>204.0</ele>
        <time>2017-11-13T16:19:19.067000Z</time>
      </trkpt>
      <trkpt lat="45.58929213322699" lon="10.436904430389404">
        <ele>204.6362906370247</ele>
        <time>2017-11-13T16:19:19.964000Z</time>
      </trkpt>
      <trkpt lat="45.58929204940796" lon="10.436904430389404">
        <ele>204.63633601743712</ele>
        <time>2017-11-13T16:19:19.965000Z</time>
      </trkpt>
      <trkpt lat="45.59083700180054" lon="10.43849229812622">
        <ele>206.0</ele>
        <time>2017-11-13T16:19:23.016000Z</time>
      </trkpt>
      <trkpt lat="45.59120178222656" lon="10.438921451568604">
        <ele>206.65344767789142</ele>
        <time>2017-11-13T16:19:23.773000Z</time>
      </trkpt>
      <trkpt lat="45.59130907058716" lon="10.439071655273438">
        <ele>206.4392096229193</ele>
        <time>2017-11-13T16:19:24.014000Z</time>
      </trkpt>
      <trkpt lat="45.591499952112606" lon="10.439379235955402">
        <ele>204.69552408563553</ele>
        <time>2017-11-13T16:19:24.475000Z</time>
      </trkpt>
      <trkpt lat="45.59151010919085" lon="10.439395602858147">
        <ele>204.6736885901131</ele>
        <time>2017-11-13T16:19:24.500000Z</time>
      </trkpt>
      <trkpt lat="45.5915243178606" lon="10.439418498426676">
        <ele>204.64314304313743</ele>
        <time>2017-11-13T16:19:24.534000Z</time>
      </trkpt>
      <trkpt lat="45.59152423404157" lon="10.43941824696958">
        <ele>204.6435733688228</ele>
        <time>2017-11-13T16:19:24.534000Z</time>
      </trkpt>
      <trkpt lat="45.5916953086853" lon="10.439693927764893">
        <ele>208.21285123855046</ele>
        <time>2017-11-13T16:19:24.947000Z</time>
      </trkpt>
      <trkpt lat="45.59178113937378" lon="10.439844131469727">
        <ele>208.29225818078325</ele>
        <time>2017-11-13T16:19:25.165000Z</time>
      </trkpt>
      <trkpt lat="45.59182405471802" lon="10.439865589141846">
        <ele>208.3188635119225</ele>
        <time>2017-11-13T16:19:25.238000Z</time>
      </trkpt>
      <trkpt lat="45.592103004455566" lon="10.440123081207275">
        <ele>206.17985354093307</ele>
        <time>2017-11-13T16:19:25.770000Z</time>
      </trkpt>
      <trkpt lat="45.59212454594672" lon="10.440144538879395">
        <ele>206.19521894301297</ele>
        <time>2017-11-13T16:19:25.812000Z</time>
      </trkpt>
      <trkpt lat="45.592191664577015" lon="10.440194863776837">
        <ele>206.2395721555512</ele>
        <time>2017-11-13T16:19:25.934000Z</time>
      </trkpt>
      <trkpt lat="45.59220521976417" lon="10.440205027341202">
        <ele>206.2485296726376</ele>
        <time>2017-11-13T16:19:25.959000Z</time>
      </trkpt>
      <trkpt lat="45.59222470968962" lon="10.440219640731812">
        <ele>206.26140897488952</ele>
        <time>2017-11-13T16:19:25.994000Z</time>
      </trkpt>
      <trkpt lat="45.592224542051554" lon="10.440219473093748">
        <ele>206.26152870286748</ele>
        <time>2017-11-13T16:19:25.994000Z</time>
      </trkpt>
      <trkpt lat="45.59229620732367" lon="10.44027328491211">
        <ele>206.30890122720152</ele>
        <time>2017-11-13T16:19:26.124000Z</time>
      </trkpt>
      <trkpt lat="45.592446411028504" lon="10.440359115600586">
        <ele>206.40356148337796</ele>
        <time>2017-11-13T16:19:26.383000Z</time>
      </trkpt>
      <trkpt lat="45.59244632720947" lon="10.440359115600586">
        <ele>206.40361053139142</ele>
        <time>2017-11-13T16:19:26.383000Z</time>
      </trkpt>
      <trkpt lat="45.592896938323975" lon="10.44050931930542">
        <ele>207.34103740766207</ele>
        <time>2017-11-13T16:19:27.125000Z</time>
      </trkpt>
      <trkpt lat="45.59303512489906" lon="10.440516630411043">
        <ele>207.3406587030577</ele>
        <time>2017-11-13T16:19:27.347000Z</time>
      </trkpt>
      <trkpt lat="45.59303522682429" lon="10.440516635803636">
        <ele>207.34065842372843</ele>
        <time>2017-11-13T16:19:27.347000Z</time>
      </trkpt>
      <trkpt lat="45.59305042208811" lon="10.440517439749236">
        <ele>207.34061678063551</ele>
        <time>2017-11-13T16:19:27.371000Z</time>
      </trkpt>
      <trkpt lat="45.59307279065251" lon="10.44051862321794">
        <ele>207.3405554788892</ele>
        <time>2017-11-13T16:19:27.407000Z</time>
      </trkpt>
      <trkpt lat="45.59307270683348" lon="10.44051862321794">
        <ele>207.34055524933783</ele>
        <time>2017-11-13T16:19:27.407000Z</time>
      </trkpt>
      <trkpt lat="45.59570789337158" lon="10.440659523010254">
        <ele>208.0</ele>
        <time>2017-11-13T16:19:31.635000Z</time>
      </trkpt>
      <trkpt lat="45.596201503649354" lon="10.440616607666016">
        <ele>208.0</ele>
        <time>2017-11-13T16:19:32.428000Z</time>
      </trkpt>
      <trkpt lat="45.597403049468994" lon="10.440165996551514">
        <ele>207.33333333333334</ele>
        <time>2017-11-13T16:19:34.419000Z</time>
      </trkpt>
      <trkpt lat="45.5977463722229" lon="10.43952226638794">
        <ele>208.0</ele>
        <time>2017-11-13T16:19:35.327000Z</time>
      </trkpt>
      <trkpt lat="45.597939575091004" lon="10.439393520355225">
        <ele>209.18540364649297</ele>
        <time>2017-11-13T16:19:35.669000Z</time>
      </trkpt>
      <trkpt lat="45.59813269414008" lon="10.439350605010986">
        <ele>210.2722026054315</ele>
        <time>2017-11-13T16:19:35.982000Z</time>
      </trkpt>
      <trkpt lat="45.59823989868164" lon="10.439350605010986">
        <ele>210.86834500817008</ele>
        <time>2017-11-13T16:19:36.154000Z</time>
      </trkpt>
      <trkpt lat="45.59851884841919" lon="10.43975830078125">
        <ele>216.08699160857802</ele>
        <time>2017-11-13T16:19:36.794000Z</time>
      </trkpt>
      <trkpt lat="45.59892008997481" lon="10.440259754439674">
        <ele>216.5103080606308</ele>
        <time>2017-11-13T16:19:37.648000Z</time>
      </trkpt>
      <trkpt lat="45.598931613809754" lon="10.440274156556953">
        <ele>216.57033355926524</ele>
        <time>2017-11-13T16:19:37.673000Z</time>
      </trkpt>
      <trkpt lat="45.598948085680604" lon="10.440294742584229">
        <ele>216.65613246542728</ele>
        <time>2017-11-13T16:19:37.708000Z</time>
      </trkpt>
      <trkpt lat="45.59894800186157" lon="10.440294742584229">
        <ele>216.65646113091984</ele>
        <time>2017-11-13T16:19:37.708000Z</time>
      </trkpt>
      <trkpt lat="45.598948085680604" lon="10.440294742583228">
        <ele>216.65678979641234</ele>
        <time>2017-11-13T16:19:37.708000Z</time>
      </trkpt>
      <trkpt lat="45.59894800186157" lon="10.440294742585229">
        <ele>216.65711846190496</ele>
        <time>2017-11-13T16:19:37.708000Z</time>
      </trkpt>
      <trkpt lat="45.59929132461548" lon="10.440917015075684">
        <ele>222.83125141738046</ele>
        <time>2017-11-13T16:19:38.597000Z</time>
      </trkpt>
      <trkpt lat="45.59954881668091" lon="10.441131591796875">
        <ele>224.0</ele>
        <time>2017-11-13T16:19:39.075000Z</time>
      </trkpt>
      <trkpt lat="45.600149631500244" lon="10.442032814025879">
        <ele>231.02069269943414</ele>
        <time>2017-11-13T16:19:40.471000Z</time>
      </trkpt>
      <trkpt lat="45.6006646156311" lon="10.442655086517334">
        <ele>224.73573993563775</ele>
        <time>2017-11-13T16:19:41.552000Z</time>
      </trkpt>
      <trkpt lat="45.60124397277832" lon="10.442912578582764">
        <ele>238.6698946573661</ele>
        <time>2017-11-13T16:19:42.525000Z</time>
      </trkpt>
      <trkpt lat="45.60152292251587" lon="10.442976951599121">
        <ele>240.6716633479441</ele>
        <time>2017-11-13T16:19:42.978000Z</time>
      </trkpt>
      <trkpt lat="45.60175895690918" lon="10.443191528320312">
        <ele>246.28879312098124</ele>
        <time>2017-11-13T16:19:43.426000Z</time>
      </trkpt>
      <trkpt lat="45.601844787597656" lon="10.443363189697266">
        <ele>237.55903462014396</ele>
        <time>2017-11-13T16:19:43.663000Z</time>
      </trkpt>
      <trkpt lat="45.60201644897461" lon="10.443878173828125">
        <ele>235.58603639073968</ele>
        <time>2017-11-13T16:19:44.303000Z</time>
      </trkpt>
      <trkpt lat="45.60205936431885" lon="10.444457530975342">
        <ele>229.90435210056134</ele>
        <time>2017-11-13T16:19:44.956000Z</time>
      </trkpt>
      <trkpt lat="45.602145195007324" lon="10.44475793838501">
        <ele>229.77907506909654</ele>
        <time>2017-11-13T16:19:45.320000Z</time>
      </trkpt>
      <trkpt lat="45.60218811035156" lon="10.446774959564209">
        <ele>230.0</ele>
        <time>2017-11-13T16:19:47.583000Z</time>
      </trkpt>
      <trkpt lat="45.6023383140564" lon="10.447525978088379">
        <ele>231.99582665835317</ele>
        <time>2017-11-13T16:19:48.459000Z</time>
      </trkpt>
      <trkpt lat="45.60249942360625" lon="10.448116609277427">
        <ele>235.50931694907646</ele>
        <time>2017-11-13T16:19:49.170000Z</time>
      </trkpt>
      <trkpt lat="45.602504984312624" lon="10.448136995210287">
        <ele>248.36324886087138</ele>
        <time>2017-11-13T16:19:49.195000Z</time>
      </trkpt>
      <trkpt lat="45.602512741461396" lon="10.448165433481336">
        <ele>248.33675467775936</ele>
        <time>2017-11-13T16:19:49.229000Z</time>
      </trkpt>
      <trkpt lat="45.602512657642365" lon="10.44816518202424">
        <ele>248.33651290599335</ele>
        <time>2017-11-13T16:19:49.229000Z</time>
      </trkpt>
      <trkpt lat="45.60253143310547" lon="10.44823408126831">
        <ele>248.272331985096</ele>
        <time>2017-11-13T16:19:49.312000Z</time>
      </trkpt>
      <trkpt lat="45.60257434844971" lon="10.448555946350098">
        <ele>241.98792495457542</ele>
        <time>2017-11-13T16:19:49.680000Z</time>
      </trkpt>
      <trkpt lat="45.602896213531494" lon="10.449349880218506">
        <ele>236.85812460109753</ele>
        <time>2017-11-13T16:19:50.709000Z</time>
      </trkpt>
      <trkpt lat="45.60296058654785" lon="10.449671745300293">
        <ele>236.56755699762093</ele>
        <time>2017-11-13T16:19:51.084000Z</time>
      </trkpt>
      <trkpt lat="45.60347557067871" lon="10.451087951660156">
        <ele>238.46748678095207</ele>
        <time>2017-11-13T16:19:52.874000Z</time>
      </trkpt>
      <trkpt lat="45.60356140136719" lon="10.451409816741943">
        <ele>238.97668718769046</ele>
        <time>2017-11-13T16:19:53.260000Z</time>
      </trkpt>
      <trkpt lat="45.60422658920288" lon="10.453448295593262">
        <ele>254.82445402503959</ele>
        <time>2017-11-13T16:19:55.783000Z</time>
      </trkpt>
      <trkpt lat="45.6046986579895" lon="10.455679893493652">
        <ele>238.0</ele>
        <time>2017-11-13T16:19:58.398000Z</time>
      </trkpt>
      <trkpt lat="45.60467720031738" lon="10.456452369689941">
        <ele>224.4608976097472</ele>
        <time>2017-11-13T16:19:59.265000Z</time>
      </trkpt>
      <trkpt lat="45.60472011566162" lon="10.456838607788086">
        <ele>220.29611529803321</ele>
        <time>2017-11-13T16:19:59.704000Z</time>
      </trkpt>
      <trkpt lat="45.6048059463501" lon="10.457203388214111">
        <ele>219.71845483589027</ele>
        <time>2017-11-13T16:20:00.136000Z</time>
      </trkpt>
      <trkpt lat="45.6048011052211" lon="10.457203388214149">
        <ele>219.70806841460202</ele>
        <time>2017-11-13T16:20:00.144000Z</time>
      </trkpt>
      <trkpt lat="45.60478579742878" lon="10.457203388214149">
        <ele>219.67522624492162</ele>
        <time>2017-11-13T16:20:00.169000Z</time>
      </trkpt>
      <trkpt lat="45.60478457249701" lon="10.457203388214111">
        <ele>219.67259820971776</ele>
        <time>2017-11-13T16:20:00.171000Z</time>
      </trkpt>
      <trkpt lat="45.6048059463501" lon="10.457203388213111">
        <ele>219.62674158354523</ele>
        <time>2017-11-13T16:20:00.205000Z</time>
      </trkpt>
      <trkpt lat="45.60478457249701" lon="10.457203388215111">
        <ele>219.58088495737266</ele>
        <time>2017-11-13T16:20:00.239000Z</time>
      </trkpt>
      <trkpt lat="45.60450553894043" lon="10.457332134246826">
        <ele>218.95181437341512</ele>
        <time>2017-11-13T16:20:00.709000Z</time>
      </trkpt>
      <trkpt lat="45.604441249743104" lon="10.457353591918945">
        <ele>218.8101744117877</ele>
        <time>2017-11-13T16:20:00.815000Z</time>
      </trkpt>
      <trkpt lat="45.604183757677674" lon="10.457439422607422">
        <ele>218.2429140159646</ele>
        <time>2017-11-13T16:20:01.239000Z</time>
      </trkpt>
      <trkpt lat="45.60403355397284" lon="10.45750379562378">
        <ele>216.01424950007666</ele>
        <time>2017-11-13T16:20:01.490000Z</time>
      </trkpt>
      <trkpt lat="45.603883350268006" lon="10.457568168640137">
        <ele>215.7855849336889</ele>
        <time>2017-11-13T16:20:01.741000Z</time>
      </trkpt>
      <trkpt lat="45.60375460423529" lon="10.457632541656494">
        <ele>215.5866890606981</ele>
        <time>2017-11-13T16:20:01.960000Z</time>
      </trkpt>
      <trkpt lat="45.60371160507202" lon="10.457653999328613">
        <ele>215.52027504665398</ele>
        <time>2017-11-13T16:20:02.033000Z</time>
      </trkpt>
      <trkpt lat="45.603572496117344" lon="10.457723387215525">
        <ele>215.30542578907077</ele>
        <time>2017-11-13T16:20:02.269000Z</time>
      </trkpt>
      <trkpt lat="45.60357244305903" lon="10.457723413681098">
        <ele>215.30534384224316</ele>
        <time>2017-11-13T16:20:02.269000Z</time>
      </trkpt>
      <trkpt lat="45.60355804309672" lon="10.45773059639664">
        <ele>215.28310357504617</ele>
        <time>2017-11-13T16:20:02.293000Z</time>
      </trkpt>
      <trkpt lat="45.60353667475283" lon="10.457741254940629">
        <ele>215.2501008732305</ele>
        <time>2017-11-13T16:20:02.329000Z</time>
      </trkpt>
      <trkpt lat="45.60353675857186" lon="10.457741254940629">
        <ele>215.24997864617765</ele>
        <time>2017-11-13T16:20:02.329000Z</time>
      </trkpt>
      <trkpt lat="45.60349702835083" lon="10.457761287689209">
        <ele>215.18854390923966</ele>
        <time>2017-11-13T16:20:02.397000Z</time>
      </trkpt>
      <trkpt lat="45.60328245162964" lon="10.457825660705566">
        <ele>215.20215823147768</ele>
        <time>2017-11-13T16:20:02.748000Z</time>
      </trkpt>
      <trkpt lat="45.60326099395752" lon="10.457825660705566">
        <ele>215.1708681059472</ele>
        <time>2017-11-13T16:20:02.782000Z</time>
      </trkpt>
      <trkpt lat="45.60319662094116" lon="10.457868576049805">
        <ele>215.06728932050717</ele>
        <time>2017-11-13T16:20:02.896000Z</time>
      </trkpt>
      <trkpt lat="45.60317516326904" lon="10.4579758644104">
        <ele>214.95344814355784</ele>
        <time>2017-11-13T16:20:03.021000Z</time>
      </trkpt>
      <trkpt lat="45.60319662094116" lon="10.458018779754639">
        <ele>214.89963374081069</ele>
        <time>2017-11-13T16:20:03.080000Z</time>
      </trkpt>
      <trkpt lat="45.603346824645996" lon="10.45846939086914">
        <ele>215.4442056995523</ele>
        <time>2017-11-13T16:20:03.640000Z</time>
      </trkpt>
      <trkpt lat="45.60336836613715" lon="10.458512306213379">
        <ele>215.46576961415872</ele>
        <time>2017-11-13T16:20:03.699000Z</time>
      </trkpt>
      <trkpt lat="45.6035219364794" lon="10.459006677068999">
        <ele>215.68660510542648</ele>
        <time>2017-11-13T16:20:04.306000Z</time>
      </trkpt>
      <trkpt lat="45.60352814868232" lon="10.459026675481244">
        <ele>215.69553838174534</ele>
        <time>2017-11-13T16:20:04.331000Z</time>
      </trkpt>
      <trkpt lat="45.60353701002896" lon="10.4590552020818">
        <ele>215.70828118995564</ele>
        <time>2017-11-13T16:20:04.366000Z</time>
      </trkpt>
      <trkpt lat="45.60353701002896" lon="10.459054950624704">
        <ele>215.70838385118296</ele>
        <time>2017-11-13T16:20:04.366000Z</time>
      </trkpt>
      <trkpt lat="45.603861808776855" lon="10.460100173950195">
        <ele>216.5086438741333</ele>
        <time>2017-11-13T16:20:05.649000Z</time>
      </trkpt>
      <trkpt lat="45.60405501164496" lon="10.460765361785889">
        <ele>216.6686243486712</ele>
        <time>2017-11-13T16:20:06.457000Z</time>
      </trkpt>
      <trkpt lat="45.60446977981079" lon="10.462134362836865">
        <ele>217.0</ele>
        <time>2017-11-13T16:20:08.130000Z</time>
      </trkpt>
      <trkpt lat="45.604475863196555" lon="10.462154442465108">
        <ele>217.0</ele>
        <time>2017-11-13T16:20:08.155000Z</time>
      </trkpt>
      <trkpt lat="45.60448408126831" lon="10.462181568145752">
        <ele>217.0</ele>
        <time>2017-11-13T16:20:08.188000Z</time>
      </trkpt>
      <trkpt lat="45.60448416508734" lon="10.462181568145752">
        <ele>217.0</ele>
        <time>2017-11-13T16:20:08.188000Z</time>
      </trkpt>
      <trkpt lat="45.60405501164496" lon="10.460765361785889">
        <ele>217.0</ele>
        <time>2017-11-13T16:20:09.919000Z</time>
      </trkpt>
      <trkpt lat="45.603861808775896" lon="10.460100173950474">
        <ele>217.0</ele>
        <time>2017-11-13T16:20:10.727000Z</time>
      </trkpt>
      <trkpt lat="45.603947723284364" lon="10.460057258605957">
        <ele>216.9954269723875</ele>
        <time>2017-11-13T16:20:10.873000Z</time>
      </trkpt>
      <trkpt lat="45.60405492782593" lon="10.460615158081055">
        <ele>216.97508827570013</ele>
        <time>2017-11-13T16:20:11.522000Z</time>
      </trkpt>
      <trkpt lat="45.60650110244751" lon="10.468661785125732">
        <ele>216.0</ele>
        <time>2017-11-13T16:20:21.362000Z</time>
      </trkpt>
      <trkpt lat="45.60643672943115" lon="10.46870470046997">
        <ele>216.0</ele>
        <time>2017-11-13T16:20:21.476000Z</time>
      </trkpt>
      <trkpt lat="45.607380867004395" lon="10.471880435943604">
        <ele>221.0</ele>
        <time>2017-11-13T16:20:25.346000Z</time>
      </trkpt>
      <trkpt lat="45.607807000464284" lon="10.47356515736462">
        <ele>216.0</ele>
        <time>2017-11-13T16:20:27.355000Z</time>
      </trkpt>
      <trkpt lat="45.6078122056215" lon="10.473585736751332">
        <ele>216.0</ele>
        <time>2017-11-13T16:20:27.380000Z</time>
      </trkpt>
      <trkpt lat="45.60781898908317" lon="10.473612556234002">
        <ele>216.01786366793786</ele>
        <time>2017-11-13T16:20:27.412000Z</time>
      </trkpt>
      <trkpt lat="45.60781890526414" lon="10.473612304776907">
        <ele>216.018038143903</ele>
        <time>2017-11-13T16:20:27.412000Z</time>
      </trkpt>
      <trkpt lat="45.60830363072455" lon="10.475528240203857">
        <ele>220.6275486471142</ele>
        <time>2017-11-13T16:20:29.697000Z</time>
      </trkpt>
      <trkpt lat="45.60836800374091" lon="10.475678443908691">
        <ele>220.07121875370171</ele>
        <time>2017-11-13T16:20:29.895000Z</time>
      </trkpt>
      <trkpt lat="45.60849674977362" lon="10.475914478302002">
        <ele>221.03106641103736</ele>
        <time>2017-11-13T16:20:30.231000Z</time>
      </trkpt>
      <trkpt lat="45.60877569951117" lon="10.476429462432861">
        <ele>221.66905741420626</ele>
        <time>2017-11-13T16:20:30.961000Z</time>
      </trkpt>
      <trkpt lat="45.60877561569214" lon="10.476429462432861">
        <ele>221.66908954375597</ele>
        <time>2017-11-13T16:20:30.961000Z</time>
      </trkpt>
      <trkpt lat="45.60920485295355" lon="10.477137565612793">
        <ele>221.9203395760369</ele>
        <time>2017-11-13T16:20:32.012000Z</time>
      </trkpt>
      <trkpt lat="45.610127532854676" lon="10.478103160858154">
        <ele>225.11471525245136</ele>
        <time>2017-11-13T16:20:33.845000Z</time>
      </trkpt>
      <trkpt lat="45.61077126301825" lon="10.479090213775635">
        <ele>222.27020020424698</ele>
        <time>2017-11-13T16:20:35.358000Z</time>
      </trkpt>
      <trkpt lat="45.61156511306763" lon="10.480399131774902">
        <ele>222.71466552487846</ele>
        <time>2017-11-13T16:20:37.301000Z</time>
      </trkpt>
      <trkpt lat="45.611672485247254" lon="10.480742454528809">
        <ele>224.9421691570128</ele>
        <time>2017-11-13T16:20:37.723000Z</time>
      </trkpt>
      <trkpt lat="45.611672485247254" lon="10.480785369873047">
        <ele>224.93632693794862</ele>
        <time>2017-11-13T16:20:37.771000Z</time>
      </trkpt>
      <trkpt lat="45.61169385910034" lon="10.480828285217285">
        <ele>224.92915522450744</ele>
        <time>2017-11-13T16:20:37.830000Z</time>
      </trkpt>
      <trkpt lat="45.61180114746094" lon="10.480914115905762">
        <ele>223.4655718038268</ele>
        <time>2017-11-13T16:20:38.027000Z</time>
      </trkpt>
      <trkpt lat="45.611865520477295" lon="10.480892658233643">
        <ele>223.39554477741936</ele>
        <time>2017-11-13T16:20:38.133000Z</time>
      </trkpt>
      <trkpt lat="45.61205863952637" lon="10.480999946594238">
        <ele>223.17604563193518</ele>
        <time>2017-11-13T16:20:38.465000Z</time>
      </trkpt>
      <trkpt lat="45.61210163868964" lon="10.481064319610596">
        <ele>223.1100840260011</ele>
        <time>2017-11-13T16:20:38.565000Z</time>
      </trkpt>
      <trkpt lat="45.61248779296875" lon="10.481407642364502">
        <ele>222.62832402832672</ele>
        <time>2017-11-13T16:20:39.294000Z</time>
      </trkpt>
      <trkpt lat="45.61249159036401" lon="10.481409857510222">
        <ele>222.62397898686712</ele>
        <time>2017-11-13T16:20:39.301000Z</time>
      </trkpt>
      <trkpt lat="45.61250576391784" lon="10.48141812541382">
        <ele>222.60776137568124</ele>
        <time>2017-11-13T16:20:39.326000Z</time>
      </trkpt>
      <trkpt lat="45.61252702027559" lon="10.48143052496016">
        <ele>222.58343950379125</ele>
        <time>2017-11-13T16:20:39.363000Z</time>
      </trkpt>
      <trkpt lat="45.61252693645656" lon="10.481430357322097">
        <ele>222.58328679941647</ele>
        <time>2017-11-13T16:20:39.363000Z</time>
      </trkpt>
      <trkpt lat="45.61274536885321" lon="10.481557846069336">
        <ele>222.33333333333334</ele>
        <time>2017-11-13T16:20:39.741000Z</time>
      </trkpt>
      <trkpt lat="45.61356067657471" lon="10.481922626495361">
        <ele>224.3992665816245</ele>
        <time>2017-11-13T16:20:41.111000Z</time>
      </trkpt>
      <trkpt lat="45.61416149139404" lon="10.48243761062622">
        <ele>225.0</ele>
        <time>2017-11-13T16:20:42.234000Z</time>
      </trkpt>
      <trkpt lat="45.61444052495062" lon="10.482566356658936">
        <ele>224.9836367826421</ele>
        <time>2017-11-13T16:20:42.704000Z</time>
      </trkpt>
      <trkpt lat="45.61444044113159" lon="10.482566356658936">
        <ele>224.983536814609</ele>
        <time>2017-11-13T16:20:42.704000Z</time>
      </trkpt>
      <trkpt lat="45.61544895172119" lon="10.483016967773438">
        <ele>222.39001292538833</ele>
        <time>2017-11-13T16:20:44.398000Z</time>
      </trkpt>
      <trkpt lat="45.61630734242499" lon="10.483145713806152">
        <ele>222.0</ele>
        <time>2017-11-13T16:20:45.782000Z</time>
      </trkpt>
      <trkpt lat="45.616865241900086" lon="10.483231544494629">
        <ele>223.90621711213961</ele>
        <time>2017-11-13T16:20:46.682000Z</time>
      </trkpt>
      <trkpt lat="45.61890363693237" lon="10.483553409576416">
        <ele>226.0</ele>
        <time>2017-11-13T16:20:49.970000Z</time>
      </trkpt>
      <trkpt lat="45.61939716339111" lon="10.48370361328125">
        <ele>230.81696490880464</ele>
        <time>2017-11-13T16:20:50.779000Z</time>
      </trkpt>
      <trkpt lat="45.61965465545654" lon="10.48396110534668">
        <ele>231.1877135073632</ele>
        <time>2017-11-13T16:20:51.283000Z</time>
      </trkpt>
      <trkpt lat="45.61980536823181" lon="10.484332416656214">
        <ele>229.54199307316455</ele>
        <time>2017-11-13T16:20:51.764000Z</time>
      </trkpt>
      <trkpt lat="45.619813052256625" lon="10.484351347933638">
        <ele>229.57478960362644</ele>
        <time>2017-11-13T16:20:51.789000Z</time>
      </trkpt>
      <trkpt lat="45.61982438899577" lon="10.484379278495908">
        <ele>229.62317647070861</ele>
        <time>2017-11-13T16:20:51.825000Z</time>
      </trkpt>
      <trkpt lat="45.619824305176735" lon="10.484379194676876">
        <ele>229.6233955992585</ele>
        <time>2017-11-13T16:20:51.826000Z</time>
      </trkpt>
      <trkpt lat="45.62025555409491" lon="10.4854416847229">
        <ele>234.79737328939711</ele>
        <time>2017-11-13T16:20:53.203000Z</time>
      </trkpt>
      <trkpt lat="45.62119969166815" lon="10.487544536590576">
        <ele>237.0</ele>
        <time>2017-11-13T16:20:56.005000Z</time>
      </trkpt>
      <trkpt lat="45.62167167663574" lon="10.488574504852295">
        <ele>253.2138372198043</ele>
        <time>2017-11-13T16:20:57.386000Z</time>
      </trkpt>
      <trkpt lat="45.62280893325806" lon="10.490612983703613">
        <ele>239.0</ele>
        <time>2017-11-13T16:21:00.310000Z</time>
      </trkpt>
      <trkpt lat="45.62293767929077" lon="10.4909348487854">
        <ele>231.87036410144378</ele>
        <time>2017-11-13T16:21:00.726000Z</time>
      </trkpt>
      <trkpt lat="45.62319525517523" lon="10.492050647735596">
        <ele>230.40324973053202</ele>
        <time>2017-11-13T16:21:02.043000Z</time>
      </trkpt>
      <trkpt lat="45.623366916552186" lon="10.492587089538574">
        <ele>230.33333333333334</ele>
        <time>2017-11-13T16:21:02.704000Z</time>
      </trkpt>
      <trkpt lat="45.62373169697821" lon="10.49370288848877">
        <ele>230.18056850896753</ele>
        <time>2017-11-13T16:21:04.085000Z</time>
      </trkpt>
      <trkpt lat="45.62373161315918" lon="10.49370288848877">
        <ele>230.18071973098952</ele>
        <time>2017-11-13T16:21:04.085000Z</time>
      </trkpt>
      <trkpt lat="45.624117935076356" lon="10.494539737701416">
        <ele>232.11257608483217</ele>
        <time>2017-11-13T16:21:05.209000Z</time>
      </trkpt>
      <trkpt lat="45.624117851257324" lon="10.494539737701416">
        <ele>232.11272730685417</ele>
        <time>2017-11-13T16:21:05.209000Z</time>
      </trkpt>
      <trkpt lat="45.62420376576483" lon="10.494754314422607">
        <ele>232.09136735199536</ele>
        <time>2017-11-13T16:21:05.486000Z</time>
      </trkpt>
      <trkpt lat="45.6242036819458" lon="10.494754314422607">
        <ele>232.09151857401739</ele>
        <time>2017-11-13T16:21:05.487000Z</time>
      </trkpt>
      <trkpt lat="45.62482603825629" lon="10.495977401733398">
        <ele>236.0</ele>
        <time>2017-11-13T16:21:07.183000Z</time>
      </trkpt>
      <trkpt lat="45.62493332661688" lon="10.49619197845459">
        <ele>235.28114842632033</ele>
        <time>2017-11-13T16:21:07.479000Z</time>
      </trkpt>
      <trkpt lat="45.62501907348633" lon="10.496470928192139">
        <ele>232.78408861934759</ele>
        <time>2017-11-13T16:21:07.821000Z</time>
      </trkpt>
      <trkpt lat="45.625061988830566" lon="10.496664047241211">
        <ele>232.23186570004916</ele>
        <time>2017-11-13T16:21:08.048000Z</time>
      </trkpt>
      <trkpt lat="45.625083446502686" lon="10.49692153930664">
        <ele>231.5251785175916</ele>
        <time>2017-11-13T16:21:08.339000Z</time>
      </trkpt>
      <trkpt lat="45.625104987993836" lon="10.497372150421143">
        <ele>231.3006251650953</ele>
        <time>2017-11-13T16:21:08.845000Z</time>
      </trkpt>
      <trkpt lat="45.625126445665956" lon="10.49769401550293">
        <ele>230.8065445006342</ele>
        <time>2017-11-13T16:21:09.207000Z</time>
      </trkpt>
      <trkpt lat="45.625126361846924" lon="10.497822761535645">
        <ele>230.9388813857797</ele>
        <time>2017-11-13T16:21:09.351000Z</time>
      </trkpt>
      <trkpt lat="45.62516927719116" lon="10.49816608428955">
        <ele>231.29737204130092</ele>
        <time>2017-11-13T16:21:09.742000Z</time>
      </trkpt>
      <trkpt lat="45.625147903338075" lon="10.498208999633789">
        <ele>231.3515272336472</ele>
        <time>2017-11-13T16:21:09.801000Z</time>
      </trkpt>
      <trkpt lat="45.62519081868231" lon="10.498402118682861">
        <ele>232.89314603527683</ele>
        <time>2017-11-13T16:21:10.028000Z</time>
      </trkpt>
      <trkpt lat="45.62527656555176" lon="10.4984450340271">
        <ele>233.02667207067398</ele>
        <time>2017-11-13T16:21:10.174000Z</time>
      </trkpt>
      <trkpt lat="45.62553405761719" lon="10.49870252609253">
        <ele>233.44098745225264</ele>
        <time>2017-11-13T16:21:10.678000Z</time>
      </trkpt>
      <trkpt lat="45.625576972961426" lon="10.498788356781006">
        <ele>233.5382838521791</ele>
        <time>2017-11-13T16:21:10.796000Z</time>
      </trkpt>
      <trkpt lat="45.626113414764404" lon="10.499153137207031">
        <ele>234.32153614593938</ele>
        <time>2017-11-13T16:21:11.748000Z</time>
      </trkpt>
      <trkpt lat="45.62624224461615" lon="10.499281883239746">
        <ele>235.52878355858283</ele>
        <time>2017-11-13T16:21:12Z</time>
      </trkpt>
      <trkpt lat="45.62624216079712" lon="10.499281883239746">
        <ele>235.52889408099577</ele>
        <time>2017-11-13T16:21:12Z</time>
      </trkpt>
      <trkpt lat="45.62645682133734" lon="10.4994535446167">
        <ele>235.85319829032338</ele>
        <time>2017-11-13T16:21:12.394000Z</time>
      </trkpt>
      <trkpt lat="45.62645673751831" lon="10.4994535446167">
        <ele>235.85312869999746</ele>
        <time>2017-11-13T16:21:12.394000Z</time>
      </trkpt>
      <trkpt lat="45.626671398058534" lon="10.499625205993652">
        <ele>234.64893130344686</ele>
        <time>2017-11-13T16:21:12.788000Z</time>
      </trkpt>
      <trkpt lat="45.62699326314032" lon="10.499882698059082">
        <ele>233.9778664174339</ele>
        <time>2017-11-13T16:21:13.379000Z</time>
      </trkpt>
      <trkpt lat="45.627658450976014" lon="10.500483512878418">
        <ele>231.54630901479246</ele>
        <time>2017-11-13T16:21:14.640000Z</time>
      </trkpt>
      <trkpt lat="45.62802314758301" lon="10.500848293304443">
        <ele>231.7049088713594</ele>
        <time>2017-11-13T16:21:15.353000Z</time>
      </trkpt>
      <trkpt lat="45.628766428839356" lon="10.501686095757451">
        <ele>231.0</ele>
        <time>2017-11-13T16:21:16.870000Z</time>
      </trkpt>
      <trkpt lat="45.628778451806106" lon="10.50169964789373">
        <ele>231.00431625380205</ele>
        <time>2017-11-13T16:21:16.895000Z</time>
      </trkpt>
      <trkpt lat="45.62879629433155" lon="10.501719759777188">
        <ele>231.01072173434682</ele>
        <time>2017-11-13T16:21:16.931000Z</time>
      </trkpt>
      <trkpt lat="45.62879612669349" lon="10.501719675958157">
        <ele>231.01077180437915</ele>
        <time>2017-11-13T16:21:16.931000Z</time>
      </trkpt>
      <trkpt lat="45.62920340336859" lon="10.50217866897583">
        <ele>230.49030707043073</ele>
        <time>2017-11-13T16:21:17.762000Z</time>
      </trkpt>
      <trkpt lat="45.62920331954956" lon="10.50217866897583">
        <ele>230.49033070250243</ele>
        <time>2017-11-13T16:21:17.762000Z</time>
      </trkpt>
      <trkpt lat="45.62969692982733" lon="10.502843856811523">
        <ele>231.0148907771227</ele>
        <time>2017-11-13T16:21:18.849000Z</time>
      </trkpt>
      <trkpt lat="45.630340576171875" lon="10.504260063171387">
        <ele>235.0</ele>
        <time>2017-11-13T16:21:20.743000Z</time>
      </trkpt>
      <trkpt lat="45.630834102630615" lon="10.50518274307251">
        <ele>235.74878903157227</ele>
        <time>2017-11-13T16:21:22.045000Z</time>
      </trkpt>
      <trkpt lat="45.631113052368164" lon="10.505483150482178">
        <ele>235.9273855791132</ele>
        <time>2017-11-13T16:21:22.605000Z</time>
      </trkpt>
      <trkpt lat="45.63141345977783" lon="10.50565481185913">
        <ele>235.85739776781705</ele>
        <time>2017-11-13T16:21:23.124000Z</time>
      </trkpt>
      <trkpt lat="45.63203581608832" lon="10.505976676940918">
        <ele>237.25912445484934</ele>
        <time>2017-11-13T16:21:24.185000Z</time>
      </trkpt>
      <trkpt lat="45.63203573226929" lon="10.505976676940918">
        <ele>237.25913311704107</ele>
        <time>2017-11-13T16:21:24.186000Z</time>
      </trkpt>
      <trkpt lat="45.63323736190796" lon="10.506620407104492">
        <ele>235.05840631030162</ele>
        <time>2017-11-13T16:21:26.243000Z</time>
      </trkpt>
      <trkpt lat="45.63370943069458" lon="10.506877899169922">
        <ele>240.0</ele>
        <time>2017-11-13T16:21:27.053000Z</time>
      </trkpt>
      <trkpt lat="45.63377380371094" lon="10.50692081451416">
        <ele>240.02530213994316</ele>
        <time>2017-11-13T16:21:27.167000Z</time>
      </trkpt>
      <trkpt lat="45.63437461853027" lon="10.507307052612305">
        <ele>239.92663831998175</ele>
        <time>2017-11-13T16:21:28.223000Z</time>
      </trkpt>
      <trkpt lat="45.63544750213623" lon="10.507864952087402">
        <ele>241.0</ele>
        <time>2017-11-13T16:21:30.053000Z</time>
      </trkpt>
      <trkpt lat="45.63600548543036" lon="10.508015155792236">
        <ele>240.33333333333334</ele>
        <time>2017-11-13T16:21:30.963000Z</time>
      </trkpt>
      <trkpt lat="45.63606448949082" lon="10.507994652662404">
        <ele>240.34096792903551</ele>
        <time>2017-11-13T16:21:31.060000Z</time>
      </trkpt>
      <trkpt lat="45.63606452128515" lon="10.507994641614328">
        <ele>240.3409720429356</ele>
        <time>2017-11-13T16:21:31.060000Z</time>
      </trkpt>
      <trkpt lat="45.63607936497958" lon="10.50798948361995">
        <ele>240.34289268385103</ele>
        <time>2017-11-13T16:21:31.084000Z</time>
      </trkpt>
      <trkpt lat="45.63610221259296" lon="10.507981544360518">
        <ele>240.34584896012993</ele>
        <time>2017-11-13T16:21:31.122000Z</time>
      </trkpt>
      <trkpt lat="45.63610238023102" lon="10.507981544360518">
        <ele>240.34587003777065</ele>
        <time>2017-11-13T16:21:31.122000Z</time>
      </trkpt>
      <trkpt lat="45.63662767410278" lon="10.507800579071045">
        <ele>240.41380591022968</ele>
        <time>2017-11-13T16:21:31.988000Z</time>
      </trkpt>
      <trkpt lat="45.636627757921815" lon="10.507800579071045">
        <ele>240.41381644905005</ele>
        <time>2017-11-13T16:21:31.988000Z</time>
      </trkpt>
      <trkpt lat="45.63853749074042" lon="10.506899356842041">
        <ele>241.0</ele>
        <time>2017-11-13T16:21:35.212000Z</time>
      </trkpt>
      <trkpt lat="45.6397819519043" lon="10.506298542022705">
        <ele>242.0</ele>
        <time>2017-11-13T16:21:37.318000Z</time>
      </trkpt>
      <trkpt lat="45.6401252746582" lon="10.506041049957275">
        <ele>248.39843131143596</ele>
        <time>2017-11-13T16:21:37.939000Z</time>
      </trkpt>
      <trkpt lat="45.640125358477235" lon="10.506041049957275">
        <ele>248.3977045539838</ele>
        <time>2017-11-13T16:21:37.939000Z</time>
      </trkpt>
      <trkpt lat="45.64076900482178" lon="10.505611896514893">
        <ele>236.57366640906332</ele>
        <time>2017-11-13T16:21:39.077000Z</time>
      </trkpt>
      <trkpt lat="45.641584396362305" lon="10.505397319793701">
        <ele>237.8236900154625</ele>
        <time>2017-11-13T16:21:40.406000Z</time>
      </trkpt>
      <trkpt lat="45.64175605773926" lon="10.505461692810059">
        <ele>238.0990491844309</ele>
        <time>2017-11-13T16:21:40.690000Z</time>
      </trkpt>
      <trkpt lat="45.641841888427734" lon="10.50544023513794">
        <ele>238.19938545847864</ele>
        <time>2017-11-13T16:21:40.830000Z</time>
      </trkpt>
      <trkpt lat="45.64201354980469" lon="10.505332946777344">
        <ele>238.41510904243535</ele>
        <time>2017-11-13T16:21:41.130000Z</time>
      </trkpt>
      <trkpt lat="45.644545555114746" lon="10.50518274307251">
        <ele>243.0</ele>
        <time>2017-11-13T16:21:45.193000Z</time>
      </trkpt>
      <trkpt lat="45.64497470855713" lon="10.505118370056152">
        <ele>242.66062513915827</ele>
        <time>2017-11-13T16:21:45.885000Z</time>
      </trkpt>
      <trkpt lat="45.645382488146424" lon="10.50492525100708">
        <ele>240.81140445440897</ele>
        <time>2017-11-13T16:21:46.574000Z</time>
      </trkpt>
      <trkpt lat="45.6457257270813" lon="10.504603385925293">
        <ele>240.0</ele>
        <time>2017-11-13T16:21:47.232000Z</time>
      </trkpt>
      <trkpt lat="45.646069049835205" lon="10.503809452056885">
        <ele>243.1878912744627</ele>
        <time>2017-11-13T16:21:48.278000Z</time>
      </trkpt>
      <trkpt lat="45.64608148439464" lon="10.503722565083672">
        <ele>243.33241064264402</ele>
        <time>2017-11-13T16:21:48.377000Z</time>
      </trkpt>
      <trkpt lat="45.64608455469574" lon="10.50370111115709">
        <ele>243.3680950172975</ele>
        <time>2017-11-13T16:21:48.402000Z</time>
      </trkpt>
      <trkpt lat="45.64608925022185" lon="10.503668300807476">
        <ele>243.42266855307003</ele>
        <time>2017-11-13T16:21:48.440000Z</time>
      </trkpt>
      <trkpt lat="45.64608925022185" lon="10.503668216988444">
        <ele>243.42280513695925</ele>
        <time>2017-11-13T16:21:48.440000Z</time>
      </trkpt>
      <trkpt lat="45.6461763381958" lon="10.503058433532715">
        <ele>243.4369748077519</ele>
        <time>2017-11-13T16:21:49.138000Z</time>
      </trkpt>
      <trkpt lat="45.6461763381958" lon="10.5029296875">
        <ele>243.81983661732897</ele>
        <time>2017-11-13T16:21:49.282000Z</time>
      </trkpt>
      <trkpt lat="45.64617642201483" lon="10.502779483795166">
        <ele>244.26650887013875</ele>
        <time>2017-11-13T16:21:49.450000Z</time>
      </trkpt>
      <trkpt lat="45.64617642201483" lon="10.502650737762451">
        <ele>244.64937067914295</ele>
        <time>2017-11-13T16:21:49.594000Z</time>
      </trkpt>
      <trkpt lat="45.64617642201483" lon="10.501985549926758">
        <ele>248.96082335899783</ele>
        <time>2017-11-13T16:21:50.339000Z</time>
      </trkpt>
      <trkpt lat="45.646090507507324" lon="10.50018310546875">
        <ele>257.0</ele>
        <time>2017-11-13T16:21:52.364000Z</time>
      </trkpt>
      <trkpt lat="45.646090591326356" lon="10.50018310546875">
        <ele>256.99950280059517</ele>
        <time>2017-11-13T16:21:52.364000Z</time>
      </trkpt>
      <trkpt lat="45.64602613449097" lon="10.499517917633057">
        <ele>251.88135158677346</ele>
        <time>2017-11-13T16:21:53.117000Z</time>
      </trkpt>
      <trkpt lat="45.646090507507324" lon="10.49917459487915">
        <ele>251.69366185819845</ele>
        <time>2017-11-13T16:21:53.515000Z</time>
      </trkpt>
      <trkpt lat="45.64666994847357" lon="10.49741506576538">
        <ele>251.0</ele>
        <time>2017-11-13T16:21:55.695000Z</time>
      </trkpt>
      <trkpt lat="45.64673432148993" lon="10.497329235076904">
        <ele>251.12266628364372</ele>
        <time>2017-11-13T16:21:55.836000Z</time>
      </trkpt>
      <trkpt lat="45.647893035784364" lon="10.495312213897705">
        <ele>255.0</ele>
        <time>2017-11-13T16:21:58.762000Z</time>
      </trkpt>
      <trkpt lat="45.648193359375" lon="10.494754314422607">
        <ele>247.73984932286177</ele>
        <time>2017-11-13T16:21:59.551000Z</time>
      </trkpt>
      <trkpt lat="45.64819344319403" lon="10.494754314422607">
        <ele>247.73976226170237</ele>
        <time>2017-11-13T16:21:59.551000Z</time>
      </trkpt>
      <trkpt lat="45.64849376678467" lon="10.494260787963867">
        <ele>254.93132856570674</ele>
        <time>2017-11-13T16:22:00.284000Z</time>
      </trkpt>
      <trkpt lat="45.64862251281738" lon="10.493896007537842">
        <ele>250.3012858035577</ele>
        <time>2017-11-13T16:22:00.742000Z</time>
      </trkpt>
      <trkpt lat="45.649106989359765" lon="10.492243266444428">
        <ele>246.0</ele>
        <time>2017-11-13T16:22:02.750000Z</time>
      </trkpt>
      <trkpt lat="45.64911290942202" lon="10.492223070091049">
        <ele>246.30755262662873</ele>
        <time>2017-11-13T16:22:02.775000Z</time>
      </trkpt>
      <trkpt lat="45.649121068418026" lon="10.492195235565305">
        <ele>246.73142019562147</ele>
        <time>2017-11-13T16:22:02.809000Z</time>
      </trkpt>
      <trkpt lat="45.649121068418026" lon="10.49219498410821">
        <ele>246.73495152570476</ele>
        <time>2017-11-13T16:22:02.809000Z</time>
      </trkpt>
      <trkpt lat="45.649352073669434" lon="10.491406917572021">
        <ele>267.4024036203929</ele>
        <time>2017-11-13T16:22:03.767000Z</time>
      </trkpt>
      <trkpt lat="45.64950227737427" lon="10.490634441375732">
        <ele>269.06281014228443</ele>
        <time>2017-11-13T16:22:04.666000Z</time>
      </trkpt>
      <trkpt lat="45.64963102340698" lon="10.48945426940918">
        <ele>266.09441187555655</ele>
        <time>2017-11-13T16:22:06.005000Z</time>
      </trkpt>
      <trkpt lat="45.649802684783936" lon="10.487329959869385">
        <ele>267.0</ele>
        <time>2017-11-13T16:22:08.401000Z</time>
      </trkpt>
      <trkpt lat="45.649824142456055" lon="10.486664772033691">
        <ele>264.91105378748733</ele>
        <time>2017-11-13T16:22:09.147000Z</time>
      </trkpt>
      <trkpt lat="45.64973831176758" lon="10.485506057739258">
        <ele>261.99122172239214</ele>
        <time>2017-11-13T16:22:10.453000Z</time>
      </trkpt>
      <trkpt lat="45.64973839558661" lon="10.485506057739258">
        <ele>261.9909212561499</ele>
        <time>2017-11-13T16:22:10.453000Z</time>
      </trkpt>
      <trkpt lat="45.64973831176758" lon="10.48496961593628">
        <ele>258.31333971840195</ele>
        <time>2017-11-13T16:22:11.054000Z</time>
      </trkpt>
      <trkpt lat="45.649888599291444" lon="10.483832359313965">
        <ele>258.06450850069206</ele>
        <time>2017-11-13T16:22:12.351000Z</time>
      </trkpt>
      <trkpt lat="45.64995288848877" lon="10.483531951904297">
        <ele>258.71487400766404</ele>
        <time>2017-11-13T16:22:12.703000Z</time>
      </trkpt>
      <trkpt lat="45.6499529723078" lon="10.483531951904297">
        <ele>258.71512222580094</ele>
        <time>2017-11-13T16:22:12.703000Z</time>
      </trkpt>
      <trkpt lat="45.65001726150513" lon="10.483145713806152">
        <ele>263.8703637781036</ele>
        <time>2017-11-13T16:22:13.148000Z</time>
      </trkpt>
      <trkpt lat="45.65023192204535" lon="10.482244491577148">
        <ele>262.66837921231564</ele>
        <time>2017-11-13T16:22:14.215000Z</time>
      </trkpt>
      <trkpt lat="45.65074690617621" lon="10.480570793151855">
        <ele>258.0</ele>
        <time>2017-11-13T16:22:16.264000Z</time>
      </trkpt>
      <trkpt lat="45.651068687438965" lon="10.479412078857422">
        <ele>272.6666666666667</ele>
        <time>2017-11-13T16:22:17.661000Z</time>
      </trkpt>
      <trkpt lat="45.65139055252075" lon="10.47722339630127">
        <ele>258.0</ele>
        <time>2017-11-13T16:22:20.167000Z</time>
      </trkpt>
      <trkpt lat="45.65136909484863" lon="10.476815700531006">
        <ele>257.5720403208414</ele>
        <time>2017-11-13T16:22:20.625000Z</time>
      </trkpt>
      <trkpt lat="45.65117597579956" lon="10.47621488571167">
        <ele>256.54650710608104</ele>
        <time>2017-11-13T16:22:21.366000Z</time>
      </trkpt>
      <trkpt lat="45.650832653045654" lon="10.475656986236572">
        <ele>255.10801147090152</ele>
        <time>2017-11-13T16:22:22.199000Z</time>
      </trkpt>
      <trkpt lat="45.65063953399658" lon="10.47522783279419">
        <ele>255.1241353664967</ele>
        <time>2017-11-13T16:22:22.771000Z</time>
      </trkpt>
      <trkpt lat="45.650618160143495" lon="10.475163459777832">
        <ele>255.12638675391767</ele>
        <time>2017-11-13T16:22:22.851000Z</time>
      </trkpt>
      <trkpt lat="45.65053232945502" lon="10.475077629089355">
        <ele>255.1311194781853</ele>
        <time>2017-11-13T16:22:23.019000Z</time>
      </trkpt>
      <trkpt lat="45.65048933029175" lon="10.475077629089355">
        <ele>255.13306274637497</ele>
        <time>2017-11-13T16:22:23.088000Z</time>
      </trkpt>
      <trkpt lat="45.65001726150513" lon="10.47473430633545">
        <ele>256.4903289472699</ele>
        <time>2017-11-13T16:22:23.937000Z</time>
      </trkpt>
      <trkpt lat="45.64911603927612" lon="10.474240779876709">
        <ele>253.0</ele>
        <time>2017-11-13T16:22:25.484000Z</time>
      </trkpt>
      <trkpt lat="45.64877271652222" lon="10.47396183013916">
        <ele>255.35691517472083</ele>
        <time>2017-11-13T16:22:26.117000Z</time>
      </trkpt>
      <trkpt lat="45.6480432394892" lon="10.473060607910156">
        <ele>256.0419439942254</ele>
        <time>2017-11-13T16:22:27.662000Z</time>
      </trkpt>
      <trkpt lat="45.64671277999878" lon="10.471279621124268">
        <ele>265.0</ele>
        <time>2017-11-13T16:22:30.583000Z</time>
      </trkpt>
      <trkpt lat="45.64617642201483" lon="10.470507144927979">
        <ele>265.46396009680257</ele>
        <time>2017-11-13T16:22:31.803000Z</time>
      </trkpt>
      <trkpt lat="45.643601417541504" lon="10.465679168701172">
        <ele>261.0</ele>
        <time>2017-11-13T16:22:38.609000Z</time>
      </trkpt>
      <trkpt lat="45.64340829849243" lon="10.464949607849121">
        <ele>263.0</ele>
        <time>2017-11-13T16:22:39.483000Z</time>
      </trkpt>
      <trkpt lat="45.64327955245972" lon="10.46422004699707">
        <ele>255.0</ele>
        <time>2017-11-13T16:22:40.326000Z</time>
      </trkpt>
      <trkpt lat="45.64340838231146" lon="10.46372652053833">
        <ele>261.8918791365956</ele>
        <time>2017-11-13T16:22:40.916000Z</time>
      </trkpt>
      <trkpt lat="45.64347275532782" lon="10.463662147521973">
        <ele>262.05997701266676</ele>
        <time>2017-11-13T16:22:41.042000Z</time>
      </trkpt>
      <trkpt lat="45.64351567067206" lon="10.463404655456543">
        <ele>262.4560392250565</ele>
        <time>2017-11-13T16:22:41.339000Z</time>
      </trkpt>
      <trkpt lat="45.64340829849243" lon="10.46321153640747">
        <ele>263.4918894573431</ele>
        <time>2017-11-13T16:22:41.616000Z</time>
      </trkpt>
      <trkpt lat="45.64323663711548" lon="10.462868213653564">
        <ele>260.1004743661695</ele>
        <time>2017-11-13T16:22:42.089000Z</time>
      </trkpt>
      <trkpt lat="45.64327955245972" lon="10.461323261260986">
        <ele>259.0</ele>
        <time>2017-11-13T16:22:43.822000Z</time>
      </trkpt>
      <trkpt lat="45.64336538314819" lon="10.461044311523438">
        <ele>260.94686474182663</ele>
        <time>2017-11-13T16:22:44.164000Z</time>
      </trkpt>
      <trkpt lat="45.64340838231146" lon="10.4610013961792">
        <ele>261.0158148220923</ele>
        <time>2017-11-13T16:22:44.248000Z</time>
      </trkpt>
      <trkpt lat="45.64347267150879" lon="10.460872650146484">
        <ele>261.1612722286047</ele>
        <time>2017-11-13T16:22:44.425000Z</time>
      </trkpt>
      <trkpt lat="45.64349421299994" lon="10.46074390411377">
        <ele>260.6163135385087</ele>
        <time>2017-11-13T16:22:44.573000Z</time>
      </trkpt>
      <trkpt lat="45.64345121383667" lon="10.460615158081055">
        <ele>260.7474919861085</ele>
        <time>2017-11-13T16:22:44.733000Z</time>
      </trkpt>
      <trkpt lat="45.64345121383667" lon="10.460293292999268">
        <ele>261.043405647156</ele>
        <time>2017-11-13T16:22:45.094000Z</time>
      </trkpt>
      <trkpt lat="45.64392328262329" lon="10.459692478179932">
        <ele>261.5410298805935</ele>
        <time>2017-11-13T16:22:46.107000Z</time>
      </trkpt>
      <trkpt lat="45.64540386199951" lon="10.456795692443848">
        <ele>269.0</ele>
        <time>2017-11-13T16:22:50.129000Z</time>
      </trkpt>
      <trkpt lat="45.64607200640338" lon="10.454800515762674">
        <ele>274.0</ele>
        <time>2017-11-13T16:22:52.608000Z</time>
      </trkpt>
      <trkpt lat="45.64607862013692" lon="10.454780765432982">
        <ele>274.01760108145623</ele>
        <time>2017-11-13T16:22:52.633000Z</time>
      </trkpt>
      <trkpt lat="45.646087657660246" lon="10.454753777012229">
        <ele>274.06588690858575</ele>
        <time>2017-11-13T16:22:52.667000Z</time>
      </trkpt>
      <trkpt lat="45.64608774147928" lon="10.454753609374166">
        <ele>274.0662194680881</ele>
        <time>2017-11-13T16:22:52.667000Z</time>
      </trkpt>
      <trkpt lat="45.64694881439209" lon="10.452182292938232">
        <ele>281.0</ele>
        <time>2017-11-13T16:22:55.862000Z</time>
      </trkpt>
      <trkpt lat="45.64744234085083" lon="10.450294017791748">
        <ele>271.0</ele>
        <time>2017-11-13T16:22:58.121000Z</time>
      </trkpt>
      <trkpt lat="45.647785663604736" lon="10.449371337890625">
        <ele>279.3601716669348</ele>
        <time>2017-11-13T16:22:59.292000Z</time>
      </trkpt>
      <trkpt lat="45.64793586730957" lon="10.449113845825195">
        <ele>272.90352661711415</ele>
        <time>2017-11-13T16:22:59.668000Z</time>
      </trkpt>
      <trkpt lat="45.648343563079834" lon="10.448770523071289">
        <ele>281.0</ele>
        <time>2017-11-13T16:23:00.426000Z</time>
      </trkpt>
      <trkpt lat="45.64862251281738" lon="10.448577404022217">
        <ele>278.964793189933</ele>
        <time>2017-11-13T16:23:00.923000Z</time>
      </trkpt>
      <trkpt lat="45.64937353134155" lon="10.44825553894043">
        <ele>268.14937565658676</ele>
        <time>2017-11-13T16:23:02.180000Z</time>
      </trkpt>
      <trkpt lat="45.64969539642334" lon="10.447998046875">
        <ele>268.55782275543123</ele>
        <time>2017-11-13T16:23:02.771000Z</time>
      </trkpt>
      <trkpt lat="45.65023183822632" lon="10.447354316711426">
        <ele>272.0</ele>
        <time>2017-11-13T16:23:03.894000Z</time>
      </trkpt>
      <trkpt lat="45.65051078796387" lon="10.446474552154541">
        <ele>271.0</ele>
        <time>2017-11-13T16:23:04.977000Z</time>
      </trkpt>
      <trkpt lat="45.65089702606201" lon="10.443470478057861">
        <ele>272.0</ele>
        <time>2017-11-13T16:23:08.400000Z</time>
      </trkpt>
      <trkpt lat="45.65089702606201" lon="10.44252634048462">
        <ele>272.6666666666667</ele>
        <time>2017-11-13T16:23:09.458000Z</time>
      </trkpt>
      <trkpt lat="45.650832653045654" lon="10.441560745239258">
        <ele>272.0</ele>
        <time>2017-11-13T16:23:10.545000Z</time>
      </trkpt>
      <trkpt lat="45.65025329589844" lon="10.4380202293396">
        <ele>277.0</ele>
        <time>2017-11-13T16:23:14.620000Z</time>
      </trkpt>
      <trkpt lat="45.65018892288208" lon="10.437419414520264">
        <ele>275.9305820879431</ele>
        <time>2017-11-13T16:23:15.301000Z</time>
      </trkpt>
      <trkpt lat="45.65018892288208" lon="10.43677568435669">
        <ele>275.50404399583357</ele>
        <time>2017-11-13T16:23:16.022000Z</time>
      </trkpt>
      <trkpt lat="45.65025329589844" lon="10.436239242553711">
        <ele>274.4853603366896</ele>
        <time>2017-11-13T16:23:16.632000Z</time>
      </trkpt>
      <trkpt lat="45.65040349960327" lon="10.435552597045898">
        <ele>271.80545837761076</ele>
        <time>2017-11-13T16:23:17.438000Z</time>
      </trkpt>
      <trkpt lat="45.6504035834223" lon="10.435552597045898">
        <ele>271.8053264274019</ele>
        <time>2017-11-13T16:23:17.438000Z</time>
      </trkpt>
      <trkpt lat="45.650832736864686" lon="10.43450117111206">
        <ele>268.798832712505</ele>
        <time>2017-11-13T16:23:18.802000Z</time>
      </trkpt>
      <trkpt lat="45.652828216552734" lon="10.430488586425781">
        <ele>274.0</ele>
        <time>2017-11-13T16:23:24.320000Z</time>
      </trkpt>
      <trkpt lat="45.65317153930664" lon="10.429844856262207">
        <ele>268.0</ele>
        <time>2017-11-13T16:23:25.227000Z</time>
      </trkpt>
      <trkpt lat="45.653836727142334" lon="10.42879343032837">
        <ele>274.12266696097475</ele>
        <time>2017-11-13T16:23:26.816000Z</time>
      </trkpt>
      <trkpt lat="45.654137134552" lon="10.42851448059082">
        <ele>276.09388388269304</ele>
        <time>2017-11-13T16:23:27.390000Z</time>
      </trkpt>
      <trkpt lat="45.654373252764344" lon="10.428450107574463">
        <ele>289.9194493656955</ele>
        <time>2017-11-13T16:23:27.775000Z</time>
      </trkpt>
      <trkpt lat="45.65441608428955" lon="10.428471565246582">
        <ele>290.89345673683493</ele>
        <time>2017-11-13T16:23:27.848000Z</time>
      </trkpt>
      <trkpt lat="45.65452337265015" lon="10.428493022918701">
        <ele>292.43834733067337</ele>
        <time>2017-11-13T16:23:28.022000Z</time>
      </trkpt>
      <trkpt lat="45.65465211868286" lon="10.428385734558105">
        <ele>294.56312504306203</ele>
        <time>2017-11-13T16:23:28.261000Z</time>
      </trkpt>
      <trkpt lat="45.6546950340271" lon="10.42827844619751">
        <ele>285.6777649161069</ele>
        <time>2017-11-13T16:23:28.400000Z</time>
      </trkpt>
      <trkpt lat="45.65475940704346" lon="10.428106784820557">
        <ele>284.80781549939803</ele>
        <time>2017-11-13T16:23:28.618000Z</time>
      </trkpt>
      <trkpt lat="45.65523147583008" lon="10.427570343017578">
        <ele>284.95617341490356</ele>
        <time>2017-11-13T16:23:29.584000Z</time>
      </trkpt>
      <trkpt lat="45.655810832977295" lon="10.427098274230957">
        <ele>278.0298134362243</ele>
        <time>2017-11-13T16:23:30.653000Z</time>
      </trkpt>
      <trkpt lat="45.65677651204169" lon="10.426089763641357">
        <ele>280.0</ele>
        <time>2017-11-13T16:23:32.570000Z</time>
      </trkpt>
      <trkpt lat="45.65709829330444" lon="10.425724983215332">
        <ele>275.63335981236656</ele>
        <time>2017-11-13T16:23:33.228000Z</time>
      </trkpt>
      <trkpt lat="45.657377326861024" lon="10.425124168395996">
        <ele>273.95500184243434</ele>
        <time>2017-11-13T16:23:34.036000Z</time>
      </trkpt>
      <trkpt lat="45.65748461522162" lon="10.42478084564209">
        <ele>273.7466655727755</ele>
        <time>2017-11-13T16:23:34.457000Z</time>
      </trkpt>
      <trkpt lat="45.657548904418945" lon="10.424351692199707">
        <ele>274.52369397555253</ele>
        <time>2017-11-13T16:23:34.949000Z</time>
      </trkpt>
      <trkpt lat="45.65763473510742" lon="10.424115657806396">
        <ele>278.11660582935696</ele>
        <time>2017-11-13T16:23:35.247000Z</time>
      </trkpt>
      <trkpt lat="45.657784938812256" lon="10.4240083694458">
        <ele>278.65185915985313</ele>
        <time>2017-11-13T16:23:35.516000Z</time>
      </trkpt>
      <trkpt lat="45.65793522633612" lon="10.423901081085205">
        <ele>279.18735131392356</ele>
        <time>2017-11-13T16:23:35.785000Z</time>
      </trkpt>
      <trkpt lat="45.65795668400824" lon="10.423643589019775">
        <ele>279.76521299820917</ele>
        <time>2017-11-13T16:23:36.076000Z</time>
      </trkpt>
      <trkpt lat="45.657806396484375" lon="10.423493385314941">
        <ele>280.34970067673675</ele>
        <time>2017-11-13T16:23:36.370000Z</time>
      </trkpt>
      <trkpt lat="45.65767765045166" lon="10.423085689544678">
        <ele>281.264035766507</ele>
        <time>2017-11-13T16:23:36.871000Z</time>
      </trkpt>
      <trkpt lat="45.65767773427069" lon="10.422999858856201">
        <ele>281.2476006514218</ele>
        <time>2017-11-13T16:23:36.967000Z</time>
      </trkpt>
      <trkpt lat="45.65767773427069" lon="10.422742366790771">
        <ele>281.19829535429204</ele>
        <time>2017-11-13T16:23:37.256000Z</time>
      </trkpt>
      <trkpt lat="45.657527446746826" lon="10.419974327087402">
        <ele>278.0</ele>
        <time>2017-11-13T16:23:40.367000Z</time>
      </trkpt>
      <trkpt lat="45.65752753056586" lon="10.419416427612305">
        <ele>277.92377008291356</ele>
        <time>2017-11-13T16:23:40.992000Z</time>
      </trkpt>
      <trkpt lat="45.657570445910096" lon="10.419223308563232">
        <ele>277.86481755762077</ele>
        <time>2017-11-13T16:23:41.219000Z</time>
      </trkpt>
      <trkpt lat="45.657570362091064" lon="10.419223308563232">
        <ele>277.86478267040115</ele>
        <time>2017-11-13T16:23:41.219000Z</time>
      </trkpt>
      <trkpt lat="45.6577205657959" lon="10.418901443481445">
        <ele>277.08552803055824</ele>
        <time>2017-11-13T16:23:41.653000Z</time>
      </trkpt>
      <trkpt lat="45.65995216369629" lon="10.416970252990723">
        <ele>276.0</ele>
        <time>2017-11-13T16:23:45.834000Z</time>
      </trkpt>
      <trkpt lat="45.66237688064575" lon="10.414502620697021">
        <ele>280.0</ele>
        <time>2017-11-13T16:23:50.604000Z</time>
      </trkpt>
      <trkpt lat="45.66291340626776" lon="10.413966178894043">
        <ele>280.0</ele>
        <time>2017-11-13T16:23:51.653000Z</time>
      </trkpt>
      <trkpt lat="45.66490888595581" lon="10.412099361419678">
        <ele>277.0</ele>
        <time>2017-11-13T16:23:55.475000Z</time>
      </trkpt>
      <trkpt lat="45.66544532775879" lon="10.411691665649414">
        <ele>284.0</ele>
        <time>2017-11-13T16:23:56.449000Z</time>
      </trkpt>
      <trkpt lat="45.667312145233154" lon="10.41079044342041">
        <ele>278.0</ele>
        <time>2017-11-13T16:23:59.608000Z</time>
      </trkpt>
      <trkpt lat="45.66795587539673" lon="10.410382747650146">
        <ele>284.01272199405685</ele>
        <time>2017-11-13T16:24:00.737000Z</time>
      </trkpt>
      <trkpt lat="45.67033767700195" lon="10.409910678863525">
        <ele>287.0</ele>
        <time>2017-11-13T16:24:04.592000Z</time>
      </trkpt>
      <trkpt lat="45.67059516906738" lon="10.409975051879883">
        <ele>286.9081397774333</ele>
        <time>2017-11-13T16:24:05.011000Z</time>
      </trkpt>
      <trkpt lat="45.67072399891913" lon="10.410103797912598">
        <ele>288.85291880920687</ele>
        <time>2017-11-13T16:24:05.263000Z</time>
      </trkpt>
      <trkpt lat="45.67087420262396" lon="10.41006088256836">
        <ele>291.4657580098405</ele>
        <time>2017-11-13T16:24:05.509000Z</time>
      </trkpt>
      <trkpt lat="45.67093849182129" lon="10.409867763519287">
        <ele>286.07989373379183</ele>
        <time>2017-11-13T16:24:05.749000Z</time>
      </trkpt>
      <trkpt lat="45.67113161087036" lon="10.409696102142334">
        <ele>285.95913604634956</ele>
        <time>2017-11-13T16:24:06.113000Z</time>
      </trkpt>
      <trkpt lat="45.6727409362793" lon="10.409352779388428">
        <ele>284.4606927172735</ele>
        <time>2017-11-13T16:24:08.721000Z</time>
      </trkpt>
      <trkpt lat="45.67292183630426" lon="10.409361724609647">
        <ele>284.36361561129235</ele>
        <time>2017-11-13T16:24:09.011000Z</time>
      </trkpt>
      <trkpt lat="45.67292196678429" lon="10.409361731061747">
        <ele>284.36354559127227</ele>
        <time>2017-11-13T16:24:09.011000Z</time>
      </trkpt>
      <trkpt lat="45.67293713581106" lon="10.4093624811488">
        <ele>284.35540537556125</ele>
        <time>2017-11-13T16:24:09.035000Z</time>
      </trkpt>
      <trkpt lat="45.67296129651368" lon="10.40936367586255">
        <ele>284.34243992075415</ele>
        <time>2017-11-13T16:24:09.074000Z</time>
      </trkpt>
      <trkpt lat="45.672961212694645" lon="10.40936367586255">
        <ele>284.3423949674369</ele>
        <time>2017-11-13T16:24:09.074000Z</time>
      </trkpt>
      <trkpt lat="45.67359924316406" lon="10.409395694732666">
        <ele>283.0</ele>
        <time>2017-11-13T16:24:10.097000Z</time>
      </trkpt>
      <trkpt lat="45.67563772201538" lon="10.410232543945312">
        <ele>285.0</ele>
        <time>2017-11-13T16:24:13.497000Z</time>
      </trkpt>
      <trkpt lat="45.67741870880127" lon="10.409717559814453">
        <ele>284.9037962056499</ele>
        <time>2017-11-13T16:24:16.410000Z</time>
      </trkpt>
      <trkpt lat="45.67771920002997" lon="10.40980339050293">
        <ele>287.0</ele>
        <time>2017-11-13T16:24:16.901000Z</time>
      </trkpt>
      <trkpt lat="45.677826488390565" lon="10.409824848175049">
        <ele>287.049670678553</ele>
        <time>2017-11-13T16:24:17.075000Z</time>
      </trkpt>
      <trkpt lat="45.67789077758789" lon="10.40980339050293">
        <ele>287.1241950745953</ele>
        <time>2017-11-13T16:24:17.181000Z</time>
      </trkpt>
      <trkpt lat="45.6782341003418" lon="10.409610271453857">
        <ele>287.5406356229849</ele>
        <time>2017-11-13T16:24:17.772000Z</time>
      </trkpt>
      <trkpt lat="45.67928561009467" lon="10.409460067749023">
        <ele>289.7335984361187</ele>
        <time>2017-11-13T16:24:19.466000Z</time>
      </trkpt>
      <trkpt lat="45.67986488342285" lon="10.409395694732666">
        <ele>290.5895969527107</ele>
        <time>2017-11-13T16:24:20.397000Z</time>
      </trkpt>
      <trkpt lat="45.680251121520996" lon="10.409224033355713">
        <ele>292.188968689564</ele>
        <time>2017-11-13T16:24:21.045000Z</time>
      </trkpt>
      <trkpt lat="45.680573070421815" lon="10.408923625946045">
        <ele>290.7018740609999</ele>
        <time>2017-11-13T16:24:21.661000Z</time>
      </trkpt>
      <trkpt lat="45.68057298660278" lon="10.408923625946045">
        <ele>290.7019132251601</ele>
        <time>2017-11-13T16:24:21.661000Z</time>
      </trkpt>
      <trkpt lat="45.68158149719238" lon="10.407636165618896">
        <ele>293.0</ele>
        <time>2017-11-13T16:24:23.827000Z</time>
      </trkpt>
      <trkpt lat="45.68218239583075" lon="10.406692028045654">
        <ele>300.578318584318</ele>
        <time>2017-11-13T16:24:25.257000Z</time>
      </trkpt>
      <trkpt lat="45.68265438079834" lon="10.404889583587646">
        <ele>312.0</ele>
        <time>2017-11-13T16:24:27.413000Z</time>
      </trkpt>
      <trkpt lat="45.68336248397827" lon="10.403623580932617">
        <ele>301.41491600776266</ele>
        <time>2017-11-13T16:24:29.229000Z</time>
      </trkpt>
      <trkpt lat="45.683748722076416" lon="10.403409004211426">
        <ele>300.5616306354457</ele>
        <time>2017-11-13T16:24:29.893000Z</time>
      </trkpt>
      <trkpt lat="45.68512201309204" lon="10.402979850769043">
        <ele>297.0</ele>
        <time>2017-11-13T16:24:32.146000Z</time>
      </trkpt>
      <trkpt lat="45.68542242050171" lon="10.402829647064209">
        <ele>297.6759133969097</ele>
        <time>2017-11-13T16:24:32.656000Z</time>
      </trkpt>
      <trkpt lat="45.68758964538574" lon="10.401027202606201">
        <ele>306.0</ele>
        <time>2017-11-13T16:24:36.674000Z</time>
      </trkpt>
      <trkpt lat="45.68836212158203" lon="10.400640964508057">
        <ele>292.0</ele>
        <time>2017-11-13T16:24:37.986000Z</time>
      </trkpt>
      <trkpt lat="45.68844795227051" lon="10.400533676147461">
        <ele>292.1267597955303</ele>
        <time>2017-11-13T16:24:38.169000Z</time>
      </trkpt>
      <trkpt lat="45.68846949376166" lon="10.400362014770508">
        <ele>292.4175494802951</ele>
        <time>2017-11-13T16:24:38.364000Z</time>
      </trkpt>
      <trkpt lat="45.68842649459839" lon="10.40004014968872">
        <ele>292.9639158529237</ele>
        <time>2017-11-13T16:24:38.731000Z</time>
      </trkpt>
      <trkpt lat="45.68844795227051" lon="10.399739742279053">
        <ele>294.46739223492995</ele>
        <time>2017-11-13T16:24:39.069000Z</time>
      </trkpt>
      <trkpt lat="45.68859815597534" lon="10.399503707885742">
        <ele>294.9997377515809</ele>
        <time>2017-11-13T16:24:39.427000Z</time>
      </trkpt>
      <trkpt lat="45.68992853164673" lon="10.398516654968262">
        <ele>300.0</ele>
        <time>2017-11-13T16:24:41.829000Z</time>
      </trkpt>
      <trkpt lat="45.69010019302368" lon="10.398216247558594">
        <ele>298.90156499189874</ele>
        <time>2017-11-13T16:24:42.264000Z</time>
      </trkpt>
      <trkpt lat="45.69022902287543" lon="10.397787094116211">
        <ele>298.78309722025324</ele>
        <time>2017-11-13T16:24:42.787000Z</time>
      </trkpt>
      <trkpt lat="45.69070109166205" lon="10.396735668182373">
        <ele>299.1327682285486</ele>
        <time>2017-11-13T16:24:44.187000Z</time>
      </trkpt>
      <trkpt lat="45.69143056869507" lon="10.39581298828125">
        <ele>299.0</ele>
        <time>2017-11-13T16:24:45.748000Z</time>
      </trkpt>
      <trkpt lat="45.691752433776855" lon="10.395212173461914">
        <ele>299.0</ele>
        <time>2017-11-13T16:24:46.596000Z</time>
      </trkpt>
      <trkpt lat="45.692546367645264" lon="10.392293930053711">
        <ele>299.0</ele>
        <time>2017-11-13T16:24:50.103000Z</time>
      </trkpt>
      <trkpt lat="45.6926965713501" lon="10.391929149627686">
        <ele>300.17075223527905</ele>
        <time>2017-11-13T16:24:50.577000Z</time>
      </trkpt>
      <trkpt lat="45.69291114807129" lon="10.391607284545898">
        <ele>306.63037864000506</ele>
        <time>2017-11-13T16:24:51.075000Z</time>
      </trkpt>
      <trkpt lat="45.69310426712036" lon="10.391414165496826">
        <ele>309.0</ele>
        <time>2017-11-13T16:24:51.453000Z</time>
      </trkpt>
      <trkpt lat="45.69340475834906" lon="10.391263961791992">
        <ele>307.46312487586806</ele>
        <time>2017-11-13T16:24:51.963000Z</time>
      </trkpt>
      <trkpt lat="45.69340467453003" lon="10.391263961791992">
        <ele>307.4632468395639</ele>
        <time>2017-11-13T16:24:51.963000Z</time>
      </trkpt>
      <trkpt lat="45.694026947021484" lon="10.390942096710205">
        <ele>308.4259876449096</ele>
        <time>2017-11-13T16:24:53.024000Z</time>
      </trkpt>
      <trkpt lat="45.69563627243042" lon="10.389890670776367">
        <ele>315.0</ele>
        <time>2017-11-13T16:24:55.860000Z</time>
      </trkpt>
      <trkpt lat="45.69683790206909" lon="10.388796329498291">
        <ele>305.0</ele>
        <time>2017-11-13T16:24:58.143000Z</time>
      </trkpt>
      <trkpt lat="45.69818981923163" lon="10.388453006744385">
        <ele>305.0</ele>
        <time>2017-11-13T16:25:00.344000Z</time>
      </trkpt>
      <trkpt lat="45.69870471954346" lon="10.388345718383789">
        <ele>303.6666666666667</ele>
        <time>2017-11-13T16:25:01.178000Z</time>
      </trkpt>
      <trkpt lat="45.698726177215576" lon="10.388431549072266">
        <ele>303.7895912184641</ele>
        <time>2017-11-13T16:25:01.280000Z</time>
      </trkpt>
      <trkpt lat="45.69885492324829" lon="10.388474464416504">
        <ele>304.0447962952672</ele>
        <time>2017-11-13T16:25:01.492000Z</time>
      </trkpt>
      <trkpt lat="45.69891929626465" lon="10.388281345367432">
        <ele>305.0</ele>
        <time>2017-11-13T16:25:01.732000Z</time>
      </trkpt>
      <trkpt lat="45.700211280733775" lon="10.387979004305187">
        <ele>306.8599304698934</ele>
        <time>2017-11-13T16:25:03.831000Z</time>
      </trkpt>
      <trkpt lat="45.700211115181446" lon="10.387979093939066">
        <ele>306.86005179581736</ele>
        <time>2017-11-13T16:25:03.831000Z</time>
      </trkpt>
      <trkpt lat="45.700211768639505" lon="10.387978940941414">
        <ele>306.86050568046755</ele>
        <time>2017-11-13T16:25:03.831000Z</time>
      </trkpt>
      <trkpt lat="45.70093640126288" lon="10.38780927658081">
        <ele>307.6971607212629</ele>
        <time>2017-11-13T16:25:05.008000Z</time>
      </trkpt>
      <trkpt lat="45.70136555470526" lon="10.387659072875977">
        <ele>308.0</ele>
        <time>2017-11-13T16:25:05.716000Z</time>
      </trkpt>
      <trkpt lat="45.70185899734497" lon="10.38731575012207">
        <ele>309.00265846311896</ele>
        <time>2017-11-13T16:25:06.596000Z</time>
      </trkpt>
      <trkpt lat="45.70209511555731" lon="10.387122631072998">
        <ele>309.33441304923844</ele>
        <time>2017-11-13T16:25:07.032000Z</time>
      </trkpt>
      <trkpt lat="45.70215940475464" lon="10.387101173400879">
        <ele>309.4149504795562</ele>
        <time>2017-11-13T16:25:07.138000Z</time>
      </trkpt>
      <trkpt lat="45.70241689682007" lon="10.386993885040283">
        <ele>309.7421287919239</ele>
        <time>2017-11-13T16:25:07.568000Z</time>
      </trkpt>
      <trkpt lat="45.702717304229736" lon="10.386993885040283">
        <ele>310.7753013876567</ele>
        <time>2017-11-13T16:25:08.050000Z</time>
      </trkpt>
      <trkpt lat="45.70288904942572" lon="10.387122631072998">
        <ele>311.04683604019294</ele>
        <time>2017-11-13T16:25:08.361000Z</time>
      </trkpt>
      <trkpt lat="45.703060710802674" lon="10.38733720779419">
        <ele>311.36600996091744</ele>
        <time>2017-11-13T16:25:08.726000Z</time>
      </trkpt>
      <trkpt lat="45.70306062698364" lon="10.38733720779419">
        <ele>311.36619707993356</ele>
        <time>2017-11-13T16:25:08.726000Z</time>
      </trkpt>
      <trkpt lat="45.70344686508179" lon="10.387723445892334">
        <ele>313.41789628776246</ele>
        <time>2017-11-13T16:25:09.481000Z</time>
      </trkpt>
      <trkpt lat="45.70370444096625" lon="10.387680530548096">
        <ele>313.99679251057745</ele>
        <time>2017-11-13T16:25:09.897000Z</time>
      </trkpt>
      <trkpt lat="45.70406913757324" lon="10.387701988220215">
        <ele>315.4079439880339</ele>
        <time>2017-11-13T16:25:10.482000Z</time>
      </trkpt>
      <trkpt lat="45.70445537567139" lon="10.387916564941406">
        <ele>320.00963610783816</ele>
        <time>2017-11-13T16:25:11.146000Z</time>
      </trkpt>
      <trkpt lat="45.704777240753174" lon="10.38830280303955">
        <ele>321.63319015347685</ele>
        <time>2017-11-13T16:25:11.819000Z</time>
      </trkpt>
      <trkpt lat="45.70486307144165" lon="10.388667583465576">
        <ele>321.81483254123935</ele>
        <time>2017-11-13T16:25:12.250000Z</time>
      </trkpt>
      <trkpt lat="45.705249309539795" lon="10.388646125793457">
        <ele>330.35728919364595</ele>
        <time>2017-11-13T16:25:12.870000Z</time>
      </trkpt>
      <trkpt lat="45.70563563145697" lon="10.388667583465576">
        <ele>332.9002967388903</ele>
        <time>2017-11-13T16:25:13.490000Z</time>
      </trkpt>
      <trkpt lat="45.70567846298218" lon="10.388517379760742">
        <ele>333.645557410782</ele>
        <time>2017-11-13T16:25:13.672000Z</time>
      </trkpt>
      <trkpt lat="45.70567854680121" lon="10.38733720779419">
        <ele>340.0666491741445</ele>
        <time>2017-11-13T16:25:14.993000Z</time>
      </trkpt>
      <trkpt lat="45.7056999206543" lon="10.385749340057373">
        <ele>350.0</ele>
        <time>2017-11-13T16:25:16.771000Z</time>
      </trkpt>
      <trkpt lat="45.705721378326416" lon="10.385599136352539">
        <ele>352.42745749234405</ele>
        <time>2017-11-13T16:25:16.943000Z</time>
      </trkpt>
      <trkpt lat="45.706021785736084" lon="10.385169982910156">
        <ele>370.38157370361296</ele>
        <time>2017-11-13T16:25:17.623000Z</time>
      </trkpt>
      <trkpt lat="45.706021785736084" lon="10.384976863861084">
        <ele>379.1059185651587</ele>
        <time>2017-11-13T16:25:17.839000Z</time>
      </trkpt>
      <trkpt lat="45.70593595504761" lon="10.38484811782837">
        <ele>381.9241088615663</ele>
        <time>2017-11-13T16:25:18.038000Z</time>
      </trkpt>
      <trkpt lat="45.70537805557251" lon="10.384461879730225">
        <ele>378.13147216532457</ele>
        <time>2017-11-13T16:25:19.031000Z</time>
      </trkpt>
      <trkpt lat="45.705270767211914" lon="10.384204387664795">
        <ele>379.1926666394318</ele>
        <time>2017-11-13T16:25:19.367000Z</time>
      </trkpt>
      <trkpt lat="45.70516347885132" lon="10.383152961730957">
        <ele>390.28671534032884</ele>
        <time>2017-11-13T16:25:20.557000Z</time>
      </trkpt>
      <trkpt lat="45.704991817474365" lon="10.382509231567383">
        <ele>384.5054384172897</ele>
        <time>2017-11-13T16:25:21.328000Z</time>
      </trkpt>
      <trkpt lat="45.704991817474365" lon="10.381994247436523">
        <ele>388.74258215673746</ele>
        <time>2017-11-13T16:25:21.905000Z</time>
      </trkpt>
      <trkpt lat="45.70509910583496" lon="10.38083553314209">
        <ele>409.0</ele>
        <time>2017-11-13T16:25:23.214000Z</time>
      </trkpt>
      <trkpt lat="45.70507764816284" lon="10.380127429962158">
        <ele>411.3979318688171</ele>
        <time>2017-11-13T16:25:24.008000Z</time>
      </trkpt>
      <trkpt lat="45.70533514022827" lon="10.379011631011963">
        <ele>409.86400052785075</ele>
        <time>2017-11-13T16:25:25.324000Z</time>
      </trkpt>
      <trkpt lat="45.70537805557251" lon="10.378260612487793">
        <ele>406.0</ele>
        <time>2017-11-13T16:25:26.168000Z</time>
      </trkpt>
      <trkpt lat="45.70578575134277" lon="10.37783145904541">
        <ele>411.2981207195982</ele>
        <time>2017-11-13T16:25:26.979000Z</time>
      </trkpt>
      <trkpt lat="45.70587158203125" lon="10.377638339996338">
        <ele>424.9719492520137</ele>
        <time>2017-11-13T16:25:27.235000Z</time>
      </trkpt>
      <trkpt lat="45.70582866668701" lon="10.377466678619385">
        <ele>423.97182766982434</ele>
        <time>2017-11-13T16:25:27.439000Z</time>
      </trkpt>
      <trkpt lat="45.70544242858887" lon="10.377273559570312">
        <ele>428.2554335518932</ele>
        <time>2017-11-13T16:25:28.095000Z</time>
      </trkpt>
      <trkpt lat="45.7051420211792" lon="10.37684440612793">
        <ele>428.05286357501797</ele>
        <time>2017-11-13T16:25:28.775000Z</time>
      </trkpt>
      <trkpt lat="45.70486307144165" lon="10.376136302947998">
        <ele>423.4484902970444</ele>
        <time>2017-11-13T16:25:29.685000Z</time>
      </trkpt>
      <trkpt lat="45.70464849472046" lon="10.375492572784424">
        <ele>423.07666930470754</ele>
        <time>2017-11-13T16:25:30.484000Z</time>
      </trkpt>
      <trkpt lat="45.70464849472046" lon="10.375277996063232">
        <ele>423.450722716704</ele>
        <time>2017-11-13T16:25:30.724000Z</time>
      </trkpt>
      <trkpt lat="45.70488452911377" lon="10.374891757965088">
        <ele>424.67873925167214</ele>
        <time>2017-11-13T16:25:31.299000Z</time>
      </trkpt>
      <trkpt lat="45.70492744445801" lon="10.374612808227539">
        <ele>425.1766660673872</ele>
        <time>2017-11-13T16:25:31.619000Z</time>
      </trkpt>
      <trkpt lat="45.70488452911377" lon="10.374205112457275">
        <ele>425.8953925369263</ele>
        <time>2017-11-13T16:25:32.081000Z</time>
      </trkpt>
      <trkpt lat="45.704755866900086" lon="10.373711585998535">
        <ele>430.25488051098955</ele>
        <time>2017-11-13T16:25:32.671000Z</time>
      </trkpt>
      <trkpt lat="45.70466995239258" lon="10.373303890228271">
        <ele>433.2900031337581</ele>
        <time>2017-11-13T16:25:33.148000Z</time>
      </trkpt>
      <trkpt lat="45.70467003621161" lon="10.373024940490723">
        <ele>435.1283048096555</ele>
        <time>2017-11-13T16:25:33.460000Z</time>
      </trkpt>
      <trkpt lat="45.704777240753174" lon="10.372316837310791">
        <ele>438.90315383135686</ele>
        <time>2017-11-13T16:25:34.271000Z</time>
      </trkpt>
      <trkpt lat="45.70531368255615" lon="10.370750427246094">
        <ele>479.42736876381906</ele>
        <time>2017-11-13T16:25:36.224000Z</time>
      </trkpt>
      <trkpt lat="45.70531368255615" lon="10.370428562164307">
        <ele>479.4860126290909</ele>
        <time>2017-11-13T16:25:36.584000Z</time>
      </trkpt>
      <trkpt lat="45.70518493652344" lon="10.370063781738281">
        <ele>476.411268523199</ele>
        <time>2017-11-13T16:25:37.042000Z</time>
      </trkpt>
      <trkpt lat="45.70505619049072" lon="10.369205474853516">
        <ele>471.8070692155993</ele>
        <time>2017-11-13T16:25:38.025000Z</time>
      </trkpt>
      <trkpt lat="45.704970359802246" lon="10.36909818649292">
        <ele>460.2464157452459</ele>
        <time>2017-11-13T16:25:38.208000Z</time>
      </trkpt>
      <trkpt lat="45.7045841217041" lon="10.368947982788086">
        <ele>461.3045672490739</ele>
        <time>2017-11-13T16:25:38.850000Z</time>
      </trkpt>
      <trkpt lat="45.704498291015625" lon="10.368819236755371">
        <ele>461.63320414968047</ele>
        <time>2017-11-13T16:25:39.049000Z</time>
      </trkpt>
      <trkpt lat="45.704498291015625" lon="10.36860466003418">
        <ele>462.02939185784606</ele>
        <time>2017-11-13T16:25:39.289000Z</time>
      </trkpt>
      <trkpt lat="45.70454120635986" lon="10.368411540985107">
        <ele>462.4035775630505</ele>
        <time>2017-11-13T16:25:39.516000Z</time>
      </trkpt>
      <trkpt lat="45.704777240753174" lon="10.368411540985107">
        <ele>463.0276210996355</ele>
        <time>2017-11-13T16:25:39.894000Z</time>
      </trkpt>
      <trkpt lat="45.7051420211792" lon="10.368776321411133">
        <ele>479.23260870460854</ele>
        <time>2017-11-13T16:25:40.607000Z</time>
      </trkpt>
      <trkpt lat="45.70535659790039" lon="10.368819236755371">
        <ele>480.6187008026299</ele>
        <time>2017-11-13T16:25:40.954000Z</time>
      </trkpt>
      <trkpt lat="45.705463886260986" lon="10.368669033050537">
        <ele>481.57862470043983</ele>
        <time>2017-11-13T16:25:41.195000Z</time>
      </trkpt>
      <trkpt lat="45.705742835998535" lon="10.3676176071167">
        <ele>485.6036403599028</ele>
        <time>2017-11-13T16:25:42.454000Z</time>
      </trkpt>
      <trkpt lat="45.70582866668701" lon="10.366973876953125">
        <ele>483.77536729524735</ele>
        <time>2017-11-13T16:25:43.188000Z</time>
      </trkpt>
      <trkpt lat="45.70591449737549" lon="10.366802215576172">
        <ele>495.474992501142</ele>
        <time>2017-11-13T16:25:43.424000Z</time>
      </trkpt>
      <trkpt lat="45.70608615875244" lon="10.366673469543457">
        <ele>494.60764156062555</ele>
        <time>2017-11-13T16:25:43.735000Z</time>
      </trkpt>
      <trkpt lat="45.706214904785156" lon="10.366458892822266">
        <ele>483.39004687436005</ele>
        <time>2017-11-13T16:25:44.052000Z</time>
      </trkpt>
      <trkpt lat="45.70634365081787" lon="10.366029739379883">
        <ele>481.9300987423</ele>
        <time>2017-11-13T16:25:44.575000Z</time>
      </trkpt>
      <trkpt lat="45.706472396850586" lon="10.366029739379883">
        <ele>481.6066361430258</ele>
        <time>2017-11-13T16:25:44.781000Z</time>
      </trkpt>
      <trkpt lat="45.707008838653564" lon="10.366394519805908">
        <ele>479.4479703975514</ele>
        <time>2017-11-13T16:25:45.733000Z</time>
      </trkpt>
      <trkpt lat="45.707459449768066" lon="10.3666090965271">
        <ele>478.2548976141823</ele>
        <time>2017-11-13T16:25:46.494000Z</time>
      </trkpt>
      <trkpt lat="45.707759857177734" lon="10.36658763885498">
        <ele>489.07587631867347</ele>
        <time>2017-11-13T16:25:46.976000Z</time>
      </trkpt>
      <trkpt lat="45.70831775665283" lon="10.36633014678955">
        <ele>500.41216900009823</ele>
        <time>2017-11-13T16:25:47.916000Z</time>
      </trkpt>
      <trkpt lat="45.70868253707886" lon="10.365965366363525">
        <ele>523.3501899388785</ele>
        <time>2017-11-13T16:25:48.629000Z</time>
      </trkpt>
      <trkpt lat="45.70911169052124" lon="10.365471839904785">
        <ele>511.36154960814594</ele>
        <time>2017-11-13T16:25:49.511000Z</time>
      </trkpt>
      <trkpt lat="45.70932626724243" lon="10.36487102508545">
        <ele>513.896390467882</ele>
        <time>2017-11-13T16:25:50.266000Z</time>
      </trkpt>
      <trkpt lat="45.70943355560303" lon="10.364720821380615">
        <ele>513.4811163898181</ele>
        <time>2017-11-13T16:25:50.507000Z</time>
      </trkpt>
      <trkpt lat="45.70960521697998" lon="10.364527702331543">
        <ele>514.1203200676881</ele>
        <time>2017-11-13T16:25:50.857000Z</time>
      </trkpt>
      <trkpt lat="45.709991455078125" lon="10.364441871643066">
        <ele>515.2648176688914</ele>
        <time>2017-11-13T16:25:51.484000Z</time>
      </trkpt>
      <trkpt lat="45.71029186248779" lon="10.363969802856445">
        <ele>516.2374076433283</ele>
        <time>2017-11-13T16:25:52.199000Z</time>
      </trkpt>
      <trkpt lat="45.71042060852051" lon="10.363883972167969">
        <ele>516.6532423031073</ele>
        <time>2017-11-13T16:25:52.427000Z</time>
      </trkpt>
      <trkpt lat="45.71057081222534" lon="10.363926887512207">
        <ele>517.3268729382812</ele>
        <time>2017-11-13T16:25:52.673000Z</time>
      </trkpt>
      <trkpt lat="45.710763931274414" lon="10.364549160003662">
        <ele>523.0848524226632</ele>
        <time>2017-11-13T16:25:53.435000Z</time>
      </trkpt>
      <trkpt lat="45.710957050323486" lon="10.364656448364258">
        <ele>527.6625485374193</ele>
        <time>2017-11-13T16:25:53.767000Z</time>
      </trkpt>
      <trkpt lat="45.71112871170044" lon="10.364527702331543">
        <ele>527.0125459199868</ele>
        <time>2017-11-13T16:25:54.078000Z</time>
      </trkpt>
      <trkpt lat="45.71132183074951" lon="10.364077091217041">
        <ele>520.10748547926</ele>
        <time>2017-11-13T16:25:54.670000Z</time>
      </trkpt>
      <trkpt lat="45.71166515350342" lon="10.363819599151611">
        <ele>517.1850460362666</ele>
        <time>2017-11-13T16:25:55.291000Z</time>
      </trkpt>
      <trkpt lat="45.71181535720825" lon="10.36360502243042">
        <ele>513.5852246678015</ele>
        <time>2017-11-13T16:25:55.631000Z</time>
      </trkpt>
      <trkpt lat="45.71194410324097" lon="10.363540649414062">
        <ele>512.5569172301945</ele>
        <time>2017-11-13T16:25:55.850000Z</time>
      </trkpt>
      <trkpt lat="45.71213722229004" lon="10.363626480102539">
        <ele>511.0321444057881</ele>
        <time>2017-11-13T16:25:56.174000Z</time>
      </trkpt>
      <trkpt lat="45.71263074874878" lon="10.364978313446045">
        <ele>499.0</ele>
        <time>2017-11-13T16:25:57.882000Z</time>
      </trkpt>
      <trkpt lat="45.7126522064209" lon="10.365386009216309">
        <ele>512.0244767339885</ele>
        <time>2017-11-13T16:25:58.340000Z</time>
      </trkpt>
      <trkpt lat="45.712523460388184" lon="10.365750789642334">
        <ele>518.7136503195862</ele>
        <time>2017-11-13T16:25:58.798000Z</time>
      </trkpt>
      <trkpt lat="45.71233034133911" lon="10.367038249969482">
        <ele>556.6612336856703</ele>
        <time>2017-11-13T16:26:00.272000Z</time>
      </trkpt>
      <trkpt lat="45.71235179901123" lon="10.36733865737915">
        <ele>562.0</ele>
        <time>2017-11-13T16:26:00.610000Z</time>
      </trkpt>
      <trkpt lat="45.71241617202759" lon="10.367403030395508">
        <ele>561.2477985766101</ele>
        <time>2017-11-13T16:26:00.736000Z</time>
      </trkpt>
      <trkpt lat="45.7125449180603" lon="10.36736011505127">
        <ele>562.3146996438117</ele>
        <time>2017-11-13T16:26:00.948000Z</time>
      </trkpt>
      <trkpt lat="45.71303844451904" lon="10.366737842559814">
        <ele>556.0150635023641</ele>
        <time>2017-11-13T16:26:02.002000Z</time>
      </trkpt>
      <trkpt lat="45.71331739425659" lon="10.366480350494385">
        <ele>542.8355378075277</ele>
        <time>2017-11-13T16:26:02.534000Z</time>
      </trkpt>
      <trkpt lat="45.71359634399414" lon="10.366437435150146">
        <ele>540.4163950883834</ele>
        <time>2017-11-13T16:26:02.984000Z</time>
      </trkpt>
      <trkpt lat="45.71385383605957" lon="10.36658763885498">
        <ele>539.6706854641229</ele>
        <time>2017-11-13T16:26:03.430000Z</time>
      </trkpt>
      <trkpt lat="45.713982582092285" lon="10.366780757904053">
        <ele>549.5039788264029</ele>
        <time>2017-11-13T16:26:03.729000Z</time>
      </trkpt>
      <trkpt lat="45.714218616485596" lon="10.366888046264648">
        <ele>540.8397904257307</ele>
        <time>2017-11-13T16:26:04.126000Z</time>
      </trkpt>
      <trkpt lat="45.71434736251831" lon="10.367124080657959">
        <ele>541.5142878040818</ele>
        <time>2017-11-13T16:26:04.461000Z</time>
      </trkpt>
      <trkpt lat="45.71434736251831" lon="10.367274284362793">
        <ele>541.8525379990198</ele>
        <time>2017-11-13T16:26:04.629000Z</time>
      </trkpt>
      <trkpt lat="45.71419715881348" lon="10.36759614944458">
        <ele>546.4856601093181</ele>
        <time>2017-11-13T16:26:05.062000Z</time>
      </trkpt>
      <trkpt lat="45.71430444717407" lon="10.368540287017822">
        <ele>558.6195792703555</ele>
        <time>2017-11-13T16:26:06.133000Z</time>
      </trkpt>
      <trkpt lat="45.71406841278076" lon="10.36909818649292">
        <ele>578.9697313558629</ele>
        <time>2017-11-13T16:26:06.863000Z</time>
      </trkpt>
      <trkpt lat="45.71402549743652" lon="10.369269847869873">
        <ele>579.4832490875364</ele>
        <time>2017-11-13T16:26:07.067000Z</time>
      </trkpt>
      <trkpt lat="45.714111328125" lon="10.369570255279541">
        <ele>580.3973998132266</ele>
        <time>2017-11-13T16:26:07.430000Z</time>
      </trkpt>
      <trkpt lat="45.71441173553467" lon="10.369935035705566">
        <ele>571.9860116350995</ele>
        <time>2017-11-13T16:26:08.061000Z</time>
      </trkpt>
      <trkpt lat="45.71415424346924" lon="10.37135124206543">
        <ele>588.0983676425485</ele>
        <time>2017-11-13T16:26:09.699000Z</time>
      </trkpt>
      <trkpt lat="45.71417570114136" lon="10.371565818786621">
        <ele>578.9432775195127</ele>
        <time>2017-11-13T16:26:09.942000Z</time>
      </trkpt>
      <trkpt lat="45.71428298950195" lon="10.37160873413086">
        <ele>578.093150405174</ele>
        <time>2017-11-13T16:26:10.121000Z</time>
      </trkpt>
      <trkpt lat="45.71479797363281" lon="10.371394157409668">
        <ele>574.0</ele>
        <time>2017-11-13T16:26:10.981000Z</time>
      </trkpt>
      <trkpt lat="45.714991092681885" lon="10.371437072753906">
        <ele>575.1989729479014</ele>
        <time>2017-11-13T16:26:11.294000Z</time>
      </trkpt>
      <trkpt lat="45.715227127075195" lon="10.371801853179932">
        <ele>573.6627139075939</ele>
        <time>2017-11-13T16:26:11.851000Z</time>
      </trkpt>
      <trkpt lat="45.71533441543579" lon="10.37208080291748">
        <ele>575.0269307617108</ele>
        <time>2017-11-13T16:26:12.207000Z</time>
      </trkpt>
      <trkpt lat="45.71537733078003" lon="10.37233829498291">
        <ele>576.1609214414055</ele>
        <time>2017-11-13T16:26:12.503000Z</time>
      </trkpt>
      <trkpt lat="45.715205669403076" lon="10.372917652130127">
        <ele>583.5235613982338</ele>
        <time>2017-11-13T16:26:13.207000Z</time>
      </trkpt>
      <trkpt lat="45.71484088897705" lon="10.373733043670654">
        <ele>608.3545654497563</ele>
        <time>2017-11-13T16:26:14.291000Z</time>
      </trkpt>
      <trkpt lat="45.714454650878906" lon="10.37435531616211">
        <ele>617.0</ele>
        <time>2017-11-13T16:26:15.223000Z</time>
      </trkpt>
      <trkpt lat="45.714454650878906" lon="10.374505519866943">
        <ele>616.1391771877611</ele>
        <time>2017-11-13T16:26:15.391000Z</time>
      </trkpt>
      <trkpt lat="45.71454048156738" lon="10.374720096588135">
        <ele>614.721934215965</ele>
        <time>2017-11-13T16:26:15.668000Z</time>
      </trkpt>
      <trkpt lat="45.71477651596069" lon="10.374784469604492">
        <ele>612.7497756818839</ele>
        <time>2017-11-13T16:26:16.053000Z</time>
      </trkpt>
      <trkpt lat="45.7151198387146" lon="10.374484062194824">
        <ele>599.7808565012198</ele>
        <time>2017-11-13T16:26:16.698000Z</time>
      </trkpt>
      <trkpt lat="45.71552753448486" lon="10.3745698928833">
        <ele>596.3985735799879</ele>
        <time>2017-11-13T16:26:17.359000Z</time>
      </trkpt>
      <trkpt lat="45.71563482284546" lon="10.374677181243896">
        <ele>597.3043490463236</ele>
        <time>2017-11-13T16:26:17.569000Z</time>
      </trkpt>
      <trkpt lat="45.7156777381897" lon="10.37508487701416">
        <ele>607.2970681370902</ele>
        <time>2017-11-13T16:26:18.031000Z</time>
      </trkpt>
      <trkpt lat="45.7155704498291" lon="10.375492572784424">
        <ele>610.8665839054709</ele>
        <time>2017-11-13T16:26:18.519000Z</time>
      </trkpt>
      <trkpt lat="45.71529150009155" lon="10.37585735321045">
        <ele>615.9655065995441</ele>
        <time>2017-11-13T16:26:19.125000Z</time>
      </trkpt>
      <trkpt lat="45.71490526199341" lon="10.376157760620117">
        <ele>629.8595857517454</ele>
        <time>2017-11-13T16:26:19.830000Z</time>
      </trkpt>
      <trkpt lat="45.71481943130493" lon="10.37635087966919">
        <ele>631.0333092657355</ele>
        <time>2017-11-13T16:26:20.086000Z</time>
      </trkpt>
      <trkpt lat="45.71479797363281" lon="10.376522541046143">
        <ele>631.9274363035323</ele>
        <time>2017-11-13T16:26:20.281000Z</time>
      </trkpt>
      <trkpt lat="45.71488380432129" lon="10.376672744750977">
        <ele>635.2559116509777</ele>
        <time>2017-11-13T16:26:20.498000Z</time>
      </trkpt>
      <trkpt lat="45.715270042419434" lon="10.376715660095215">
        <ele>629.4339401911012</ele>
        <time>2017-11-13T16:26:21.119000Z</time>
      </trkpt>
      <trkpt lat="45.715742111206055" lon="10.377552509307861">
        <ele>640.6466483254209</ele>
        <time>2017-11-13T16:26:22.323000Z</time>
      </trkpt>
      <trkpt lat="45.71561336517334" lon="10.377917289733887">
        <ele>641.2746521664302</ele>
        <time>2017-11-13T16:26:22.781000Z</time>
      </trkpt>
      <trkpt lat="45.71542024612427" lon="10.378260612487793">
        <ele>641.952035816394</ele>
        <time>2017-11-13T16:26:23.274000Z</time>
      </trkpt>
      <trkpt lat="45.71544170379639" lon="10.378432273864746">
        <ele>644.4231892893077</ele>
        <time>2017-11-13T16:26:23.469000Z</time>
      </trkpt>
      <trkpt lat="45.7155704498291" lon="10.378668308258057">
        <ele>643.5148834975766</ele>
        <time>2017-11-13T16:26:23.804000Z</time>
      </trkpt>
      <trkpt lat="45.715763568878174" lon="10.37881851196289">
        <ele>642.5604223905931</ele>
        <time>2017-11-13T16:26:24.156000Z</time>
      </trkpt>
      <trkpt lat="45.71593523025513" lon="10.379054546356201">
        <ele>629.8602159101979</ele>
        <time>2017-11-13T16:26:24.537000Z</time>
      </trkpt>
      <trkpt lat="45.71619272232056" lon="10.379676818847656">
        <ele>633.0</ele>
        <time>2017-11-13T16:26:25.347000Z</time>
      </trkpt>
      <trkpt lat="45.71608543395996" lon="10.380041599273682">
        <ele>643.0969905433799</ele>
        <time>2017-11-13T16:26:25.790000Z</time>
      </trkpt>
      <trkpt lat="45.71606397628784" lon="10.380535125732422">
        <ele>650.2972348451729</ele>
        <time>2017-11-13T16:26:26.343000Z</time>
      </trkpt>
      <trkpt lat="45.715978145599365" lon="10.380749702453613">
        <ele>653.8981400362716</ele>
        <time>2017-11-13T16:26:26.620000Z</time>
      </trkpt>
      <trkpt lat="45.715978145599365" lon="10.381007194519043">
        <ele>663.9808659934188</ele>
        <time>2017-11-13T16:26:26.908000Z</time>
      </trkpt>
      <trkpt lat="45.716493129730225" lon="10.381457805633545">
        <ele>669.3771326912632</ele>
        <time>2017-11-13T16:26:27.875000Z</time>
      </trkpt>
      <trkpt lat="45.71666479110718" lon="10.38182258605957">
        <ele>680.1235448344743</ele>
        <time>2017-11-13T16:26:28.367000Z</time>
      </trkpt>
      <trkpt lat="45.716750621795654" lon="10.38184404373169">
        <ele>680.8829863551584</ele>
        <time>2017-11-13T16:26:28.507000Z</time>
      </trkpt>
      <trkpt lat="45.71683645248413" lon="10.381758213043213">
        <ele>680.9944517415638</ele>
        <time>2017-11-13T16:26:28.675000Z</time>
      </trkpt>
      <trkpt lat="45.716986656188965" lon="10.381414890289307">
        <ele>671.2956643345462</ele>
        <time>2017-11-13T16:26:29.128000Z</time>
      </trkpt>
      <trkpt lat="45.71711540222168" lon="10.381371974945068">
        <ele>672.5764345822563</ele>
        <time>2017-11-13T16:26:29.340000Z</time>
      </trkpt>
      <trkpt lat="45.7180380821228" lon="10.38184404373169">
        <ele>691.0696196165812</ele>
        <time>2017-11-13T16:26:30.911000Z</time>
      </trkpt>
      <trkpt lat="45.71861743927002" lon="10.382444858551025">
        <ele>703.0</ele>
        <time>2017-11-13T16:26:32.058000Z</time>
      </trkpt>
      <trkpt lat="45.71887493133545" lon="10.382487773895264">
        <ele>704.0641300546986</ele>
        <time>2017-11-13T16:26:32.474000Z</time>
      </trkpt>
      <trkpt lat="45.71911096572876" lon="10.382788181304932">
        <ele>707.3603030642677</ele>
        <time>2017-11-13T16:26:32.980000Z</time>
      </trkpt>
      <trkpt lat="45.719218254089355" lon="10.382788181304932">
        <ele>718.0481374622077</ele>
        <time>2017-11-13T16:26:33.152000Z</time>
      </trkpt>
      <trkpt lat="45.71930408477783" lon="10.382637977600098">
        <ele>718.074874211542</ele>
        <time>2017-11-13T16:26:33.369000Z</time>
      </trkpt>
      <trkpt lat="45.719304168596864" lon="10.382637977600098">
        <ele>718.0748907488322</ele>
        <time>2017-11-13T16:26:33.369000Z</time>
      </trkpt>
      <trkpt lat="45.71932562626898" lon="10.382444858551025">
        <ele>718.1018272783889</ele>
        <time>2017-11-13T16:26:33.588000Z</time>
      </trkpt>
      <trkpt lat="45.71930408477783" lon="10.381715297698975">
        <ele>718.2024126907967</ele>
        <time>2017-11-13T16:26:34.405000Z</time>
      </trkpt>
      <trkpt lat="45.71913242340088" lon="10.381286144256592">
        <ele>706.9372092105496</ele>
        <time>2017-11-13T16:26:34.959000Z</time>
      </trkpt>
      <trkpt lat="45.71902513504028" lon="10.380856990814209">
        <ele>707.0</ele>
        <time>2017-11-13T16:26:35.469000Z</time>
      </trkpt>
      <trkpt lat="45.71902513504028" lon="10.380105972290039">
        <ele>705.082872489775</ele>
        <time>2017-11-13T16:26:36.310000Z</time>
      </trkpt>
      <trkpt lat="45.71906805038452" lon="10.37984848022461">
        <ele>698.0929270739166</ele>
        <time>2017-11-13T16:26:36.606000Z</time>
      </trkpt>
      <trkpt lat="45.719218254089355" lon="10.379784107208252">
        <ele>692.4853645539146</ele>
        <time>2017-11-13T16:26:36.857000Z</time>
      </trkpt>
      <trkpt lat="45.71969032287598" lon="10.380513668060303">
        <ele>702.2706610080182</ele>
        <time>2017-11-13T16:26:37.970000Z</time>
      </trkpt>
      <trkpt lat="45.71984052658081" lon="10.380642414093018">
        <ele>702.3865453430953</ele>
        <time>2017-11-13T16:26:38.251000Z</time>
      </trkpt>
      <trkpt lat="45.719947814941406" lon="10.380642414093018">
        <ele>702.4575730872633</ele>
        <time>2017-11-13T16:26:38.423000Z</time>
      </trkpt>
      <trkpt lat="45.720055103302" lon="10.380513668060303">
        <ele>703.5502338076036</ele>
        <time>2017-11-13T16:26:38.647000Z</time>
      </trkpt>
      <trkpt lat="45.720205307006836" lon="10.380449295043945">
        <ele>703.654028519938</ele>
        <time>2017-11-13T16:26:38.898000Z</time>
      </trkpt>
      <trkpt lat="45.720505714416504" lon="10.380535125732422">
        <ele>705.9020075364837</ele>
        <time>2017-11-13T16:26:39.389000Z</time>
      </trkpt>
      <trkpt lat="45.720741748809814" lon="10.380513668060303">
        <ele>709.1647493954157</ele>
        <time>2017-11-13T16:26:39.768000Z</time>
      </trkpt>
      <trkpt lat="45.72108507156372" lon="10.380620956420898">
        <ele>722.3457703038029</ele>
        <time>2017-11-13T16:26:40.331000Z</time>
      </trkpt>
      <trkpt lat="45.72132110595703" lon="10.380556583404541">
        <ele>725.6604594416502</ele>
        <time>2017-11-13T16:26:40.716000Z</time>
      </trkpt>
      <trkpt lat="45.721471309661865" lon="10.380234718322754">
        <ele>729.3891893505496</ele>
        <time>2017-11-13T16:26:41.149000Z</time>
      </trkpt>
      <trkpt lat="45.72228670120239" lon="10.379676818847656">
        <ele>747.1554874794257</ele>
        <time>2017-11-13T16:26:42.598000Z</time>
      </trkpt>
      <trkpt lat="45.72230815887451" lon="10.379548072814941">
        <ele>748.0898080451428</ele>
        <time>2017-11-13T16:26:42.746000Z</time>
      </trkpt>
      <trkpt lat="45.72226524353027" lon="10.37933349609375">
        <ele>749.6653737546134</ele>
        <time>2017-11-13T16:26:42.996000Z</time>
      </trkpt>
      <trkpt lat="45.72209358215332" lon="10.379140377044678">
        <ele>755.2056681949816</ele>
        <time>2017-11-13T16:26:43.346000Z</time>
      </trkpt>
      <trkpt lat="45.72205066680908" lon="10.378968715667725">
        <ele>755.8985974329521</ele>
        <time>2017-11-13T16:26:43.550000Z</time>
      </trkpt>
      <trkpt lat="45.72205066680908" lon="10.37883996963501">
        <ele>756.3878701630174</ele>
        <time>2017-11-13T16:26:43.694000Z</time>
      </trkpt>
      <trkpt lat="45.722479820251465" lon="10.378711223602295">
        <ele>758.774634734442</ele>
        <time>2017-11-13T16:26:44.397000Z</time>
      </trkpt>
      <trkpt lat="45.722501277923584" lon="10.37858247756958">
        <ele>769.610986054875</ele>
        <time>2017-11-13T16:26:44.545000Z</time>
      </trkpt>
      <trkpt lat="45.72213649749756" lon="10.377552509307861">
        <ele>767.0</ele>
        <time>2017-11-13T16:26:45.838000Z</time>
      </trkpt>
      <trkpt lat="45.72211503982544" lon="10.37731647491455">
        <ele>769.233661669264</ele>
        <time>2017-11-13T16:26:46.104000Z</time>
      </trkpt>
      <trkpt lat="45.72232961654663" lon="10.377058982849121">
        <ele>769.6272680332451</ele>
        <time>2017-11-13T16:26:46.553000Z</time>
      </trkpt>
      <trkpt lat="45.72230815887451" lon="10.376887321472168">
        <ele>769.7984603337873</ele>
        <time>2017-11-13T16:26:46.748000Z</time>
      </trkpt>
      <trkpt lat="45.72181463241577" lon="10.376136302947998">
        <ele>769.8109326029493</ele>
        <time>2017-11-13T16:26:47.902000Z</time>
      </trkpt>
      <trkpt lat="45.72179317474365" lon="10.375878810882568">
        <ele>770.0137342356875</ele>
        <time>2017-11-13T16:26:48.192000Z</time>
      </trkpt>
      <trkpt lat="45.72190046310425" lon="10.375707149505615">
        <ele>762.8605854872272</ele>
        <time>2017-11-13T16:26:48.450000Z</time>
      </trkpt>
      <trkpt lat="45.722243785858154" lon="10.375428199768066">
        <ele>763.3027354753643</ele>
        <time>2017-11-13T16:26:49.083000Z</time>
      </trkpt>
      <trkpt lat="45.72286605834961" lon="10.375406742095947">
        <ele>772.0</ele>
        <time>2017-11-13T16:26:50.081000Z</time>
      </trkpt>
      <trkpt lat="45.72331666946411" lon="10.375063419342041">
        <ele>776.1342203435734</ele>
        <time>2017-11-13T16:26:50.899000Z</time>
      </trkpt>
      <trkpt lat="45.723724365234375" lon="10.374956130981445">
        <ele>781.4918740688466</ele>
        <time>2017-11-13T16:26:51.564000Z</time>
      </trkpt>
      <trkpt lat="45.72387456893921" lon="10.374698638916016">
        <ele>784.5118160262961</ele>
        <time>2017-11-13T16:26:51.940000Z</time>
      </trkpt>
      <trkpt lat="45.724217891693115" lon="10.374398231506348">
        <ele>802.0316213214674</ele>
        <time>2017-11-13T16:26:52.585000Z</time>
      </trkpt>
      <trkpt lat="45.724453926086426" lon="10.374033451080322">
        <ele>803.5079183469535</ele>
        <time>2017-11-13T16:26:53.142000Z</time>
      </trkpt>
      <trkpt lat="45.72462558746338" lon="10.37358283996582">
        <ele>806.5261376681357</ele>
        <time>2017-11-13T16:26:53.717000Z</time>
      </trkpt>
      <trkpt lat="45.72481870651245" lon="10.37283182144165">
        <ele>805.1732280139917</ele>
        <time>2017-11-13T16:26:54.613000Z</time>
      </trkpt>
      <trkpt lat="45.72490462101996" lon="10.3721022605896">
        <ele>807.4380862366356</ele>
        <time>2017-11-13T16:26:55.441000Z</time>
      </trkpt>
      <trkpt lat="45.72486170567572" lon="10.371994972229004">
        <ele>807.76158976831</ele>
        <time>2017-11-13T16:26:55.579000Z</time>
      </trkpt>
      <trkpt lat="45.72443246841431" lon="10.371565818786621">
        <ele>813.0566281013822</ele>
        <time>2017-11-13T16:26:56.418000Z</time>
      </trkpt>
      <trkpt lat="45.72438955307007" lon="10.370986461639404">
        <ele>812.6046608696352</ele>
        <time>2017-11-13T16:26:57.070000Z</time>
      </trkpt>
      <trkpt lat="45.72438955307007" lon="10.370557308197021">
        <ele>811.9384058632422</ele>
        <time>2017-11-13T16:26:57.550000Z</time>
      </trkpt>
      <trkpt lat="45.72443246841431" lon="10.370171070098877">
        <ele>809.6400908126503</ele>
        <time>2017-11-13T16:26:57.988000Z</time>
      </trkpt>
      <trkpt lat="45.72466858662665" lon="10.369634628295898">
        <ele>803.2467318512619</ele>
        <time>2017-11-13T16:26:58.698000Z</time>
      </trkpt>
      <trkpt lat="45.72492599487305" lon="10.368947982788086">
        <ele>795.0</ele>
        <time>2017-11-13T16:26:59.570000Z</time>
      </trkpt>
      <trkpt lat="45.72501182556152" lon="10.368390083312988">
        <ele>803.1953634593993</ele>
        <time>2017-11-13T16:27:00.209000Z</time>
      </trkpt>
      <trkpt lat="45.72511911392212" lon="10.368154048919678">
        <ele>795.9583490689824</ele>
        <time>2017-11-13T16:27:00.524000Z</time>
      </trkpt>
      <trkpt lat="45.725462436676025" lon="10.368003845214844">
        <ele>796.134197433316</ele>
        <time>2017-11-13T16:27:01.099000Z</time>
      </trkpt>
      <trkpt lat="45.725719928741455" lon="10.367553234100342">
        <ele>796.3333333333334</ele>
        <time>2017-11-13T16:27:01.751000Z</time>
      </trkpt>
      <trkpt lat="45.72651386260986" lon="10.367274284362793">
        <ele>801.3175069119275</ele>
        <time>2017-11-13T16:27:03.062000Z</time>
      </trkpt>
      <trkpt lat="45.726685523986816" lon="10.367166996002197">
        <ele>812.712461390042</ele>
        <time>2017-11-13T16:27:03.362000Z</time>
      </trkpt>
      <trkpt lat="45.72679281234741" lon="10.36684513092041">
        <ele>815.4532618490499</ele>
        <time>2017-11-13T16:27:03.761000Z</time>
      </trkpt>
      <trkpt lat="45.72713613510132" lon="10.366501808166504">
        <ele>818.501211133118</ele>
        <time>2017-11-13T16:27:04.432000Z</time>
      </trkpt>
      <trkpt lat="45.72715759277344" lon="10.36633014678955">
        <ele>818.9997419502673</ele>
        <time>2017-11-13T16:27:04.627000Z</time>
      </trkpt>
      <trkpt lat="45.72709321975708" lon="10.365986824035645">
        <ele>820.0159804920495</ele>
        <time>2017-11-13T16:27:05.025000Z</time>
      </trkpt>
      <trkpt lat="45.7270073890686" lon="10.365793704986572">
        <ele>823.0037755594453</ele>
        <time>2017-11-13T16:27:05.281000Z</time>
      </trkpt>
      <trkpt lat="45.72640657424927" lon="10.3656005859375">
        <ele>821.858677517252</ele>
        <time>2017-11-13T16:27:06.268000Z</time>
      </trkpt>
      <trkpt lat="45.72629928588867" lon="10.365514755249023">
        <ele>822.4027342296619</ele>
        <time>2017-11-13T16:27:06.465000Z</time>
      </trkpt>
      <trkpt lat="45.726256370544434" lon="10.365300178527832">
        <ele>823.092600650178</ele>
        <time>2017-11-13T16:27:06.715000Z</time>
      </trkpt>
      <trkpt lat="45.72632074356079" lon="10.365042686462402">
        <ele>823.8400387152142</ele>
        <time>2017-11-13T16:27:07.021000Z</time>
      </trkpt>
      <trkpt lat="45.726685523986816" lon="10.364484786987305">
        <ele>826.2623134866784</ele>
        <time>2017-11-13T16:27:07.876000Z</time>
      </trkpt>
      <trkpt lat="45.72730779647827" lon="10.364162921905518">
        <ele>828.9366557464309</ele>
        <time>2017-11-13T16:27:08.937000Z</time>
      </trkpt>
      <trkpt lat="45.727458000183105" lon="10.364248752593994">
        <ele>834.153250676436</ele>
        <time>2017-11-13T16:27:09.196000Z</time>
      </trkpt>
      <trkpt lat="45.727736949920654" lon="10.364656448364258">
        <ele>845.3060819667504</ele>
        <time>2017-11-13T16:27:09.835000Z</time>
      </trkpt>
      <trkpt lat="45.72793006896973" lon="10.364634990692139">
        <ele>845.1659815550238</ele>
        <time>2017-11-13T16:27:10.146000Z</time>
      </trkpt>
      <trkpt lat="45.727972984313965" lon="10.364484786987305">
        <ele>843.9608416882587</ele>
        <time>2017-11-13T16:27:10.328000Z</time>
      </trkpt>
      <trkpt lat="45.72786569595337" lon="10.363712310791016">
        <ele>837.1123961450061</ele>
        <time>2017-11-13T16:27:11.209000Z</time>
      </trkpt>
      <trkpt lat="45.727736949920654" lon="10.363197326660156">
        <ele>828.7172135257357</ele>
        <time>2017-11-13T16:27:11.821000Z</time>
      </trkpt>
      <trkpt lat="45.72777986526489" lon="10.363025665283203">
        <ele>827.129743186003</ele>
        <time>2017-11-13T16:27:12.025000Z</time>
      </trkpt>
      <trkpt lat="45.7281231880188" lon="10.36283254623413">
        <ele>822.5296055667982</ele>
        <time>2017-11-13T16:27:12.616000Z</time>
      </trkpt>
      <trkpt lat="45.728487968444824" lon="10.362317562103271">
        <ele>808.475471213313</ele>
        <time>2017-11-13T16:27:13.437000Z</time>
      </trkpt>
      <trkpt lat="45.7285737991333" lon="10.362296104431152">
        <ele>808.7058901061226</ele>
        <time>2017-11-13T16:27:13.577000Z</time>
      </trkpt>
      <trkpt lat="45.728724002838135" lon="10.362253189086914">
        <ele>809.1109430516262</ele>
        <time>2017-11-13T16:27:13.823000Z</time>
      </trkpt>
      <trkpt lat="45.72911024093628" lon="10.362424850463867">
        <ele>816.1026879413299</ele>
        <time>2017-11-13T16:27:14.471000Z</time>
      </trkpt>
      <trkpt lat="45.729496479034424" lon="10.362489223480225">
        <ele>825.4921484712312</ele>
        <time>2017-11-13T16:27:15.094000Z</time>
      </trkpt>
      <trkpt lat="45.72981834411621" lon="10.362660884857178">
        <ele>838.4300740563749</ele>
        <time>2017-11-13T16:27:15.645000Z</time>
      </trkpt>
      <trkpt lat="45.73041924275458" lon="10.362789630889893">
        <ele>854.659390172677</ele>
        <time>2017-11-13T16:27:16.619000Z</time>
      </trkpt>
      <trkpt lat="45.730483615770936" lon="10.362789630889893">
        <ele>855.390016408855</ele>
        <time>2017-11-13T16:27:16.722000Z</time>
      </trkpt>
      <trkpt lat="45.73056936264038" lon="10.362682342529297">
        <ele>856.6821685559936</ele>
        <time>2017-11-13T16:27:16.905000Z</time>
      </trkpt>
      <trkpt lat="45.73076248168945" lon="10.361802577972412">
        <ele>854.6361519044003</ele>
        <time>2017-11-13T16:27:17.937000Z</time>
      </trkpt>
      <trkpt lat="45.73089122772217" lon="10.36160945892334">
        <ele>871.2560346542956</ele>
        <time>2017-11-13T16:27:18.236000Z</time>
      </trkpt>
      <trkpt lat="45.73134183883667" lon="10.36109447479248">
        <ele>880.3883314301288</ele>
        <time>2017-11-13T16:27:19.160000Z</time>
      </trkpt>
      <trkpt lat="45.73142766952515" lon="10.360901355743408">
        <ele>882.9201401155061</ele>
        <time>2017-11-13T16:27:19.416000Z</time>
      </trkpt>
      <trkpt lat="45.73142766952515" lon="10.360579490661621">
        <ele>887.4795491251825</ele>
        <time>2017-11-13T16:27:19.776000Z</time>
      </trkpt>
      <trkpt lat="45.73108434677124" lon="10.359506607055664">
        <ele>884.4819011211389</ele>
        <time>2017-11-13T16:27:21.097000Z</time>
      </trkpt>
      <trkpt lat="45.73106288909912" lon="10.359227657318115">
        <ele>883.4075937420967</ele>
        <time>2017-11-13T16:27:21.411000Z</time>
      </trkpt>
      <trkpt lat="45.731492042541504" lon="10.358583927154541">
        <ele>872.0</ele>
        <time>2017-11-13T16:27:22.407000Z</time>
      </trkpt>
      <trkpt lat="45.731685161590576" lon="10.358004570007324">
        <ele>870.9768088190358</ele>
        <time>2017-11-13T16:27:23.125000Z</time>
      </trkpt>
      <trkpt lat="45.731749534606934" lon="10.35787582397461">
        <ele>871.5466487315257</ele>
        <time>2017-11-13T16:27:23.302000Z</time>
      </trkpt>
      <trkpt lat="45.73187828063965" lon="10.35785436630249">
        <ele>872.2147934852254</ele>
        <time>2017-11-13T16:27:23.510000Z</time>
      </trkpt>
      <trkpt lat="45.732693672180176" lon="10.358262062072754">
        <ele>888.0</ele>
        <time>2017-11-13T16:27:24.895000Z</time>
      </trkpt>
      <trkpt lat="45.73288679122925" lon="10.358219146728516">
        <ele>888.4722628654181</ele>
        <time>2017-11-13T16:27:25.208000Z</time>
      </trkpt>
      <trkpt lat="45.732951164245605" lon="10.358133316040039">
        <ele>888.6847697902564</ele>
        <time>2017-11-13T16:27:25.349000Z</time>
      </trkpt>
      <trkpt lat="45.732994079589844" lon="10.357682704925537">
        <ele>889.4518851467341</ele>
        <time>2017-11-13T16:27:25.858000Z</time>
      </trkpt>
      <trkpt lat="45.733444690704346" lon="10.357060432434082">
        <ele>894.7605762689573</ele>
        <time>2017-11-13T16:27:26.861000Z</time>
      </trkpt>
      <trkpt lat="45.733702182769775" lon="10.35686731338501">
        <ele>895.5231060737659</ele>
        <time>2017-11-13T16:27:27.327000Z</time>
      </trkpt>
      <trkpt lat="45.73380947113037" lon="10.356652736663818">
        <ele>891.8733650789414</ele>
        <time>2017-11-13T16:27:27.622000Z</time>
      </trkpt>
      <trkpt lat="45.733981132507324" lon="10.355966091156006">
        <ele>890.999055479444</ele>
        <time>2017-11-13T16:27:28.438000Z</time>
      </trkpt>
      <trkpt lat="45.73400259017944" lon="10.355579853057861">
        <ele>895.6237650245275</ele>
        <time>2017-11-13T16:27:28.872000Z</time>
      </trkpt>
      <trkpt lat="45.73359489440918" lon="10.354721546173096">
        <ele>902.4173462962908</ele>
        <time>2017-11-13T16:27:30.034000Z</time>
      </trkpt>
      <trkpt lat="45.73357343673706" lon="10.354335308074951">
        <ele>900.265519245258</ele>
        <time>2017-11-13T16:27:30.468000Z</time>
      </trkpt>
      <trkpt lat="45.73376655578613" lon="10.352447032928467">
        <ele>880.0</ele>
        <time>2017-11-13T16:27:32.604000Z</time>
      </trkpt>
      <trkpt lat="45.7340669631958" lon="10.35135269165039">
        <ele>861.1991260955341</ele>
        <time>2017-11-13T16:27:33.920000Z</time>
      </trkpt>
      <trkpt lat="45.73428153991699" lon="10.350987911224365">
        <ele>865.2238766564752</ele>
        <time>2017-11-13T16:27:34.454000Z</time>
      </trkpt>
      <trkpt lat="45.73456048965454" lon="10.35088062286377">
        <ele>863.9751932579687</ele>
        <time>2017-11-13T16:27:34.917000Z</time>
      </trkpt>
      <trkpt lat="45.73483943939209" lon="10.350944995880127">
        <ele>862.7536663924661</ele>
        <time>2017-11-13T16:27:35.370000Z</time>
      </trkpt>
      <trkpt lat="45.73511838912964" lon="10.351245403289795">
        <ele>854.2449799153904</ele>
        <time>2017-11-13T16:27:35.929000Z</time>
      </trkpt>
      <trkpt lat="45.735440254211426" lon="10.351803302764893">
        <ele>860.6429240989161</ele>
        <time>2017-11-13T16:27:36.739000Z</time>
      </trkpt>
      <trkpt lat="45.735449055209756" lon="10.351812187582254">
        <ele>860.6158863260035</ele>
        <time>2017-11-13T16:27:36.756000Z</time>
      </trkpt>
      <trkpt lat="45.735448971390724" lon="10.351812019944191">
        <ele>860.6155248684285</ele>
        <time>2017-11-13T16:27:36.756000Z</time>
      </trkpt>
      <trkpt lat="45.735449538032846" lon="10.351812586584211">
        <ele>860.6137895060182</ele>
        <time>2017-11-13T16:27:36.756000Z</time>
      </trkpt>
      <trkpt lat="45.73561191558838" lon="10.351974964141846">
        <ele>860.116502116909</ele>
        <time>2017-11-13T16:27:37.073000Z</time>
      </trkpt>
      <trkpt lat="45.736083984375" lon="10.35210371017456">
        <ele>851.9096982015972</ele>
        <time>2017-11-13T16:27:37.843000Z</time>
      </trkpt>
      <trkpt lat="45.73625564575195" lon="10.352210998535156">
        <ele>852.5604097656854</ele>
        <time>2017-11-13T16:27:38.143000Z</time>
      </trkpt>
      <trkpt lat="45.736727714538574" lon="10.35287618637085">
        <ele>867.9210798820335</ele>
        <time>2017-11-13T16:27:39.204000Z</time>
      </trkpt>
      <trkpt lat="45.736942291259766" lon="10.353047847747803">
        <ele>870.405718376869</ele>
        <time>2017-11-13T16:27:39.598000Z</time>
      </trkpt>
      <trkpt lat="45.73711395263672" lon="10.353004932403564">
        <ele>872.167439282639</ele>
        <time>2017-11-13T16:27:39.877000Z</time>
      </trkpt>
      <trkpt lat="45.737199783325195" lon="10.35285472869873">
        <ele>873.5372348658143</ele>
        <time>2017-11-13T16:27:40.094000Z</time>
      </trkpt>
      <trkpt lat="45.73726415634155" lon="10.352511405944824">
        <ele>872.6087072793033</ele>
        <time>2017-11-13T16:27:40.492000Z</time>
      </trkpt>
      <trkpt lat="45.73737144470215" lon="10.35236120223999">
        <ele>864.3806854055241</ele>
        <time>2017-11-13T16:27:40.732000Z</time>
      </trkpt>
      <trkpt lat="45.7379937171936" lon="10.35210371017456">
        <ele>868.2901308347031</ele>
        <time>2017-11-13T16:27:41.770000Z</time>
      </trkpt>
      <trkpt lat="45.73814392089844" lon="10.351588726043701">
        <ele>858.8563039596187</ele>
        <time>2017-11-13T16:27:42.395000Z</time>
      </trkpt>
      <trkpt lat="45.73837995529175" lon="10.351481437683105">
        <ele>866.2481474462484</ele>
        <time>2017-11-13T16:27:42.792000Z</time>
      </trkpt>
      <trkpt lat="45.738701820373535" lon="10.351567268371582">
        <ele>871.6139695921811</ele>
        <time>2017-11-13T16:27:43.317000Z</time>
      </trkpt>
      <trkpt lat="45.73936700820923" lon="10.351910591125488">
        <ele>895.8685530034912</ele>
        <time>2017-11-13T16:27:44.450000Z</time>
      </trkpt>
      <trkpt lat="45.73949575424194" lon="10.351932048797607">
        <ele>896.3008539378133</ele>
        <time>2017-11-13T16:27:44.658000Z</time>
      </trkpt>
      <trkpt lat="45.73958158493042" lon="10.351738929748535">
        <ele>896.8338030090923</ele>
        <time>2017-11-13T16:27:44.914000Z</time>
      </trkpt>
      <trkpt lat="45.73964595794678" lon="10.351223945617676">
        <ele>888.4634164751293</ele>
        <time>2017-11-13T16:27:45.499000Z</time>
      </trkpt>
      <trkpt lat="45.739731788635254" lon="10.351052284240723">
        <ele>888.7175437918346</ele>
        <time>2017-11-13T16:27:45.735000Z</time>
      </trkpt>
      <trkpt lat="45.74007511138916" lon="10.351202487945557">
        <ele>897.6698573731786</ele>
        <time>2017-11-13T16:27:46.310000Z</time>
      </trkpt>
      <trkpt lat="45.74028968811035" lon="10.351095199584961">
        <ele>899.0635985438868</ele>
        <time>2017-11-13T16:27:46.674000Z</time>
      </trkpt>
      <trkpt lat="45.74063301086426" lon="10.351073741912842">
        <ele>901.1710758909167</ele>
        <time>2017-11-13T16:27:47.225000Z</time>
      </trkpt>
      <trkpt lat="45.74074029922485" lon="10.350902080535889">
        <ele>902.157338877379</ele>
        <time>2017-11-13T16:27:47.483000Z</time>
      </trkpt>
      <trkpt lat="45.740933418273926" lon="10.349485874176025">
        <ele>915.0</ele>
        <time>2017-11-13T16:27:49.097000Z</time>
      </trkpt>
      <trkpt lat="45.7410192489624" lon="10.349292755126953">
        <ele>913.5240223888177</ele>
        <time>2017-11-13T16:27:49.353000Z</time>
      </trkpt>
      <trkpt lat="45.74114799499512" lon="10.349185466766357">
        <ele>912.1482791089701</ele>
        <time>2017-11-13T16:27:49.592000Z</time>
      </trkpt>
      <trkpt lat="45.74134111404419" lon="10.34837007522583">
        <ele>900.2640084934766</ele>
        <time>2017-11-13T16:27:50.555000Z</time>
      </trkpt>
      <trkpt lat="45.741469860076904" lon="10.348155498504639">
        <ele>891.1030336761199</ele>
        <time>2017-11-13T16:27:50.872000Z</time>
      </trkpt>
      <trkpt lat="45.74187755584717" lon="10.347962379455566">
        <ele>901.4196942343142</ele>
        <time>2017-11-13T16:27:51.560000Z</time>
      </trkpt>
      <trkpt lat="45.74228525161743" lon="10.347511768341064">
        <ele>901.0</ele>
        <time>2017-11-13T16:27:52.385000Z</time>
      </trkpt>
      <trkpt lat="45.74239253997803" lon="10.347297191619873">
        <ele>898.6415864576887</ele>
        <time>2017-11-13T16:27:52.680000Z</time>
      </trkpt>
      <trkpt lat="45.74249982833862" lon="10.346953868865967">
        <ele>898.6058451539542</ele>
        <time>2017-11-13T16:27:53.101000Z</time>
      </trkpt>
      <trkpt lat="45.74254274368286" lon="10.34663200378418">
        <ele>905.2413771947954</ele>
        <time>2017-11-13T16:27:53.468000Z</time>
      </trkpt>
      <trkpt lat="45.742177963256836" lon="10.345473289489746">
        <ele>901.1205989912254</ele>
        <time>2017-11-13T16:27:54.890000Z</time>
      </trkpt>
      <trkpt lat="45.74215658940375" lon="10.344979763031006">
        <ele>898.4557428543034</ele>
        <time>2017-11-13T16:27:55.443000Z</time>
      </trkpt>
      <trkpt lat="45.74217804707587" lon="10.344915390014648">
        <ele>897.9628310475306</ele>
        <time>2017-11-13T16:27:55.523000Z</time>
      </trkpt>
      <trkpt lat="45.742220962420106" lon="10.344529151916504">
        <ele>895.2605326414791</ele>
        <time>2017-11-13T16:27:55.961000Z</time>
      </trkpt>
      <trkpt lat="45.742220962420106" lon="10.344421863555908">
        <ele>894.5192306656651</ele>
        <time>2017-11-13T16:27:56.081000Z</time>
      </trkpt>
      <trkpt lat="45.742199420928955" lon="10.344099998474121">
        <ele>888.9517880275303</ele>
        <time>2017-11-13T16:27:56.443000Z</time>
      </trkpt>
      <trkpt lat="45.74275732040405" lon="10.343563556671143">
        <ele>880.570464141736</ele>
        <time>2017-11-13T16:27:57.520000Z</time>
      </trkpt>
      <trkpt lat="45.74299335479736" lon="10.343585014343262">
        <ele>878.6761467936608</ele>
        <time>2017-11-13T16:27:57.899000Z</time>
      </trkpt>
      <trkpt lat="45.743229473009706" lon="10.343713760375977">
        <ele>876.6526651927501</ele>
        <time>2017-11-13T16:27:58.304000Z</time>
      </trkpt>
      <trkpt lat="45.74340105056763" lon="10.343799591064453">
        <ele>871.7788860315914</ele>
        <time>2017-11-13T16:27:58.595000Z</time>
      </trkpt>
      <trkpt lat="45.74383020401001" lon="10.344207286834717">
        <ele>878.1029503141621</ele>
        <time>2017-11-13T16:27:59.420000Z</time>
      </trkpt>
      <trkpt lat="45.74406623840332" lon="10.344808101654053">
        <ele>879.3402479318494</ele>
        <time>2017-11-13T16:28:00.191000Z</time>
      </trkpt>
      <trkpt lat="45.74423789978027" lon="10.344722270965576">
        <ele>882.4744416429647</ele>
        <time>2017-11-13T16:28:00.482000Z</time>
      </trkpt>
      <trkpt lat="45.744473934173584" lon="10.344314575195312">
        <ele>880.8291908275709</ele>
        <time>2017-11-13T16:28:01.075000Z</time>
      </trkpt>
      <trkpt lat="45.74477434158325" lon="10.344035625457764">
        <ele>871.5693903757383</ele>
        <time>2017-11-13T16:28:01.649000Z</time>
      </trkpt>
      <trkpt lat="45.74498891830444" lon="10.343971252441406">
        <ele>870.5937094484703</ele>
        <time>2017-11-13T16:28:02Z</time>
      </trkpt>
      <trkpt lat="45.74563264846802" lon="10.344164371490479">
        <ele>868.0</ele>
        <time>2017-11-13T16:28:03.054000Z</time>
      </trkpt>
      <trkpt lat="45.74582576751709" lon="10.344336032867432">
        <ele>879.4315150985634</ele>
        <time>2017-11-13T16:28:03.418000Z</time>
      </trkpt>
      <trkpt lat="45.7460618019104" lon="10.344314575195312">
        <ele>888.7237034293656</ele>
        <time>2017-11-13T16:28:03.797000Z</time>
      </trkpt>
      <trkpt lat="45.74638366699219" lon="10.344443321228027">
        <ele>895.7301892384525</ele>
        <time>2017-11-13T16:28:04.333000Z</time>
      </trkpt>
      <trkpt lat="45.74649095535278" lon="10.344314575195312">
        <ele>898.6642535377297</ele>
        <time>2017-11-13T16:28:04.557000Z</time>
      </trkpt>
      <trkpt lat="45.7466197013855" lon="10.343842506408691">
        <ele>904.2867034687912</ele>
        <time>2017-11-13T16:28:05.124000Z</time>
      </trkpt>
      <trkpt lat="45.7466197013855" lon="10.343263149261475">
        <ele>913.9515427637934</ele>
        <time>2017-11-13T16:28:05.772000Z</time>
      </trkpt>
      <trkpt lat="45.74649095535278" lon="10.342469215393066">
        <ele>920.2309310275241</ele>
        <time>2017-11-13T16:28:06.684000Z</time>
      </trkpt>
      <trkpt lat="45.74649095535278" lon="10.342061519622803">
        <ele>922.1695583638266</ele>
        <time>2017-11-13T16:28:07.140000Z</time>
      </trkpt>
      <trkpt lat="45.74655532836914" lon="10.3416109085083">
        <ele>928.0233534234744</ele>
        <time>2017-11-13T16:28:07.655000Z</time>
      </trkpt>
      <trkpt lat="45.746448040008545" lon="10.3401517868042">
        <ele>937.0</ele>
        <time>2017-11-13T16:28:09.296000Z</time>
      </trkpt>
      <trkpt lat="45.74629783630371" lon="10.339486598968506">
        <ele>928.6244835643065</ele>
        <time>2017-11-13T16:28:10.078000Z</time>
      </trkpt>
      <trkpt lat="45.746469497680664" lon="10.33837080001831">
        <ele>916.5956192126149</ele>
        <time>2017-11-13T16:28:11.356000Z</time>
      </trkpt>
      <trkpt lat="45.74689865112305" lon="10.336847305297852">
        <ele>912.0</ele>
        <time>2017-11-13T16:28:13.194000Z</time>
      </trkpt>
      <trkpt lat="45.74687719345093" lon="10.336697101593018">
        <ele>911.4713379135669</ele>
        <time>2017-11-13T16:28:13.366000Z</time>
      </trkpt>
      <trkpt lat="45.74631929397583" lon="10.33639669418335">
        <ele>907.1931146735798</ele>
        <time>2017-11-13T16:28:14.321000Z</time>
      </trkpt>
      <trkpt lat="45.74623346328735" lon="10.336289405822754">
        <ele>906.6303284872183</ele>
        <time>2017-11-13T16:28:14.504000Z</time>
      </trkpt>
      <trkpt lat="45.74623346328735" lon="10.33613920211792">
        <ele>906.0506827552464</ele>
        <time>2017-11-13T16:28:14.672000Z</time>
      </trkpt>
      <trkpt lat="45.746426582336426" lon="10.335538387298584">
        <ele>898.8313083959129</ele>
        <time>2017-11-13T16:28:15.412000Z</time>
      </trkpt>
      <trkpt lat="45.746662616729736" lon="10.335023403167725">
        <ele>896.4536422188821</ele>
        <time>2017-11-13T16:28:16.101000Z</time>
      </trkpt>
      <trkpt lat="45.74709177017212" lon="10.334315299987793">
        <ele>892.4093951749102</ele>
        <time>2017-11-13T16:28:17.150000Z</time>
      </trkpt>
      <trkpt lat="45.74732780456543" lon="10.334250926971436">
        <ele>889.2097506447508</ele>
        <time>2017-11-13T16:28:17.535000Z</time>
      </trkpt>
      <trkpt lat="45.74737071990967" lon="10.334186553955078">
        <ele>888.3824319126369</ele>
        <time>2017-11-13T16:28:17.635000Z</time>
      </trkpt>
      <trkpt lat="45.74739217758179" lon="10.33390760421753">
        <ele>878.1078441672067</ele>
        <time>2017-11-13T16:28:17.949000Z</time>
      </trkpt>
      <trkpt lat="45.747671127319336" lon="10.333564281463623">
        <ele>879.2111241760043</ele>
        <time>2017-11-13T16:28:18.538000Z</time>
      </trkpt>
      <trkpt lat="45.748679637908936" lon="10.332963466644287">
        <ele>851.0</ele>
        <time>2017-11-13T16:28:20.289000Z</time>
      </trkpt>
      <trkpt lat="45.74878692626953" lon="10.332963466644287">
        <ele>850.6446345464356</ele>
        <time>2017-11-13T16:28:20.461000Z</time>
      </trkpt>
      <trkpt lat="45.74930191040039" lon="10.333220958709717">
        <ele>847.5047051542571</ele>
        <time>2017-11-13T16:28:21.335000Z</time>
      </trkpt>
      <trkpt lat="45.749666690826416" lon="10.333263874053955">
        <ele>853.0765229215607</ele>
        <time>2017-11-13T16:28:21.922000Z</time>
      </trkpt>
      <trkpt lat="45.75011730194092" lon="10.333414077758789">
        <ele>873.78606613674</ele>
        <time>2017-11-13T16:28:22.664000Z</time>
      </trkpt>
      <trkpt lat="45.750718116760254" lon="10.333199501037598">
        <ele>856.4127646249229</ele>
        <time>2017-11-13T16:28:23.657000Z</time>
      </trkpt>
      <trkpt lat="45.75125455856323" lon="10.33315658569336">
        <ele>864.8905344645481</ele>
        <time>2017-11-13T16:28:24.518000Z</time>
      </trkpt>
      <trkpt lat="45.751962661743164" lon="10.3326416015625">
        <ele>876.6824144869923</ele>
        <time>2017-11-13T16:28:25.791000Z</time>
      </trkpt>
      <trkpt lat="45.75224161148071" lon="10.33266305923462">
        <ele>883.9379956373244</ele>
        <time>2017-11-13T16:28:26.239000Z</time>
      </trkpt>
      <trkpt lat="45.75260639190674" lon="10.33289909362793">
        <ele>905.0</ele>
        <time>2017-11-13T16:28:26.881000Z</time>
      </trkpt>
      <trkpt lat="45.75273513793945" lon="10.332856178283691">
        <ele>905.385291621471</ele>
        <time>2017-11-13T16:28:27.093000Z</time>
      </trkpt>
      <trkpt lat="45.75277805328369" lon="10.332469940185547">
        <ele>911.8474063529302</ele>
        <time>2017-11-13T16:28:27.530000Z</time>
      </trkpt>
      <trkpt lat="45.75232744216919" lon="10.330667495727539">
        <ele>913.0748524035829</ele>
        <time>2017-11-13T16:28:29.672000Z</time>
      </trkpt>
      <trkpt lat="45.751705169677734" lon="10.330002307891846">
        <ele>914.0</ele>
        <time>2017-11-13T16:28:30.917000Z</time>
      </trkpt>
      <trkpt lat="45.75157642364502" lon="10.329766273498535">
        <ele>903.8889934850196</ele>
        <time>2017-11-13T16:28:31.252000Z</time>
      </trkpt>
      <trkpt lat="45.75149059295654" lon="10.329251289367676">
        <ele>901.9255126245101</ele>
        <time>2017-11-13T16:28:31.844000Z</time>
      </trkpt>
      <trkpt lat="45.7515549659729" lon="10.328586101531982">
        <ele>897.4351325776757</ele>
        <time>2017-11-13T16:28:32.595000Z</time>
      </trkpt>
      <trkpt lat="45.75185537338257" lon="10.327470302581787">
        <ele>899.0</ele>
        <time>2017-11-13T16:28:33.933000Z</time>
      </trkpt>
      <trkpt lat="45.752434730529785" lon="10.325582027435303">
        <ele>897.2839867825691</ele>
        <time>2017-11-13T16:28:36.240000Z</time>
      </trkpt>
      <trkpt lat="45.75239181518555" lon="10.324938297271729">
        <ele>908.0</ele>
        <time>2017-11-13T16:28:36.963000Z</time>
      </trkpt>
      <trkpt lat="45.75230598449707" lon="10.324702262878418">
        <ele>906.7039353343511</ele>
        <time>2017-11-13T16:28:37.261000Z</time>
      </trkpt>
      <trkpt lat="45.75224161148071" lon="10.324680805206299">
        <ele>906.2427089241843</ele>
        <time>2017-11-13T16:28:37.367000Z</time>
      </trkpt>
      <trkpt lat="45.75183391571045" lon="10.325109958648682">
        <ele>897.7125595627404</ele>
        <time>2017-11-13T16:28:38.178000Z</time>
      </trkpt>
      <trkpt lat="45.751447677612305" lon="10.325260162353516">
        <ele>893.5863397886493</ele>
        <time>2017-11-13T16:28:38.820000Z</time>
      </trkpt>
      <trkpt lat="45.75035333633423" lon="10.326333045959473">
        <ele>882.0</ele>
        <time>2017-11-13T16:28:40.946000Z</time>
      </trkpt>
      <trkpt lat="45.75001001358032" lon="10.326375961303711">
        <ele>883.0044660719446</ele>
        <time>2017-11-13T16:28:41.498000Z</time>
      </trkpt>
      <trkpt lat="45.74975252151489" lon="10.326268672943115">
        <ele>888.0974419069522</ele>
        <time>2017-11-13T16:28:41.928000Z</time>
      </trkpt>
      <trkpt lat="45.74951648712158" lon="10.326054096221924">
        <ele>889.9316655639481</ele>
        <time>2017-11-13T16:28:42.376000Z</time>
      </trkpt>
      <trkpt lat="45.74902296066284" lon="10.325109958648682">
        <ele>897.0</ele>
        <time>2017-11-13T16:28:43.696000Z</time>
      </trkpt>
      <trkpt lat="45.74728488922119" lon="10.324294567108154">
        <ele>888.7581399205919</ele>
        <time>2017-11-13T16:28:46.628000Z</time>
      </trkpt>
      <trkpt lat="45.74638366699219" lon="10.324337482452393">
        <ele>878.0</ele>
        <time>2017-11-13T16:28:48.074000Z</time>
      </trkpt>
      <trkpt lat="45.74612617492676" lon="10.324187278747559">
        <ele>886.1173782374677</ele>
        <time>2017-11-13T16:28:48.520000Z</time>
      </trkpt>
      <trkpt lat="45.74586868286133" lon="10.3236722946167">
        <ele>910.3593090428417</ele>
        <time>2017-11-13T16:28:49.229000Z</time>
      </trkpt>
      <trkpt lat="45.745954513549805" lon="10.322556495666504">
        <ele>924.9970738074297</ele>
        <time>2017-11-13T16:28:50.485000Z</time>
      </trkpt>
      <trkpt lat="45.745911598205566" lon="10.322341918945312">
        <ele>931.3150379815619</ele>
        <time>2017-11-13T16:28:50.735000Z</time>
      </trkpt>
      <trkpt lat="45.74558981694281" lon="10.321462154388428">
        <ele>908.3270408549203</ele>
        <time>2017-11-13T16:28:51.846000Z</time>
      </trkpt>
      <trkpt lat="45.74556835927069" lon="10.32017469406128">
        <ele>901.4039982309419</ele>
        <time>2017-11-13T16:28:53.287000Z</time>
      </trkpt>
      <trkpt lat="45.74576139450073" lon="10.319015979766846">
        <ele>896.3413362103365</ele>
        <time>2017-11-13T16:28:54.620000Z</time>
      </trkpt>
      <trkpt lat="45.74589014053345" lon="10.317106246948242">
        <ele>925.3508888912805</ele>
        <time>2017-11-13T16:28:56.766000Z</time>
      </trkpt>
      <trkpt lat="45.746212005615234" lon="10.315861701965332">
        <ele>928.0</ele>
        <time>2017-11-13T16:28:58.251000Z</time>
      </trkpt>
      <trkpt lat="45.74649095535278" lon="10.314981937408447">
        <ele>916.9896013356455</ele>
        <time>2017-11-13T16:28:59.332000Z</time>
      </trkpt>
      <trkpt lat="45.746705532073975" lon="10.313823223114014">
        <ele>935.0016917890498</ele>
        <time>2017-11-13T16:29:00.673000Z</time>
      </trkpt>
      <trkpt lat="45.74702739715576" lon="10.313136577606201">
        <ele>931.0</ele>
        <time>2017-11-13T16:29:01.598000Z</time>
      </trkpt>
      <trkpt lat="45.74713468551636" lon="10.312621593475342">
        <ele>936.281796415297</ele>
        <time>2017-11-13T16:29:02.199000Z</time>
      </trkpt>
      <trkpt lat="45.74777841567993" lon="10.311527252197266">
        <ele>966.3478033326616</ele>
        <time>2017-11-13T16:29:03.800000Z</time>
      </trkpt>
      <trkpt lat="45.74777841567993" lon="10.31141996383667">
        <ele>966.3237251326258</ele>
        <time>2017-11-13T16:29:03.920000Z</time>
      </trkpt>
      <trkpt lat="45.747671127319336" lon="10.311312675476074">
        <ele>966.2816495437332</ele>
        <time>2017-11-13T16:29:04.130000Z</time>
      </trkpt>
      <trkpt lat="45.747199058532715" lon="10.311291217803955">
        <ele>955.1297512920246</ele>
        <time>2017-11-13T16:29:04.887000Z</time>
      </trkpt>
      <trkpt lat="45.74685573577881" lon="10.310711860656738">
        <ele>962.3383215922464</ele>
        <time>2017-11-13T16:29:05.737000Z</time>
      </trkpt>
      <trkpt lat="45.74685581959784" lon="10.310711860656738">
        <ele>962.3379578467319</ele>
        <time>2017-11-13T16:29:05.737000Z</time>
      </trkpt>
      <trkpt lat="45.746469497680664" lon="10.310132503509521">
        <ele>952.2445773726578</ele>
        <time>2017-11-13T16:29:06.633000Z</time>
      </trkpt>
      <trkpt lat="45.74627637863159" lon="10.310068130493164">
        <ele>951.3841330391642</ele>
        <time>2017-11-13T16:29:06.951000Z</time>
      </trkpt>
      <trkpt lat="45.74610471725464" lon="10.310132503509521">
        <ele>950.6140969130607</ele>
        <time>2017-11-13T16:29:07.235000Z</time>
      </trkpt>
      <trkpt lat="45.745933055877686" lon="10.310475826263428">
        <ele>949.3350546071077</ele>
        <time>2017-11-13T16:29:07.708000Z</time>
      </trkpt>
      <trkpt lat="45.74582576751709" lon="10.310518741607666">
        <ele>953.9815941154657</ele>
        <time>2017-11-13T16:29:07.887000Z</time>
      </trkpt>
      <trkpt lat="45.74580430984497" lon="10.31043291091919">
        <ele>954.5412804833642</ele>
        <time>2017-11-13T16:29:07.989000Z</time>
      </trkpt>
      <trkpt lat="45.74584722518921" lon="10.310347080230713">
        <ele>951.4422429510026</ele>
        <time>2017-11-13T16:29:08.107000Z</time>
      </trkpt>
      <trkpt lat="45.746169090270996" lon="10.309724807739258">
        <ele>955.9395519040327</ele>
        <time>2017-11-13T16:29:08.974000Z</time>
      </trkpt>
      <trkpt lat="45.746684074401855" lon="10.309252738952637">
        <ele>969.9823619477835</ele>
        <time>2017-11-13T16:29:09.954000Z</time>
      </trkpt>
      <trkpt lat="45.74683427810669" lon="10.308544635772705">
        <ele>966.4357870116077</ele>
        <time>2017-11-13T16:29:10.782000Z</time>
      </trkpt>
      <trkpt lat="45.747199058532715" lon="10.307600498199463">
        <ele>963.0</ele>
        <time>2017-11-13T16:29:11.989000Z</time>
      </trkpt>
      <trkpt lat="45.747199058532715" lon="10.30693531036377">
        <ele>962.6666666666666</ele>
        <time>2017-11-13T16:29:12.733000Z</time>
      </trkpt>
      <trkpt lat="45.74726343154907" lon="10.306527614593506">
        <ele>958.3333333333334</ele>
        <time>2017-11-13T16:29:13.201000Z</time>
      </trkpt>
      <trkpt lat="45.747671127319336" lon="10.305089950561523">
        <ele>963.0</ele>
        <time>2017-11-13T16:29:14.937000Z</time>
      </trkpt>
      <trkpt lat="45.7490873336792" lon="10.304467678070068">
        <ele>954.2217008364124</ele>
        <time>2017-11-13T16:29:17.312000Z</time>
      </trkpt>
      <trkpt lat="45.749452114105225" lon="10.30444622039795">
        <ele>982.1753479549849</ele>
        <time>2017-11-13T16:29:17.897000Z</time>
      </trkpt>
      <trkpt lat="45.749688148498535" lon="10.304253101348877">
        <ele>983.5762587827061</ele>
        <time>2017-11-13T16:29:18.333000Z</time>
      </trkpt>
      <trkpt lat="45.749666690826416" lon="10.304038524627686">
        <ele>986.0225684038527</ele>
        <time>2017-11-13T16:29:18.575000Z</time>
      </trkpt>
      <trkpt lat="45.74923753738403" lon="10.30343770980835">
        <ele>980.8654927529957</ele>
        <time>2017-11-13T16:29:19.537000Z</time>
      </trkpt>
      <trkpt lat="45.748958587646484" lon="10.302815437316895">
        <ele>950.4667821663187</ele>
        <time>2017-11-13T16:29:20.364000Z</time>
      </trkpt>
      <trkpt lat="45.74885129928589" lon="10.301849842071533">
        <ele>934.6351244115535</ele>
        <time>2017-11-13T16:29:21.458000Z</time>
      </trkpt>
      <trkpt lat="45.74882984161377" lon="10.301485061645508">
        <ele>924.0</ele>
        <time>2017-11-13T16:29:21.868000Z</time>
      </trkpt>
      <trkpt lat="45.74887275695801" lon="10.301249027252197">
        <ele>922.7604817147575</ele>
        <time>2017-11-13T16:29:22.141000Z</time>
      </trkpt>
      <trkpt lat="45.74910879135132" lon="10.300712585449219">
        <ele>913.53773726797</ele>
        <time>2017-11-13T16:29:22.850000Z</time>
      </trkpt>
      <trkpt lat="45.74932336807251" lon="10.300326347351074">
        <ele>920.6955603899711</ele>
        <time>2017-11-13T16:29:23.402000Z</time>
      </trkpt>
      <trkpt lat="45.749430656433105" lon="10.299746990203857">
        <ele>905.982850927323</ele>
        <time>2017-11-13T16:29:24.073000Z</time>
      </trkpt>
      <trkpt lat="45.74949502944946" lon="10.299510955810547">
        <ele>906.4047837848583</ele>
        <time>2017-11-13T16:29:24.356000Z</time>
      </trkpt>
      <trkpt lat="45.749709606170654" lon="10.299317836761475">
        <ele>907.0093543706516</ele>
        <time>2017-11-13T16:29:24.762000Z</time>
      </trkpt>
      <trkpt lat="45.75039625167847" lon="10.29916763305664">
        <ele>913.0</ele>
        <time>2017-11-13T16:29:25.876000Z</time>
      </trkpt>
      <trkpt lat="45.75080394744873" lon="10.299017429351807">
        <ele>903.0840315520077</ele>
        <time>2017-11-13T16:29:26.551000Z</time>
      </trkpt>
      <trkpt lat="45.75179100036621" lon="10.298223495483398">
        <ele>926.9173690087977</ele>
        <time>2017-11-13T16:29:28.366000Z</time>
      </trkpt>
      <trkpt lat="45.752220153808594" lon="10.298223495483398">
        <ele>928.0</ele>
        <time>2017-11-13T16:29:29.054000Z</time>
      </trkpt>
      <trkpt lat="45.75228452682495" lon="10.298137664794922">
        <ele>927.7310022273572</ele>
        <time>2017-11-13T16:29:29.195000Z</time>
      </trkpt>
      <trkpt lat="45.75226306915283" lon="10.29792308807373">
        <ele>927.2682523571542</ele>
        <time>2017-11-13T16:29:29.437000Z</time>
      </trkpt>
      <trkpt lat="45.751941204071045" lon="10.297515392303467">
        <ele>925.9540333461704</ele>
        <time>2017-11-13T16:29:30.126000Z</time>
      </trkpt>
      <trkpt lat="45.75078248977661" lon="10.29695749282837">
        <ele>896.2142973668175</ele>
        <time>2017-11-13T16:29:32.086000Z</time>
      </trkpt>
      <trkpt lat="45.75037479400635" lon="10.296528339385986">
        <ele>899.1473707306304</ele>
        <time>2017-11-13T16:29:32.897000Z</time>
      </trkpt>
      <trkpt lat="45.749945640563965" lon="10.295605659484863">
        <ele>884.7593836465913</ele>
        <time>2017-11-13T16:29:34.137000Z</time>
      </trkpt>
      <trkpt lat="45.74985989369452" lon="10.294618606567383">
        <ele>880.6917360224579</ele>
        <time>2017-11-13T16:29:35.250000Z</time>
      </trkpt>
      <trkpt lat="45.74985980987549" lon="10.29416799545288">
        <ele>879.0</ele>
        <time>2017-11-13T16:29:35.754000Z</time>
      </trkpt>
      <trkpt lat="45.749924182891846" lon="10.293803215026855">
        <ele>873.7110215732196</ele>
        <time>2017-11-13T16:29:36.175000Z</time>
      </trkpt>
      <trkpt lat="45.75007438659668" lon="10.293610095977783">
        <ele>873.8222529496702</ele>
        <time>2017-11-13T16:29:36.499000Z</time>
      </trkpt>
      <trkpt lat="45.75033187866211" lon="10.293567180633545">
        <ele>873.5369362460724</ele>
        <time>2017-11-13T16:29:36.915000Z</time>
      </trkpt>
      <trkpt lat="45.75086832046509" lon="10.293781757354736">
        <ele>874.5906046262395</ele>
        <time>2017-11-13T16:29:37.808000Z</time>
      </trkpt>
      <trkpt lat="45.75136184692383" lon="10.293824672698975">
        <ele>877.2485202757706</ele>
        <time>2017-11-13T16:29:38.601000Z</time>
      </trkpt>
      <trkpt lat="45.751490676775575" lon="10.293889045715332">
        <ele>877.9819544306318</ele>
        <time>2017-11-13T16:29:38.820000Z</time>
      </trkpt>
      <trkpt lat="45.751683712005615" lon="10.294082164764404">
        <ele>884.9141425109638</ele>
        <time>2017-11-13T16:29:39.197000Z</time>
      </trkpt>
      <trkpt lat="45.75176954269409" lon="10.294060707092285">
        <ele>885.2624420530228</ele>
        <time>2017-11-13T16:29:39.337000Z</time>
      </trkpt>
      <trkpt lat="45.7520055770874" lon="10.293567180633545">
        <ele>886.931421478481</ele>
        <time>2017-11-13T16:29:40.006000Z</time>
      </trkpt>
      <trkpt lat="45.752220153808594" lon="10.293352603912354">
        <ele>886.4417277619299</ele>
        <time>2017-11-13T16:29:40.425000Z</time>
      </trkpt>
      <trkpt lat="45.75275659561157" lon="10.293052196502686">
        <ele>883.0304854681609</ele>
        <time>2017-11-13T16:29:41.348000Z</time>
      </trkpt>
      <trkpt lat="45.753185749053955" lon="10.292665958404541">
        <ele>882.0820562764111</ele>
        <time>2017-11-13T16:29:42.160000Z</time>
      </trkpt>
      <trkpt lat="45.75378656387329" lon="10.292751789093018">
        <ele>882.990739072046</ele>
        <time>2017-11-13T16:29:43.128000Z</time>
      </trkpt>
      <trkpt lat="45.753936767578125" lon="10.29270887374878">
        <ele>882.9961239464701</ele>
        <time>2017-11-13T16:29:43.374000Z</time>
      </trkpt>
      <trkpt lat="45.75451612472534" lon="10.292322635650635">
        <ele>878.6852538941781</ele>
        <time>2017-11-13T16:29:44.398000Z</time>
      </trkpt>
      <trkpt lat="45.754687786102295" lon="10.292258262634277">
        <ele>879.941096130325</ele>
        <time>2017-11-13T16:29:44.682000Z</time>
      </trkpt>
      <trkpt lat="45.7550311088562" lon="10.292279720306396">
        <ele>896.7066245456243</ele>
        <time>2017-11-13T16:29:45.233000Z</time>
      </trkpt>
      <trkpt lat="45.75503119267523" lon="10.292279720306396">
        <ele>896.7072177794565</ele>
        <time>2017-11-13T16:29:45.233000Z</time>
      </trkpt>
      <trkpt lat="45.75511693954468" lon="10.292215347290039">
        <ele>897.3923112825829</ele>
        <time>2017-11-13T16:29:45.388000Z</time>
      </trkpt>
      <trkpt lat="45.755181312561035" lon="10.292000770568848">
        <ele>898.5457285672237</ele>
        <time>2017-11-13T16:29:45.649000Z</time>
      </trkpt>
      <trkpt lat="45.755417346954346" lon="10.29094934463501">
        <ele>898.0</ele>
        <time>2017-11-13T16:29:46.884000Z</time>
      </trkpt>
      <trkpt lat="45.755653381347656" lon="10.29019832611084">
        <ele>881.8144123054708</ele>
        <time>2017-11-13T16:29:47.805000Z</time>
      </trkpt>
      <trkpt lat="45.75576066970825" lon="10.290026664733887">
        <ele>879.5241582632467</ele>
        <time>2017-11-13T16:29:48.063000Z</time>
      </trkpt>
      <trkpt lat="45.75634002685547" lon="10.289533138275146">
        <ele>877.643941821836</ele>
        <time>2017-11-13T16:29:49.143000Z</time>
      </trkpt>
      <trkpt lat="45.75651168823242" lon="10.289254188537598">
        <ele>877.0483057646888</ele>
        <time>2017-11-13T16:29:49.559000Z</time>
      </trkpt>
      <trkpt lat="45.75659760273993" lon="10.288825035095215">
        <ele>878.0</ele>
        <time>2017-11-13T16:29:50.058000Z</time>
      </trkpt>
      <trkpt lat="45.75659760273993" lon="10.288760662078857">
        <ele>878.0761979054893</ele>
        <time>2017-11-13T16:29:50.130000Z</time>
      </trkpt>
      <trkpt lat="45.756511772051454" lon="10.288503170013428">
        <ele>878.4139879869972</ele>
        <time>2017-11-13T16:29:50.449000Z</time>
      </trkpt>
      <trkpt lat="45.75573921203613" lon="10.28770923614502">
        <ele>880.3601105029202</ele>
        <time>2017-11-13T16:29:51.973000Z</time>
      </trkpt>
      <trkpt lat="45.755739295855165" lon="10.28770923614502">
        <ele>880.3603923668944</ele>
        <time>2017-11-13T16:29:51.973000Z</time>
      </trkpt>
      <trkpt lat="45.755653381347656" lon="10.287559032440186">
        <ele>880.816098487871</ele>
        <time>2017-11-13T16:29:52.190000Z</time>
      </trkpt>
      <trkpt lat="45.7555890083313" lon="10.28695821762085">
        <ele>884.5756311393985</ele>
        <time>2017-11-13T16:29:52.870000Z</time>
      </trkpt>
      <trkpt lat="45.755438804626465" lon="10.286486148834229">
        <ele>886.1263027109518</ele>
        <time>2017-11-13T16:29:53.450000Z</time>
      </trkpt>
      <trkpt lat="45.755438804626465" lon="10.285842418670654">
        <ele>887.0</ele>
        <time>2017-11-13T16:29:54.170000Z</time>
      </trkpt>
      <trkpt lat="45.75539588928223" lon="10.28571367263794">
        <ele>893.3333333333334</ele>
        <time>2017-11-13T16:29:54.330000Z</time>
      </trkpt>
      <trkpt lat="45.75526714324951" lon="10.285606384277344">
        <ele>893.3333333333334</ele>
        <time>2017-11-13T16:29:54.569000Z</time>
      </trkpt>
      <trkpt lat="45.75479507446289" lon="10.285542011260986">
        <ele>885.6666666666666</ele>
        <time>2017-11-13T16:29:55.329000Z</time>
      </trkpt>
      <trkpt lat="45.75462341308594" lon="10.28543472290039">
        <ele>885.6666666666666</ele>
        <time>2017-11-13T16:29:55.629000Z</time>
      </trkpt>
      <trkpt lat="45.7545804977417" lon="10.284833908081055">
        <ele>887.0</ele>
        <time>2017-11-13T16:29:56.305000Z</time>
      </trkpt>
      <trkpt lat="45.75460195541382" lon="10.284597873687744">
        <ele>887.1263914453193</ele>
        <time>2017-11-13T16:29:56.571000Z</time>
      </trkpt>
      <trkpt lat="45.754666328430176" lon="10.28446912765503">
        <ele>887.0497513196943</ele>
        <time>2017-11-13T16:29:56.748000Z</time>
      </trkpt>
      <trkpt lat="45.75466641224921" lon="10.28446912765503">
        <ele>887.0496931922393</ele>
        <time>2017-11-13T16:29:56.748000Z</time>
      </trkpt>
      <trkpt lat="45.754709243774414" lon="10.284297466278076">
        <ele>886.9614804681402</ele>
        <time>2017-11-13T16:29:56.952000Z</time>
      </trkpt>
      <trkpt lat="45.754666328430176" lon="10.284147262573242">
        <ele>891.2162775215053</ele>
        <time>2017-11-13T16:29:57.134000Z</time>
      </trkpt>
      <trkpt lat="45.75455904006958" lon="10.284061431884766">
        <ele>891.1310681376025</ele>
        <time>2017-11-13T16:29:57.331000Z</time>
      </trkpt>
      <trkpt lat="45.75423717498779" lon="10.28395414352417">
        <ele>890.901901173054</ele>
        <time>2017-11-13T16:29:57.861000Z</time>
      </trkpt>
      <trkpt lat="45.75389393605292" lon="10.283975601196289">
        <ele>887.330309568406</ele>
        <time>2017-11-13T16:29:58.412000Z</time>
      </trkpt>
      <trkpt lat="45.75337886810303" lon="10.284039974212646">
        <ele>884.6195018969189</ele>
        <time>2017-11-13T16:29:59.241000Z</time>
      </trkpt>
      <trkpt lat="45.75275659561157" lon="10.28393268585205">
        <ele>877.0</ele>
        <time>2017-11-13T16:30:00.246000Z</time>
      </trkpt>
      <trkpt lat="45.75262784957886" lon="10.283782482147217">
        <ele>875.1190276443048</ele>
        <time>2017-11-13T16:30:00.512000Z</time>
      </trkpt>
      <trkpt lat="45.752220153808594" lon="10.282773971557617">
        <ele>859.2376829107403</ele>
        <time>2017-11-13T16:30:01.816000Z</time>
      </trkpt>
      <trkpt lat="45.75202703475952" lon="10.28195858001709">
        <ele>851.0966857864518</ele>
        <time>2017-11-13T16:30:02.779000Z</time>
      </trkpt>
      <trkpt lat="45.75202703475952" lon="10.281250476837158">
        <ele>837.6897361829097</ele>
        <time>2017-11-13T16:30:03.571000Z</time>
      </trkpt>
      <trkpt lat="45.752112865448" lon="10.281035900115967">
        <ele>835.4551006430443</ele>
        <time>2017-11-13T16:30:03.848000Z</time>
      </trkpt>
      <trkpt lat="45.75230598449707" lon="10.280778408050537">
        <ele>827.0396890692897</ele>
        <time>2017-11-13T16:30:04.271000Z</time>
      </trkpt>
      <trkpt lat="45.75288534164429" lon="10.280520915985107">
        <ele>834.0380892266504</ele>
        <time>2017-11-13T16:30:05.243000Z</time>
      </trkpt>
      <trkpt lat="45.752906799316406" lon="10.280392169952393">
        <ele>833.8348258162583</ele>
        <time>2017-11-13T16:30:05.391000Z</time>
      </trkpt>
      <trkpt lat="45.75282105244696" lon="10.280263423919678">
        <ele>833.5615180231895</ele>
        <time>2017-11-13T16:30:05.590000Z</time>
      </trkpt>
      <trkpt lat="45.75273513793945" lon="10.280241966247559">
        <ele>833.3695905207675</ele>
        <time>2017-11-13T16:30:05.730000Z</time>
      </trkpt>
      <trkpt lat="45.75230598449707" lon="10.280413627624512">
        <ele>824.0556932965683</ele>
        <time>2017-11-13T16:30:06.444000Z</time>
      </trkpt>
      <trkpt lat="45.751919746398926" lon="10.280821323394775">
        <ele>823.0</ele>
        <time>2017-11-13T16:30:07.213000Z</time>
      </trkpt>
      <trkpt lat="45.75183391571045" lon="10.280842781066895">
        <ele>827.986623685359</ele>
        <time>2017-11-13T16:30:07.353000Z</time>
      </trkpt>
      <trkpt lat="45.75176954269409" lon="10.280756950378418">
        <ele>822.9731249289244</ele>
        <time>2017-11-13T16:30:07.494000Z</time>
      </trkpt>
      <trkpt lat="45.75176954269409" lon="10.280628204345703">
        <ele>822.959332849411</ele>
        <time>2017-11-13T16:30:07.638000Z</time>
      </trkpt>
      <trkpt lat="45.751984203234315" lon="10.280306339263916">
        <ele>822.9116360495659</ele>
        <time>2017-11-13T16:30:08.136000Z</time>
      </trkpt>
      <trkpt lat="45.752198696136475" lon="10.280091762542725">
        <ele>822.8714763827084</ele>
        <time>2017-11-13T16:30:08.555000Z</time>
      </trkpt>
      <trkpt lat="45.7525634765625" lon="10.27996301651001">
        <ele>830.3865954937346</ele>
        <time>2017-11-13T16:30:09.157000Z</time>
      </trkpt>
      <trkpt lat="45.752713680267334" lon="10.2797269821167">
        <ele>830.2966775414511</ele>
        <time>2017-11-13T16:30:09.514000Z</time>
      </trkpt>
      <trkpt lat="45.752735221758485" lon="10.279490947723389">
        <ele>830.2296745274699</ele>
        <time>2017-11-13T16:30:09.780000Z</time>
      </trkpt>
      <trkpt lat="45.752713680267334" lon="10.278675556182861">
        <ele>822.0</ele>
        <time>2017-11-13T16:30:10.693000Z</time>
      </trkpt>
      <trkpt lat="45.75282105244696" lon="10.27843952178955">
        <ele>823.8524455900356</ele>
        <time>2017-11-13T16:30:11.008000Z</time>
      </trkpt>
      <trkpt lat="45.75292834080756" lon="10.278332233428955">
        <ele>818.4184344460882</ele>
        <time>2017-11-13T16:30:11.218000Z</time>
      </trkpt>
      <trkpt lat="45.75327157974243" lon="10.27794599533081">
        <ele>822.5302649913291</ele>
        <time>2017-11-13T16:30:11.918000Z</time>
      </trkpt>
      <trkpt lat="45.7534218672663" lon="10.27768850326538">
        <ele>838.4039445323646</ele>
        <time>2017-11-13T16:30:12.294000Z</time>
      </trkpt>
      <trkpt lat="45.75348615646362" lon="10.27721643447876">
        <ele>836.8819467905881</ele>
        <time>2017-11-13T16:30:12.832000Z</time>
      </trkpt>
      <trkpt lat="45.753443241119385" lon="10.275757312774658">
        <ele>839.0</ele>
        <time>2017-11-13T16:30:14.466000Z</time>
      </trkpt>
      <trkpt lat="45.75337895192206" lon="10.275328159332275">
        <ele>835.0960084839338</ele>
        <time>2017-11-13T16:30:14.957000Z</time>
      </trkpt>
      <trkpt lat="45.75314283370972" lon="10.274126529693604">
        <ele>814.6593053364937</ele>
        <time>2017-11-13T16:30:16.353000Z</time>
      </trkpt>
      <trkpt lat="45.753014087677" lon="10.273890495300293">
        <ele>813.7064306511484</ele>
        <time>2017-11-13T16:30:16.688000Z</time>
      </trkpt>
      <trkpt lat="45.75258493423462" lon="10.273396968841553">
        <ele>811.1983370516409</ele>
        <time>2017-11-13T16:30:17.570000Z</time>
      </trkpt>
      <trkpt lat="45.75252056121826" lon="10.273139476776123">
        <ele>811.2640320332208</ele>
        <time>2017-11-13T16:30:17.876000Z</time>
      </trkpt>
      <trkpt lat="45.75260647572577" lon="10.272688865661621">
        <ele>810.8069478760921</ele>
        <time>2017-11-13T16:30:18.399000Z</time>
      </trkpt>
      <trkpt lat="45.752949714660645" lon="10.271894931793213">
        <ele>806.1779228085644</ele>
        <time>2017-11-13T16:30:19.444000Z</time>
      </trkpt>
      <trkpt lat="45.75299263000488" lon="10.271530151367188">
        <ele>804.1366223695528</ele>
        <time>2017-11-13T16:30:19.858000Z</time>
      </trkpt>
      <trkpt lat="45.75273513793945" lon="10.27047872543335">
        <ele>800.0</ele>
        <time>2017-11-13T16:30:21.104000Z</time>
      </trkpt>
      <trkpt lat="45.752756679430604" lon="10.269770622253418">
        <ele>800.2436728791171</ele>
        <time>2017-11-13T16:30:21.897000Z</time>
      </trkpt>
      <trkpt lat="45.75275659561157" lon="10.269577503204346">
        <ele>799.7651290876802</ele>
        <time>2017-11-13T16:30:22.113000Z</time>
      </trkpt>
      <trkpt lat="45.752670764923096" lon="10.269341468811035">
        <ele>799.1055797080512</ele>
        <time>2017-11-13T16:30:22.411000Z</time>
      </trkpt>
      <trkpt lat="45.75228452682495" lon="10.268547534942627">
        <ele>790.707259238368</ele>
        <time>2017-11-13T16:30:23.494000Z</time>
      </trkpt>
      <trkpt lat="45.75157642364502" lon="10.26796817779541">
        <ele>794.0</ele>
        <time>2017-11-13T16:30:24.801000Z</time>
      </trkpt>
      <trkpt lat="45.75157650746405" lon="10.26796817779541">
        <ele>793.999101655083</ele>
        <time>2017-11-13T16:30:24.801000Z</time>
      </trkpt>
      <trkpt lat="45.75082540512085" lon="10.267410278320312">
        <ele>779.9320373376527</ele>
        <time>2017-11-13T16:30:26.157000Z</time>
      </trkpt>
      <trkpt lat="45.7505464553833" lon="10.267066955566406">
        <ele>775.9911370770986</ele>
        <time>2017-11-13T16:30:26.746000Z</time>
      </trkpt>
      <trkpt lat="45.75039625167847" lon="10.266766548156738">
        <ele>771.9729833320831</ele>
        <time>2017-11-13T16:30:27.159000Z</time>
      </trkpt>
      <trkpt lat="45.75026750564575" lon="10.266315937042236">
        <ele>771.678878976828</ele>
        <time>2017-11-13T16:30:27.704000Z</time>
      </trkpt>
      <trkpt lat="45.74985980987549" lon="10.265564918518066">
        <ele>745.0</ele>
        <time>2017-11-13T16:30:28.768000Z</time>
      </trkpt>
      <trkpt lat="45.74981689453125" lon="10.26522159576416">
        <ele>746.03312263622</ele>
        <time>2017-11-13T16:30:29.158000Z</time>
      </trkpt>
      <trkpt lat="45.74990272521973" lon="10.264942646026611">
        <ele>738.2694766285322</ele>
        <time>2017-11-13T16:30:29.499000Z</time>
      </trkpt>
      <trkpt lat="45.75050354003906" lon="10.264256000518799">
        <ele>754.5315360475338</ele>
        <time>2017-11-13T16:30:30.731000Z</time>
      </trkpt>
      <trkpt lat="45.75086832046509" lon="10.26346206665039">
        <ele>745.243133478545</ele>
        <time>2017-11-13T16:30:31.794000Z</time>
      </trkpt>
      <trkpt lat="45.75151205062866" lon="10.262839794158936">
        <ele>722.6120870611252</ele>
        <time>2017-11-13T16:30:33.039000Z</time>
      </trkpt>
      <trkpt lat="45.751683712005615" lon="10.262560844421387">
        <ele>736.382396423633</ele>
        <time>2017-11-13T16:30:33.455000Z</time>
      </trkpt>
      <trkpt lat="45.75189828872681" lon="10.261766910552979">
        <ele>725.4268978981527</ele>
        <time>2017-11-13T16:30:34.407000Z</time>
      </trkpt>
      <trkpt lat="45.75234889984131" lon="10.261080265045166">
        <ele>722.0</ele>
        <time>2017-11-13T16:30:35.461000Z</time>
      </trkpt>
      <trkpt lat="45.75237035751343" lon="10.260908603668213">
        <ele>722.5005060571931</ele>
        <time>2017-11-13T16:30:35.656000Z</time>
      </trkpt>
      <trkpt lat="45.752155780792236" lon="10.260093212127686">
        <ele>728.6682297724791</ele>
        <time>2017-11-13T16:30:36.631000Z</time>
      </trkpt>
      <trkpt lat="45.7520055770874" lon="10.260007381439209">
        <ele>729.3333333333334</ele>
        <time>2017-11-13T16:30:36.890000Z</time>
      </trkpt>
      <trkpt lat="45.751941204071045" lon="10.260179042816162">
        <ele>729.3333333333334</ele>
        <time>2017-11-13T16:30:37.108000Z</time>
      </trkpt>
      <trkpt lat="45.752112865448" lon="10.260608196258545">
        <ele>729.3333333333334</ele>
        <time>2017-11-13T16:30:37.661000Z</time>
      </trkpt>
      <trkpt lat="45.75213432312012" lon="10.26097297668457">
        <ele>725.6666666666666</ele>
        <time>2017-11-13T16:30:38.070000Z</time>
      </trkpt>
      <trkpt lat="45.75204849243164" lon="10.26125192642212">
        <ele>725.6666666666666</ele>
        <time>2017-11-13T16:30:38.411000Z</time>
      </trkpt>
      <trkpt lat="45.751919746398926" lon="10.26120901107788">
        <ele>725.2243926684223</ele>
        <time>2017-11-13T16:30:38.623000Z</time>
      </trkpt>
      <trkpt lat="45.75189828872681" lon="10.260543823242188">
        <ele>727.3363997558755</ele>
        <time>2017-11-13T16:30:39.368000Z</time>
      </trkpt>
      <trkpt lat="45.75181245803833" lon="10.260350704193115">
        <ele>725.285890259161</ele>
        <time>2017-11-13T16:30:39.624000Z</time>
      </trkpt>
      <trkpt lat="45.75134038925171" lon="10.259642601013184">
        <ele>708.5153614829679</ele>
        <time>2017-11-13T16:30:40.720000Z</time>
      </trkpt>
      <trkpt lat="45.751426219940186" lon="10.259063243865967">
        <ele>704.4659189247565</ele>
        <time>2017-11-13T16:30:41.383000Z</time>
      </trkpt>
      <trkpt lat="45.75127601623535" lon="10.259041786193848">
        <ele>703.9608567658864</ele>
        <time>2017-11-13T16:30:41.625000Z</time>
      </trkpt>
      <trkpt lat="45.751211643218994" lon="10.259127616882324">
        <ele>703.6666666666666</ele>
        <time>2017-11-13T16:30:41.766000Z</time>
      </trkpt>
      <trkpt lat="45.75112581253052" lon="10.259578227996826">
        <ele>707.5948074614156</ele>
        <time>2017-11-13T16:30:42.289000Z</time>
      </trkpt>
      <trkpt lat="45.75106143951416" lon="10.259685516357422">
        <ele>707.9769458284437</ele>
        <time>2017-11-13T16:30:42.447000Z</time>
      </trkpt>
      <trkpt lat="45.750954151153564" lon="10.259706974029541">
        <ele>708.3962168335926</ele>
        <time>2017-11-13T16:30:42.621000Z</time>
      </trkpt>
      <trkpt lat="45.75088977813721" lon="10.259535312652588">
        <ele>708.922525456415</ele>
        <time>2017-11-13T16:30:42.839000Z</time>
      </trkpt>
      <trkpt lat="45.75112581253052" lon="10.259084701538086">
        <ele>706.474725027731</ele>
        <time>2017-11-13T16:30:43.469000Z</time>
      </trkpt>
      <trkpt lat="45.751211643218994" lon="10.258762836456299">
        <ele>706.6085692246917</ele>
        <time>2017-11-13T16:30:43.854000Z</time>
      </trkpt>
      <trkpt lat="45.751190185546875" lon="10.257797241210938">
        <ele>705.3171692402615</ele>
        <time>2017-11-13T16:30:44.935000Z</time>
      </trkpt>
      <trkpt lat="45.75112581253052" lon="10.257432460784912">
        <ele>714.7267877242401</ele>
        <time>2017-11-13T16:30:45.356000Z</time>
      </trkpt>
      <trkpt lat="45.75080394744873" lon="10.25672435760498">
        <ele>684.689535541692</ele>
        <time>2017-11-13T16:30:46.301000Z</time>
      </trkpt>
      <trkpt lat="45.749924182891846" lon="10.255415439605713">
        <ele>648.7026918962051</ele>
        <time>2017-11-13T16:30:48.334000Z</time>
      </trkpt>
      <trkpt lat="45.74981689453125" lon="10.254964828491211">
        <ele>634.0</ele>
        <time>2017-11-13T16:30:48.867000Z</time>
      </trkpt>
      <trkpt lat="45.74990272521973" lon="10.2547287940979">
        <ele>636.4399169153538</ele>
        <time>2017-11-13T16:30:49.165000Z</time>
      </trkpt>
      <trkpt lat="45.750203132629395" lon="10.254149436950684">
        <ele>654.0566668933261</ele>
        <time>2017-11-13T16:30:49.972000Z</time>
      </trkpt>
      <trkpt lat="45.75028896331787" lon="10.253827571868896">
        <ele>657.2153168793762</ele>
        <time>2017-11-13T16:30:50.357000Z</time>
      </trkpt>
      <trkpt lat="45.75031042098999" lon="10.253591537475586">
        <ele>659.3973251728243</ele>
        <time>2017-11-13T16:30:50.623000Z</time>
      </trkpt>
      <trkpt lat="45.750181674957275" lon="10.253098011016846">
        <ele>663.8939680377584</ele>
        <time>2017-11-13T16:30:51.212000Z</time>
      </trkpt>
      <trkpt lat="45.75039625167847" lon="10.25247573852539">
        <ele>669.1862581073964</ele>
        <time>2017-11-13T16:30:51.988000Z</time>
      </trkpt>
      <trkpt lat="45.750417709350586" lon="10.251102447509766">
        <ele>685.0</ele>
        <time>2017-11-13T16:30:53.525000Z</time>
      </trkpt>
      <trkpt lat="45.75028896331787" lon="10.25099515914917">
        <ele>683.6390206352744</ele>
        <time>2017-11-13T16:30:53.764000Z</time>
      </trkpt>
      <trkpt lat="45.750181674957275" lon="10.251038074493408">
        <ele>682.6211055923915</ele>
        <time>2017-11-13T16:30:53.943000Z</time>
      </trkpt>
      <trkpt lat="45.750160217285156" lon="10.251188278198242">
        <ele>681.6434431779326</ele>
        <time>2017-11-13T16:30:54.115000Z</time>
      </trkpt>
      <trkpt lat="45.750181674957275" lon="10.251810550689697">
        <ele>671.6705904200622</ele>
        <time>2017-11-13T16:30:54.812000Z</time>
      </trkpt>
      <trkpt lat="45.75011730194092" lon="10.252454280853271">
        <ele>667.5238117503351</ele>
        <time>2017-11-13T16:30:55.539000Z</time>
      </trkpt>
      <trkpt lat="45.75001001358032" lon="10.252690315246582">
        <ele>662.5997733663302</ele>
        <time>2017-11-13T16:30:55.854000Z</time>
      </trkpt>
      <trkpt lat="45.74962377548218" lon="10.253183841705322">
        <ele>631.5316599982955</ele>
        <time>2017-11-13T16:30:56.684000Z</time>
      </trkpt>
      <trkpt lat="45.74955940246582" lon="10.253205299377441">
        <ele>629.7774575958205</ele>
        <time>2017-11-13T16:30:56.790000Z</time>
      </trkpt>
      <trkpt lat="45.749452114105225" lon="10.253055095672607">
        <ele>625.7964804221418</ele>
        <time>2017-11-13T16:30:57.030000Z</time>
      </trkpt>
      <trkpt lat="45.749452114105225" lon="10.252947807312012">
        <ele>625.3707282560092</ele>
        <time>2017-11-13T16:30:57.150000Z</time>
      </trkpt>
      <trkpt lat="45.74977397918701" lon="10.252561569213867">
        <ele>622.9833502335666</ele>
        <time>2017-11-13T16:30:57.823000Z</time>
      </trkpt>
      <trkpt lat="45.74983835220337" lon="10.252411365509033">
        <ele>619.9505237912196</ele>
        <time>2017-11-13T16:30:58.020000Z</time>
      </trkpt>
      <trkpt lat="45.74990272521973" lon="10.25200366973877">
        <ele>618.291777486577</ele>
        <time>2017-11-13T16:30:58.488000Z</time>
      </trkpt>
      <trkpt lat="45.74990272521973" lon="10.25151014328003">
        <ele>621.0</ele>
        <time>2017-11-13T16:30:59.040000Z</time>
      </trkpt>
      <trkpt lat="45.74985980987549" lon="10.251317024230957">
        <ele>622.0814749734382</ele>
        <time>2017-11-13T16:30:59.267000Z</time>
      </trkpt>
      <trkpt lat="45.7496452331543" lon="10.250887870788574">
        <ele>624.8986310027581</ele>
        <time>2017-11-13T16:30:59.858000Z</time>
      </trkpt>
      <trkpt lat="45.74958086013794" lon="10.250608921051025">
        <ele>629.4663972377376</ele>
        <time>2017-11-13T16:31:00.187000Z</time>
      </trkpt>
      <trkpt lat="45.74955940246582" lon="10.249857902526855">
        <ele>640.1438683023592</ele>
        <time>2017-11-13T16:31:01.028000Z</time>
      </trkpt>
      <trkpt lat="45.749194622039795" lon="10.249407291412354">
        <ele>632.434003654248</ele>
        <time>2017-11-13T16:31:01.800000Z</time>
      </trkpt>
      <trkpt lat="45.74913024902344" lon="10.249021053314209">
        <ele>617.9979425214156</ele>
        <time>2017-11-13T16:31:02.244000Z</time>
      </trkpt>
      <trkpt lat="45.74906587600708" lon="10.24897813796997">
        <ele>616.8613423640325</ele>
        <time>2017-11-13T16:31:02.358000Z</time>
      </trkpt>
      <trkpt lat="45.748958587646484" lon="10.249021053314209">
        <ele>615.078113658669</ele>
        <time>2017-11-13T16:31:02.537000Z</time>
      </trkpt>
      <trkpt lat="45.748915672302246" lon="10.249085426330566">
        <ele>613.5524456787048</ele>
        <time>2017-11-13T16:31:02.637000Z</time>
      </trkpt>
      <trkpt lat="45.748958587646484" lon="10.249450206756592">
        <ele>597.2130913690762</ele>
        <time>2017-11-13T16:31:03.051000Z</time>
      </trkpt>
      <trkpt lat="45.74928045272827" lon="10.24998664855957">
        <ele>616.7056296632478</ele>
        <time>2017-11-13T16:31:03.842000Z</time>
      </trkpt>
      <trkpt lat="45.74930191040039" lon="10.250329971313477">
        <ele>609.7917185540173</ele>
        <time>2017-11-13T16:31:04.228000Z</time>
      </trkpt>
      <trkpt lat="45.74913024902344" lon="10.25075912475586">
        <ele>592.1035730082586</ele>
        <time>2017-11-13T16:31:04.781000Z</time>
      </trkpt>
      <trkpt lat="45.74913024902344" lon="10.250930786132812">
        <ele>586.647109978792</ele>
        <time>2017-11-13T16:31:04.973000Z</time>
      </trkpt>
      <trkpt lat="45.749216079711914" lon="10.251102447509766">
        <ele>606.1623021818149</ele>
        <time>2017-11-13T16:31:05.209000Z</time>
      </trkpt>
      <trkpt lat="45.749216079711914" lon="10.251338481903076">
        <ele>602.2133832772579</ele>
        <time>2017-11-13T16:31:05.473000Z</time>
      </trkpt>
      <trkpt lat="45.748937129974365" lon="10.251874923706055">
        <ele>570.6873076227229</ele>
        <time>2017-11-13T16:31:06.221000Z</time>
      </trkpt>
      <trkpt lat="45.74885129928589" lon="10.251896381378174">
        <ele>569.7840685009504</ele>
        <time>2017-11-13T16:31:06.361000Z</time>
      </trkpt>
      <trkpt lat="45.74876546859741" lon="10.251896381378174">
        <ele>568.8942676566784</ele>
        <time>2017-11-13T16:31:06.499000Z</time>
      </trkpt>
      <trkpt lat="45.748722553253174" lon="10.251703262329102">
        <ele>567.4280922754746</ele>
        <time>2017-11-13T16:31:06.726000Z</time>
      </trkpt>
      <trkpt lat="45.7489800453186" lon="10.251381397247314">
        <ele>564.5525539071805</ele>
        <time>2017-11-13T16:31:07.274000Z</time>
      </trkpt>
      <trkpt lat="45.748958587646484" lon="10.251123905181885">
        <ele>566.662642903647</ele>
        <time>2017-11-13T16:31:07.564000Z</time>
      </trkpt>
      <trkpt lat="45.74885129928589" lon="10.250651836395264">
        <ele>576.0357865497243</ele>
        <time>2017-11-13T16:31:08.119000Z</time>
      </trkpt>
      <trkpt lat="45.74885129928589" lon="10.250329971313477">
        <ele>578.6547932397689</ele>
        <time>2017-11-13T16:31:08.479000Z</time>
      </trkpt>
      <trkpt lat="45.748701095581055" lon="10.24998664855957">
        <ele>585.9520686205022</ele>
        <time>2017-11-13T16:31:08.932000Z</time>
      </trkpt>
      <trkpt lat="45.748465061187744" lon="10.249621868133545">
        <ele>590.0</ele>
        <time>2017-11-13T16:31:09.489000Z</time>
      </trkpt>
      <trkpt lat="45.748164653778076" lon="10.249407291412354">
        <ele>576.5627801592905</ele>
        <time>2017-11-13T16:31:10.027000Z</time>
      </trkpt>
      <trkpt lat="45.74790716171265" lon="10.249106884002686">
        <ele>579.8113331668696</ele>
        <time>2017-11-13T16:31:10.559000Z</time>
      </trkpt>
      <trkpt lat="45.74758529663086" lon="10.24850606918335">
        <ele>577.0232355131235</ele>
        <time>2017-11-13T16:31:11.406000Z</time>
      </trkpt>
      <trkpt lat="45.747413635253906" lon="10.247647762298584">
        <ele>566.8181232031135</ele>
        <time>2017-11-13T16:31:12.405000Z</time>
      </trkpt>
      <trkpt lat="45.74756383895874" lon="10.247089862823486">
        <ele>590.6930222922498</ele>
        <time>2017-11-13T16:31:13.074000Z</time>
      </trkpt>
      <trkpt lat="45.74758529663086" lon="10.2467679977417">
        <ele>590.6111246931514</ele>
        <time>2017-11-13T16:31:13.436000Z</time>
      </trkpt>
      <trkpt lat="45.747435092926025" lon="10.246210098266602">
        <ele>567.4451757163337</ele>
        <time>2017-11-13T16:31:14.105000Z</time>
      </trkpt>
      <trkpt lat="45.746726989746094" lon="10.245351791381836">
        <ele>557.0001213469236</ele>
        <time>2017-11-13T16:31:15.592000Z</time>
      </trkpt>
      <trkpt lat="45.746684074401855" lon="10.245115756988525">
        <ele>555.5269643053042</ele>
        <time>2017-11-13T16:31:15.865000Z</time>
      </trkpt>
      <trkpt lat="45.746705532073975" lon="10.24472951889038">
        <ele>551.5201760470962</ele>
        <time>2017-11-13T16:31:16.298000Z</time>
      </trkpt>
      <trkpt lat="45.746941566467285" lon="10.244042873382568">
        <ele>545.563902122363</ele>
        <time>2017-11-13T16:31:17.154000Z</time>
      </trkpt>
      <trkpt lat="45.746963024139404" lon="10.243721008300781">
        <ele>542.6281456378574</ele>
        <time>2017-11-13T16:31:17.516000Z</time>
      </trkpt>
      <trkpt lat="45.74679136276245" lon="10.242412090301514">
        <ele>501.2649504519574</ele>
        <time>2017-11-13T16:31:19.006000Z</time>
      </trkpt>
      <trkpt lat="45.74659824371338" lon="10.241940021514893">
        <ele>484.84403179327757</ele>
        <time>2017-11-13T16:31:19.618000Z</time>
      </trkpt>
      <trkpt lat="45.74659824371338" lon="10.241832733154297">
        <ele>483.92479708969586</ele>
        <time>2017-11-13T16:31:19.738000Z</time>
      </trkpt>
      <trkpt lat="45.747199058532715" lon="10.241403579711914">
        <ele>473.682482721844</ele>
        <time>2017-11-13T16:31:20.814000Z</time>
      </trkpt>
      <trkpt lat="45.74758529663086" lon="10.241382122039795">
        <ele>473.2470681402194</ele>
        <time>2017-11-13T16:31:21.434000Z</time>
      </trkpt>
      <trkpt lat="45.74801445007324" lon="10.241467952728271">
        <ele>473.84921817976283</ele>
        <time>2017-11-13T16:31:22.129000Z</time>
      </trkpt>
      <trkpt lat="45.74803599156439" lon="10.241425037384033">
        <ele>473.9004818219705</ele>
        <time>2017-11-13T16:31:22.188000Z</time>
      </trkpt>
      <trkpt lat="45.74812182225287" lon="10.241189002990723">
        <ele>474.1585803121995</ele>
        <time>2017-11-13T16:31:22.486000Z</time>
      </trkpt>
      <trkpt lat="45.74829339981079" lon="10.240781307220459">
        <ele>476.95359355222166</ele>
        <time>2017-11-13T16:31:23.019000Z</time>
      </trkpt>
      <trkpt lat="45.747177600860596" lon="10.240030288696289">
        <ele>478.0</ele>
        <time>2017-11-13T16:31:24.995000Z</time>
      </trkpt>
      <trkpt lat="45.746684074401855" lon="10.240030288696289">
        <ele>477.7008242461661</ele>
        <time>2017-11-13T16:31:25.786000Z</time>
      </trkpt>
      <trkpt lat="45.74608334340155" lon="10.240159034729004">
        <ele>476.1405438196313</ele>
        <time>2017-11-13T16:31:26.760000Z</time>
      </trkpt>
      <trkpt lat="45.74558973312378" lon="10.24050235748291">
        <ele>475.0</ele>
        <time>2017-11-13T16:31:27.640000Z</time>
      </trkpt>
      <trkpt lat="45.74533224105835" lon="10.24052381515503">
        <ele>478.1789360355672</ele>
        <time>2017-11-13T16:31:28.053000Z</time>
      </trkpt>
      <trkpt lat="45.745224952697754" lon="10.240459442138672">
        <ele>479.61249360186065</ele>
        <time>2017-11-13T16:31:28.239000Z</time>
      </trkpt>
      <trkpt lat="45.74503183364868" lon="10.24024486541748">
        <ele>482.62436969275063</ele>
        <time>2017-11-13T16:31:28.631000Z</time>
      </trkpt>
      <trkpt lat="45.744194984436035" lon="10.238292217254639">
        <ele>516.0</ele>
        <time>2017-11-13T16:31:31.195000Z</time>
      </trkpt>
      <trkpt lat="45.743958950042725" lon="10.23801326751709">
        <ele>499.0356211493254</ele>
        <time>2017-11-13T16:31:31.685000Z</time>
      </trkpt>
      <trkpt lat="45.74365854263306" lon="10.237798690795898">
        <ele>495.3553313825176</ele>
        <time>2017-11-13T16:31:32.223000Z</time>
      </trkpt>
      <trkpt lat="45.74337959289551" lon="10.237734317779541">
        <ele>492.2574368826625</ele>
        <time>2017-11-13T16:31:32.676000Z</time>
      </trkpt>
      <trkpt lat="45.742778861895204" lon="10.238034725189209">
        <ele>480.94793806777335</ele>
        <time>2017-11-13T16:31:33.696000Z</time>
      </trkpt>
      <trkpt lat="45.74207067489624" lon="10.238378047943115">
        <ele>465.67791214408993</ele>
        <time>2017-11-13T16:31:34.895000Z</time>
      </trkpt>
      <trkpt lat="45.74177026748657" lon="10.238420963287354">
        <ele>463.86573198552856</ele>
        <time>2017-11-13T16:31:35.379000Z</time>
      </trkpt>
      <trkpt lat="45.741448402404785" lon="10.238356590270996">
        <ele>460.24829266399803</ele>
        <time>2017-11-13T16:31:35.900000Z</time>
      </trkpt>
      <trkpt lat="45.74065446853638" lon="10.237841606140137">
        <ele>460.74421836411494</ele>
        <time>2017-11-13T16:31:37.297000Z</time>
      </trkpt>
      <trkpt lat="45.73952157050371" lon="10.23708631284535">
        <ele>461.1244415709015</ele>
        <time>2017-11-13T16:31:39.300000Z</time>
      </trkpt>
      <trkpt lat="45.73952148243353" lon="10.237086280747107">
        <ele>461.12440213650194</ele>
        <time>2017-11-13T16:31:39.300000Z</time>
      </trkpt>
      <trkpt lat="45.73952100003999" lon="10.237085959158119">
        <ele>461.124171256773</ele>
        <time>2017-11-13T16:31:39.300000Z</time>
      </trkpt>
      <trkpt lat="45.7394601229194" lon="10.237045375302367">
        <ele>461.0950346868981</ele>
        <time>2017-11-13T16:31:39.408000Z</time>
      </trkpt>
      <trkpt lat="45.73943314142525" lon="10.237027388066053">
        <ele>461.0821210010158</ele>
        <time>2017-11-13T16:31:39.456000Z</time>
      </trkpt>
      <trkpt lat="45.739433309063315" lon="10.237027471885085">
        <ele>461.0820439536806</ele>
        <time>2017-11-13T16:31:39.456000Z</time>
      </trkpt>
      <trkpt lat="45.73930263519287" lon="10.236940383911133">
        <ele>461.01950505843934</ele>
        <time>2017-11-13T16:31:39.687000Z</time>
      </trkpt>
      <trkpt lat="45.73780059814453" lon="10.236232280731201">
        <ele>457.0</ele>
        <time>2017-11-13T16:31:42.222000Z</time>
      </trkpt>
      <trkpt lat="45.73752164840698" lon="10.236039161682129">
        <ele>457.3799974283367</ele>
        <time>2017-11-13T16:31:42.719000Z</time>
      </trkpt>
      <trkpt lat="45.73726415634155" lon="10.2357816696167">
        <ele>456.76514590667335</ele>
        <time>2017-11-13T16:31:43.222000Z</time>
      </trkpt>
      <trkpt lat="45.73692083358765" lon="10.235223770141602">
        <ele>457.401889605002</ele>
        <time>2017-11-13T16:31:44.054000Z</time>
      </trkpt>
      <trkpt lat="45.73651313781738" lon="10.234043598175049">
        <ele>468.58590588326524</ele>
        <time>2017-11-13T16:31:45.527000Z</time>
      </trkpt>
      <trkpt lat="45.73632001876831" lon="10.233657360076904">
        <ele>471.3540675636952</ele>
        <time>2017-11-13T16:31:46.059000Z</time>
      </trkpt>
      <trkpt lat="45.73561191558838" lon="10.233056545257568">
        <ele>485.32195593672714</ele>
        <time>2017-11-13T16:31:47.378000Z</time>
      </trkpt>
      <trkpt lat="45.735225761309266" lon="10.232927799224854">
        <ele>489.0</ele>
        <time>2017-11-13T16:31:48.014000Z</time>
      </trkpt>
      <trkpt lat="45.735225677490234" lon="10.232927799224854">
        <ele>488.99926142602317</ele>
        <time>2017-11-13T16:31:48.014000Z</time>
      </trkpt>
      <trkpt lat="45.73486089706421" lon="10.232927799224854">
        <ele>485.4516541454606</ele>
        <time>2017-11-13T16:31:48.599000Z</time>
      </trkpt>
      <trkpt lat="45.734496116638184" lon="10.23301362991333">
        <ele>482.19432089217776</ele>
        <time>2017-11-13T16:31:49.192000Z</time>
      </trkpt>
      <trkpt lat="45.7341742515564" lon="10.23327112197876">
        <ele>478.9459991869591</ele>
        <time>2017-11-13T16:31:49.783000Z</time>
      </trkpt>
      <trkpt lat="45.73404550552368" lon="10.233421325683594">
        <ele>461.598265057996</ele>
        <time>2017-11-13T16:31:50.049000Z</time>
      </trkpt>
      <trkpt lat="45.73387384414673" lon="10.233979225158691">
        <ele>454.7263128439642</ele>
        <time>2017-11-13T16:31:50.731000Z</time>
      </trkpt>
      <trkpt lat="45.73363780975342" lon="10.234408378601074">
        <ele>445.90143754228376</ele>
        <time>2017-11-13T16:31:51.342000Z</time>
      </trkpt>
      <trkpt lat="45.732929706573486" lon="10.235309600830078">
        <ele>443.16357265025516</ele>
        <time>2017-11-13T16:31:52.860000Z</time>
      </trkpt>
      <trkpt lat="45.73252201080322" lon="10.235610008239746">
        <ele>444.8545874725175</ele>
        <time>2017-11-13T16:31:53.595000Z</time>
      </trkpt>
      <trkpt lat="45.732221603393555" lon="10.235631465911865">
        <ele>447.2973429413985</ele>
        <time>2017-11-13T16:31:54.077000Z</time>
      </trkpt>
      <trkpt lat="45.73187828063965" lon="10.235459804534912">
        <ele>450.0976024355029</ele>
        <time>2017-11-13T16:31:54.660000Z</time>
      </trkpt>
      <trkpt lat="45.731492042541504" lon="10.234880447387695">
        <ele>459.43856193859375</ele>
        <time>2017-11-13T16:31:55.557000Z</time>
      </trkpt>
      <trkpt lat="45.731234550476074" lon="10.234687328338623">
        <ele>460.65523706932623</ele>
        <time>2017-11-13T16:31:56.023000Z</time>
      </trkpt>
      <trkpt lat="45.730698108673096" lon="10.234816074371338">
        <ele>459.52038207170875</ele>
        <time>2017-11-13T16:31:56.895000Z</time>
      </trkpt>
      <trkpt lat="45.730247497558594" lon="10.23503065109253">
        <ele>440.07985766968903</ele>
        <time>2017-11-13T16:31:57.656000Z</time>
      </trkpt>
      <trkpt lat="45.73007592000067" lon="10.235180854797363">
        <ele>438.05836257435743</ele>
        <time>2017-11-13T16:31:57.978000Z</time>
      </trkpt>
      <trkpt lat="45.73007583618164" lon="10.235180854797363">
        <ele>438.0581256245452</ele>
        <time>2017-11-13T16:31:57.978000Z</time>
      </trkpt>
      <trkpt lat="45.73005446232855" lon="10.235223770141602">
        <ele>437.95409491329127</ele>
        <time>2017-11-13T16:31:58.037000Z</time>
      </trkpt>
      <trkpt lat="45.73005437850952" lon="10.235223770141602">
        <ele>437.9541706387641</ele>
        <time>2017-11-13T16:31:58.037000Z</time>
      </trkpt>
      <trkpt lat="45.729475021362305" lon="10.23576021194458">
        <ele>436.9107310921054</ele>
        <time>2017-11-13T16:31:59.143000Z</time>
      </trkpt>
      <trkpt lat="45.72932481765747" lon="10.235846042633057">
        <ele>435.3901617273903</ele>
        <time>2017-11-13T16:31:59.402000Z</time>
      </trkpt>
      <trkpt lat="45.72904586791992" lon="10.235846042633057">
        <ele>434.6421761009345</ele>
        <time>2017-11-13T16:31:59.849000Z</time>
      </trkpt>
      <trkpt lat="45.72865962982178" lon="10.235545635223389">
        <ele>437.372566415613</ele>
        <time>2017-11-13T16:32:00.554000Z</time>
      </trkpt>
      <trkpt lat="45.72833776473999" lon="10.234816074371338">
        <ele>447.9740082170513</ele>
        <time>2017-11-13T16:32:01.520000Z</time>
      </trkpt>
      <trkpt lat="45.727972984313965" lon="10.233850479125977">
        <ele>449.78095784811995</ele>
        <time>2017-11-13T16:32:02.749000Z</time>
      </trkpt>
      <trkpt lat="45.72735071182251" lon="10.232927799224854">
        <ele>444.74597796776925</ele>
        <time>2017-11-13T16:32:04.185000Z</time>
      </trkpt>
      <trkpt lat="45.726943016052246" lon="10.232648849487305">
        <ele>442.0488699224061</ele>
        <time>2017-11-13T16:32:04.909000Z</time>
      </trkpt>
      <trkpt lat="45.726749897003174" lon="10.232627391815186">
        <ele>440.89257920090216</ele>
        <time>2017-11-13T16:32:05.220000Z</time>
      </trkpt>
      <trkpt lat="45.72580575942993" lon="10.232734680175781">
        <ele>425.2720634754976</ele>
        <time>2017-11-13T16:32:06.738000Z</time>
      </trkpt>
      <trkpt lat="45.725483894348145" lon="10.232627391815186">
        <ele>423.5405523858139</ele>
        <time>2017-11-13T16:32:07.268000Z</time>
      </trkpt>
      <trkpt lat="45.72406777180731" lon="10.230846405029297">
        <ele>410.0</ele>
        <time>2017-11-13T16:32:10.289000Z</time>
      </trkpt>
      <trkpt lat="45.723724365234375" lon="10.230331420898438">
        <ele>422.5941597804901</ele>
        <time>2017-11-13T16:32:11.086000Z</time>
      </trkpt>
      <trkpt lat="45.7236385345459" lon="10.230138301849365">
        <ele>426.8145429439192</ele>
        <time>2017-11-13T16:32:11.342000Z</time>
      </trkpt>
      <trkpt lat="45.723230838775635" lon="10.229065418243408">
        <ele>464.0</ele>
        <time>2017-11-13T16:32:12.709000Z</time>
      </trkpt>
      <trkpt lat="45.72310209274292" lon="10.228936672210693">
        <ele>459.4232895160458</ele>
        <time>2017-11-13T16:32:12.961000Z</time>
      </trkpt>
      <trkpt lat="45.72280168533325" lon="10.228893756866455">
        <ele>450.6235796439361</ele>
        <time>2017-11-13T16:32:13.445000Z</time>
      </trkpt>
      <trkpt lat="45.72254419326782" lon="10.22902250289917">
        <ele>442.6740893033381</ele>
        <time>2017-11-13T16:32:13.882000Z</time>
      </trkpt>
      <trkpt lat="45.72238634238423" lon="10.229265332695633">
        <ele>418.58894902120545</ele>
        <time>2017-11-13T16:32:14.253000Z</time>
      </trkpt>
      <trkpt lat="45.72238625736068" lon="10.22926546349093">
        <ele>418.5873531227462</ele>
        <time>2017-11-13T16:32:14.253000Z</time>
      </trkpt>
      <trkpt lat="45.722340224484434" lon="10.229336277726183">
        <ele>417.7233126484006</ele>
        <time>2017-11-13T16:32:14.361000Z</time>
      </trkpt>
      <trkpt lat="45.72232014499605" lon="10.229367166757584">
        <ele>417.3464194782162</ele>
        <time>2017-11-13T16:32:14.408000Z</time>
      </trkpt>
      <trkpt lat="45.72232031263411" lon="10.229366915300488">
        <ele>417.3433146574905</ele>
        <time>2017-11-13T16:32:14.408000Z</time>
      </trkpt>
      <trkpt lat="45.72226524353027" lon="10.229451656341553">
        <ele>416.30949277602286</ele>
        <time>2017-11-13T16:32:14.538000Z</time>
      </trkpt>
      <trkpt lat="45.72202920913696" lon="10.229945182800293">
        <ele>410.9674236958829</ele>
        <time>2017-11-13T16:32:15.208000Z</time>
      </trkpt>
      <trkpt lat="45.72183609008789" lon="10.230202674865723">
        <ele>404.5926859598782</ele>
        <time>2017-11-13T16:32:15.631000Z</time>
      </trkpt>
      <trkpt lat="45.721299732103944" lon="10.230460166931152">
        <ele>404.7545697657393</ele>
        <time>2017-11-13T16:32:16.538000Z</time>
      </trkpt>
      <trkpt lat="45.720956325531006" lon="10.23052453994751">
        <ele>404.9157312569725</ele>
        <time>2017-11-13T16:32:17.093000Z</time>
      </trkpt>
      <trkpt lat="45.72035551071167" lon="10.230309963226318">
        <ele>404.8705375954376</ele>
        <time>2017-11-13T16:32:18.086000Z</time>
      </trkpt>
      <trkpt lat="45.72018384933472" lon="10.230095386505127">
        <ele>404.97655888201143</ele>
        <time>2017-11-13T16:32:18.451000Z</time>
      </trkpt>
      <trkpt lat="45.719261253252625" lon="10.228636264801025">
        <ele>410.0</ele>
        <time>2017-11-13T16:32:20.654000Z</time>
      </trkpt>
      <trkpt lat="45.717780673876405" lon="10.226404666900635">
        <ele>412.0</ele>
        <time>2017-11-13T16:32:24.100000Z</time>
      </trkpt>
      <trkpt lat="45.71763038635254" lon="10.226190090179443">
        <ele>411.4698115258632</ele>
        <time>2017-11-13T16:32:24.440000Z</time>
      </trkpt>
      <trkpt lat="45.71640729904175" lon="10.224065780639648">
        <ele>396.0</ele>
        <time>2017-11-13T16:32:27.522000Z</time>
      </trkpt>
      <trkpt lat="45.71589231491089" lon="10.222649574279785">
        <ele>412.0</ele>
        <time>2017-11-13T16:32:29.309000Z</time>
      </trkpt>
      <trkpt lat="45.71537138443381" lon="10.222108553859822">
        <ele>410.1683926960945</ele>
        <time>2017-11-13T16:32:30.341000Z</time>
      </trkpt>
      <trkpt lat="45.715371302364304" lon="10.22210846862625">
        <ele>410.1681566528608</ele>
        <time>2017-11-13T16:32:30.341000Z</time>
      </trkpt>
      <trkpt lat="45.715316597156594" lon="10.222051654424284">
        <ele>410.01081695600686</ele>
        <time>2017-11-13T16:32:30.449000Z</time>
      </trkpt>
      <trkpt lat="45.7152924221009" lon="10.222026547417045">
        <ele>409.8815042014755</ele>
        <time>2017-11-13T16:32:30.497000Z</time>
      </trkpt>
      <trkpt lat="45.71529250591993" lon="10.222026715055108">
        <ele>409.8808807831206</ele>
        <time>2017-11-13T16:32:30.497000Z</time>
      </trkpt>
      <trkpt lat="45.71477651596069" lon="10.221490859985352">
        <ele>407.1208803692418</ele>
        <time>2017-11-13T16:32:31.519000Z</time>
      </trkpt>
      <trkpt lat="45.71383246220648" lon="10.221319198608398">
        <ele>399.0</ele>
        <time>2017-11-13T16:32:33.045000Z</time>
      </trkpt>
      <trkpt lat="45.71383237838745" lon="10.221319198608398">
        <ele>398.99955722297955</ele>
        <time>2017-11-13T16:32:33.045000Z</time>
      </trkpt>
      <trkpt lat="45.71327447891235" lon="10.221083164215088">
        <ele>391.9265266221833</ele>
        <time>2017-11-13T16:32:33.978000Z</time>
      </trkpt>
      <trkpt lat="45.713017070665956" lon="10.220847129821777">
        <ele>390.31192179125765</ele>
        <time>2017-11-13T16:32:34.468000Z</time>
      </trkpt>
      <trkpt lat="45.713016986846924" lon="10.220847129821777">
        <ele>390.3119558758196</ele>
        <time>2017-11-13T16:32:34.468000Z</time>
      </trkpt>
      <trkpt lat="45.711515033617616" lon="10.219731330871582">
        <ele>393.0</ele>
        <time>2017-11-13T16:32:37.181000Z</time>
      </trkpt>
      <trkpt lat="45.7104850653559" lon="10.219430923461914">
        <ele>384.3311084405771</ele>
        <time>2017-11-13T16:32:38.866000Z</time>
      </trkpt>
      <trkpt lat="45.71020611561835" lon="10.219109058380127">
        <ele>384.93328214524945</ele>
        <time>2017-11-13T16:32:39.440000Z</time>
      </trkpt>
      <trkpt lat="45.709916024521064" lon="10.21865728079884">
        <ele>381.0585469258699</ele>
        <time>2017-11-13T16:32:40.127000Z</time>
      </trkpt>
      <trkpt lat="45.70991627177182" lon="10.218657665855211">
        <ele>381.0592126316895</ele>
        <time>2017-11-13T16:32:40.127000Z</time>
      </trkpt>
      <trkpt lat="45.7098704636092" lon="10.218586326529415">
        <ele>381.1825479591469</ele>
        <time>2017-11-13T16:32:40.236000Z</time>
      </trkpt>
      <trkpt lat="45.709850303828716" lon="10.218554930761456">
        <ele>381.2368267369561</ele>
        <time>2017-11-13T16:32:40.284000Z</time>
      </trkpt>
      <trkpt lat="45.709850303828716" lon="10.218555014580488">
        <ele>381.23693340518736</ele>
        <time>2017-11-13T16:32:40.285000Z</time>
      </trkpt>
      <trkpt lat="45.70909023284912" lon="10.217370986938477">
        <ele>385.95036070786637</ele>
        <time>2017-11-13T16:32:42.085000Z</time>
      </trkpt>
      <trkpt lat="45.70878982543945" lon="10.216984748840332">
        <ele>386.4850390482724</ele>
        <time>2017-11-13T16:32:42.732000Z</time>
      </trkpt>
      <trkpt lat="45.70842512883246" lon="10.21679162979126">
        <ele>387.75743798278955</ele>
        <time>2017-11-13T16:32:43.355000Z</time>
      </trkpt>
      <trkpt lat="45.708274925127625" lon="10.216727256774902">
        <ele>384.4687584258738</ele>
        <time>2017-11-13T16:32:43.606000Z</time>
      </trkpt>
      <trkpt lat="45.70758819580078" lon="10.215697288513184">
        <ele>393.53285910529786</ele>
        <time>2017-11-13T16:32:45.200000Z</time>
      </trkpt>
      <trkpt lat="45.70683726109564" lon="10.214731693267822">
        <ele>390.0</ele>
        <time>2017-11-13T16:32:46.818000Z</time>
      </trkpt>
      <trkpt lat="45.7063437346369" lon="10.214152336120605">
        <ele>383.08166524476565</ele>
        <time>2017-11-13T16:32:47.841000Z</time>
      </trkpt>
      <trkpt lat="45.705549800768495" lon="10.213186740875244">
        <ele>374.230058525562</ele>
        <time>2017-11-13T16:32:49.511000Z</time>
      </trkpt>
      <trkpt lat="45.70419796742499" lon="10.211598873138428">
        <ele>371.0</ele>
        <time>2017-11-13T16:32:52.314000Z</time>
      </trkpt>
      <trkpt lat="45.70271738804877" lon="10.21003246307373">
        <ele>361.0</ele>
        <time>2017-11-13T16:32:55.265000Z</time>
      </trkpt>
      <trkpt lat="45.702717304229736" lon="10.21003246307373">
        <ele>361.0001182143573</ele>
        <time>2017-11-13T16:32:55.265000Z</time>
      </trkpt>
      <trkpt lat="45.70181608200073" lon="10.208938121795654">
        <ele>366.0</ele>
        <time>2017-11-13T16:32:57.159000Z</time>
      </trkpt>
      <trkpt lat="45.701301181688905" lon="10.207908153533936">
        <ele>362.106526249467</ele>
        <time>2017-11-13T16:32:58.577000Z</time>
      </trkpt>
      <trkpt lat="45.70130109786987" lon="10.207908153533936">
        <ele>362.1062836730218</ele>
        <time>2017-11-13T16:32:58.577000Z</time>
      </trkpt>
      <trkpt lat="45.70045679460237" lon="10.205503675869682">
        <ele>354.0</ele>
        <time>2017-11-13T16:33:01.590000Z</time>
      </trkpt>
      <trkpt lat="45.70045695877391" lon="10.205504143390153">
        <ele>353.9997060514168</ele>
        <time>2017-11-13T16:33:01.590000Z</time>
      </trkpt>
      <trkpt lat="45.70042655843075" lon="10.205417570774909">
        <ele>353.8908331230386</ele>
        <time>2017-11-13T16:33:01.699000Z</time>
      </trkpt>
      <trkpt lat="45.70041454397142" lon="10.205383356660604">
        <ele>353.84780573912326</ele>
        <time>2017-11-13T16:33:01.742000Z</time>
      </trkpt>
      <trkpt lat="45.70041471160948" lon="10.205383859574795">
        <ele>353.847179622991</ele>
        <time>2017-11-13T16:33:01.742000Z</time>
      </trkpt>
      <trkpt lat="45.70031404495239" lon="10.205097198486328">
        <ele>353.48667350870227</ele>
        <time>2017-11-13T16:33:02.101000Z</time>
      </trkpt>
      <trkpt lat="45.69960594177246" lon="10.20280122756958">
        <ele>349.0</ele>
        <time>2017-11-13T16:33:04.911000Z</time>
      </trkpt>
      <trkpt lat="45.69945573806763" lon="10.202093124389648">
        <ele>348.1885088054266</ele>
        <time>2017-11-13T16:33:05.740000Z</time>
      </trkpt>
      <trkpt lat="45.69945573806763" lon="10.20153522491455">
        <ele>349.0095891580861</ele>
        <time>2017-11-13T16:33:06.365000Z</time>
      </trkpt>
      <trkpt lat="45.69969185627997" lon="10.199453830718994">
        <ele>347.0</ele>
        <time>2017-11-13T16:33:08.726000Z</time>
      </trkpt>
      <trkpt lat="45.69973477162421" lon="10.19904613494873">
        <ele>346.22915614043194</ele>
        <time>2017-11-13T16:33:09.188000Z</time>
      </trkpt>
      <trkpt lat="45.69975622929633" lon="10.198509693145752">
        <ele>345.9923529375394</ele>
        <time>2017-11-13T16:33:09.790000Z</time>
      </trkpt>
      <trkpt lat="45.69969177246094" lon="10.19780158996582">
        <ele>345.6776443680031</ele>
        <time>2017-11-13T16:33:10.590000Z</time>
      </trkpt>
      <trkpt lat="45.699262619018555" lon="10.195591449737549">
        <ele>344.0</ele>
        <time>2017-11-13T16:33:13.158000Z</time>
      </trkpt>
      <trkpt lat="45.699219703674316" lon="10.195033550262451">
        <ele>344.4350985817675</ele>
        <time>2017-11-13T16:33:13.786000Z</time>
      </trkpt>
      <trkpt lat="45.699219703674316" lon="10.193874835968018">
        <ele>348.0</ele>
        <time>2017-11-13T16:33:15.083000Z</time>
      </trkpt>
      <trkpt lat="45.69921970407048" lon="10.193219491690302">
        <ele>346.93010129144506</ele>
        <time>2017-11-13T16:33:15.817000Z</time>
      </trkpt>
      <trkpt lat="45.69921970407166" lon="10.193220016132116">
        <ele>346.92977860343075</ele>
        <time>2017-11-13T16:33:15.817000Z</time>
      </trkpt>
      <trkpt lat="45.69921970381273" lon="10.19312311929511">
        <ele>346.87015817067896</ele>
        <time>2017-11-13T16:33:15.926000Z</time>
      </trkpt>
      <trkpt lat="45.699219703674316" lon="10.19308090209961">
        <ele>346.8441820135294</ele>
        <time>2017-11-13T16:33:15.973000Z</time>
      </trkpt>
      <trkpt lat="45.699219703674316" lon="10.192158222198486">
        <ele>346.27645888968</ele>
        <time>2017-11-13T16:33:17.006000Z</time>
      </trkpt>
      <trkpt lat="45.699262702837586" lon="10.192029476165771">
        <ele>346.18865025604674</ele>
        <time>2017-11-13T16:33:17.166000Z</time>
      </trkpt>
      <trkpt lat="45.69934844970703" lon="10.191965103149414">
        <ele>346.1320753552638</ele>
        <time>2017-11-13T16:33:17.321000Z</time>
      </trkpt>
      <trkpt lat="45.69939136505127" lon="10.191857814788818">
        <ele>346.08161677273546</ele>
        <time>2017-11-13T16:33:17.459000Z</time>
      </trkpt>
      <trkpt lat="45.69936990737915" lon="10.191707611083984">
        <ele>346.01904721505645</ele>
        <time>2017-11-13T16:33:17.631000Z</time>
      </trkpt>
      <trkpt lat="45.699262619018555" lon="10.191621780395508">
        <ele>345.94723228210773</ele>
        <time>2017-11-13T16:33:17.828000Z</time>
      </trkpt>
      <trkpt lat="45.699219703674316" lon="10.191493034362793">
        <ele>345.88901153542685</ele>
        <time>2017-11-13T16:33:17.988000Z</time>
      </trkpt>
      <trkpt lat="45.69921978749335" lon="10.19132137298584">
        <ele>345.70962295597474</ele>
        <time>2017-11-13T16:33:18.180000Z</time>
      </trkpt>
      <trkpt lat="45.699219703674316" lon="10.19108533859253">
        <ele>345.46296368725444</ele>
        <time>2017-11-13T16:33:18.444000Z</time>
      </trkpt>
      <trkpt lat="45.69921978749335" lon="10.190656185150146">
        <ele>344.68115899735386</ele>
        <time>2017-11-13T16:33:18.925000Z</time>
      </trkpt>
      <trkpt lat="45.699207271426054" lon="10.190022453842214">
        <ele>344.0186360799701</ele>
        <time>2017-11-13T16:33:19.635000Z</time>
      </trkpt>
      <trkpt lat="45.69920728178098" lon="10.190022978074266">
        <ele>344.01735827180187</ele>
        <time>2017-11-13T16:33:19.635000Z</time>
      </trkpt>
      <trkpt lat="45.699205368544355" lon="10.189926119990258">
        <ele>343.1146013910167</ele>
        <time>2017-11-13T16:33:19.743000Z</time>
      </trkpt>
      <trkpt lat="45.699204532429576" lon="10.18988379277289">
        <ele>343.0114293913943</ele>
        <time>2017-11-13T16:33:19.790000Z</time>
      </trkpt>
      <trkpt lat="45.699204532429576" lon="10.189883457496762">
        <ele>343.01061248719816</ele>
        <time>2017-11-13T16:33:19.790000Z</time>
      </trkpt>
      <trkpt lat="45.6991982460022" lon="10.18956184387207">
        <ele>342.22669022662257</ele>
        <time>2017-11-13T16:33:20.150000Z</time>
      </trkpt>
      <trkpt lat="45.6990909576416" lon="10.189046859741211">
        <ele>339.25062305604933</ele>
        <time>2017-11-13T16:33:20.752000Z</time>
      </trkpt>
      <trkpt lat="45.69891929626465" lon="10.188596248626709">
        <ele>338.0</ele>
        <time>2017-11-13T16:33:21.327000Z</time>
      </trkpt>
      <trkpt lat="45.69891938008368" lon="10.188596248626709">
        <ele>338.0003006343567</ele>
        <time>2017-11-13T16:33:21.327000Z</time>
      </trkpt>
      <trkpt lat="45.69851168431342" lon="10.187931060791016">
        <ele>340.55061226998686</ele>
        <time>2017-11-13T16:33:22.318000Z</time>
      </trkpt>
      <trkpt lat="45.69799670018256" lon="10.187287330627441">
        <ele>344.3359367081334</ele>
        <time>2017-11-13T16:33:23.414000Z</time>
      </trkpt>
      <trkpt lat="45.697331512346864" lon="10.186493396759033">
        <ele>351.95774297503203</ele>
        <time>2017-11-13T16:33:24.802000Z</time>
      </trkpt>
      <trkpt lat="45.697031021118164" lon="10.186128616333008">
        <ele>352.2848470027513</ele>
        <time>2017-11-13T16:33:25.434000Z</time>
      </trkpt>
      <trkpt lat="45.6968959192295" lon="10.186036648005526">
        <ele>351.692589186616</ele>
        <time>2017-11-13T16:33:25.674000Z</time>
      </trkpt>
      <trkpt lat="45.696895572077054" lon="10.186036411687972">
        <ele>351.6910673451869</ele>
        <time>2017-11-13T16:33:25.674000Z</time>
      </trkpt>
      <trkpt lat="45.696834800653185" lon="10.185995042730058">
        <ele>351.4246585449121</ele>
        <time>2017-11-13T16:33:25.782000Z</time>
      </trkpt>
      <trkpt lat="45.69680655375123" lon="10.18597581423819">
        <ele>351.3008302547872</ele>
        <time>2017-11-13T16:33:25.832000Z</time>
      </trkpt>
      <trkpt lat="45.69680638611317" lon="10.185975730419159">
        <ele>351.30012725645093</ele>
        <time>2017-11-13T16:33:25.832000Z</time>
      </trkpt>
      <trkpt lat="45.69649466313422" lon="10.185763835906982">
        <ele>355.6006278723248</ele>
        <time>2017-11-13T16:33:26.385000Z</time>
      </trkpt>
      <trkpt lat="45.69494962692261" lon="10.185270309448242">
        <ele>339.0</ele>
        <time>2017-11-13T16:33:28.923000Z</time>
      </trkpt>
      <trkpt lat="45.69486379623413" lon="10.185227394104004">
        <ele>339.1743499297256</ele>
        <time>2017-11-13T16:33:29.069000Z</time>
      </trkpt>
      <trkpt lat="45.69256782531738" lon="10.18456220626831">
        <ele>346.0</ele>
        <time>2017-11-13T16:33:32.824000Z</time>
      </trkpt>
      <trkpt lat="45.69222450256348" lon="10.184648036956787">
        <ele>338.04816305223477</ele>
        <time>2017-11-13T16:33:33.383000Z</time>
      </trkpt>
      <trkpt lat="45.69215806217724" lon="10.184693068061412">
        <ele>337.77709271266957</ele>
        <time>2017-11-13T16:33:33.501000Z</time>
      </trkpt>
      <trkpt lat="45.69215772270713" lon="10.184693298142738">
        <ele>337.7748379289615</ele>
        <time>2017-11-13T16:33:33.501000Z</time>
      </trkpt>
      <trkpt lat="45.69209689552969" lon="10.184734524694548">
        <ele>337.3708196570006</ele>
        <time>2017-11-13T16:33:33.609000Z</time>
      </trkpt>
      <trkpt lat="45.69206843152642" lon="10.184753816574812">
        <ele>337.1817598447147</ele>
        <time>2017-11-13T16:33:33.659000Z</time>
      </trkpt>
      <trkpt lat="45.69206834770739" lon="10.184753816574812">
        <ele>337.1812566554193</ele>
        <time>2017-11-13T16:33:33.659000Z</time>
      </trkpt>
      <trkpt lat="45.69155931472778" lon="10.185098648071289">
        <ele>330.8005299392891</ele>
        <time>2017-11-13T16:33:34.562000Z</time>
      </trkpt>
      <trkpt lat="45.691559398546815" lon="10.185098648071289">
        <ele>330.8000267499937</ele>
        <time>2017-11-13T16:33:34.562000Z</time>
      </trkpt>
      <trkpt lat="45.690979957580566" lon="10.185463428497314">
        <ele>327.0</ele>
        <time>2017-11-13T16:33:35.577000Z</time>
      </trkpt>
      <trkpt lat="45.69072254933417" lon="10.185549259185791">
        <ele>327.0</ele>
        <time>2017-11-13T16:33:36.001000Z</time>
      </trkpt>
      <trkpt lat="45.69046497344971" lon="10.18557071685791">
        <ele>327.0</ele>
        <time>2017-11-13T16:33:36.415000Z</time>
      </trkpt>
      <trkpt lat="45.69037922658026" lon="10.18557071685791">
        <ele>327.0</ele>
        <time>2017-11-13T16:33:36.552000Z</time>
      </trkpt>
      <trkpt lat="45.689778411760926" lon="10.185613632202148">
        <ele>327.0</ele>
        <time>2017-11-13T16:33:37.516000Z</time>
      </trkpt>
      <trkpt lat="45.689778327941895" lon="10.185613632202148">
        <ele>327.0</ele>
        <time>2017-11-13T16:33:37.516000Z</time>
      </trkpt>
      <trkpt lat="45.68934917449951" lon="10.185635089874268">
        <ele>327.0</ele>
        <time>2017-11-13T16:33:38.204000Z</time>
      </trkpt>
      <trkpt lat="45.689070308580995" lon="10.185656547546387">
        <ele>327.0</ele>
        <time>2017-11-13T16:33:38.652000Z</time>
      </trkpt>
      <trkpt lat="45.68907022476196" lon="10.185656547546387">
        <ele>327.0</ele>
        <time>2017-11-13T16:33:38.652000Z</time>
      </trkpt>
      <trkpt lat="45.688576782122254" lon="10.185699462890625">
        <ele>327.0</ele>
        <time>2017-11-13T16:33:39.445000Z</time>
      </trkpt>
      <trkpt lat="45.68844803608954" lon="10.185699462890625">
        <ele>326.76593998998834</ele>
        <time>2017-11-13T16:33:39.651000Z</time>
      </trkpt>
      <trkpt lat="45.68844795227051" lon="10.185699462890625">
        <ele>326.7657876071694</ele>
        <time>2017-11-13T16:33:39.651000Z</time>
      </trkpt>
      <trkpt lat="45.68842657841742" lon="10.185720920562744">
        <ele>326.7183268680726</ele>
        <time>2017-11-13T16:33:39.693000Z</time>
      </trkpt>
      <trkpt lat="45.68812617100775" lon="10.185742378234863">
        <ele>327.50484072451644</ele>
        <time>2017-11-13T16:33:40.175000Z</time>
      </trkpt>
      <trkpt lat="45.68803891873429" lon="10.18574896628336">
        <ele>327.34599577783547</ele>
        <time>2017-11-13T16:33:40.315000Z</time>
      </trkpt>
      <trkpt lat="45.6880384900639" lon="10.185748998650414">
        <ele>327.345215372668</ele>
        <time>2017-11-13T16:33:40.316000Z</time>
      </trkpt>
      <trkpt lat="45.687971337540674" lon="10.185754069038069">
        <ele>327.22296252466305</ele>
        <time>2017-11-13T16:33:40.424000Z</time>
      </trkpt>
      <trkpt lat="45.687939673662186" lon="10.185756459832191">
        <ele>327.16531764215966</ele>
        <time>2017-11-13T16:33:40.475000Z</time>
      </trkpt>
      <trkpt lat="45.68793984130025" lon="10.185756459832191">
        <ele>327.16501287652164</ele>
        <time>2017-11-13T16:33:40.475000Z</time>
      </trkpt>
      <trkpt lat="45.687847221270204" lon="10.185763835906982">
        <ele>326.9963694922803</ele>
        <time>2017-11-13T16:33:40.624000Z</time>
      </trkpt>
      <trkpt lat="45.686752796173096" lon="10.185892581939697">
        <ele>322.0</ele>
        <time>2017-11-13T16:33:42.384000Z</time>
      </trkpt>
      <trkpt lat="45.68643101491034" lon="10.18606424331665">
        <ele>320.1658102052129</ele>
        <time>2017-11-13T16:33:42.935000Z</time>
      </trkpt>
      <trkpt lat="45.68643093109131" lon="10.18606424331665">
        <ele>320.1656065917808</ele>
        <time>2017-11-13T16:33:42.935000Z</time>
      </trkpt>
      <trkpt lat="45.68610906600952" lon="10.186235904693604">
        <ele>319.33122576468344</ele>
        <time>2017-11-13T16:33:43.486000Z</time>
      </trkpt>
      <trkpt lat="45.68572282791138" lon="10.186429023742676">
        <ele>318.7456700346086</ele>
        <time>2017-11-13T16:33:44.142000Z</time>
      </trkpt>
      <trkpt lat="45.68535804748535" lon="10.186643600463867">
        <ele>317.85989200146486</ele>
        <time>2017-11-13T16:33:44.774000Z</time>
      </trkpt>
      <trkpt lat="45.68531513214111" lon="10.186729431152344">
        <ele>316.3609463895189</ele>
        <time>2017-11-13T16:33:44.892000Z</time>
      </trkpt>
      <trkpt lat="45.684928977862" lon="10.187008380889893">
        <ele>314.7227935427265</ele>
        <time>2017-11-13T16:33:45.585000Z</time>
      </trkpt>
      <trkpt lat="45.68426379002631" lon="10.187480449676514">
        <ele>313.6640969922578</ele>
        <time>2017-11-13T16:33:46.775000Z</time>
      </trkpt>
      <trkpt lat="45.68411358632147" lon="10.187544822692871">
        <ele>312.8744880972907</ele>
        <time>2017-11-13T16:33:47.026000Z</time>
      </trkpt>
      <trkpt lat="45.68385609425604" lon="10.18758773803711">
        <ele>312.67122143083094</ele>
        <time>2017-11-13T16:33:47.442000Z</time>
      </trkpt>
      <trkpt lat="45.683541653734316" lon="10.187559216149142">
        <ele>312.42417026842344</ele>
        <time>2017-11-13T16:33:47.947000Z</time>
      </trkpt>
      <trkpt lat="45.68354106269581" lon="10.187559162538221">
        <ele>312.42397383391966</ele>
        <time>2017-11-13T16:33:47.947000Z</time>
      </trkpt>
      <trkpt lat="45.68347411406923" lon="10.187553089885322">
        <ele>312.40172313440695</ele>
        <time>2017-11-13T16:33:48.055000Z</time>
      </trkpt>
      <trkpt lat="45.6834421120584" lon="10.1875501871109">
        <ele>312.3910871115391</ele>
        <time>2017-11-13T16:33:48.106000Z</time>
      </trkpt>
      <trkpt lat="45.68338402546942" lon="10.187544822692871">
        <ele>312.3717803391496</ele>
        <time>2017-11-13T16:33:48.199000Z</time>
      </trkpt>
      <trkpt lat="45.68299778737128" lon="10.187480449676514">
        <ele>312.9094703475186</ele>
        <time>2017-11-13T16:33:48.822000Z</time>
      </trkpt>
      <trkpt lat="45.68226822651923" lon="10.187394618988037">
        <ele>312.0</ele>
        <time>2017-11-13T16:33:49.996000Z</time>
      </trkpt>
      <trkpt lat="45.68198927678168" lon="10.187373161315918">
        <ele>311.4310103755403</ele>
        <time>2017-11-13T16:33:50.444000Z</time>
      </trkpt>
      <trkpt lat="45.68177470006049" lon="10.187351703643799">
        <ele>310.9928913980866</ele>
        <time>2017-11-13T16:33:50.789000Z</time>
      </trkpt>
      <trkpt lat="45.68063744343817" lon="10.187201499938965">
        <ele>307.0</ele>
        <time>2017-11-13T16:33:52.620000Z</time>
      </trkpt>
      <trkpt lat="45.68063735961914" lon="10.187201499938965">
        <ele>306.999929392193</ele>
        <time>2017-11-13T16:33:52.620000Z</time>
      </trkpt>
      <trkpt lat="45.68046578206122" lon="10.187180042266846">
        <ele>306.85484454415797</ele>
        <time>2017-11-13T16:33:52.896000Z</time>
      </trkpt>
      <trkpt lat="45.67990788258612" lon="10.187115669250488">
        <ele>306.05002102323647</ele>
        <time>2017-11-13T16:33:53.793000Z</time>
      </trkpt>
      <trkpt lat="45.67967184819281" lon="10.18709421157837">
        <ele>305.87131066972466</ele>
        <time>2017-11-13T16:33:54.172000Z</time>
      </trkpt>
      <trkpt lat="45.67720421589911" lon="10.186793804168701">
        <ele>303.0</ele>
        <time>2017-11-13T16:33:58.142000Z</time>
      </trkpt>
      <trkpt lat="45.67720413208008" lon="10.186793804168701">
        <ele>303.0</ele>
        <time>2017-11-13T16:33:58.142000Z</time>
      </trkpt>
      <trkpt lat="45.677096927538514" lon="10.186793804168701">
        <ele>303.03014780217836</ele>
        <time>2017-11-13T16:33:58.314000Z</time>
      </trkpt>
      <trkpt lat="45.67643165588379" lon="10.186707973480225">
        <ele>303.2179924890672</ele>
        <time>2017-11-13T16:33:59.385000Z</time>
      </trkpt>
      <trkpt lat="45.676324451342225" lon="10.186686515808105">
        <ele>303.24843368542565</ele>
        <time>2017-11-13T16:33:59.559000Z</time>
      </trkpt>
      <trkpt lat="45.67602404393256" lon="10.186643600463867">
        <ele>303.4890269316336</ele>
        <time>2017-11-13T16:34:00.043000Z</time>
      </trkpt>
      <trkpt lat="45.67525156773627" lon="10.186514854431152">
        <ele>301.14143250036847</ele>
        <time>2017-11-13T16:34:01.290000Z</time>
      </trkpt>
      <trkpt lat="45.67486532963812" lon="10.186471939086914">
        <ele>300.1368109103058</ele>
        <time>2017-11-13T16:34:01.911000Z</time>
      </trkpt>
      <trkpt lat="45.674071395769715" lon="10.1863431930542">
        <ele>299.12024151232174</ele>
        <time>2017-11-13T16:34:03.192000Z</time>
      </trkpt>
      <trkpt lat="45.67362078465521" lon="10.18632173538208">
        <ele>298.659224411284</ele>
        <time>2017-11-13T16:34:03.915000Z</time>
      </trkpt>
      <trkpt lat="45.67312717437744" lon="10.1863431930542">
        <ele>297.5451248792577</ele>
        <time>2017-11-13T16:34:04.707000Z</time>
      </trkpt>
      <trkpt lat="45.67244052886963" lon="10.186643600463867">
        <ele>295.7432651326969</ele>
        <time>2017-11-13T16:34:05.858000Z</time>
      </trkpt>
      <trkpt lat="45.67194700241089" lon="10.186965465545654">
        <ele>294.38331533288925</ele>
        <time>2017-11-13T16:34:06.727000Z</time>
      </trkpt>
      <trkpt lat="45.6716251373291" lon="10.187265872955322">
        <ele>293.990555999995</ele>
        <time>2017-11-13T16:34:07.343000Z</time>
      </trkpt>
      <trkpt lat="45.67149647511542" lon="10.187394618988037">
        <ele>293.83009149898965</ele>
        <time>2017-11-13T16:34:07.595000Z</time>
      </trkpt>
      <trkpt lat="45.67145355977118" lon="10.187437534332275">
        <ele>293.77657991264</ele>
        <time>2017-11-13T16:34:07.679000Z</time>
      </trkpt>
      <trkpt lat="45.67134618759155" lon="10.18756628036499">
        <ele>293.6334046490276</ele>
        <time>2017-11-13T16:34:07.904000Z</time>
      </trkpt>
      <trkpt lat="45.671303272247314" lon="10.18758773803711">
        <ele>293.57483058873567</ele>
        <time>2017-11-13T16:34:07.977000Z</time>
      </trkpt>
      <trkpt lat="45.67121744155884" lon="10.187716484069824">
        <ele>293.4146187926753</ele>
        <time>2017-11-13T16:34:08.176000Z</time>
      </trkpt>
      <trkpt lat="45.67087420262396" lon="10.188167095184326">
        <ele>292.8144502484013</ele>
        <time>2017-11-13T16:34:08.923000Z</time>
      </trkpt>
      <trkpt lat="45.6707239151001" lon="10.188403129577637">
        <ele>291.5269388714815</ele>
        <time>2017-11-13T16:34:09.281000Z</time>
      </trkpt>
      <trkpt lat="45.67068108357489" lon="10.188467502593994">
        <ele>291.446907084455</ele>
        <time>2017-11-13T16:34:09.381000Z</time>
      </trkpt>
      <trkpt lat="45.670486872080495" lon="10.188754490822218">
        <ele>291.0871990174093</ele>
        <time>2017-11-13T16:34:09.829000Z</time>
      </trkpt>
      <trkpt lat="45.67048680499313" lon="10.188754589957309">
        <ele>291.08707476217324</ele>
        <time>2017-11-13T16:34:09.829000Z</time>
      </trkpt>
      <trkpt lat="45.670439791931955" lon="10.188824061159226">
        <ele>291.0</ele>
        <time>2017-11-13T16:34:09.937000Z</time>
      </trkpt>
      <trkpt lat="45.670417891815305" lon="10.188856422901154">
        <ele>291.0162133720375</ele>
        <time>2017-11-13T16:34:09.987000Z</time>
      </trkpt>
      <trkpt lat="45.67041797563434" lon="10.18885625526309">
        <ele>291.01628755854404</ele>
        <time>2017-11-13T16:34:09.987000Z</time>
      </trkpt>
      <trkpt lat="45.67018747329712" lon="10.189197063446045">
        <ele>292.1869868886167</ele>
        <time>2017-11-13T16:34:10.518000Z</time>
      </trkpt>
      <trkpt lat="45.66988706588745" lon="10.189540386199951">
        <ele>290.7183250660266</ele>
        <time>2017-11-13T16:34:11.134000Z</time>
      </trkpt>
      <trkpt lat="45.669865692034364" lon="10.18958330154419">
        <ele>290.7372918475772</ele>
        <time>2017-11-13T16:34:11.193000Z</time>
      </trkpt>
      <trkpt lat="45.66941508091986" lon="10.190119743347168">
        <ele>292.70584494297833</ele>
        <time>2017-11-13T16:34:12.133000Z</time>
      </trkpt>
      <trkpt lat="45.66810607910156" lon="10.191750526428223">
        <ele>289.0</ele>
        <time>2017-11-13T16:34:14.915000Z</time>
      </trkpt>
      <trkpt lat="45.66789150238037" lon="10.191857814788818">
        <ele>288.90439798208996</ele>
        <time>2017-11-13T16:34:15.279000Z</time>
      </trkpt>
      <trkpt lat="45.667827213183045" lon="10.1918363571167">
        <ele>288.8766320329806</ele>
        <time>2017-11-13T16:34:15.385000Z</time>
      </trkpt>
      <trkpt lat="45.66778429783881" lon="10.19181489944458">
        <ele>288.85751162541425</ele>
        <time>2017-11-13T16:34:15.458000Z</time>
      </trkpt>
      <trkpt lat="45.66769846715033" lon="10.191900730133057">
        <ele>288.81346971540484</ele>
        <time>2017-11-13T16:34:15.626000Z</time>
      </trkpt>
      <trkpt lat="45.66767692565918" lon="10.191986560821533">
        <ele>288.78666429693084</ele>
        <time>2017-11-13T16:34:15.728000Z</time>
      </trkpt>
      <trkpt lat="45.66761255264282" lon="10.192394256591797">
        <ele>288.6638116118629</ele>
        <time>2017-11-13T16:34:16.196000Z</time>
      </trkpt>
      <trkpt lat="45.6669903639704" lon="10.19308090209961">
        <ele>287.39321485616205</ele>
        <time>2017-11-13T16:34:17.456000Z</time>
      </trkpt>
      <trkpt lat="45.66613205708563" lon="10.194132328033447">
        <ele>286.6176579348642</ele>
        <time>2017-11-13T16:34:19.267000Z</time>
      </trkpt>
      <trkpt lat="45.6661319732666" lon="10.194132328033447">
        <ele>286.61756306428856</ele>
        <time>2017-11-13T16:34:19.267000Z</time>
      </trkpt>
      <trkpt lat="45.66548824310303" lon="10.194904804229736">
        <ele>285.0</ele>
        <time>2017-11-13T16:34:20.614000Z</time>
      </trkpt>
      <trkpt lat="45.664608562365174" lon="10.195763111114502">
        <ele>283.29361943916086</ele>
        <time>2017-11-13T16:34:22.321000Z</time>
      </trkpt>
      <trkpt lat="45.6645227316767" lon="10.195848941802979">
        <ele>285.1181764996377</ele>
        <time>2017-11-13T16:34:22.489000Z</time>
      </trkpt>
      <trkpt lat="45.66349276341498" lon="10.196857452392578">
        <ele>287.0</ele>
        <time>2017-11-13T16:34:24.490000Z</time>
      </trkpt>
      <trkpt lat="45.663042068481445" lon="10.197222232818604">
        <ele>283.2394499003213</ele>
        <time>2017-11-13T16:34:25.320000Z</time>
      </trkpt>
      <trkpt lat="45.662827491760254" lon="10.19730806350708">
        <ele>282.4819074555827</ele>
        <time>2017-11-13T16:34:25.677000Z</time>
      </trkpt>
      <trkpt lat="45.662567345496676" lon="10.197335332556099">
        <ele>281.5950276129508</ele>
        <time>2017-11-13T16:34:26.095000Z</time>
      </trkpt>
      <trkpt lat="45.662566793702815" lon="10.197335390395986">
        <ele>281.59371470835225</ele>
        <time>2017-11-13T16:34:26.095000Z</time>
      </trkpt>
      <trkpt lat="45.66249985129623" lon="10.197342407390991">
        <ele>281.10110270316943</ele>
        <time>2017-11-13T16:34:26.203000Z</time>
      </trkpt>
      <trkpt lat="45.6624676566571" lon="10.197345782071352">
        <ele>281.02450074648726</ele>
        <time>2017-11-13T16:34:26.255000Z</time>
      </trkpt>
      <trkpt lat="45.66246774047613" lon="10.197345782071352">
        <ele>281.02430184561376</ele>
        <time>2017-11-13T16:34:26.256000Z</time>
      </trkpt>
      <trkpt lat="45.6611967086792" lon="10.197479724884033">
        <ele>277.0</ele>
        <time>2017-11-13T16:34:28.299000Z</time>
      </trkpt>
      <trkpt lat="45.66014528274536" lon="10.197608470916748">
        <ele>274.76217132029547</ele>
        <time>2017-11-13T16:34:29.991000Z</time>
      </trkpt>
      <trkpt lat="45.65975904464722" lon="10.197522640228271">
        <ele>273.0567514396982</ele>
        <time>2017-11-13T16:34:30.618000Z</time>
      </trkpt>
      <trkpt lat="45.65969475544989" lon="10.197522640228271">
        <ele>272.98327025839194</ele>
        <time>2017-11-13T16:34:30.721000Z</time>
      </trkpt>
      <trkpt lat="45.65965175628662" lon="10.19754409790039">
        <ele>272.96059822146293</ele>
        <time>2017-11-13T16:34:30.794000Z</time>
      </trkpt>
      <trkpt lat="45.659608924761415" lon="10.197587013244629">
        <ele>272.9345656014088</ele>
        <time>2017-11-13T16:34:30.878000Z</time>
      </trkpt>
      <trkpt lat="45.659587383270264" lon="10.197629928588867">
        <ele>272.9161806766606</ele>
        <time>2017-11-13T16:34:30.937000Z</time>
      </trkpt>
      <trkpt lat="45.659329891204834" lon="10.197844505310059">
        <ele>272.76782838357116</ele>
        <time>2017-11-13T16:34:31.415000Z</time>
      </trkpt>
      <trkpt lat="45.658578956499696" lon="10.198166370391846">
        <ele>272.04422333212113</ele>
        <time>2017-11-13T16:34:32.672000Z</time>
      </trkpt>
      <trkpt lat="45.65814980305731" lon="10.198338031768799">
        <ele>271.84484721906165</ele>
        <time>2017-11-13T16:34:33.386000Z</time>
      </trkpt>
      <trkpt lat="45.6580461938738" lon="10.198382647409428">
        <ele>271.79643594842713</ele>
        <time>2017-11-13T16:34:33.559000Z</time>
      </trkpt>
      <trkpt lat="45.65804579521909" lon="10.19838281907572">
        <ele>271.79624967750266</ele>
        <time>2017-11-13T16:34:33.559000Z</time>
      </trkpt>
      <trkpt lat="45.65798139028791" lon="10.198410552700356">
        <ele>271.76615655321524</ele>
        <time>2017-11-13T16:34:33.667000Z</time>
      </trkpt>
      <trkpt lat="45.657950481399894" lon="10.198423862457275">
        <ele>271.75171441505535</ele>
        <time>2017-11-13T16:34:33.719000Z</time>
      </trkpt>
      <trkpt lat="45.657950565218925" lon="10.198423862457275">
        <ele>271.75167691247924</ele>
        <time>2017-11-13T16:34:33.720000Z</time>
      </trkpt>
      <trkpt lat="45.657055377960205" lon="10.19881010055542">
        <ele>271.0</ele>
        <time>2017-11-13T16:34:35.219000Z</time>
      </trkpt>
      <trkpt lat="45.6566070075522" lon="10.198950087578275">
        <ele>269.8980789978895</ele>
        <time>2017-11-13T16:34:35.955000Z</time>
      </trkpt>
      <trkpt lat="45.656606387275296" lon="10.198950281235176">
        <ele>269.8974768660132</ele>
        <time>2017-11-13T16:34:35.957000Z</time>
      </trkpt>
      <trkpt lat="45.656540888495556" lon="10.198970730606106">
        <ele>269.8338941302666</ele>
        <time>2017-11-13T16:34:36.064000Z</time>
      </trkpt>
      <trkpt lat="45.656509045511484" lon="10.19898067228496">
        <ele>269.8029826546921</ele>
        <time>2017-11-13T16:34:36.116000Z</time>
      </trkpt>
      <trkpt lat="45.656509129330516" lon="10.19898067228496">
        <ele>269.8029031584481</ele>
        <time>2017-11-13T16:34:36.116000Z</time>
      </trkpt>
      <trkpt lat="45.656368816271424" lon="10.199024677276611">
        <ele>269.6666666666667</ele>
        <time>2017-11-13T16:34:36.346000Z</time>
      </trkpt>
      <trkpt lat="45.65516710281372" lon="10.199368000030518">
        <ele>271.0</ele>
        <time>2017-11-13T16:34:38.311000Z</time>
      </trkpt>
      <trkpt lat="45.654566287994385" lon="10.19956111907959">
        <ele>268.4610626270152</ele>
        <time>2017-11-13T16:34:39.298000Z</time>
      </trkpt>
      <trkpt lat="45.654239384221555" lon="10.199731044290884">
        <ele>267.78011133929044</ele>
        <time>2017-11-13T16:34:39.856000Z</time>
      </trkpt>
      <trkpt lat="45.654238925140234" lon="10.199731282920727">
        <ele>267.7791550585387</ele>
        <time>2017-11-13T16:34:39.856000Z</time>
      </trkpt>
      <trkpt lat="45.65417569293776" lon="10.199764150896872">
        <ele>267.64744040235746</ele>
        <time>2017-11-13T16:34:39.964000Z</time>
      </trkpt>
      <trkpt lat="45.654145097360015" lon="10.19978005439043">
        <ele>267.2503755324943</ele>
        <time>2017-11-13T16:34:40.016000Z</time>
      </trkpt>
      <trkpt lat="45.65414526499808" lon="10.199779886752367">
        <ele>267.24997509946</ele>
        <time>2017-11-13T16:34:40.016000Z</time>
      </trkpt>
      <trkpt lat="45.65402993001044" lon="10.199840068817139">
        <ele>267.0096204264783</ele>
        <time>2017-11-13T16:34:40.213000Z</time>
      </trkpt>
      <trkpt lat="45.65396547317505" lon="10.199882984161377">
        <ele>266.8704295348762</ele>
        <time>2017-11-13T16:34:40.327000Z</time>
      </trkpt>
      <trkpt lat="45.65366514958441" lon="10.199925899505615">
        <ele>266.6793955131557</ele>
        <time>2017-11-13T16:34:40.811000Z</time>
      </trkpt>
      <trkpt lat="45.653600776568055" lon="10.199947357177734">
        <ele>266.6375596157562</ele>
        <time>2017-11-13T16:34:40.917000Z</time>
      </trkpt>
      <trkpt lat="45.6531286239624" lon="10.20007610321045">
        <ele>266.6666666666667</ele>
        <time>2017-11-13T16:34:41.688000Z</time>
      </trkpt>
      <trkpt lat="45.65248497761786" lon="10.200355052947998">
        <ele>265.97750314517594</ele>
        <time>2017-11-13T16:34:42.766000Z</time>
      </trkpt>
      <trkpt lat="45.65173387527466" lon="10.200676918029785">
        <ele>265.3219902386225</ele>
        <time>2017-11-13T16:34:44.023000Z</time>
      </trkpt>
      <trkpt lat="45.65143346786499" lon="10.200719833374023">
        <ele>264.73625742000974</ele>
        <time>2017-11-13T16:34:44.507000Z</time>
      </trkpt>
      <trkpt lat="45.648794174194336" lon="10.201084613800049">
        <ele>260.0</ele>
        <time>2017-11-13T16:34:48.758000Z</time>
      </trkpt>
      <trkpt lat="45.647828662768006" lon="10.201191902160645">
        <ele>260.0</ele>
        <time>2017-11-13T16:34:50.311000Z</time>
      </trkpt>
      <trkpt lat="45.64754971303046" lon="10.201191902160645">
        <ele>259.8188703868772</ele>
        <time>2017-11-13T16:34:50.758000Z</time>
      </trkpt>
      <trkpt lat="45.64744234085083" lon="10.201191902160645">
        <ele>259.3022206532581</ele>
        <time>2017-11-13T16:34:50.930000Z</time>
      </trkpt>
      <trkpt lat="45.64723526846883" lon="10.201073574872405">
        <ele>258.9215217416856</ele>
        <time>2017-11-13T16:34:51.287000Z</time>
      </trkpt>
      <trkpt lat="45.64723486956118" lon="10.201073346925664">
        <ele>258.920788357421</ele>
        <time>2017-11-13T16:34:51.287000Z</time>
      </trkpt>
      <trkpt lat="45.64717233880753" lon="10.201037615188362">
        <ele>258.8058267375498</ele>
        <time>2017-11-13T16:34:51.395000Z</time>
      </trkpt>
      <trkpt lat="45.64714193344116" lon="10.201020240783691">
        <ele>258.7499270503407</ele>
        <time>2017-11-13T16:34:51.448000Z</time>
      </trkpt>
      <trkpt lat="45.647142017260194" lon="10.201020240783691">
        <ele>258.7497839462031</ele>
        <time>2017-11-13T16:34:51.449000Z</time>
      </trkpt>
      <trkpt lat="45.64714193344116" lon="10.201020240784691">
        <ele>258.74964084206545</ele>
        <time>2017-11-13T16:34:51.450000Z</time>
      </trkpt>
      <trkpt lat="45.64686298370361" lon="10.2008056640625">
        <ele>257.87556340552425</ele>
        <time>2017-11-13T16:34:51.958000Z</time>
      </trkpt>
      <trkpt lat="45.64649820327759" lon="10.20029067993164">
        <ele>256.74781913552926</ele>
        <time>2017-11-13T16:34:52.780000Z</time>
      </trkpt>
      <trkpt lat="45.64613720780931" lon="10.199286239751995">
        <ele>257.4291750913283</ele>
        <time>2017-11-13T16:34:54.046000Z</time>
      </trkpt>
      <trkpt lat="45.64613737540948" lon="10.199286706076984">
        <ele>257.4293366661845</ele>
        <time>2017-11-13T16:34:54.046000Z</time>
      </trkpt>
      <trkpt lat="45.64610639171662" lon="10.199200498244597">
        <ele>257.45920645472256</ele>
        <time>2017-11-13T16:34:54.155000Z</time>
      </trkpt>
      <trkpt lat="45.64609218388796" lon="10.19916096702218">
        <ele>257.4729034708109</ele>
        <time>2017-11-13T16:34:54.205000Z</time>
      </trkpt>
      <trkpt lat="45.64609226770699" lon="10.199161134660244">
        <ele>257.4729669806561</ele>
        <time>2017-11-13T16:34:54.205000Z</time>
      </trkpt>
      <trkpt lat="45.64600476063788" lon="10.198917388916016">
        <ele>257.55740202886176</ele>
        <time>2017-11-13T16:34:54.512000Z</time>
      </trkpt>
      <trkpt lat="45.64596184529364" lon="10.1987886428833">
        <ele>257.6013539433583</ele>
        <time>2017-11-13T16:34:54.672000Z</time>
      </trkpt>
      <trkpt lat="45.64594038762152" lon="10.198724269866943">
        <ele>257.6216713112002</ele>
        <time>2017-11-13T16:34:54.752000Z</time>
      </trkpt>
      <trkpt lat="45.645790100097656" lon="10.198252201080322">
        <ele>258.4361152913229</ele>
        <time>2017-11-13T16:34:55.333000Z</time>
      </trkpt>
      <trkpt lat="45.64576872624457" lon="10.198209285736084">
        <ele>258.4394869755493</ele>
        <time>2017-11-13T16:34:55.392000Z</time>
      </trkpt>
      <trkpt lat="45.64568289555609" lon="10.197930335998535">
        <ele>258.4589888614765</ele>
        <time>2017-11-13T16:34:55.734000Z</time>
      </trkpt>
      <trkpt lat="45.6455756071955" lon="10.197587013244629">
        <ele>258.4830524788289</ele>
        <time>2017-11-13T16:34:56.155000Z</time>
      </trkpt>
      <trkpt lat="45.64540394581854" lon="10.19705057144165">
        <ele>258.18747016151866</ele>
        <time>2017-11-13T16:34:56.816000Z</time>
      </trkpt>
      <trkpt lat="45.645339572802186" lon="10.196878910064697">
        <ele>258.16600127101896</ele>
        <time>2017-11-13T16:34:57.034000Z</time>
      </trkpt>
      <trkpt lat="45.645339488983154" lon="10.196878910064697">
        <ele>258.1659880571752</ele>
        <time>2017-11-13T16:34:57.034000Z</time>
      </trkpt>
      <trkpt lat="45.64518928527832" lon="10.19655704498291">
        <ele>259.7900044306654</ele>
        <time>2017-11-13T16:34:57.468000Z</time>
      </trkpt>
      <trkpt lat="45.64486742019653" lon="10.196106433868408">
        <ele>258.0523374458788</ele>
        <time>2017-11-13T16:34:58.190000Z</time>
      </trkpt>
      <trkpt lat="45.644588470458984" lon="10.195848941802979">
        <ele>258.0</ele>
        <time>2017-11-13T16:34:58.722000Z</time>
      </trkpt>
      <trkpt lat="45.64405211247504" lon="10.195527076721191">
        <ele>258.4875550544184</ele>
        <time>2017-11-13T16:34:59.654000Z</time>
      </trkpt>
      <trkpt lat="45.644052028656006" lon="10.195527076721191">
        <ele>258.4875772787229</ele>
        <time>2017-11-13T16:34:59.654000Z</time>
      </trkpt>
      <trkpt lat="45.64392328262329" lon="10.195462703704834">
        <ele>258.5237393007363</ele>
        <time>2017-11-13T16:34:59.873000Z</time>
      </trkpt>
      <trkpt lat="45.64370878972113" lon="10.19529104232788">
        <ele>258.5889081266048</ele>
        <time>2017-11-13T16:35:00.267000Z</time>
      </trkpt>
      <trkpt lat="45.643558502197266" lon="10.195226669311523">
        <ele>258.63050461901463</ele>
        <time>2017-11-13T16:35:00.519000Z</time>
      </trkpt>
      <trkpt lat="45.64342975616455" lon="10.195162296295166">
        <ele>258.6666666666667</ele>
        <time>2017-11-13T16:35:00.738000Z</time>
      </trkpt>
      <trkpt lat="45.643043518066406" lon="10.194926261901855">
        <ele>258.13848589509405</ele>
        <time>2017-11-13T16:35:01.411000Z</time>
      </trkpt>
      <trkpt lat="45.64281748428433" lon="10.194803013536452">
        <ele>258.0262661555674</ele>
        <time>2017-11-13T16:35:01.799000Z</time>
      </trkpt>
      <trkpt lat="45.642817069397935" lon="10.194802787314336">
        <ele>258.02606017566404</ele>
        <time>2017-11-13T16:35:01.799000Z</time>
      </trkpt>
      <trkpt lat="45.64275408036062" lon="10.194768441772075">
        <ele>257.99478781745853</ele>
        <time>2017-11-13T16:35:01.907000Z</time>
      </trkpt>
      <trkpt lat="45.64272316172719" lon="10.19475158303976">
        <ele>257.9794375522736</ele>
        <time>2017-11-13T16:35:01.960000Z</time>
      </trkpt>
      <trkpt lat="45.64272324554622" lon="10.19475158303976">
        <ele>257.9793364005756</ele>
        <time>2017-11-13T16:35:01.960000Z</time>
      </trkpt>
      <trkpt lat="45.642571449279785" lon="10.194668769836426">
        <ele>257.78327825003777</ele>
        <time>2017-11-13T16:35:02.220000Z</time>
      </trkpt>
      <trkpt lat="45.642077922821045" lon="10.194475650787354">
        <ele>256.832478203467</ele>
        <time>2017-11-13T16:35:03.040000Z</time>
      </trkpt>
      <trkpt lat="45.64190634526312" lon="10.194389820098877">
        <ele>256.5430109457794</ele>
        <time>2017-11-13T16:35:03.331000Z</time>
      </trkpt>
      <trkpt lat="45.64115524291992" lon="10.194261074066162">
        <ele>254.67165120932998</ele>
        <time>2017-11-13T16:35:04.544000Z</time>
      </trkpt>
      <trkpt lat="45.64053297042847" lon="10.194110870361328">
        <ele>253.0</ele>
        <time>2017-11-13T16:35:05.556000Z</time>
      </trkpt>
      <trkpt lat="45.64046868123114" lon="10.194110870361328">
        <ele>252.9028955857856</ele>
        <time>2017-11-13T16:35:05.659000Z</time>
      </trkpt>
      <trkpt lat="45.64029701985419" lon="10.19406795501709">
        <ele>252.63968192068424</ele>
        <time>2017-11-13T16:35:05.938000Z</time>
      </trkpt>
      <trkpt lat="45.63971757888794" lon="10.193939208984375">
        <ele>251.087311877016</ele>
        <time>2017-11-13T16:35:06.878000Z</time>
      </trkpt>
      <trkpt lat="45.639095306396484" lon="10.193939208984375">
        <ele>250.6502925815454</ele>
        <time>2017-11-13T16:35:07.876000Z</time>
      </trkpt>
      <trkpt lat="45.63892372883856" lon="10.193874835968018">
        <ele>250.52571752784584</ele>
        <time>2017-11-13T16:35:08.160000Z</time>
      </trkpt>
      <trkpt lat="45.63888072967529" lon="10.19381046295166">
        <ele>250.48200184701636</ele>
        <time>2017-11-13T16:35:08.260000Z</time>
      </trkpt>
      <trkpt lat="45.63877352513373" lon="10.193724632263184">
        <ele>250.39571904612504</ele>
        <time>2017-11-13T16:35:08.457000Z</time>
      </trkpt>
      <trkpt lat="45.638580322265625" lon="10.193789005279541">
        <ele>250.25640030612635</ele>
        <time>2017-11-13T16:35:08.775000Z</time>
      </trkpt>
      <trkpt lat="45.6382155418396" lon="10.19381046295166">
        <ele>248.8682541892787</ele>
        <time>2017-11-13T16:35:09.360000Z</time>
      </trkpt>
      <trkpt lat="45.63799295929143" lon="10.193719435446841">
        <ele>248.8880693260547</ele>
        <time>2017-11-13T16:35:09.731000Z</time>
      </trkpt>
      <trkpt lat="45.63799249770711" lon="10.193719246677816">
        <ele>248.88811041801628</ele>
        <time>2017-11-13T16:35:09.731000Z</time>
      </trkpt>
      <trkpt lat="45.63792763288273" lon="10.193692719658735">
        <ele>248.89388492716262</ele>
        <time>2017-11-13T16:35:09.839000Z</time>
      </trkpt>
      <trkpt lat="45.63789560459554" lon="10.193679621443152">
        <ele>248.89673620475187</ele>
        <time>2017-11-13T16:35:09.892000Z</time>
      </trkpt>
      <trkpt lat="45.637895688414574" lon="10.193679705262184">
        <ele>248.8967449588362</ele>
        <time>2017-11-13T16:35:09.892000Z</time>
      </trkpt>
      <trkpt lat="45.63774355687201" lon="10.193617343902588">
        <ele>248.9102906835515</ele>
        <time>2017-11-13T16:35:10.146000Z</time>
      </trkpt>
      <trkpt lat="45.63774347305298" lon="10.193617343902588">
        <ele>248.91029785790374</ele>
        <time>2017-11-13T16:35:10.146000Z</time>
      </trkpt>
      <trkpt lat="45.6367564201355" lon="10.193488597869873">
        <ele>249.3284670427887</ele>
        <time>2017-11-13T16:35:11.735000Z</time>
      </trkpt>
      <trkpt lat="45.63643455505371" lon="10.193488597869873">
        <ele>250.42209129882835</ele>
        <time>2017-11-13T16:35:12.251000Z</time>
      </trkpt>
      <trkpt lat="45.63600540161133" lon="10.193595886230469">
        <ele>251.0</ele>
        <time>2017-11-13T16:35:12.949000Z</time>
      </trkpt>
      <trkpt lat="45.635640705004334" lon="10.19381046295166">
        <ele>249.63010406343165</ele>
        <time>2017-11-13T16:35:13.581000Z</time>
      </trkpt>
      <trkpt lat="45.6356406211853" lon="10.19381046295166">
        <ele>249.6299545933675</ele>
        <time>2017-11-13T16:35:13.581000Z</time>
      </trkpt>
      <trkpt lat="45.634846771135926" lon="10.19432544708252">
        <ele>247.40883035959743</ele>
        <time>2017-11-13T16:35:14.978000Z</time>
      </trkpt>
      <trkpt lat="45.634429904403866" lon="10.194598827573449">
        <ele>246.88916740230886</ele>
        <time>2017-11-13T16:35:15.713000Z</time>
      </trkpt>
      <trkpt lat="45.63442950196329" lon="10.194599091491092">
        <ele>246.88866572361476</ele>
        <time>2017-11-13T16:35:15.713000Z</time>
      </trkpt>
      <trkpt lat="45.634368143550425" lon="10.194639329853418">
        <ele>246.81217689489515</ele>
        <time>2017-11-13T16:35:15.821000Z</time>
      </trkpt>
      <trkpt lat="45.63433782197535" lon="10.19465921446681">
        <ele>246.77437831108034</ele>
        <time>2017-11-13T16:35:15.874000Z</time>
      </trkpt>
      <trkpt lat="45.63433790579438" lon="10.19465921446681">
        <ele>246.77429218357418</ele>
        <time>2017-11-13T16:35:15.874000Z</time>
      </trkpt>
      <trkpt lat="45.63416004180908" lon="10.194776058197021">
        <ele>246.90650357734293</ele>
        <time>2017-11-13T16:35:16.188000Z</time>
      </trkpt>
      <trkpt lat="45.6339240912348" lon="10.194861888885498">
        <ele>246.65633449064617</ele>
        <time>2017-11-13T16:35:16.578000Z</time>
      </trkpt>
      <trkpt lat="45.633409107103944" lon="10.195441246032715">
        <ele>244.98306018896824</ele>
        <time>2017-11-13T16:35:17.628000Z</time>
      </trkpt>
      <trkpt lat="45.63313007354736" lon="10.195977687835693">
        <ele>243.3940359545229</ele>
        <time>2017-11-13T16:35:18.377000Z</time>
      </trkpt>
      <trkpt lat="45.63263654708862" lon="10.197393894195557">
        <ele>242.0</ele>
        <time>2017-11-13T16:35:20.151000Z</time>
      </trkpt>
      <trkpt lat="45.63246488571167" lon="10.197651386260986">
        <ele>241.37637929951086</ele>
        <time>2017-11-13T16:35:20.550000Z</time>
      </trkpt>
      <trkpt lat="45.632314682006836" lon="10.197715759277344">
        <ele>241.19340721584868</ele>
        <time>2017-11-13T16:35:20.801000Z</time>
      </trkpt>
      <trkpt lat="45.632100189104676" lon="10.197930335998535">
        <ele>240.8879572893333</ele>
        <time>2017-11-13T16:35:21.221000Z</time>
      </trkpt>
      <trkpt lat="45.6320143584162" lon="10.197973251342773">
        <ele>240.75893456043488</ele>
        <time>2017-11-13T16:35:21.367000Z</time>
      </trkpt>
      <trkpt lat="45.631907070055604" lon="10.198209285736084">
        <ele>240.4795964300778</ele>
        <time>2017-11-13T16:35:21.683000Z</time>
      </trkpt>
      <trkpt lat="45.63197135925293" lon="10.198423862457275">
        <ele>239.91462852620035</ele>
        <time>2017-11-13T16:35:21.945000Z</time>
      </trkpt>
      <trkpt lat="45.63199281692505" lon="10.198681354522705">
        <ele>239.65732382020602</ele>
        <time>2017-11-13T16:35:22.236000Z</time>
      </trkpt>
      <trkpt lat="45.63190698623657" lon="10.198895931243896">
        <ele>239.41203606979596</ele>
        <time>2017-11-13T16:35:22.513000Z</time>
      </trkpt>
      <trkpt lat="45.6314564589411" lon="10.199282169342041">
        <ele>238.0</ele>
        <time>2017-11-13T16:35:23.355000Z</time>
      </trkpt>
      <trkpt lat="45.631413543596864" lon="10.19932508468628">
        <ele>238.0253591384733</ele>
        <time>2017-11-13T16:35:23.439000Z</time>
      </trkpt>
      <trkpt lat="45.63122042454779" lon="10.199432373046875">
        <ele>238.12568785078693</ele>
        <time>2017-11-13T16:35:23.771000Z</time>
      </trkpt>
      <trkpt lat="45.630834102630615" lon="10.199496746063232">
        <ele>238.3140332988053</ele>
        <time>2017-11-13T16:35:24.395000Z</time>
      </trkpt>
      <trkpt lat="45.6304479483515" lon="10.199368000030518">
        <ele>239.17271347539574</ele>
        <time>2017-11-13T16:35:25.031000Z</time>
      </trkpt>
      <trkpt lat="45.629868507385254" lon="10.199239253997803">
        <ele>237.46875408937385</ele>
        <time>2017-11-13T16:35:25.971000Z</time>
      </trkpt>
      <trkpt lat="45.629332065582275" lon="10.199282169342041">
        <ele>236.82375429656713</ele>
        <time>2017-11-13T16:35:26.832000Z</time>
      </trkpt>
      <trkpt lat="45.62828247264984" lon="10.199777956317869">
        <ele>233.81982465258548</ele>
        <time>2017-11-13T16:35:28.604000Z</time>
      </trkpt>
      <trkpt lat="45.62828168917539" lon="10.199778326393472">
        <ele>233.81944134193418</ele>
        <time>2017-11-13T16:35:28.604000Z</time>
      </trkpt>
      <trkpt lat="45.62821795678308" lon="10.199808430471263">
        <ele>233.78826061285767</ele>
        <time>2017-11-13T16:35:28.712000Z</time>
      </trkpt>
      <trkpt lat="45.628185756504536" lon="10.199823640286922">
        <ele>233.7725068022211</ele>
        <time>2017-11-13T16:35:28.766000Z</time>
      </trkpt>
      <trkpt lat="45.62818584032357" lon="10.19982355646789">
        <ele>233.77245928688816</ele>
        <time>2017-11-13T16:35:28.766000Z</time>
      </trkpt>
      <trkpt lat="45.626607025042176" lon="10.20056962966919">
        <ele>233.0</ele>
        <time>2017-11-13T16:35:31.432000Z</time>
      </trkpt>
      <trkpt lat="45.62598466873169" lon="10.200848579406738">
        <ele>234.45873130286364</ele>
        <time>2017-11-13T16:35:32.478000Z</time>
      </trkpt>
      <trkpt lat="45.624954784289" lon="10.20132064819336">
        <ele>234.0</ele>
        <time>2017-11-13T16:35:34.212000Z</time>
      </trkpt>
      <trkpt lat="45.624632919207215" lon="10.201406478881836">
        <ele>234.1406813347247</ele>
        <time>2017-11-13T16:35:34.737000Z</time>
      </trkpt>
      <trkpt lat="45.62433251179755" lon="10.201492309570312">
        <ele>234.27231002696817</ele>
        <time>2017-11-13T16:35:35.228000Z</time>
      </trkpt>
      <trkpt lat="45.62424668110907" lon="10.201513767242432">
        <ele>234.2839305227736</ele>
        <time>2017-11-13T16:35:35.368000Z</time>
      </trkpt>
      <trkpt lat="45.62409647740424" lon="10.20155668258667">
        <ele>233.63769184524054</ele>
        <time>2017-11-13T16:35:35.614000Z</time>
      </trkpt>
      <trkpt lat="45.623531034814135" lon="10.201710201846417">
        <ele>235.0477831295942</ele>
        <time>2017-11-13T16:35:36.537000Z</time>
      </trkpt>
      <trkpt lat="45.623530320328676" lon="10.20171039582921">
        <ele>235.04788011984735</ele>
        <time>2017-11-13T16:35:36.538000Z</time>
      </trkpt>
      <trkpt lat="45.62346428307517" lon="10.201728324923929">
        <ele>235.0568445709541</ele>
        <time>2017-11-13T16:35:36.646000Z</time>
      </trkpt>
      <trkpt lat="45.623430870473385" lon="10.201737396419048">
        <ele>235.0613802774924</ele>
        <time>2017-11-13T16:35:36.701000Z</time>
      </trkpt>
      <trkpt lat="45.62343095429242" lon="10.201737396419048">
        <ele>235.0613251779498</ele>
        <time>2017-11-13T16:35:36.701000Z</time>
      </trkpt>
      <trkpt lat="45.622122371569276" lon="10.202093124389648">
        <ele>232.8523691437415</ele>
        <time>2017-11-13T16:35:38.836000Z</time>
      </trkpt>
      <trkpt lat="45.6220365408808" lon="10.202114582061768">
        <ele>232.82090939421505</ele>
        <time>2017-11-13T16:35:38.976000Z</time>
      </trkpt>
      <trkpt lat="45.61980494298041" lon="10.202736854553223">
        <ele>232.0</ele>
        <time>2017-11-13T16:35:42.621000Z</time>
      </trkpt>
      <trkpt lat="45.6197190284729" lon="10.202758312225342">
        <ele>231.96319970782255</ele>
        <time>2017-11-13T16:35:42.761000Z</time>
      </trkpt>
      <trkpt lat="45.61903246678412" lon="10.202972888946533">
        <ele>231.0</ele>
        <time>2017-11-13T16:35:43.888000Z</time>
      </trkpt>
      <trkpt lat="45.61886080540717" lon="10.203015804290771">
        <ele>231.0</ele>
        <time>2017-11-13T16:35:44.167000Z</time>
      </trkpt>
      <trkpt lat="45.61875351704657" lon="10.20303726196289">
        <ele>231.0</ele>
        <time>2017-11-13T16:35:44.341000Z</time>
      </trkpt>
      <trkpt lat="45.618431651964784" lon="10.203123092651367">
        <ele>231.0</ele>
        <time>2017-11-13T16:35:44.866000Z</time>
      </trkpt>
      <trkpt lat="45.61727285385132" lon="10.203187465667725">
        <ele>231.0</ele>
        <time>2017-11-13T16:35:46.725000Z</time>
      </trkpt>
      <trkpt lat="45.6169939879328" lon="10.203144550323486">
        <ele>231.0</ele>
        <time>2017-11-13T16:35:47.175000Z</time>
      </trkpt>
      <trkpt lat="45.61677941121161" lon="10.203101634979248">
        <ele>230.75553558294166</ele>
        <time>2017-11-13T16:35:47.522000Z</time>
      </trkpt>
      <trkpt lat="45.616629207506776" lon="10.20305871963501">
        <ele>229.8113723020122</ele>
        <time>2017-11-13T16:35:47.768000Z</time>
      </trkpt>
      <trkpt lat="45.61643600463867" lon="10.203015804290771">
        <ele>229.4571577467262</ele>
        <time>2017-11-13T16:35:48.081000Z</time>
      </trkpt>
      <trkpt lat="45.61639155222862" lon="10.20302211812933">
        <ele>229.37622926054647</ele>
        <time>2017-11-13T16:35:48.153000Z</time>
      </trkpt>
      <trkpt lat="45.61639115531031" lon="10.203022174505959">
        <ele>229.37550664510727</ele>
        <time>2017-11-13T16:35:48.153000Z</time>
      </trkpt>
      <trkpt lat="45.61632394066744" lon="10.2030317213797">
        <ele>229.25313804356657</ele>
        <time>2017-11-13T16:35:48.261000Z</time>
      </trkpt>
      <trkpt lat="45.61629024334252" lon="10.203036507591605">
        <ele>229.19178988635272</ele>
        <time>2017-11-13T16:35:48.315000Z</time>
      </trkpt>
      <trkpt lat="45.61629032716155" lon="10.203036507591605">
        <ele>229.19163803593483</ele>
        <time>2017-11-13T16:35:48.315000Z</time>
      </trkpt>
      <trkpt lat="45.61583527363837" lon="10.203101634979248">
        <ele>228.36312154803136</ele>
        <time>2017-11-13T16:35:49.048000Z</time>
      </trkpt>
      <trkpt lat="45.61536320485175" lon="10.203380584716797">
        <ele>227.10439430447295</ele>
        <time>2017-11-13T16:35:49.867000Z</time>
      </trkpt>
      <trkpt lat="45.615363121032715" lon="10.203380584716797">
        <ele>227.10422682160785</ele>
        <time>2017-11-13T16:35:49.867000Z</time>
      </trkpt>
      <trkpt lat="45.61519154347479" lon="10.20353078842163">
        <ele>226.70222035766872</ele>
        <time>2017-11-13T16:35:50.190000Z</time>
      </trkpt>
      <trkpt lat="45.61519145965576" lon="10.20353078842163">
        <ele>226.70205287480363</ele>
        <time>2017-11-13T16:35:50.191000Z</time>
      </trkpt>
      <trkpt lat="45.61482676304877" lon="10.203981399536133">
        <ele>224.0722261141651</ele>
        <time>2017-11-13T16:35:50.964000Z</time>
      </trkpt>
      <trkpt lat="45.61405428685248" lon="10.205354690551758">
        <ele>222.84050671937783</ele>
        <time>2017-11-13T16:35:52.940000Z</time>
      </trkpt>
      <trkpt lat="45.61379679478705" lon="10.20578384399414">
        <ele>222.78933429593482</ele>
        <time>2017-11-13T16:35:53.574000Z</time>
      </trkpt>
      <trkpt lat="45.61308869160712" lon="10.206685066223145">
        <ele>221.60058603687455</ele>
        <time>2017-11-13T16:35:55.094000Z</time>
      </trkpt>
      <trkpt lat="45.61246633529663" lon="10.207350254058838">
        <ele>219.00949664379144</ele>
        <time>2017-11-13T16:35:56.340000Z</time>
      </trkpt>
      <trkpt lat="45.611865520477295" lon="10.207757949829102">
        <ele>219.6521603143858</ele>
        <time>2017-11-13T16:35:57.406000Z</time>
      </trkpt>
      <trkpt lat="45.61122187413275" lon="10.207886695861816">
        <ele>214.0</ele>
        <time>2017-11-13T16:35:58.448000Z</time>
      </trkpt>
      <trkpt lat="45.61122179031372" lon="10.207886695861816">
        <ele>213.9998991797482</ele>
        <time>2017-11-13T16:35:58.448000Z</time>
      </trkpt>
      <trkpt lat="45.61055668629706" lon="10.20803689956665">
        <ele>212.52330251621706</ele>
        <time>2017-11-13T16:35:59.527000Z</time>
      </trkpt>
      <trkpt lat="45.61021327972412" lon="10.20805835723877">
        <ele>212.54075922103843</ele>
        <time>2017-11-13T16:36:00.078000Z</time>
      </trkpt>
      <trkpt lat="45.60999870300293" lon="10.207951068878174">
        <ele>212.8856372830734</ele>
        <time>2017-11-13T16:36:00.442000Z</time>
      </trkpt>
      <trkpt lat="45.60991287231445" lon="10.207843780517578">
        <ele>212.89142766468328</ele>
        <time>2017-11-13T16:36:00.625000Z</time>
      </trkpt>
      <trkpt lat="45.60982712544501" lon="10.20780086517334">
        <ele>212.89604153982714</ele>
        <time>2017-11-13T16:36:00.771000Z</time>
      </trkpt>
      <trkpt lat="45.60971975326538" lon="10.207865238189697">
        <ele>212.90195464530424</ele>
        <time>2017-11-13T16:36:00.958000Z</time>
      </trkpt>
      <trkpt lat="45.609655464068055" lon="10.207993984222412">
        <ele>212.89309637496785</ele>
        <time>2017-11-13T16:36:01.135000Z</time>
      </trkpt>
      <trkpt lat="45.60965538024902" lon="10.208144187927246">
        <ele>212.8846848772623</ele>
        <time>2017-11-13T16:36:01.303000Z</time>
      </trkpt>
      <trkpt lat="45.609612464904785" lon="10.208358764648438">
        <ele>212.87218695588535</ele>
        <time>2017-11-13T16:36:01.553000Z</time>
      </trkpt>
      <trkpt lat="45.60952663421631" lon="10.208508968353271">
        <ele>212.82555260378896</ele>
        <time>2017-11-13T16:36:01.770000Z</time>
      </trkpt>
      <trkpt lat="45.609419429674745" lon="10.208594799041748">
        <ele>212.7833181232959</ele>
        <time>2017-11-13T16:36:01.967000Z</time>
      </trkpt>
      <trkpt lat="45.60894727706909" lon="10.208916664123535">
        <ele>211.93685253330102</ele>
        <time>2017-11-13T16:36:02.806000Z</time>
      </trkpt>
      <trkpt lat="45.60836800374091" lon="10.209431648254395">
        <ele>212.3690441105275</ele>
        <time>2017-11-13T16:36:03.900000Z</time>
      </trkpt>
      <trkpt lat="45.60748823918402" lon="10.21031141281128">
        <ele>210.0</ele>
        <time>2017-11-13T16:36:05.621000Z</time>
      </trkpt>
      <trkpt lat="45.60723074711859" lon="10.210611820220947">
        <ele>210.10546616335014</ele>
        <time>2017-11-13T16:36:06.154000Z</time>
      </trkpt>
      <trkpt lat="45.60671576298773" lon="10.211448669433594">
        <ele>211.01954965433984</ele>
        <time>2017-11-13T16:36:07.404000Z</time>
      </trkpt>
      <trkpt lat="45.60607194900513" lon="10.21252155303955">
        <ele>211.0</ele>
        <time>2017-11-13T16:36:08.989000Z</time>
      </trkpt>
      <trkpt lat="45.6059271561601" lon="10.212717367969471">
        <ele>210.69420376496305</ele>
        <time>2017-11-13T16:36:09.309000Z</time>
      </trkpt>
      <trkpt lat="45.60592700745423" lon="10.212717569075588">
        <ele>210.69388970510843</ele>
        <time>2017-11-13T16:36:09.309000Z</time>
      </trkpt>
      <trkpt lat="45.60587780064665" lon="10.212784115038211">
        <ele>210.5899672557608</ele>
        <time>2017-11-13T16:36:09.418000Z</time>
      </trkpt>
      <trkpt lat="45.60585334897041" lon="10.212817182764411">
        <ele>210.53832650822244</ele>
        <time>2017-11-13T16:36:09.472000Z</time>
      </trkpt>
      <trkpt lat="45.605853432789445" lon="10.21281709894538">
        <ele>210.5381695737839</ele>
        <time>2017-11-13T16:36:09.472000Z</time>
      </trkpt>
      <trkpt lat="45.6057071685791" lon="10.213015079498291">
        <ele>209.56246928084377</ele>
        <time>2017-11-13T16:36:09.795000Z</time>
      </trkpt>
      <trkpt lat="45.605685794726014" lon="10.21303653717041">
        <ele>209.55346686871493</ele>
        <time>2017-11-13T16:36:09.837000Z</time>
      </trkpt>
      <trkpt lat="45.60566425323486" lon="10.21305799484253">
        <ele>209.54441711111951</ele>
        <time>2017-11-13T16:36:09.879000Z</time>
      </trkpt>
      <trkpt lat="45.605449760332704" lon="10.213208198547363">
        <ele>209.46209214163756</ele>
        <time>2017-11-13T16:36:10.262000Z</time>
      </trkpt>
      <trkpt lat="45.605385303497314" lon="10.213251113891602">
        <ele>209.4375838290689</ele>
        <time>2017-11-13T16:36:10.376000Z</time>
      </trkpt>
      <trkpt lat="45.60476303100586" lon="10.213830471038818">
        <ele>209.5149519015039</ele>
        <time>2017-11-13T16:36:11.567000Z</time>
      </trkpt>
      <trkpt lat="45.603625774383545" lon="10.21479606628418">
        <ele>207.45510459905344</ele>
        <time>2017-11-13T16:36:13.688000Z</time>
      </trkpt>
      <trkpt lat="45.6023383140564" lon="10.216126441955566">
        <ele>202.0</ele>
        <time>2017-11-13T16:36:16.235000Z</time>
      </trkpt>
      <trkpt lat="45.60216665267944" lon="10.216169357299805">
        <ele>202.0</ele>
        <time>2017-11-13T16:36:16.514000Z</time>
      </trkpt>
      <trkpt lat="45.60208082199097" lon="10.216083526611328">
        <ele>202.0</ele>
        <time>2017-11-13T16:36:16.682000Z</time>
      </trkpt>
      <trkpt lat="45.60201653279364" lon="10.216126441955566">
        <ele>202.0</ele>
        <time>2017-11-13T16:36:16.796000Z</time>
      </trkpt>
      <trkpt lat="45.60197353363037" lon="10.216233730316162">
        <ele>202.0</ele>
        <time>2017-11-13T16:36:16.935000Z</time>
      </trkpt>
      <trkpt lat="45.60201644897461" lon="10.216341018676758">
        <ele>202.0</ele>
        <time>2017-11-13T16:36:17.074000Z</time>
      </trkpt>
      <trkpt lat="45.601887702941895" lon="10.216577053070068">
        <ele>202.0</ele>
        <time>2017-11-13T16:36:17.410000Z</time>
      </trkpt>
      <trkpt lat="45.60124142367773" lon="10.217295026423836">
        <ele>202.0</ele>
        <time>2017-11-13T16:36:18.722000Z</time>
      </trkpt>
      <trkpt lat="45.60124171364417" lon="10.217294704295222">
        <ele>202.0000926139313</ele>
        <time>2017-11-13T16:36:18.722000Z</time>
      </trkpt>
      <trkpt lat="45.601188067902896" lon="10.217354300184766">
        <ele>202.0172268124389</ele>
        <time>2017-11-13T16:36:18.831000Z</time>
      </trkpt>
      <trkpt lat="45.601161578670144" lon="10.217383727431297">
        <ele>202.02568734489446</ele>
        <time>2017-11-13T16:36:18.885000Z</time>
      </trkpt>
      <trkpt lat="45.60116174630821" lon="10.217383643612266">
        <ele>202.02573213193776</ele>
        <time>2017-11-13T16:36:18.885000Z</time>
      </trkpt>
      <trkpt lat="45.600149631500244" lon="10.218508243560791">
        <ele>203.3490172759485</ele>
        <time>2017-11-13T16:36:20.940000Z</time>
      </trkpt>
      <trkpt lat="45.59901245869696" lon="10.21979570388794">
        <ele>198.0</ele>
        <time>2017-11-13T16:36:23.266000Z</time>
      </trkpt>
      <trkpt lat="45.59901237487793" lon="10.21979570388794">
        <ele>198.00008819564883</ele>
        <time>2017-11-13T16:36:23.266000Z</time>
      </trkpt>
      <trkpt lat="45.59896945953369" lon="10.219838619232178">
        <ele>198.0551999445555</ele>
        <time>2017-11-13T16:36:23.350000Z</time>
      </trkpt>
      <trkpt lat="45.59881933964789" lon="10.22003173828125">
        <ele>199.26772058438044</ele>
        <time>2017-11-13T16:36:23.674000Z</time>
      </trkpt>
      <trkpt lat="45.598368644714355" lon="10.22054672241211">
        <ele>199.8748754538216</ele>
        <time>2017-11-13T16:36:24.599000Z</time>
      </trkpt>
      <trkpt lat="45.597403049468994" lon="10.221962928771973">
        <ele>197.0</ele>
        <time>2017-11-13T16:36:26.817000Z</time>
      </trkpt>
      <trkpt lat="45.59703826904297" lon="10.222477912902832">
        <ele>197.34849998702603</ele>
        <time>2017-11-13T16:36:27.639000Z</time>
      </trkpt>
      <trkpt lat="45.59585818089545" lon="10.223679542541504">
        <ele>199.0</ele>
        <time>2017-11-13T16:36:29.962000Z</time>
      </trkpt>
      <trkpt lat="45.595149993896484" lon="10.22428035736084">
        <ele>197.64111049487164</ele>
        <time>2017-11-13T16:36:31.282000Z</time>
      </trkpt>
      <trkpt lat="45.59401273727417" lon="10.224602222442627">
        <ele>194.0</ele>
        <time>2017-11-13T16:36:33.141000Z</time>
      </trkpt>
      <trkpt lat="45.59351921081543" lon="10.224881172180176">
        <ele>193.92386539137382</ele>
        <time>2017-11-13T16:36:33.992000Z</time>
      </trkpt>
      <trkpt lat="45.59326171875" lon="10.225117206573486">
        <ele>193.87998124921157</ele>
        <time>2017-11-13T16:36:34.482000Z</time>
      </trkpt>
      <trkpt lat="45.593132972717285" lon="10.225138664245605">
        <ele>193.83233076612976</ele>
        <time>2017-11-13T16:36:34.690000Z</time>
      </trkpt>
      <trkpt lat="45.59302568435669" lon="10.22526741027832">
        <ele>193.78082842407</ele>
        <time>2017-11-13T16:36:34.915000Z</time>
      </trkpt>
      <trkpt lat="45.592744462700146" lon="10.225390444895547">
        <ele>193.6727093393249</ele>
        <time>2017-11-13T16:36:35.386000Z</time>
      </trkpt>
      <trkpt lat="45.592743981095055" lon="10.225390655596861">
        <ele>193.67252418047937</ele>
        <time>2017-11-13T16:36:35.387000Z</time>
      </trkpt>
      <trkpt lat="45.59268236160278" lon="10.225417613983154">
        <ele>193.6488338283168</ele>
        <time>2017-11-13T16:36:35.490000Z</time>
      </trkpt>
      <trkpt lat="45.59267919729215" lon="10.225417613983126">
        <ele>193.6476705624817</ele>
        <time>2017-11-13T16:36:35.495000Z</time>
      </trkpt>
      <trkpt lat="45.592644894495606" lon="10.225417613983154">
        <ele>193.6350601471705</ele>
        <time>2017-11-13T16:36:35.550000Z</time>
      </trkpt>
      <trkpt lat="45.59182413853705" lon="10.225417613983154">
        <ele>193.0</ele>
        <time>2017-11-13T16:36:36.866000Z</time>
      </trkpt>
      <trkpt lat="45.59156478309076" lon="10.225403191967178">
        <ele>193.49919768164864</ele>
        <time>2017-11-13T16:36:37.282000Z</time>
      </trkpt>
      <trkpt lat="45.591564223547756" lon="10.225403160852702">
        <ele>193.49955552350823</ele>
        <time>2017-11-13T16:36:37.282000Z</time>
      </trkpt>
      <trkpt lat="45.59149689027377" lon="10.225399416663528">
        <ele>193.54261684992844</ele>
        <time>2017-11-13T16:36:37.390000Z</time>
      </trkpt>
      <trkpt lat="45.591462375596166" lon="10.225397497415543">
        <ele>193.56468985644915</ele>
        <time>2017-11-13T16:36:37.445000Z</time>
      </trkpt>
      <trkpt lat="45.59143781661987" lon="10.225396156311035">
        <ele>193.5803955181315</ele>
        <time>2017-11-13T16:36:37.484000Z</time>
      </trkpt>
      <trkpt lat="45.591437900438905" lon="10.225396156311035">
        <ele>193.5804490819794</ele>
        <time>2017-11-13T16:36:37.484000Z</time>
      </trkpt>
      <trkpt lat="45.59133061207831" lon="10.225374698638916">
        <ele>193.64967901728846</ele>
        <time>2017-11-13T16:36:37.658000Z</time>
      </trkpt>
      <trkpt lat="45.58974266052246" lon="10.225224494934082">
        <ele>195.0</ele>
        <time>2017-11-13T16:36:40.209000Z</time>
      </trkpt>
      <trkpt lat="45.58972128666937" lon="10.225181579589844">
        <ele>194.96163331293906</ele>
        <time>2017-11-13T16:36:40.268000Z</time>
      </trkpt>
      <trkpt lat="45.58954962529242" lon="10.225203037261963">
        <ele>194.5986982604102</ele>
        <time>2017-11-13T16:36:40.544000Z</time>
      </trkpt>
      <trkpt lat="45.58952808380127" lon="10.225224494934082">
        <ele>194.5433921890075</ele>
        <time>2017-11-13T16:36:40.586000Z</time>
      </trkpt>
      <trkpt lat="45.58935650624335" lon="10.22528886795044">
        <ele>194.16976635210878</ele>
        <time>2017-11-13T16:36:40.870000Z</time>
      </trkpt>
      <trkpt lat="45.58897018432617" lon="10.225374698638916">
        <ele>192.6796498241857</ele>
        <time>2017-11-13T16:36:41.497000Z</time>
      </trkpt>
      <trkpt lat="45.588176250457764" lon="10.225481986999512">
        <ele>190.0</ele>
        <time>2017-11-13T16:36:42.775000Z</time>
      </trkpt>
      <trkpt lat="45.58798313140869" lon="10.225353240966797">
        <ele>189.8907584291454</ele>
        <time>2017-11-13T16:36:43.117000Z</time>
      </trkpt>
      <trkpt lat="45.587897300720215" lon="10.225331783294678">
        <ele>189.8460911976788</ele>
        <time>2017-11-13T16:36:43.257000Z</time>
      </trkpt>
      <trkpt lat="45.58781147003174" lon="10.225396156311035">
        <ele>189.7964000671292</ele>
        <time>2017-11-13T16:36:43.412000Z</time>
      </trkpt>
      <trkpt lat="45.58768272399902" lon="10.22554636001587">
        <ele>189.71119832009546</ele>
        <time>2017-11-13T16:36:43.678000Z</time>
      </trkpt>
      <trkpt lat="45.58753260411322" lon="10.22554636001587">
        <ele>189.6342431589378</ele>
        <time>2017-11-13T16:36:43.919000Z</time>
      </trkpt>
      <trkpt lat="45.58753252029419" lon="10.22554636001587">
        <ele>189.63420019123194</ele>
        <time>2017-11-13T16:36:43.919000Z</time>
      </trkpt>
      <trkpt lat="45.586717212572694" lon="10.225610733032227">
        <ele>188.88228244965725</ele>
        <time>2017-11-13T16:36:45.228000Z</time>
      </trkpt>
      <trkpt lat="45.58652400970459" lon="10.225610733032227">
        <ele>188.40395134548328</ele>
        <time>2017-11-13T16:36:45.538000Z</time>
      </trkpt>
      <trkpt lat="45.58598765172064" lon="10.225675106048584">
        <ele>188.0</ele>
        <time>2017-11-13T16:36:46.401000Z</time>
      </trkpt>
      <trkpt lat="45.58585890568793" lon="10.225675106048584">
        <ele>187.9350383440443</ele>
        <time>2017-11-13T16:36:46.607000Z</time>
      </trkpt>
      <trkpt lat="45.58579453267157" lon="10.225696563720703">
        <ele>188.235018759612</ele>
        <time>2017-11-13T16:36:46.713000Z</time>
      </trkpt>
      <trkpt lat="45.58525800704956" lon="10.225739479064941">
        <ele>187.96387906761507</ele>
        <time>2017-11-13T16:36:47.574000Z</time>
      </trkpt>
      <trkpt lat="45.584657192230225" lon="10.225975513458252">
        <ele>187.3161418001496</ele>
        <time>2017-11-13T16:36:48.573000Z</time>
      </trkpt>
      <trkpt lat="45.58409937657416" lon="10.226383209228516">
        <ele>185.24760644246632</ele>
        <time>2017-11-13T16:36:49.577000Z</time>
      </trkpt>
      <trkpt lat="45.583884716033936" lon="10.226554870605469">
        <ele>184.85620093117552</ele>
        <time>2017-11-13T16:36:49.971000Z</time>
      </trkpt>
      <trkpt lat="45.583477104082704" lon="10.22700548171997">
        <ele>183.36952078119563</ele>
        <time>2017-11-13T16:36:50.797000Z</time>
      </trkpt>
      <trkpt lat="45.58300495147705" lon="10.227584838867188">
        <ele>182.67809272856047</ele>
        <time>2017-11-13T16:36:51.795000Z</time>
      </trkpt>
      <trkpt lat="45.58203944005072" lon="10.228550434112549">
        <ele>182.0</ele>
        <time>2017-11-13T16:36:53.684000Z</time>
      </trkpt>
      <trkpt lat="45.58203935623169" lon="10.228550434112549">
        <ele>181.99991141199303</ele>
        <time>2017-11-13T16:36:53.684000Z</time>
      </trkpt>
      <trkpt lat="45.58173903264105" lon="10.228807926177979">
        <ele>181.62973786899022</ele>
        <time>2017-11-13T16:36:54.245000Z</time>
      </trkpt>
      <trkpt lat="45.58135271072388" lon="10.22902250289917">
        <ele>180.52500236226982</ele>
        <time>2017-11-13T16:36:54.909000Z</time>
      </trkpt>
      <trkpt lat="45.58105230331421" lon="10.229043960571289">
        <ele>180.56618029097675</ele>
        <time>2017-11-13T16:36:55.391000Z</time>
      </trkpt>
      <trkpt lat="45.580966556444764" lon="10.228936672210693">
        <ele>180.58178431719523</ele>
        <time>2017-11-13T16:36:55.574000Z</time>
      </trkpt>
      <trkpt lat="45.58081635273993" lon="10.228958129882812">
        <ele>179.93578346635033</ele>
        <time>2017-11-13T16:36:55.816000Z</time>
      </trkpt>
      <trkpt lat="45.58075189590454" lon="10.229086875915527">
        <ele>179.9509509291104</ele>
        <time>2017-11-13T16:36:55.994000Z</time>
      </trkpt>
      <trkpt lat="45.58045148849487" lon="10.229365825653076">
        <ele>181.0</ele>
        <time>2017-11-13T16:36:56.568000Z</time>
      </trkpt>
      <trkpt lat="45.58023691177368" lon="10.229430198669434">
        <ele>180.8939749141391</ele>
        <time>2017-11-13T16:36:56.919000Z</time>
      </trkpt>
      <trkpt lat="45.580194080248475" lon="10.229408740997314">
        <ele>180.87202661935126</ele>
        <time>2017-11-13T16:36:56.992000Z</time>
      </trkpt>
      <trkpt lat="45.58008679188788" lon="10.229451656341553">
        <ele>180.81815054947552</ele>
        <time>2017-11-13T16:36:57.171000Z</time>
      </trkpt>
      <trkpt lat="45.58006525039673" lon="10.229473114013672">
        <ele>180.80545203252163</ele>
        <time>2017-11-13T16:36:57.213000Z</time>
      </trkpt>
      <trkpt lat="45.579893589019775" lon="10.229580402374268">
        <ele>180.0481805452906</ele>
        <time>2017-11-13T16:36:57.513000Z</time>
      </trkpt>
      <trkpt lat="45.57950743474066" lon="10.229623317718506">
        <ele>179.8608847143635</ele>
        <time>2017-11-13T16:36:58.134000Z</time>
      </trkpt>
      <trkpt lat="45.57950735092163" lon="10.229623317718506">
        <ele>179.86084418218147</ele>
        <time>2017-11-13T16:36:58.134000Z</time>
      </trkpt>
      <trkpt lat="45.578550980215084" lon="10.229710153121621">
        <ele>179.39744118850265</ele>
        <time>2017-11-13T16:36:59.670000Z</time>
      </trkpt>
      <trkpt lat="45.57854991024065" lon="10.229710250270212">
        <ele>179.39806751561926</ele>
        <time>2017-11-13T16:36:59.671000Z</time>
      </trkpt>
      <trkpt lat="45.578483172803445" lon="10.229716309705339">
        <ele>179.4371333712326</ele>
        <time>2017-11-13T16:36:59.778000Z</time>
      </trkpt>
      <trkpt lat="45.57842357084155" lon="10.22972172126174">
        <ele>179.4720223589402</ele>
        <time>2017-11-13T16:36:59.874000Z</time>
      </trkpt>
      <trkpt lat="45.57842365466058" lon="10.22972172126174">
        <ele>179.472071325009</ele>
        <time>2017-11-13T16:36:59.875000Z</time>
      </trkpt>
      <trkpt lat="45.5780912283808" lon="10.22975206375122">
        <ele>180.0</ele>
        <time>2017-11-13T16:37:00.409000Z</time>
      </trkpt>
      <trkpt lat="45.57684659957886" lon="10.230116844177246">
        <ele>177.93864741340448</ele>
        <time>2017-11-13T16:37:02.446000Z</time>
      </trkpt>
      <trkpt lat="45.57650327682495" lon="10.230116844177246">
        <ele>176.9875024551909</ele>
        <time>2017-11-13T16:37:02.996000Z</time>
      </trkpt>
      <trkpt lat="45.576481902971864" lon="10.230073928833008">
        <ele>176.95695434546556</ele>
        <time>2017-11-13T16:37:03.055000Z</time>
      </trkpt>
      <trkpt lat="45.57637461461127" lon="10.230052471160889">
        <ele>176.86718799602247</ele>
        <time>2017-11-13T16:37:03.229000Z</time>
      </trkpt>
      <trkpt lat="45.57631015777588" lon="10.230116844177246">
        <ele>176.80202297179355</ele>
        <time>2017-11-13T16:37:03.355000Z</time>
      </trkpt>
      <trkpt lat="45.575924003496766" lon="10.230545997619629">
        <ele>176.39664254130147</ele>
        <time>2017-11-13T16:37:04.139000Z</time>
      </trkpt>
      <trkpt lat="45.5757737159729" lon="10.230631828308105">
        <ele>176.6886055977014</ele>
        <time>2017-11-13T16:37:04.398000Z</time>
      </trkpt>
      <trkpt lat="45.575687885284424" lon="10.230631828308105">
        <ele>176.66666666666666</ele>
        <time>2017-11-13T16:37:04.536000Z</time>
      </trkpt>
      <trkpt lat="45.57530173100531" lon="10.230631828308105">
        <ele>176.56829197882925</ele>
        <time>2017-11-13T16:37:05.155000Z</time>
      </trkpt>
      <trkpt lat="45.57515152730048" lon="10.230674743652344">
        <ele>176.5292691104681</ele>
        <time>2017-11-13T16:37:05.401000Z</time>
      </trkpt>
      <trkpt lat="45.57489403523505" lon="10.23076057434082">
        <ele>176.1285764934663</ele>
        <time>2017-11-13T16:37:05.825000Z</time>
      </trkpt>
      <trkpt lat="45.57476528920233" lon="10.230803489685059">
        <ele>176.09489684764557</ele>
        <time>2017-11-13T16:37:06.037000Z</time>
      </trkpt>
      <trkpt lat="45.57463654316962" lon="10.230846405029297">
        <ele>176.06121719783823</ele>
        <time>2017-11-13T16:37:06.249000Z</time>
      </trkpt>
      <trkpt lat="45.574636459350586" lon="10.230846405029297">
        <ele>176.06119584453072</ele>
        <time>2017-11-13T16:37:06.249000Z</time>
      </trkpt>
      <trkpt lat="45.57440050877631" lon="10.230910778045654">
        <ele>176.0</ele>
        <time>2017-11-13T16:37:06.634000Z</time>
      </trkpt>
      <trkpt lat="45.57403572835028" lon="10.23103952407837">
        <ele>175.8105523080302</ele>
        <time>2017-11-13T16:37:07.236000Z</time>
      </trkpt>
      <trkpt lat="45.573417798333914" lon="10.231238856513691">
        <ele>175.28583741300042</ele>
        <time>2017-11-13T16:37:08.252000Z</time>
      </trkpt>
      <trkpt lat="45.573417075934124" lon="10.231239089543417">
        <ele>175.28522398800138</ele>
        <time>2017-11-13T16:37:08.252000Z</time>
      </trkpt>
      <trkpt lat="45.57337054051459" lon="10.23125410079956">
        <ele>175.24570848668586</ele>
        <time>2017-11-13T16:37:08.328000Z</time>
      </trkpt>
      <trkpt lat="45.57335115634845" lon="10.231260519963715">
        <ele>175.22922693968806</ele>
        <time>2017-11-13T16:37:08.360000Z</time>
      </trkpt>
      <trkpt lat="45.573293594643474" lon="10.231279581785202">
        <ele>174.51361795995925</ele>
        <time>2017-11-13T16:37:08.455000Z</time>
      </trkpt>
      <trkpt lat="45.573293678462505" lon="10.231279581785202">
        <ele>174.5135485330411</ele>
        <time>2017-11-13T16:37:08.455000Z</time>
      </trkpt>
      <trkpt lat="45.57311304844916" lon="10.231339931488037">
        <ele>174.35989625469128</ele>
        <time>2017-11-13T16:37:08.752000Z</time>
      </trkpt>
      <trkpt lat="45.57300576008856" lon="10.231361389160156">
        <ele>174.32478421600013</ele>
        <time>2017-11-13T16:37:08.926000Z</time>
      </trkpt>
      <trkpt lat="45.572962844744325" lon="10.231318473815918">
        <ele>174.3078059104811</ele>
        <time>2017-11-13T16:37:09.010000Z</time>
      </trkpt>
      <trkpt lat="45.5728554725647" lon="10.231297016143799">
        <ele>174.27266696582055</ele>
        <time>2017-11-13T16:37:09.184000Z</time>
      </trkpt>
      <trkpt lat="45.57279109954834" lon="10.231404304504395">
        <ele>174.24060785219748</ele>
        <time>2017-11-13T16:37:09.343000Z</time>
      </trkpt>
      <trkpt lat="45.57266243733466" lon="10.231468677520752">
        <ele>174.19642396866064</ele>
        <time>2017-11-13T16:37:09.562000Z</time>
      </trkpt>
      <trkpt lat="45.5725980643183" lon="10.231468677520752">
        <ele>174.17556021795494</ele>
        <time>2017-11-13T16:37:09.665000Z</time>
      </trkpt>
      <trkpt lat="45.57206162251532" lon="10.231575965881348">
        <ele>174.0</ele>
        <time>2017-11-13T16:37:10.533000Z</time>
      </trkpt>
      <trkpt lat="45.57090290822089" lon="10.23153305053711">
        <ele>173.57742674700884</ele>
        <time>2017-11-13T16:37:12.391000Z</time>
      </trkpt>
      <trkpt lat="45.570902824401855" lon="10.23153305053711">
        <ele>173.57713640850272</ele>
        <time>2017-11-13T16:37:12.391000Z</time>
      </trkpt>
      <trkpt lat="45.570688331499696" lon="10.23151159286499">
        <ele>172.16567388095652</ele>
        <time>2017-11-13T16:37:12.736000Z</time>
      </trkpt>
      <trkpt lat="45.57055950164795" lon="10.23151159286499">
        <ele>172.087332638246</ele>
        <time>2017-11-13T16:37:12.943000Z</time>
      </trkpt>
      <trkpt lat="45.570430839434266" lon="10.231404304504395">
        <ele>171.99673867461343</ele>
        <time>2017-11-13T16:37:13.182000Z</time>
      </trkpt>
      <trkpt lat="45.57036638259888" lon="10.231425762176514">
        <ele>171.95649230748418</ele>
        <time>2017-11-13T16:37:13.288000Z</time>
      </trkpt>
      <trkpt lat="45.570237720385194" lon="10.231404304504395">
        <ele>171.877721601611</ele>
        <time>2017-11-13T16:37:13.496000Z</time>
      </trkpt>
      <trkpt lat="45.57023763656616" lon="10.231404304504395">
        <ele>171.8776706313815</ele>
        <time>2017-11-13T16:37:13.496000Z</time>
      </trkpt>
      <trkpt lat="45.56935787200928" lon="10.231168270111084">
        <ele>171.0</ele>
        <time>2017-11-13T16:37:14.931000Z</time>
      </trkpt>
      <trkpt lat="45.5686713103205" lon="10.230889320373535">
        <ele>170.32216122528018</ele>
        <time>2017-11-13T16:37:16.075000Z</time>
      </trkpt>
      <trkpt lat="45.568671226501465" lon="10.230889320373535">
        <ele>170.32204248580447</ele>
        <time>2017-11-13T16:37:16.075000Z</time>
      </trkpt>
      <trkpt lat="45.568392276763916" lon="10.230696201324463">
        <ele>169.54957958249113</ele>
        <time>2017-11-13T16:37:16.572000Z</time>
      </trkpt>
      <trkpt lat="45.56824207305908" lon="10.230481624603271">
        <ele>168.24864910176973</ele>
        <time>2017-11-13T16:37:16.913000Z</time>
      </trkpt>
      <trkpt lat="45.568220699205995" lon="10.230460166931152">
        <ele>168.2327720196175</ele>
        <time>2017-11-13T16:37:16.955000Z</time>
      </trkpt>
      <trkpt lat="45.5681134108454" lon="10.230374336242676">
        <ele>168.1580385296553</ele>
        <time>2017-11-13T16:37:17.152000Z</time>
      </trkpt>
      <trkpt lat="45.56807041168213" lon="10.230395793914795">
        <ele>168.13035719186652</ele>
        <time>2017-11-13T16:37:17.225000Z</time>
      </trkpt>
      <trkpt lat="45.56785591877997" lon="10.230395793914795">
        <ele>168.0</ele>
        <time>2017-11-13T16:37:17.569000Z</time>
      </trkpt>
      <trkpt lat="45.5675555113703" lon="10.2302885055542">
        <ele>168.04999061634132</ele>
        <time>2017-11-13T16:37:18.065000Z</time>
      </trkpt>
      <trkpt lat="45.56755542755127" lon="10.2302885055542">
        <ele>168.05000414807822</ele>
        <time>2017-11-13T16:37:18.065000Z</time>
      </trkpt>
      <trkpt lat="45.56738384999335" lon="10.230224132537842">
        <ele>168.0786431367042</ele>
        <time>2017-11-13T16:37:18.349000Z</time>
      </trkpt>
      <trkpt lat="45.56721210479736" lon="10.230159759521484">
        <ele>168.10730830743702</ele>
        <time>2017-11-13T16:37:18.634000Z</time>
      </trkpt>
      <trkpt lat="45.56698885937262" lon="10.230048136555931">
        <ele>168.1454932222027</ele>
        <time>2017-11-13T16:37:19.013000Z</time>
      </trkpt>
      <trkpt lat="45.56698842546294" lon="10.230047919601493">
        <ele>168.14569914401304</ele>
        <time>2017-11-13T16:37:19.013000Z</time>
      </trkpt>
      <trkpt lat="45.56692473039813" lon="10.23001607216998">
        <ele>168.17592709998925</ele>
        <time>2017-11-13T16:37:19.121000Z</time>
      </trkpt>
      <trkpt lat="45.56686878204346" lon="10.229988098144531">
        <ele>168.2024786730719</ele>
        <time>2017-11-13T16:37:19.216000Z</time>
      </trkpt>
      <trkpt lat="45.56686886586249" lon="10.229988098144531">
        <ele>168.20251621767247</ele>
        <time>2017-11-13T16:37:19.216000Z</time>
      </trkpt>
      <trkpt lat="45.566246509552" lon="10.229644775390625">
        <ele>168.83468531956603</ele>
        <time>2017-11-13T16:37:20.286000Z</time>
      </trkpt>
      <trkpt lat="45.566246593371034" lon="10.229644775390625">
        <ele>168.83472286416662</ele>
        <time>2017-11-13T16:37:20.286000Z</time>
      </trkpt>
      <trkpt lat="45.56590327061713" lon="10.229451656341553">
        <ele>169.0</ele>
        <time>2017-11-13T16:37:20.878000Z</time>
      </trkpt>
      <trkpt lat="45.565688693895936" lon="10.229344367980957">
        <ele>168.34581451780403</ele>
        <time>2017-11-13T16:37:21.242000Z</time>
      </trkpt>
      <trkpt lat="45.56525954045355" lon="10.229129791259766">
        <ele>168.03744301829184</ele>
        <time>2017-11-13T16:37:21.971000Z</time>
      </trkpt>
      <trkpt lat="45.56502342224121" lon="10.22902250289917">
        <ele>167.68775165263267</ele>
        <time>2017-11-13T16:37:22.368000Z</time>
      </trkpt>
      <trkpt lat="45.56483038701117" lon="10.228893756866455">
        <ele>166.3870826656764</ele>
        <time>2017-11-13T16:37:22.710000Z</time>
      </trkpt>
      <trkpt lat="45.564744556322694" lon="10.228850841522217">
        <ele>166.25874158297117</ele>
        <time>2017-11-13T16:37:22.856000Z</time>
      </trkpt>
      <trkpt lat="45.56455143727362" lon="10.228829383850098">
        <ele>165.98425628683356</ele>
        <time>2017-11-13T16:37:23.167000Z</time>
      </trkpt>
      <trkpt lat="45.56440123356879" lon="10.228807926177979">
        <ele>165.77034883306956</ele>
        <time>2017-11-13T16:37:23.409000Z</time>
      </trkpt>
      <trkpt lat="45.5643367767334" lon="10.22876501083374">
        <ele>165.66957496574824</ele>
        <time>2017-11-13T16:37:23.523000Z</time>
      </trkpt>
      <trkpt lat="45.564186656847596" lon="10.228700637817383">
        <ele>165.44746857248515</ele>
        <time>2017-11-13T16:37:23.774000Z</time>
      </trkpt>
      <trkpt lat="45.563993537798524" lon="10.228636264801025">
        <ele>164.833123483271</ele>
        <time>2017-11-13T16:37:24.092000Z</time>
      </trkpt>
      <trkpt lat="45.5637788772583" lon="10.228636264801025">
        <ele>164.5289396374976</ele>
        <time>2017-11-13T16:37:24.436000Z</time>
      </trkpt>
      <trkpt lat="45.56313523091376" lon="10.22852897644043">
        <ele>162.89768335017652</ele>
        <time>2017-11-13T16:37:25.475000Z</time>
      </trkpt>
      <trkpt lat="45.56283482350409" lon="10.228486061096191">
        <ele>163.06741463277694</ele>
        <time>2017-11-13T16:37:25.959000Z</time>
      </trkpt>
      <trkpt lat="45.562212551012635" lon="10.228421688079834">
        <ele>164.08483841146676</ele>
        <time>2017-11-13T16:37:26.959000Z</time>
      </trkpt>
      <trkpt lat="45.56189068593085" lon="10.228400230407715">
        <ele>163.7779530952719</ele>
        <time>2017-11-13T16:37:27.476000Z</time>
      </trkpt>
      <trkpt lat="45.56167610920966" lon="10.228378772735596">
        <ele>163.5730850953428</ele>
        <time>2017-11-13T16:37:27.821000Z</time>
      </trkpt>
      <trkpt lat="45.56053885258734" lon="10.22825002670288">
        <ele>160.87008301493265</ele>
        <time>2017-11-13T16:37:29.650000Z</time>
      </trkpt>
      <trkpt lat="45.560495937243104" lon="10.22825002670288">
        <ele>160.86811802599377</ele>
        <time>2017-11-13T16:37:29.719000Z</time>
      </trkpt>
      <trkpt lat="45.56013107299805" lon="10.228228569030762">
        <ele>160.85139762543028</ele>
        <time>2017-11-13T16:37:30.304000Z</time>
      </trkpt>
      <trkpt lat="45.56013115681708" lon="10.228228569030762">
        <ele>160.85139378756125</ele>
        <time>2017-11-13T16:37:30.304000Z</time>
      </trkpt>
      <trkpt lat="45.55961608886719" lon="10.228164196014404">
        <ele>161.16105327998636</ele>
        <time>2017-11-13T16:37:31.133000Z</time>
      </trkpt>
      <trkpt lat="45.55922985076904" lon="10.22803544998169">
        <ele>161.0903178589617</ele>
        <time>2017-11-13T16:37:31.769000Z</time>
      </trkpt>
      <trkpt lat="45.5591441038996" lon="10.227992534637451">
        <ele>161.12729570349396</ele>
        <time>2017-11-13T16:37:31.915000Z</time>
      </trkpt>
      <trkpt lat="45.55884369648993" lon="10.227820873260498">
        <ele>161.25897782560443</ele>
        <time>2017-11-13T16:37:32.434000Z</time>
      </trkpt>
      <trkpt lat="45.55837154388428" lon="10.227177143096924">
        <ele>161.8579666720443</ele>
        <time>2017-11-13T16:37:33.480000Z</time>
      </trkpt>
      <trkpt lat="45.55809267796576" lon="10.226855278015137">
        <ele>162.1669521484704</ele>
        <time>2017-11-13T16:37:34.055000Z</time>
      </trkpt>
      <trkpt lat="45.5580283049494" lon="10.22679090499878">
        <ele>162.1616157277069</ele>
        <time>2017-11-13T16:37:34.181000Z</time>
      </trkpt>
      <trkpt lat="45.557706439867616" lon="10.226576328277588">
        <ele>161.80416139957183</ele>
        <time>2017-11-13T16:37:34.750000Z</time>
      </trkpt>
      <trkpt lat="45.557191455736756" lon="10.22627592086792">
        <ele>161.33333333333334</ele>
        <time>2017-11-13T16:37:35.642000Z</time>
      </trkpt>
      <trkpt lat="45.556955421343446" lon="10.226104259490967">
        <ele>161.53089278441</ele>
        <time>2017-11-13T16:37:36.067000Z</time>
      </trkpt>
      <trkpt lat="45.55691250599921" lon="10.226061344146729">
        <ele>161.56996794994643</ele>
        <time>2017-11-13T16:37:36.151000Z</time>
      </trkpt>
      <trkpt lat="45.556810226012324" lon="10.226004124715503">
        <ele>161.6518980073845</ele>
        <time>2017-11-13T16:37:36.327000Z</time>
      </trkpt>
      <trkpt lat="45.55680985177824" lon="10.226003915354703">
        <ele>161.65219778266837</ele>
        <time>2017-11-13T16:37:36.327000Z</time>
      </trkpt>
      <trkpt lat="45.55674696240231" lon="10.225968732686074">
        <ele>161.7025744881503</ele>
        <time>2017-11-13T16:37:36.435000Z</time>
      </trkpt>
      <trkpt lat="45.5566918104887" lon="10.225937878713012">
        <ele>161.746753193916</ele>
        <time>2017-11-13T16:37:36.530000Z</time>
      </trkpt>
      <trkpt lat="45.556691978126764" lon="10.225937962532043">
        <ele>161.74688566886556</ele>
        <time>2017-11-13T16:37:36.530000Z</time>
      </trkpt>
      <trkpt lat="45.55637606419623" lon="10.22576093673706">
        <ele>162.66666666666666</ele>
        <time>2017-11-13T16:37:37.074000Z</time>
      </trkpt>
      <trkpt lat="45.556225860491395" lon="10.225653648376465">
        <ele>162.55003648747467</ele>
        <time>2017-11-13T16:37:37.343000Z</time>
      </trkpt>
      <trkpt lat="45.55583953857422" lon="10.225567817687988">
        <ele>162.2785229592747</ele>
        <time>2017-11-13T16:37:37.970000Z</time>
      </trkpt>
      <trkpt lat="45.555689334869385" lon="10.225589275360107">
        <ele>161.84035807452972</ele>
        <time>2017-11-13T16:37:38.212000Z</time>
      </trkpt>
      <trkpt lat="45.554959857836366" lon="10.22554636001587">
        <ele>160.55465930251816</ele>
        <time>2017-11-13T16:37:39.382000Z</time>
      </trkpt>
      <trkpt lat="45.55412292480469" lon="10.225589275360107">
        <ele>160.97233512752265</ele>
        <time>2017-11-13T16:37:40.725000Z</time>
      </trkpt>
      <trkpt lat="45.553650856018066" lon="10.22552490234375">
        <ele>161.02009378291353</ele>
        <time>2017-11-13T16:37:41.485000Z</time>
      </trkpt>
      <trkpt lat="45.55354356765747" lon="10.225417613983154">
        <ele>160.92444965584718</ele>
        <time>2017-11-13T16:37:41.695000Z</time>
      </trkpt>
      <trkpt lat="45.55335053242743" lon="10.224945545196533">
        <ele>159.82534347574037</ele>
        <time>2017-11-13T16:37:42.309000Z</time>
      </trkpt>
      <trkpt lat="45.5533504486084" lon="10.224945545196533">
        <ele>159.82524878721316</ele>
        <time>2017-11-13T16:37:42.309000Z</time>
      </trkpt>
      <trkpt lat="45.55330761708319" lon="10.224838256835938">
        <ele>159.39422094097753</ele>
        <time>2017-11-13T16:37:42.448000Z</time>
      </trkpt>
      <trkpt lat="45.55262088775635" lon="10.223550796508789">
        <ele>158.11395224029638</ele>
        <time>2017-11-13T16:37:44.265000Z</time>
      </trkpt>
      <trkpt lat="45.55256957950525" lon="10.223486661140393">
        <ele>158.04816040553627</ele>
        <time>2017-11-13T16:37:44.374000Z</time>
      </trkpt>
      <trkpt lat="45.55256933782357" lon="10.223486359038384">
        <ele>158.04785050073525</ele>
        <time>2017-11-13T16:37:44.374000Z</time>
      </trkpt>
      <trkpt lat="45.55253505706787" lon="10.223443508148193">
        <ele>158.00389280791606</ele>
        <time>2017-11-13T16:37:44.447000Z</time>
      </trkpt>
      <trkpt lat="45.552513350949724" lon="10.223438506003026">
        <ele>157.98267837292383</ele>
        <time>2017-11-13T16:37:44.482000Z</time>
      </trkpt>
      <trkpt lat="45.552454674616456" lon="10.223424984142184">
        <ele>157.25866449953105</ele>
        <time>2017-11-13T16:37:44.577000Z</time>
      </trkpt>
      <trkpt lat="45.55245484225452" lon="10.223425151780248">
        <ele>157.25846703690516</ele>
        <time>2017-11-13T16:37:44.577000Z</time>
      </trkpt>
      <trkpt lat="45.552256191149354" lon="10.223379135131836">
        <ele>157.06429006013042</ele>
        <time>2017-11-13T16:37:44.900000Z</time>
      </trkpt>
      <trkpt lat="45.55184849537909" lon="10.22329330444336">
        <ele>157.0</ele>
        <time>2017-11-13T16:37:45.561000Z</time>
      </trkpt>
      <trkpt lat="45.55075407028198" lon="10.22303581237793">
        <ele>156.33333333333334</ele>
        <time>2017-11-13T16:37:47.339000Z</time>
      </trkpt>
      <trkpt lat="45.5506713921724" lon="10.222990749445184">
        <ele>156.35389097547932</ele>
        <time>2017-11-13T16:37:47.481000Z</time>
      </trkpt>
      <trkpt lat="45.55067102118254" lon="10.222990547240988">
        <ele>156.35398322087596</ele>
        <time>2017-11-13T16:37:47.481000Z</time>
      </trkpt>
      <trkpt lat="45.550607914558505" lon="10.222956151660103">
        <ele>156.36967447368306</ele>
        <time>2017-11-13T16:37:47.589000Z</time>
      </trkpt>
      <trkpt lat="45.55055215023458" lon="10.222925757989287">
        <ele>156.38354008565935</ele>
        <time>2017-11-13T16:37:47.685000Z</time>
      </trkpt>
      <trkpt lat="45.55055231787264" lon="10.222925757989287">
        <ele>156.38357902815585</ele>
        <time>2017-11-13T16:37:47.685000Z</time>
      </trkpt>
      <trkpt lat="45.55051803588867" lon="10.222907066345215">
        <ele>156.39210351563472</ele>
        <time>2017-11-13T16:37:47.744000Z</time>
      </trkpt>
      <trkpt lat="45.550174713134766" lon="10.222671031951904">
        <ele>156.48061956890058</ele>
        <time>2017-11-13T16:37:48.355000Z</time>
      </trkpt>
      <trkpt lat="45.54944523610175" lon="10.222198963165283">
        <ele>157.0</ele>
        <time>2017-11-13T16:37:49.639000Z</time>
      </trkpt>
      <trkpt lat="45.549445152282715" lon="10.222198963165283">
        <ele>156.999962498899</ele>
        <time>2017-11-13T16:37:49.640000Z</time>
      </trkpt>
      <trkpt lat="45.54910191334784" lon="10.221834182739258">
        <ele>156.80853241808668</ele>
        <time>2017-11-13T16:37:50.326000Z</time>
      </trkpt>
      <trkpt lat="45.54890879429877" lon="10.221705436706543">
        <ele>156.71317734059997</ele>
        <time>2017-11-13T16:37:50.668000Z</time>
      </trkpt>
      <trkpt lat="45.54888312475802" lon="10.22169157245676">
        <ele>156.70089858258277</ele>
        <time>2017-11-13T16:37:50.712000Z</time>
      </trkpt>
      <trkpt lat="45.5488827721591" lon="10.221691382016342">
        <ele>156.7007299205585</ele>
        <time>2017-11-13T16:37:50.712000Z</time>
      </trkpt>
      <trkpt lat="45.548819574537674" lon="10.221657248717124">
        <ele>156.33716666404302</ele>
        <time>2017-11-13T16:37:50.820000Z</time>
      </trkpt>
      <trkpt lat="45.548763535916805" lon="10.221626982092857">
        <ele>156.31036117840938</ele>
        <time>2017-11-13T16:37:50.916000Z</time>
      </trkpt>
      <trkpt lat="45.548763535916805" lon="10.221627065911889">
        <ele>156.31033491631433</ele>
        <time>2017-11-13T16:37:50.916000Z</time>
      </trkpt>
      <trkpt lat="45.54811486043036" lon="10.22127628326416">
        <ele>156.0</ele>
        <time>2017-11-13T16:37:52.028000Z</time>
      </trkpt>
      <trkpt lat="45.54811477661133" lon="10.22127628326416">
        <ele>155.99998721777115</ele>
        <time>2017-11-13T16:37:52.028000Z</time>
      </trkpt>
      <trkpt lat="45.54755687713623" lon="10.220825672149658">
        <ele>155.23557465415956</ele>
        <time>2017-11-13T16:37:53.056000Z</time>
      </trkpt>
      <trkpt lat="45.547020519152284" lon="10.220632553100586">
        <ele>155.81788758658288</ele>
        <time>2017-11-13T16:37:53.943000Z</time>
      </trkpt>
      <trkpt lat="45.54626941680908" lon="10.220375061035156">
        <ele>155.10710120623278</ele>
        <time>2017-11-13T16:37:55.181000Z</time>
      </trkpt>
      <trkpt lat="45.54605492390692" lon="10.220310688018799">
        <ele>155.0</ele>
        <time>2017-11-13T16:37:55.532000Z</time>
      </trkpt>
      <trkpt lat="45.54564507877109" lon="10.22018359401394">
        <ele>155.4384629647097</ele>
        <time>2017-11-13T16:37:56.204000Z</time>
      </trkpt>
      <trkpt lat="45.54564447146812" lon="10.220183405689175">
        <ele>155.43861874431965</ele>
        <time>2017-11-13T16:37:56.205000Z</time>
      </trkpt>
      <trkpt lat="45.54557868241066" lon="10.22016300451459">
        <ele>155.45549433077304</ele>
        <time>2017-11-13T16:37:56.313000Z</time>
      </trkpt>
      <trkpt lat="45.54551973938942" lon="10.220144726336002">
        <ele>155.4706138359684</ele>
        <time>2017-11-13T16:37:56.410000Z</time>
      </trkpt>
      <trkpt lat="45.545432567596436" lon="10.220117568969727">
        <ele>155.49297900479354</ele>
        <time>2017-11-13T16:37:56.553000Z</time>
      </trkpt>
      <trkpt lat="45.54534673690796" lon="10.220074653625488">
        <ele>155.51577490172093</ele>
        <time>2017-11-13T16:37:56.699000Z</time>
      </trkpt>
      <trkpt lat="45.54526090621948" lon="10.219988822937012">
        <ele>155.54204150005478</ele>
        <time>2017-11-13T16:37:56.867000Z</time>
      </trkpt>
      <trkpt lat="45.54476737976074" lon="10.219902992248535">
        <ele>155.66666666666666</ele>
        <time>2017-11-13T16:37:57.664000Z</time>
      </trkpt>
      <trkpt lat="45.544746005907655" lon="10.219881534576416">
        <ele>155.65868970386694</ele>
        <time>2017-11-13T16:37:57.706000Z</time>
      </trkpt>
      <trkpt lat="45.544724548235536" lon="10.219860076904297">
        <ele>155.6506917928298</ele>
        <time>2017-11-13T16:37:57.748000Z</time>
      </trkpt>
      <trkpt lat="45.544681549072266" lon="10.219924449920654">
        <ele>155.63167104539033</ele>
        <time>2017-11-13T16:37:57.848000Z</time>
      </trkpt>
      <trkpt lat="45.544681549072266" lon="10.219967365264893">
        <ele>155.62249493914848</ele>
        <time>2017-11-13T16:37:57.896000Z</time>
      </trkpt>
      <trkpt lat="45.54466017521918" lon="10.220074653625488">
        <ele>155.26531128215868</ele>
        <time>2017-11-13T16:37:58.021000Z</time>
      </trkpt>
      <trkpt lat="45.54466014144875" lon="10.22010924244587">
        <ele>155.2579155330271</ele>
        <time>2017-11-13T16:37:58.060000Z</time>
      </trkpt>
      <trkpt lat="45.5446601410222" lon="10.22010967927353">
        <ele>155.25782213094647</ele>
        <time>2017-11-13T16:37:58.060000Z</time>
      </trkpt>
      <trkpt lat="45.54466009140015" lon="10.220160484313965">
        <ele>155.2469590448355</ele>
        <time>2017-11-13T16:37:58.117000Z</time>
      </trkpt>
      <trkpt lat="45.54465026309838" lon="10.220203822248791">
        <ele>155.23721886908274</ele>
        <time>2017-11-13T16:37:58.168000Z</time>
      </trkpt>
      <trkpt lat="45.54463184438646" lon="10.220285039395094">
        <ele>155.21896535205232</ele>
        <time>2017-11-13T16:37:58.264000Z</time>
      </trkpt>
      <trkpt lat="45.54463184438646" lon="10.220284787937999">
        <ele>155.2189115857573</ele>
        <time>2017-11-13T16:37:58.264000Z</time>
      </trkpt>
      <trkpt lat="45.54455288685858" lon="10.220632553100586">
        <ele>155.14074294307142</ele>
        <time>2017-11-13T16:37:58.674000Z</time>
      </trkpt>
      <trkpt lat="45.54440259933472" lon="10.221254825592041">
        <ele>155.0</ele>
        <time>2017-11-13T16:37:59.413000Z</time>
      </trkpt>
      <trkpt lat="45.54438122548163" lon="10.22151231765747">
        <ele>155.48599652737548</ele>
        <time>2017-11-13T16:37:59.704000Z</time>
      </trkpt>
      <trkpt lat="45.5443959930375" lon="10.221911033133974">
        <ele>156.5676881951788</ele>
        <time>2017-11-13T16:38:00.152000Z</time>
      </trkpt>
      <trkpt lat="45.544395973621356" lon="10.22191050888503">
        <ele>156.56867217006706</ele>
        <time>2017-11-13T16:38:00.152000Z</time>
      </trkpt>
      <trkpt lat="45.544399561570955" lon="10.222007387126528">
        <ele>156.75050514945357</ele>
        <time>2017-11-13T16:38:00.261000Z</time>
      </trkpt>
      <trkpt lat="45.54440268315375" lon="10.222091674804688">
        <ele>156.90870659533624</ele>
        <time>2017-11-13T16:38:00.356000Z</time>
      </trkpt>
      <trkpt lat="45.54440259933472" lon="10.222091674804688">
        <ele>156.90893091306245</ele>
        <time>2017-11-13T16:38:00.356000Z</time>
      </trkpt>
      <trkpt lat="45.54440268315375" lon="10.222091674803687">
        <ele>156.90915523078868</ele>
        <time>2017-11-13T16:38:00.356000Z</time>
      </trkpt>
      <trkpt lat="45.54440259933472" lon="10.222091674805688">
        <ele>156.90937954851492</ele>
        <time>2017-11-13T16:38:00.356000Z</time>
      </trkpt>
      <trkpt lat="45.54435968399048" lon="10.222392082214355">
        <ele>157.48402885695336</ele>
        <time>2017-11-13T16:38:00.700000Z</time>
      </trkpt>
      <trkpt lat="45.54408073425293" lon="10.223443508148193">
        <ele>161.5913862467713</ele>
        <time>2017-11-13T16:38:01.962000Z</time>
      </trkpt>
      <trkpt lat="45.543973529711366" lon="10.223658084869385">
        <ele>161.7260748807322</ele>
        <time>2017-11-13T16:38:02.258000Z</time>
      </trkpt>
      <trkpt lat="45.54382332600653" lon="10.223701000213623">
        <ele>161.8378395077179</ele>
        <time>2017-11-13T16:38:02.504000Z</time>
      </trkpt>
      <trkpt lat="45.5438232421875" lon="10.223701000213623">
        <ele>161.83782173141333</ele>
        <time>2017-11-13T16:38:02.504000Z</time>
      </trkpt>
      <trkpt lat="45.54283627308905" lon="10.223186016082764">
        <ele>160.9483009562947</ele>
        <time>2017-11-13T16:38:04.189000Z</time>
      </trkpt>
      <trkpt lat="45.54283618927002" lon="10.223186016082764">
        <ele>160.9485343104882</ele>
        <time>2017-11-13T16:38:04.189000Z</time>
      </trkpt>
      <trkpt lat="45.542106712237" lon="10.222735404968262">
        <ele>165.16133172719685</ele>
        <time>2017-11-13T16:38:05.463000Z</time>
      </trkpt>
      <trkpt lat="45.54210662841797" lon="10.222735404968262">
        <ele>165.16131142802274</ele>
        <time>2017-11-13T16:38:05.463000Z</time>
      </trkpt>
      <trkpt lat="45.541519288951214" lon="10.222366265213598">
        <ele>164.3392322398686</ele>
        <time>2017-11-13T16:38:06.492000Z</time>
      </trkpt>
      <trkpt lat="45.54151882485701" lon="10.222365973536174">
        <ele>164.34074930903043</ele>
        <time>2017-11-13T16:38:06.492000Z</time>
      </trkpt>
      <trkpt lat="45.541457102981255" lon="10.222327182154936">
        <ele>164.5425108280381</ele>
        <time>2017-11-13T16:38:06.600000Z</time>
      </trkpt>
      <trkpt lat="45.541401794180274" lon="10.222292421385646">
        <ele>164.7233087251895</ele>
        <time>2017-11-13T16:38:06.697000Z</time>
      </trkpt>
      <trkpt lat="45.54140196181834" lon="10.222292505204678">
        <ele>164.7238401382595</ele>
        <time>2017-11-13T16:38:06.697000Z</time>
      </trkpt>
      <trkpt lat="45.54135569371283" lon="10.22226333618164">
        <ele>164.87516134328817</ele>
        <time>2017-11-13T16:38:06.778000Z</time>
      </trkpt>
      <trkpt lat="45.5413556098938" lon="10.22226333618164">
        <ele>164.8754121172261</ele>
        <time>2017-11-13T16:38:06.778000Z</time>
      </trkpt>
      <trkpt lat="45.54118403233588" lon="10.222177505493164">
        <ele>165.4193426572068</ele>
        <time>2017-11-13T16:38:07.069000Z</time>
      </trkpt>
      <trkpt lat="45.54116257466376" lon="10.222156047821045">
        <ele>165.4977210655317</ele>
        <time>2017-11-13T16:38:07.111000Z</time>
      </trkpt>
      <trkpt lat="45.54114111699164" lon="10.222156047821045">
        <ele>165.56191919364258</ele>
        <time>2017-11-13T16:38:07.145000Z</time>
      </trkpt>
      <trkpt lat="45.54111957550049" lon="10.222177505493164">
        <ele>165.6405031570598</ele>
        <time>2017-11-13T16:38:07.187000Z</time>
      </trkpt>
      <trkpt lat="45.54101228713989" lon="10.222241878509521">
        <ele>165.98868567492642</ele>
        <time>2017-11-13T16:38:07.374000Z</time>
      </trkpt>
      <trkpt lat="45.540969371795654" lon="10.222392082214355">
        <ele>166.32861697967235</ele>
        <time>2017-11-13T16:38:07.556000Z</time>
      </trkpt>
      <trkpt lat="45.54088362492621" lon="10.223207473754883">
        <ele>176.38161475988673</ele>
        <time>2017-11-13T16:38:08.482000Z</time>
      </trkpt>
      <trkpt lat="45.54088354110718" lon="10.223207473754883">
        <ele>176.3823481558741</ele>
        <time>2017-11-13T16:38:08.482000Z</time>
      </trkpt>
      <trkpt lat="45.54079779423773" lon="10.22428035736084">
        <ele>185.0</ele>
        <time>2017-11-13T16:38:09.694000Z</time>
      </trkpt>
      <trkpt lat="45.5407977104187" lon="10.22428035736084">
        <ele>185.0001626213968</ele>
        <time>2017-11-13T16:38:09.694000Z</time>
      </trkpt>
      <trkpt lat="45.54076727410949" lon="10.225152954113979">
        <ele>186.52072260559643</ele>
        <time>2017-11-13T16:38:10.675000Z</time>
      </trkpt>
      <trkpt lat="45.540767292403636" lon="10.225152429685396">
        <ele>186.52143612619457</ele>
        <time>2017-11-13T16:38:10.675000Z</time>
      </trkpt>
      <trkpt lat="45.5407639125549" lon="10.225249316796724">
        <ele>186.65325761393365</ele>
        <time>2017-11-13T16:38:10.784000Z</time>
      </trkpt>
      <trkpt lat="45.54076099768281" lon="10.22533287294209">
        <ele>186.76694143037466</ele>
        <time>2017-11-13T16:38:10.878000Z</time>
      </trkpt>
      <trkpt lat="45.54076108150184" lon="10.225332621484995">
        <ele>186.7673198550295</ele>
        <time>2017-11-13T16:38:10.878000Z</time>
      </trkpt>
      <trkpt lat="45.540733421221375" lon="10.226125717163086">
        <ele>187.5130469624504</ele>
        <time>2017-11-13T16:38:11.770000Z</time>
      </trkpt>
      <trkpt lat="45.54075479507446" lon="10.226318836212158">
        <ele>188.2191823295966</ele>
        <time>2017-11-13T16:38:11.990000Z</time>
      </trkpt>
      <trkpt lat="45.541000929130696" lon="10.226647014319035">
        <ele>196.28910162620159</ele>
        <time>2017-11-13T16:38:12.530000Z</time>
      </trkpt>
      <trkpt lat="45.54100100493818" lon="10.226647115396146">
        <ele>196.28963648357345</ele>
        <time>2017-11-13T16:38:12.530000Z</time>
      </trkpt>
      <trkpt lat="45.54105058663956" lon="10.226713224703014">
        <ele>195.97279200583912</ele>
        <time>2017-11-13T16:38:12.639000Z</time>
      </trkpt>
      <trkpt lat="45.54107666015625" lon="10.226747989654541">
        <ele>196.15675303712354</ele>
        <time>2017-11-13T16:38:12.696000Z</time>
      </trkpt>
      <trkpt lat="45.54109342396259" lon="10.22677380591631">
        <ele>196.28389868466695</ele>
        <time>2017-11-13T16:38:12.736000Z</time>
      </trkpt>
      <trkpt lat="45.54109325632453" lon="10.226773638278246">
        <ele>196.28495405992308</ele>
        <time>2017-11-13T16:38:12.736000Z</time>
      </trkpt>
      <trkpt lat="45.54202079772949" lon="10.228207111358643">
        <ele>204.0</ele>
        <time>2017-11-13T16:38:14.927000Z</time>
      </trkpt>
      <trkpt lat="45.54218583785687" lon="10.228505687304526">
        <ele>198.2404611255422</ele>
        <time>2017-11-13T16:38:15.354000Z</time>
      </trkpt>
      <trkpt lat="45.542185854213564" lon="10.228505716895796">
        <ele>198.24005549010292</ele>
        <time>2017-11-13T16:38:15.354000Z</time>
      </trkpt>
      <trkpt lat="45.54222793053451" lon="10.22858183814566">
        <ele>197.19659028709341</ele>
        <time>2017-11-13T16:38:15.463000Z</time>
      </trkpt>
      <trkpt lat="45.54226538166404" lon="10.228649592027068">
        <ele>196.26782561894865</ele>
        <time>2017-11-13T16:38:15.560000Z</time>
      </trkpt>
      <trkpt lat="45.542265214025974" lon="10.228649424389005">
        <ele>196.26479543159095</ele>
        <time>2017-11-13T16:38:15.560000Z</time>
      </trkpt>
      <trkpt lat="45.542471408843994" lon="10.22902250289917">
        <ele>191.33668457144844</ele>
        <time>2017-11-13T16:38:16.094000Z</time>
      </trkpt>
      <trkpt lat="45.54251432418823" lon="10.229344367980957">
        <ele>178.93915010567366</ele>
        <time>2017-11-13T16:38:16.462000Z</time>
      </trkpt>
      <trkpt lat="45.54249286651611" lon="10.230052471160889">
        <ele>181.66847998366993</ele>
        <time>2017-11-13T16:38:17.258000Z</time>
      </trkpt>
      <trkpt lat="45.542471492663026" lon="10.230159759521484">
        <ele>181.52096362689073</ele>
        <time>2017-11-13T16:38:17.383000Z</time>
      </trkpt>
      <trkpt lat="45.54245256402886" lon="10.230614049648164">
        <ele>180.91910637939054</ele>
        <time>2017-11-13T16:38:17.894000Z</time>
      </trkpt>
      <trkpt lat="45.54245258585688" lon="10.230613525797983">
        <ele>180.91975886067925</ele>
        <time>2017-11-13T16:38:17.894000Z</time>
      </trkpt>
      <trkpt lat="45.54245003499091" lon="10.230674743652344">
        <ele>180.99600872855126</ele>
        <time>2017-11-13T16:38:17.963000Z</time>
      </trkpt>
      <trkpt lat="45.542449951171875" lon="10.230674743652344">
        <ele>180.99615752831903</ele>
        <time>2017-11-13T16:38:17.963000Z</time>
      </trkpt>
      <trkpt lat="45.542437423652494" lon="10.230703958811725">
        <ele>181.03874953262024</ele>
        <time>2017-11-13T16:38:18.001000Z</time>
      </trkpt>
      <trkpt lat="45.542405527085066" lon="10.230778343975544">
        <ele>181.1471937850528</ele>
        <time>2017-11-13T16:38:18.099000Z</time>
      </trkpt>
      <trkpt lat="45.5424056109041" lon="10.230778260156512">
        <ele>181.1473754508496</ele>
        <time>2017-11-13T16:38:18.099000Z</time>
      </trkpt>
      <trkpt lat="45.54238566197455" lon="10.230824947357178">
        <ele>181.215374133003</ele>
        <time>2017-11-13T16:38:18.160000Z</time>
      </trkpt>
      <trkpt lat="45.54232128895819" lon="10.230696201324463">
        <ele>181.41205691560276</ele>
        <time>2017-11-13T16:38:18.338000Z</time>
      </trkpt>
      <trkpt lat="45.54232120513916" lon="10.230696201324463">
        <ele>181.41220571537053</ele>
        <time>2017-11-13T16:38:18.338000Z</time>
      </trkpt>
      <trkpt lat="45.54229020444152" lon="10.230386192670954">
        <ele>181.80156538349652</ele>
        <time>2017-11-13T16:38:18.690000Z</time>
      </trkpt>
      <trkpt lat="45.54229025639462" lon="10.230386712197513">
        <ele>181.80221789026533</ele>
        <time>2017-11-13T16:38:18.690000Z</time>
      </trkpt>
      <trkpt lat="45.542280652659024" lon="10.230290676088119">
        <ele>181.92283583825804</ele>
        <time>2017-11-13T16:38:18.799000Z</time>
      </trkpt>
      <trkpt lat="45.54227828979492" lon="10.23026704788208">
        <ele>181.95251203163616</ele>
        <time>2017-11-13T16:38:18.826000Z</time>
      </trkpt>
      <trkpt lat="45.54224803112447" lon="10.230221701785922">
        <ele>182.03038589337234</ele>
        <time>2017-11-13T16:38:18.896000Z</time>
      </trkpt>
      <trkpt lat="45.542248114943504" lon="10.230221869423985">
        <ele>182.0306419909663</ele>
        <time>2017-11-13T16:38:18.896000Z</time>
      </trkpt>
      <trkpt lat="45.542192459106445" lon="10.230138301849365">
        <ele>182.17402311162266</ele>
        <time>2017-11-13T16:38:19.025000Z</time>
      </trkpt>
      <trkpt lat="45.54210662841797" lon="10.230202674865723">
        <ele>182.34613676678245</ele>
        <time>2017-11-13T16:38:19.180000Z</time>
      </trkpt>
      <trkpt lat="45.54210637841206" lon="10.230206951743865">
        <ele>182.35147294885482</ele>
        <time>2017-11-13T16:38:19.185000Z</time>
      </trkpt>
      <trkpt lat="45.54210634846979" lon="10.230207463969194">
        <ele>182.35211204296493</ele>
        <time>2017-11-13T16:38:19.185000Z</time>
      </trkpt>
      <trkpt lat="45.542100727289316" lon="10.23030362537168">
        <ele>182.47209087178456</ele>
        <time>2017-11-13T16:38:19.293000Z</time>
      </trkpt>
      <trkpt lat="45.542095648124814" lon="10.230390513315797">
        <ele>182.5804993957711</ele>
        <time>2017-11-13T16:38:19.391000Z</time>
      </trkpt>
      <trkpt lat="45.542095648124814" lon="10.230390261858702">
        <ele>182.5808120471671</ele>
        <time>2017-11-13T16:38:19.391000Z</time>
      </trkpt>
      <trkpt lat="45.54208861880559" lon="10.230509142224204">
        <ele>182.7291488363177</ele>
        <time>2017-11-13T16:38:19.525000Z</time>
      </trkpt>
      <trkpt lat="45.542088605632486" lon="10.230509365006844">
        <ele>182.72942682052</ele>
        <time>2017-11-13T16:38:19.525000Z</time>
      </trkpt>
      <trkpt lat="45.54208517074585" lon="10.230567455291748">
        <ele>182.80191084798494</ele>
        <time>2017-11-13T16:38:19.590000Z</time>
      </trkpt>
      <trkpt lat="45.5420595102387" lon="10.230577689108383">
        <ele>182.76529011078046</ele>
        <time>2017-11-13T16:38:19.633000Z</time>
      </trkpt>
      <trkpt lat="45.54200026206672" lon="10.230601318180561">
        <ele>182.68073559897155</ele>
        <time>2017-11-13T16:38:19.732000Z</time>
      </trkpt>
      <trkpt lat="45.542000345885754" lon="10.230601318180561">
        <ele>182.68062038885856</ele>
        <time>2017-11-13T16:38:19.732000Z</time>
      </trkpt>
      <trkpt lat="45.541977882385254" lon="10.230610370635986">
        <ele>182.6485378000796</ele>
        <time>2017-11-13T16:38:19.769000Z</time>
      </trkpt>
      <trkpt lat="45.54195709284901" lon="10.230339953518351">
        <ele>181.4284559040997</ele>
        <time>2017-11-13T16:38:20.074000Z</time>
      </trkpt>
      <trkpt lat="45.541957132959105" lon="10.230340475236899">
        <ele>181.42610198701723</ele>
        <time>2017-11-13T16:38:20.074000Z</time>
      </trkpt>
      <trkpt lat="45.5419497192899" lon="10.230244044974237">
        <ele>180.99102278881398</ele>
        <time>2017-11-13T16:38:20.183000Z</time>
      </trkpt>
      <trkpt lat="45.54194309748709" lon="10.230157915502787">
        <ele>180.6024191550571</ele>
        <time>2017-11-13T16:38:20.280000Z</time>
      </trkpt>
      <trkpt lat="45.54194309748709" lon="10.230157999321818">
        <ele>180.6020432338603</ele>
        <time>2017-11-13T16:38:20.282000Z</time>
      </trkpt>
      <trkpt lat="45.541935294423304" lon="10.230056720355476">
        <ele>180.14507565485383</ele>
        <time>2017-11-13T16:38:20.396000Z</time>
      </trkpt>
      <trkpt lat="45.54193527380471" lon="10.23005645274045">
        <ele>180.14386818400837</ele>
        <time>2017-11-13T16:38:20.396000Z</time>
      </trkpt>
      <trkpt lat="45.541934967041016" lon="10.230052471160889">
        <ele>180.12590341814652</ele>
        <time>2017-11-13T16:38:20.401000Z</time>
      </trkpt>
      <trkpt lat="45.54189733779622" lon="10.22997721265729">
        <ele>182.71119129757957</ele>
        <time>2017-11-13T16:38:20.505000Z</time>
      </trkpt>
      <trkpt lat="45.54189205169678" lon="10.229966640472412">
        <ele>182.6529332202792</ele>
        <time>2017-11-13T16:38:20.520000Z</time>
      </trkpt>
      <trkpt lat="45.54184913635254" lon="10.23000955581665">
        <ele>179.31742662439396</ele>
        <time>2017-11-13T16:38:20.604000Z</time>
      </trkpt>
      <trkpt lat="45.54182015594929" lon="10.230205218314492">
        <ele>178.42048749677664</ele>
        <time>2017-11-13T16:38:20.829000Z</time>
      </trkpt>
      <trkpt lat="45.541820149660644" lon="10.230205260772403">
        <ele>178.42029286485706</ele>
        <time>2017-11-13T16:38:20.829000Z</time>
      </trkpt>
      <trkpt lat="45.54180609827903" lon="10.23030012842346">
        <ele>177.98540849276733</ele>
        <time>2017-11-13T16:38:20.938000Z</time>
      </trkpt>
      <trkpt lat="45.54179348051548" lon="10.23038531653583">
        <ele>177.5948960740078</ele>
        <time>2017-11-13T16:38:21.036000Z</time>
      </trkpt>
      <trkpt lat="45.54179356433451" lon="10.230385065078735">
        <ele>177.59364709825778</ele>
        <time>2017-11-13T16:38:21.036000Z</time>
      </trkpt>
      <trkpt lat="45.54176481153834" lon="10.230579306250469">
        <ele>176.70324528557967</ele>
        <time>2017-11-13T16:38:21.259000Z</time>
      </trkpt>
      <trkpt lat="45.541764804742556" lon="10.230579352159562">
        <ele>176.70303483818236</ele>
        <time>2017-11-13T16:38:21.259000Z</time>
      </trkpt>
      <trkpt lat="45.541763389483094" lon="10.230588912963867">
        <ele>176.65920808407324</ele>
        <time>2017-11-13T16:38:21.270000Z</time>
      </trkpt>
      <trkpt lat="45.54176330566406" lon="10.230588912963867">
        <ele>176.65867135048688</ele>
        <time>2017-11-13T16:38:21.270000Z</time>
      </trkpt>
      <trkpt lat="45.541703175488195" lon="10.230600026691373">
        <ele>176.27041609669573</ele>
        <time>2017-11-13T16:38:21.367000Z</time>
      </trkpt>
      <trkpt lat="45.541641768068075" lon="10.230611376464367">
        <ele>171.87391379628582</ele>
        <time>2017-11-13T16:38:21.466000Z</time>
      </trkpt>
      <trkpt lat="45.54164185188711" lon="10.230611376464367">
        <ele>171.87337706269946</ele>
        <time>2017-11-13T16:38:21.466000Z</time>
      </trkpt>
      <trkpt lat="45.5393385887146" lon="10.23103952407837">
        <ele>150.0</ele>
        <time>2017-11-13T16:38:25.190000Z</time>
      </trkpt>
      <trkpt lat="45.53910263814032" lon="10.231103897094727">
        <ele>148.46148795190194</ele>
        <time>2017-11-13T16:38:25.575000Z</time>
      </trkpt>
      <trkpt lat="45.538179874420166" lon="10.23127555847168">
        <ele>147.0</ele>
        <time>2017-11-13T16:38:27.067000Z</time>
      </trkpt>
      <trkpt lat="45.5381799582392" lon="10.23127555847168">
        <ele>147.00000805352167</ele>
        <time>2017-11-13T16:38:27.067000Z</time>
      </trkpt>
      <trkpt lat="45.537986755371094" lon="10.231297016143799">
        <ele>147.01862750593327</ele>
        <time>2017-11-13T16:38:27.378000Z</time>
      </trkpt>
      <trkpt lat="45.537986839190125" lon="10.231297016143799">
        <ele>147.01863555945494</ele>
        <time>2017-11-13T16:38:27.378000Z</time>
      </trkpt>
      <trkpt lat="45.53684949874878" lon="10.231297016143799">
        <ele>147.46124712829643</ele>
        <time>2017-11-13T16:38:29.201000Z</time>
      </trkpt>
      <trkpt lat="45.53662908637988" lon="10.231223545218013">
        <ele>146.33637494441686</ele>
        <time>2017-11-13T16:38:29.564000Z</time>
      </trkpt>
      <trkpt lat="45.536628599464684" lon="10.23122338291334">
        <ele>146.3353627181883</ele>
        <time>2017-11-13T16:38:29.564000Z</time>
      </trkpt>
      <trkpt lat="45.536562921832854" lon="10.231201490443533">
        <ele>146.19882842525345</ele>
        <time>2017-11-13T16:38:29.672000Z</time>
      </trkpt>
      <trkpt lat="45.53652763366699" lon="10.231189727783203">
        <ele>146.12546943931807</ele>
        <time>2017-11-13T16:38:29.730000Z</time>
      </trkpt>
      <trkpt lat="45.53650173358619" lon="10.231192326173186">
        <ele>146.07290782091056</ele>
        <time>2017-11-13T16:38:29.772000Z</time>
      </trkpt>
      <trkpt lat="45.53650164976716" lon="10.231192326173186">
        <ele>146.07293405559494</ele>
        <time>2017-11-13T16:38:29.772000Z</time>
      </trkpt>
      <trkpt lat="45.5363130569458" lon="10.231211185455322">
        <ele>146.13210672590307</ele>
        <time>2017-11-13T16:38:30.075000Z</time>
      </trkpt>
      <trkpt lat="45.536484718322754" lon="10.230889320373535">
        <ele>146.22079789074064</ele>
        <time>2017-11-13T16:38:30.529000Z</time>
      </trkpt>
      <trkpt lat="45.53649823867158" lon="10.230892686460889">
        <ele>146.22494744578304</ele>
        <time>2017-11-13T16:38:30.551000Z</time>
      </trkpt>
      <trkpt lat="45.53649860977822" lon="10.230892778853304">
        <ele>146.22506134280425</ele>
        <time>2017-11-13T16:38:30.552000Z</time>
      </trkpt>
      <trkpt lat="45.536565172595026" lon="10.230909350658068">
        <ele>146.24549025908883</ele>
        <time>2017-11-13T16:38:30.660000Z</time>
      </trkpt>
      <trkpt lat="45.536626456305385" lon="10.230924608185887">
        <ele>146.2642989558012</ele>
        <time>2017-11-13T16:38:30.760000Z</time>
      </trkpt>
      <trkpt lat="45.53662637248635" lon="10.230924608185887">
        <ele>146.26432429838925</ele>
        <time>2017-11-13T16:38:30.760000Z</time>
      </trkpt>
      <trkpt lat="45.536742210388184" lon="10.230953693389893">
        <ele>146.96655195859492</ele>
        <time>2017-11-13T16:38:30.949000Z</time>
      </trkpt>
      <trkpt lat="45.537235820665956" lon="10.230932235717773">
        <ele>147.11586362786636</ele>
        <time>2017-11-13T16:38:31.741000Z</time>
      </trkpt>
      <trkpt lat="45.53743455835321" lon="10.230932235717722">
        <ele>147.17595173949178</ele>
        <time>2017-11-13T16:38:32.060000Z</time>
      </trkpt>
      <trkpt lat="45.53743507622718" lon="10.230932235717722">
        <ele>147.1756742675837</ele>
        <time>2017-11-13T16:38:32.060000Z</time>
      </trkpt>
      <trkpt lat="45.537502502431884" lon="10.230932235717722">
        <ele>146.80621462029873</ele>
        <time>2017-11-13T16:38:32.168000Z</time>
      </trkpt>
      <trkpt lat="45.5375649780035" lon="10.230932235717773">
        <ele>146.77274080808346</ele>
        <time>2017-11-13T16:38:32.268000Z</time>
      </trkpt>
      <trkpt lat="45.53757905960083" lon="10.230932235717773">
        <ele>146.76519602325874</ele>
        <time>2017-11-13T16:38:32.291000Z</time>
      </trkpt>
      <trkpt lat="45.5377721786499" lon="10.229644775390625">
        <ele>145.60440479602937</ele>
        <time>2017-11-13T16:38:33.769000Z</time>
      </trkpt>
      <trkpt lat="45.53850173950195" lon="10.229709148406982">
        <ele>146.79467408320784</ele>
        <time>2017-11-13T16:38:34.941000Z</time>
      </trkpt>
      <trkpt lat="45.53865202702582" lon="10.22975206375122">
        <ele>147.18504001606343</ele>
        <time>2017-11-13T16:38:35.187000Z</time>
      </trkpt>
      <trkpt lat="45.53883393554411" lon="10.229784076943353">
        <ele>147.65187028514032</ele>
        <time>2017-11-13T16:38:35.481000Z</time>
      </trkpt>
      <trkpt lat="45.5388344288895" lon="10.229784163765066">
        <ele>147.6531363532364</ele>
        <time>2017-11-13T16:38:35.481000Z</time>
      </trkpt>
      <trkpt lat="45.53890136924884" lon="10.229795944324957">
        <ele>147.82492483126933</ele>
        <time>2017-11-13T16:38:35.589000Z</time>
      </trkpt>
      <trkpt lat="45.538977328687906" lon="10.229809312149882">
        <ele>148.01985890082867</ele>
        <time>2017-11-13T16:38:35.712000Z</time>
      </trkpt>
      <trkpt lat="45.538977244868875" lon="10.22980922833085">
        <ele>148.0201195484049</ele>
        <time>2017-11-13T16:38:35.712000Z</time>
      </trkpt>
      <trkpt lat="45.53901672363281" lon="10.229816436767578">
        <ele>148.12149151916728</ele>
        <time>2017-11-13T16:38:35.776000Z</time>
      </trkpt>
      <trkpt lat="45.53916701115668" lon="10.229172706604004">
        <ele>150.33201162525293</ele>
        <time>2017-11-13T16:38:36.538000Z</time>
      </trkpt>
      <trkpt lat="45.53931721486151" lon="10.228271484375">
        <ele>155.0101035196548</ele>
        <time>2017-11-13T16:38:37.578000Z</time>
      </trkpt>
      <trkpt lat="45.53942450322211" lon="10.227606296539307">
        <ele>156.67300146253223</ele>
        <time>2017-11-13T16:38:38.344000Z</time>
      </trkpt>
      <trkpt lat="45.53944596089423" lon="10.227091312408447">
        <ele>157.93487729183906</ele>
        <time>2017-11-13T16:38:38.923000Z</time>
      </trkpt>
      <trkpt lat="45.539445877075195" lon="10.227091312408447">
        <ele>157.9351700041493</ele>
        <time>2017-11-13T16:38:38.923000Z</time>
      </trkpt>
      <trkpt lat="45.539467418566346" lon="10.226318836212158">
        <ele>161.49280630363498</ele>
        <time>2017-11-13T16:38:39.791000Z</time>
      </trkpt>
      <trkpt lat="45.53944596089423" lon="10.22578239440918">
        <ele>163.8070782793479</ele>
        <time>2017-11-13T16:38:40.394000Z</time>
      </trkpt>
      <trkpt lat="45.539445877075195" lon="10.22578239440918">
        <ele>163.80717459499792</ele>
        <time>2017-11-13T16:38:40.394000Z</time>
      </trkpt>
      <trkpt lat="45.539467418566346" lon="10.225589275360107">
        <ele>163.96456394828976</ele>
        <time>2017-11-13T16:38:40.614000Z</time>
      </trkpt>
      <trkpt lat="45.539531791582704" lon="10.224881172180176">
        <ele>163.2831954973765</ele>
        <time>2017-11-13T16:38:41.416000Z</time>
      </trkpt>
      <trkpt lat="45.53953170776367" lon="10.224881172180176">
        <ele>163.28313716833168</ele>
        <time>2017-11-13T16:38:41.416000Z</time>
      </trkpt>
      <trkpt lat="45.53961753845215" lon="10.223958492279053">
        <ele>162.82946056832793</ele>
        <time>2017-11-13T16:38:42.461000Z</time>
      </trkpt>
      <trkpt lat="45.539724910631776" lon="10.223336219787598">
        <ele>162.36935979264413</ele>
        <time>2017-11-13T16:38:43.181000Z</time>
      </trkpt>
      <trkpt lat="45.53974647971285" lon="10.223131315317204">
        <ele>161.55393538192664</ele>
        <time>2017-11-13T16:38:43.414000Z</time>
      </trkpt>
      <trkpt lat="45.53974648096517" lon="10.223131303420198">
        <ele>161.55392674487027</ele>
        <time>2017-11-13T16:38:43.414000Z</time>
      </trkpt>
      <trkpt lat="45.53975657738503" lon="10.223035387024236">
        <ele>161.48429283185243</ele>
        <time>2017-11-13T16:38:43.523000Z</time>
      </trkpt>
      <trkpt lat="45.539767825976014" lon="10.222928524017334">
        <ele>161.40671186820953</ele>
        <time>2017-11-13T16:38:43.644000Z</time>
      </trkpt>
      <trkpt lat="45.53976774215698" lon="10.222928524017334">
        <ele>161.4066259538541</ele>
        <time>2017-11-13T16:38:43.644000Z</time>
      </trkpt>
      <trkpt lat="45.539767825976014" lon="10.222928524016334">
        <ele>161.40654003949868</ele>
        <time>2017-11-13T16:38:43.644000Z</time>
      </trkpt>
      <trkpt lat="45.53938158787787" lon="10.22279977798462">
        <ele>161.0</ele>
        <time>2017-11-13T16:38:44.280000Z</time>
      </trkpt>
      <trkpt lat="45.539252841845155" lon="10.2227783203125">
        <ele>160.94685508107082</ele>
        <time>2017-11-13T16:38:44.488000Z</time>
      </trkpt>
      <trkpt lat="45.5387806892395" lon="10.222628116607666">
        <ele>160.08185613365956</ele>
        <time>2017-11-13T16:38:45.263000Z</time>
      </trkpt>
      <trkpt lat="45.538780773058534" lon="10.222628116607666">
        <ele>160.08182176747263</ele>
        <time>2017-11-13T16:38:45.263000Z</time>
      </trkpt>
      <trkpt lat="45.537772262468934" lon="10.222349166870117">
        <ele>160.99397219205568</ele>
        <time>2017-11-13T16:38:46.910000Z</time>
      </trkpt>
      <trkpt lat="45.537750804796815" lon="10.222349166870117">
        <ele>160.90574958483862</ele>
        <time>2017-11-13T16:38:46.944000Z</time>
      </trkpt>
      <trkpt lat="45.53770788945258" lon="10.222349166870117">
        <ele>160.72930437040444</ele>
        <time>2017-11-13T16:38:47.013000Z</time>
      </trkpt>
      <trkpt lat="45.537428855895996" lon="10.22226333618164">
        <ele>156.88907304525222</ele>
        <time>2017-11-13T16:38:47.471000Z</time>
      </trkpt>
      <trkpt lat="45.536978328600526" lon="10.222134590148926">
        <ele>155.0</ele>
        <time>2017-11-13T16:38:48.208000Z</time>
      </trkpt>
      <trkpt lat="45.5367350292009" lon="10.222080523476611">
        <ele>154.934078571002</ele>
        <time>2017-11-13T16:38:48.603000Z</time>
      </trkpt>
      <trkpt lat="45.53673450107681" lon="10.222080406115873">
        <ele>154.93393547697275</ele>
        <time>2017-11-13T16:38:48.603000Z</time>
      </trkpt>
      <trkpt lat="45.536667893518036" lon="10.222065604480928">
        <ele>154.91588830955018</ele>
        <time>2017-11-13T16:38:48.711000Z</time>
      </trkpt>
      <trkpt lat="45.53659209050238" lon="10.22204875946045">
        <ele>154.22868298780267</ele>
        <time>2017-11-13T16:38:48.834000Z</time>
      </trkpt>
      <trkpt lat="45.53659200668335" lon="10.22204875946045">
        <ele>154.22866054744875</ele>
        <time>2017-11-13T16:38:48.834000Z</time>
      </trkpt>
      <trkpt lat="45.53659209050238" lon="10.22204875945945">
        <ele>154.22863810709484</ele>
        <time>2017-11-13T16:38:48.834000Z</time>
      </trkpt>
      <trkpt lat="45.53659200668335" lon="10.22204875946145">
        <ele>154.22861566674092</ele>
        <time>2017-11-13T16:38:48.834000Z</time>
      </trkpt>
      <trkpt lat="45.536441802978516" lon="10.222005844116211">
        <ele>154.18760514927553</ele>
        <time>2017-11-13T16:38:49.080000Z</time>
      </trkpt>
      <trkpt lat="45.53657063283026" lon="10.220975875854492">
        <ele>153.6580670608721</ele>
        <time>2017-11-13T16:38:50.255000Z</time>
      </trkpt>
      <trkpt lat="45.536720752716064" lon="10.220503807067871">
        <ele>156.44140735077215</ele>
        <time>2017-11-13T16:38:50.837000Z</time>
      </trkpt>
      <trkpt lat="45.536720836535096" lon="10.220503807067871">
        <ele>156.44158815772224</ele>
        <time>2017-11-13T16:38:50.837000Z</time>
      </trkpt>
      <trkpt lat="45.536877617247484" lon="10.220137985957685">
        <ele>157.0895798174004</ele>
        <time>2017-11-13T16:38:51.319000Z</time>
      </trkpt>
      <trkpt lat="45.536877425366754" lon="10.22013843368167">
        <ele>157.08981049086918</ele>
        <time>2017-11-13T16:38:51.319000Z</time>
      </trkpt>
      <trkpt lat="45.53691288590507" lon="10.220055691891162">
        <ele>157.1324401479732</ele>
        <time>2017-11-13T16:38:51.428000Z</time>
      </trkpt>
      <trkpt lat="45.53691395558417" lon="10.22005319595337">
        <ele>157.13372608735588</ele>
        <time>2017-11-13T16:38:51.431000Z</time>
      </trkpt>
      <trkpt lat="45.536956787109375" lon="10.219967365264893">
        <ele>156.1800405674105</ele>
        <time>2017-11-13T16:38:51.549000Z</time>
      </trkpt>
      <trkpt lat="45.537064159289" lon="10.219988822937012">
        <ele>156.24806510609324</ele>
        <time>2017-11-13T16:38:51.723000Z</time>
      </trkpt>
      <trkpt lat="45.53736456669867" lon="10.22003173828125">
        <ele>157.4374887644066</ele>
        <time>2017-11-13T16:38:52.207000Z</time>
      </trkpt>
      <trkpt lat="45.53740748204291" lon="10.22005319595337">
        <ele>157.3240425500097</ele>
        <time>2017-11-13T16:38:52.280000Z</time>
      </trkpt>
      <trkpt lat="45.537520852322615" lon="10.220069391696981">
        <ele>157.70644851777772</ele>
        <time>2017-11-13T16:38:52.463000Z</time>
      </trkpt>
      <trkpt lat="45.53752129997438" lon="10.2200694556473">
        <ele>157.7053260912836</ele>
        <time>2017-11-13T16:38:52.463000Z</time>
      </trkpt>
      <trkpt lat="45.53755768574774" lon="10.220074653625488">
        <ele>157.61409366598193</ele>
        <time>2017-11-13T16:38:52.522000Z</time>
      </trkpt>
      <trkpt lat="45.53758697094569" lon="10.220059982375462">
        <ele>157.5366620481781</ele>
        <time>2017-11-13T16:38:52.572000Z</time>
      </trkpt>
      <trkpt lat="45.53760051727295" lon="10.22005319595337">
        <ele>157.50084483765696</ele>
        <time>2017-11-13T16:38:52.595000Z</time>
      </trkpt>
      <trkpt lat="45.53764343261719" lon="10.219988822937012">
        <ele>156.67887579034837</ele>
        <time>2017-11-13T16:38:52.695000Z</time>
      </trkpt>
      <trkpt lat="45.537729347124696" lon="10.21951675415039">
        <ele>155.82652872872526</ele>
        <time>2017-11-13T16:38:53.243000Z</time>
      </trkpt>
      <trkpt lat="45.537729263305664" lon="10.21951675415039">
        <ele>155.82631960811352</ele>
        <time>2017-11-13T16:38:53.243000Z</time>
      </trkpt>
      <trkpt lat="45.53775072097778" lon="10.219366550445557">
        <ele>155.5584304410373</ele>
        <time>2017-11-13T16:38:53.415000Z</time>
      </trkpt>
      <trkpt lat="45.53776669108742" lon="10.21924677547266">
        <ele>155.3453615869132</ele>
        <time>2017-11-13T16:38:53.552000Z</time>
      </trkpt>
      <trkpt lat="45.53776672096084" lon="10.219246551422582">
        <ele>155.3449630221329</ele>
        <time>2017-11-13T16:38:53.552000Z</time>
      </trkpt>
      <trkpt lat="45.53777939656181" lon="10.219151484371407">
        <ele>153.50918074306293</ele>
        <time>2017-11-13T16:38:53.661000Z</time>
      </trkpt>
      <trkpt lat="45.53779363632202" lon="10.21904468536377">
        <ele>153.31919514375844</ele>
        <time>2017-11-13T16:38:53.783000Z</time>
      </trkpt>
      <trkpt lat="45.53779363632202" lon="10.218980312347412">
        <ele>153.20670145605303</ele>
        <time>2017-11-13T16:38:53.855000Z</time>
      </trkpt>
      <trkpt lat="45.537471855059266" lon="10.218937397003174">
        <ele>152.0670587781071</ele>
        <time>2017-11-13T16:38:54.373000Z</time>
      </trkpt>
      <trkpt lat="45.53740748204291" lon="10.218915939331055">
        <ele>151.97655899415648</ele>
        <time>2017-11-13T16:38:54.479000Z</time>
      </trkpt>
      <trkpt lat="45.53710707463324" lon="10.218873023986816">
        <ele>151.7115991242548</ele>
        <time>2017-11-13T16:38:54.963000Z</time>
      </trkpt>
      <trkpt lat="45.53691395558417" lon="10.218830108642578">
        <ele>151.54007326828213</ele>
        <time>2017-11-13T16:38:55.276000Z</time>
      </trkpt>
      <trkpt lat="45.53680030809332" lon="10.218818153486174">
        <ele>151.44006367671304</ele>
        <time>2017-11-13T16:38:55.459000Z</time>
      </trkpt>
      <trkpt lat="45.53679985771707" lon="10.218818106108936">
        <ele>151.43966734641427</ele>
        <time>2017-11-13T16:38:55.459000Z</time>
      </trkpt>
      <trkpt lat="45.53673254763385" lon="10.218811025442484">
        <ele>151.38043459250164</ele>
        <time>2017-11-13T16:38:55.567000Z</time>
      </trkpt>
      <trkpt lat="45.536655792966485" lon="10.218802951276302">
        <ele>151.31289062173354</ele>
        <time>2017-11-13T16:38:55.690000Z</time>
      </trkpt>
      <trkpt lat="45.53665596060455" lon="10.218802951276302">
        <ele>151.31274349938064</ele>
        <time>2017-11-13T16:38:55.690000Z</time>
      </trkpt>
      <trkpt lat="45.536506259813905" lon="10.21878719329834">
        <ele>151.1810066032834</ele>
        <time>2017-11-13T16:38:55.931000Z</time>
      </trkpt>
      <trkpt lat="45.53560495376587" lon="10.218636989593506">
        <ele>149.71796552877788</ele>
        <time>2017-11-13T16:38:57.386000Z</time>
      </trkpt>
      <trkpt lat="45.53554058074951" lon="10.21855115890503">
        <ele>149.6077325250432</ele>
        <time>2017-11-13T16:38:57.527000Z</time>
      </trkpt>
      <trkpt lat="45.534320025588165" lon="10.217979015132366">
        <ele>147.0</ele>
        <time>2017-11-13T16:38:59.587000Z</time>
      </trkpt>
      <trkpt lat="45.534319147699016" lon="10.217978603625076">
        <ele>146.9994781926403</ele>
        <time>2017-11-13T16:38:59.589000Z</time>
      </trkpt>
      <trkpt lat="45.53425547220678" lon="10.217948756011847">
        <ele>146.96163020235932</ele>
        <time>2017-11-13T16:38:59.696000Z</time>
      </trkpt>
      <trkpt lat="45.53418179042637" lon="10.217914218083024">
        <ele>146.91783459329045</ele>
        <time>2017-11-13T16:38:59.820000Z</time>
      </trkpt>
      <trkpt lat="45.53416728973389" lon="10.217907428741455">
        <ele>146.90921650639</ele>
        <time>2017-11-13T16:38:59.844000Z</time>
      </trkpt>
      <trkpt lat="45.53416737355292" lon="10.217907428741455">
        <ele>146.90916917164887</ele>
        <time>2017-11-13T16:38:59.844000Z</time>
      </trkpt>
      <trkpt lat="45.53416728973389" lon="10.217907428742455">
        <ele>146.90912183690776</ele>
        <time>2017-11-13T16:38:59.844000Z</time>
      </trkpt>
      <trkpt lat="45.533738220110536" lon="10.217885971069336">
        <ele>146.33333333333334</ele>
        <time>2017-11-13T16:39:00.532000Z</time>
      </trkpt>
      <trkpt lat="45.53360939025879" lon="10.217907428741455">
        <ele>146.37430744234396</ele>
        <time>2017-11-13T16:39:00.740000Z</time>
      </trkpt>
      <trkpt lat="45.532912678127424" lon="10.21767519070053">
        <ele>146.93365633149827</ele>
        <time>2017-11-13T16:39:01.887000Z</time>
      </trkpt>
      <trkpt lat="45.532911912465885" lon="10.217674935482544">
        <ele>146.93336843410515</ele>
        <time>2017-11-13T16:39:01.888000Z</time>
      </trkpt>
      <trkpt lat="45.532846513862125" lon="10.217653136189757">
        <ele>146.90877781993072</ele>
        <time>2017-11-13T16:39:01.996000Z</time>
      </trkpt>
      <trkpt lat="45.53275619633496" lon="10.217623030766845">
        <ele>146.87481741108064</ele>
        <time>2017-11-13T16:39:02.145000Z</time>
      </trkpt>
      <trkpt lat="45.532708168029785" lon="10.217607021331787">
        <ele>146.85675821215906</ele>
        <time>2017-11-13T16:39:02.224000Z</time>
      </trkpt>
      <trkpt lat="45.532751167193055" lon="10.217478275299072">
        <ele>146.04559456402743</ele>
        <time>2017-11-13T16:39:02.384000Z</time>
      </trkpt>
      <trkpt lat="45.53275108337402" lon="10.217478275299072">
        <ele>146.045473342449</ele>
        <time>2017-11-13T16:39:02.384000Z</time>
      </trkpt>
      <trkpt lat="45.533030116930604" lon="10.216319561004639">
        <ele>144.47084066037507</ele>
        <time>2017-11-13T16:39:03.760000Z</time>
      </trkpt>
      <trkpt lat="45.533257495137114" lon="10.215244683282886">
        <ele>143.0</ele>
        <time>2017-11-13T16:39:05.021000Z</time>
      </trkpt>
      <trkpt lat="45.53325738885197" lon="10.215245185734295">
        <ele>143.00022314853163</ele>
        <time>2017-11-13T16:39:05.021000Z</time>
      </trkpt>
      <trkpt lat="45.533266151323915" lon="10.215203762054443">
        <ele>143.01862021324152</ele>
        <time>2017-11-13T16:39:05.070000Z</time>
      </trkpt>
      <trkpt lat="45.5332781775981" lon="10.21515565708792">
        <ele>143.04033587602177</ele>
        <time>2017-11-13T16:39:05.127000Z</time>
      </trkpt>
      <trkpt lat="45.53330906666815" lon="10.21503210067749">
        <ele>143.0961119650594</ele>
        <time>2017-11-13T16:39:05.274000Z</time>
      </trkpt>
      <trkpt lat="45.53330898284912" lon="10.21503210067749">
        <ele>143.09616283805488</ele>
        <time>2017-11-13T16:39:05.274000Z</time>
      </trkpt>
      <trkpt lat="45.53330906666815" lon="10.21503210067649">
        <ele>143.09621371105038</ele>
        <time>2017-11-13T16:39:05.274000Z</time>
      </trkpt>
      <trkpt lat="45.53345927037299" lon="10.214388370513916">
        <ele>144.05135014814553</ele>
        <time>2017-11-13T16:39:06.036000Z</time>
      </trkpt>
      <trkpt lat="45.533502185717225" lon="10.214195251464844">
        <ele>144.13748830401752</ele>
        <time>2017-11-13T16:39:06.264000Z</time>
      </trkpt>
      <trkpt lat="45.533602222598425" lon="10.213757304430478">
        <ele>144.33333333333334</ele>
        <time>2017-11-13T16:39:06.781000Z</time>
      </trkpt>
      <trkpt lat="45.53360210865063" lon="10.213757803282515">
        <ele>144.33309633849402</ele>
        <time>2017-11-13T16:39:06.781000Z</time>
      </trkpt>
      <trkpt lat="45.533623172566216" lon="10.213665587368697">
        <ele>144.28928638653932</ele>
        <time>2017-11-13T16:39:06.890000Z</time>
      </trkpt>
      <trkpt lat="45.53365146741271" lon="10.213541714474559">
        <ele>144.23043688608496</ele>
        <time>2017-11-13T16:39:07.036000Z</time>
      </trkpt>
      <trkpt lat="45.53365138359368" lon="10.213541882112622">
        <ele>144.2303438584811</ele>
        <time>2017-11-13T16:39:07.036000Z</time>
      </trkpt>
      <trkpt lat="45.53367384709418" lon="10.213444232940674">
        <ele>144.18392092088456</ele>
        <time>2017-11-13T16:39:07.151000Z</time>
      </trkpt>
      <trkpt lat="45.53367376327515" lon="10.213444232941674">
        <ele>144.18386687475405</ele>
        <time>2017-11-13T16:39:07.151000Z</time>
      </trkpt>
      <trkpt lat="45.5338454246521" lon="10.212628841400146">
        <ele>143.13263774659126</ele>
        <time>2017-11-13T16:39:08.107000Z</time>
      </trkpt>
      <trkpt lat="45.533781135454774" lon="10.212349891662598">
        <ele>143.0</ele>
        <time>2017-11-13T16:39:08.437000Z</time>
      </trkpt>
      <trkpt lat="45.53378105163574" lon="10.212349891662598">
        <ele>143.00013056552703</ele>
        <time>2017-11-13T16:39:08.437000Z</time>
      </trkpt>
      <trkpt lat="45.53371676243842" lon="10.212178230285645">
        <ele>143.2125303350953</ele>
        <time>2017-11-13T16:39:08.656000Z</time>
      </trkpt>
      <trkpt lat="45.53365238942206" lon="10.21202802658081">
        <ele>143.40466796883936</ele>
        <time>2017-11-13T16:39:08.854000Z</time>
      </trkpt>
      <trkpt lat="45.53354510106146" lon="10.212092399597168">
        <ele>143.58595291632506</ele>
        <time>2017-11-13T16:39:09.041000Z</time>
      </trkpt>
      <trkpt lat="45.533502185717225" lon="10.212113857269287">
        <ele>143.6567841798866</ele>
        <time>2017-11-13T16:39:09.114000Z</time>
      </trkpt>
      <trkpt lat="45.53345927037299" lon="10.212156772613525">
        <ele>143.73840334426777</ele>
        <time>2017-11-13T16:39:09.198000Z</time>
      </trkpt>
      <trkpt lat="45.533223235979676" lon="10.21228551864624">
        <ele>143.79866711685614</ele>
        <time>2017-11-13T16:39:09.603000Z</time>
      </trkpt>
      <trkpt lat="45.53320177830756" lon="10.212349891662598">
        <ele>143.87645605268986</ele>
        <time>2017-11-13T16:39:09.683000Z</time>
      </trkpt>
      <trkpt lat="45.53313732147217" lon="10.212435722351074">
        <ele>144.01376062340864</ele>
        <time>2017-11-13T16:39:09.824000Z</time>
      </trkpt>
      <trkpt lat="45.53311594761908" lon="10.21254301071167">
        <ele>145.468806044109</ele>
        <time>2017-11-13T16:39:09.949000Z</time>
      </trkpt>
      <trkpt lat="45.533001269261476" lon="10.213001469734909">
        <ele>146.0</ele>
        <time>2017-11-13T16:39:10.496000Z</time>
      </trkpt>
    </trkseg>
  </trk>
</gpx>